<?xml version="1.0" encoding="UTF-8" standalone="no" ?>
<gpx xmlns="http://www.topografix.com/GPX/1/1" xmlns:xsi="http://www.w3.org/2001/XMLSchema-instance" xsi:schemaLocation="http://www.topografix.com/GPX/1/1 http://www.topografix.com/GPX/1/1/gpx.xsd" version="1.1" creator="VisuGPX - https://www.visugpx.com">
  <metadata>
    <name>Arbir0816</name>
    <desc><![CDATA[avec Erwann, Gauvain et Rudy]]></desc>
  </metadata>
  <trk>
    <name><![CDATA[Tracé actuel: 23 AOU 2016 11:30]]></name>
    <trkseg>
      <trkpt lat="47.58816" lon="-3.02565">
        <ele>11.19</ele>
        <time>2016-08-23T09:30:29Z</time>
      </trkpt>
      <trkpt lat="47.58824" lon="-3.02568">
        <ele>9.75</ele>
        <time>2016-08-23T09:30:43Z</time>
      </trkpt>
      <trkpt lat="47.58822" lon="-3.02573">
        <ele>9.75</ele>
        <time>2016-08-23T09:31:01Z</time>
      </trkpt>
      <trkpt lat="47.58824" lon="-3.02572">
        <ele>8.31</ele>
        <time>2016-08-23T09:31:17Z</time>
      </trkpt>
      <trkpt lat="47.58826" lon="-3.02568">
        <ele>8.31</ele>
        <time>2016-08-23T09:31:32Z</time>
      </trkpt>
      <trkpt lat="47.58825" lon="-3.02569">
        <ele>8.79</ele>
        <time>2016-08-23T09:31:59Z</time>
      </trkpt>
      <trkpt lat="47.58824" lon="-3.02569">
        <ele>8.31</ele>
        <time>2016-08-23T09:32:27Z</time>
      </trkpt>
      <trkpt lat="47.58823" lon="-3.02567">
        <ele>7.35</ele>
        <time>2016-08-23T09:32:54Z</time>
      </trkpt>
      <trkpt lat="47.58812" lon="-3.02558">
        <ele>7.35</ele>
        <time>2016-08-23T09:33:21Z</time>
      </trkpt>
      <trkpt lat="47.58813" lon="-3.02557">
        <ele>6.87</ele>
        <time>2016-08-23T09:33:49Z</time>
      </trkpt>
      <trkpt lat="47.58823" lon="-3.02533">
        <ele>7.35</ele>
        <time>2016-08-23T09:34:16Z</time>
      </trkpt>
      <trkpt lat="47.58828" lon="-3.02508">
        <ele>8.79</ele>
        <time>2016-08-23T09:34:35Z</time>
      </trkpt>
      <trkpt lat="47.58838" lon="-3.02467">
        <ele>7.83</ele>
        <time>2016-08-23T09:35:02Z</time>
      </trkpt>
      <trkpt lat="47.58828" lon="-3.02436">
        <ele>6.87</ele>
        <time>2016-08-23T09:35:25Z</time>
      </trkpt>
      <trkpt lat="47.58805" lon="-3.02415">
        <ele>5.91</ele>
        <time>2016-08-23T09:35:49Z</time>
      </trkpt>
      <trkpt lat="47.58772" lon="-3.02401">
        <ele>5.42</ele>
        <time>2016-08-23T09:36:16Z</time>
      </trkpt>
      <trkpt lat="47.58741" lon="-3.02384">
        <ele>4.94</ele>
        <time>2016-08-23T09:36:42Z</time>
      </trkpt>
      <trkpt lat="47.58708" lon="-3.02371">
        <ele>4.46</ele>
        <time>2016-08-23T09:37:08Z</time>
      </trkpt>
      <trkpt lat="47.58678" lon="-3.02357">
        <ele>3.98</ele>
        <time>2016-08-23T09:37:34Z</time>
      </trkpt>
      <trkpt lat="47.58649" lon="-3.02346">
        <ele>3.5</ele>
        <time>2016-08-23T09:37:58Z</time>
      </trkpt>
      <trkpt lat="47.58616" lon="-3.02327">
        <ele>3.5</ele>
        <time>2016-08-23T09:38:20Z</time>
      </trkpt>
      <trkpt lat="47.58584" lon="-3.02304">
        <ele>4.94</ele>
        <time>2016-08-23T09:38:45Z</time>
      </trkpt>
      <trkpt lat="47.58543" lon="-3.02275">
        <ele>2.54</ele>
        <time>2016-08-23T09:39:09Z</time>
      </trkpt>
      <trkpt lat="47.58507" lon="-3.02244">
        <ele>1.58</ele>
        <time>2016-08-23T09:39:30Z</time>
      </trkpt>
      <trkpt lat="47.58469" lon="-3.0222">
        <ele>3.5</ele>
        <time>2016-08-23T09:39:51Z</time>
      </trkpt>
      <trkpt lat="47.58421" lon="-3.02193">
        <ele>2.06</ele>
        <time>2016-08-23T09:40:17Z</time>
      </trkpt>
      <trkpt lat="47.58381" lon="-3.0215">
        <ele>2.54</ele>
        <time>2016-08-23T09:40:43Z</time>
      </trkpt>
      <trkpt lat="47.58353" lon="-3.02095">
        <ele>3.98</ele>
        <time>2016-08-23T09:41:08Z</time>
      </trkpt>
      <trkpt lat="47.58327" lon="-3.02036">
        <ele>4.94</ele>
        <time>2016-08-23T09:41:32Z</time>
      </trkpt>
      <trkpt lat="47.58296" lon="-3.01971">
        <ele>3.98</ele>
        <time>2016-08-23T09:42:00Z</time>
      </trkpt>
      <trkpt lat="47.58273" lon="-3.01919">
        <ele>2.54</ele>
        <time>2016-08-23T09:42:24Z</time>
      </trkpt>
      <trkpt lat="47.58252" lon="-3.0186">
        <ele>3.02</ele>
        <time>2016-08-23T09:42:49Z</time>
      </trkpt>
      <trkpt lat="47.58223" lon="-3.01802">
        <ele>-1.79</ele>
        <time>2016-08-23T09:43:15Z</time>
      </trkpt>
      <trkpt lat="47.58205" lon="-3.01761">
        <ele>-1.3</ele>
        <time>2016-08-23T09:43:35Z</time>
      </trkpt>
      <trkpt lat="47.58184" lon="-3.01728">
        <ele>1.1</ele>
        <time>2016-08-23T09:43:54Z</time>
      </trkpt>
      <trkpt lat="47.58156" lon="-3.01683">
        <ele>2.06</ele>
        <time>2016-08-23T09:44:18Z</time>
      </trkpt>
      <trkpt lat="47.58128" lon="-3.01647">
        <ele>2.06</ele>
        <time>2016-08-23T09:44:39Z</time>
      </trkpt>
      <trkpt lat="47.58087" lon="-3.01606">
        <ele>3.98</ele>
        <time>2016-08-23T09:45:07Z</time>
      </trkpt>
      <trkpt lat="47.58044" lon="-3.01564">
        <ele>3.02</ele>
        <time>2016-08-23T09:45:36Z</time>
      </trkpt>
      <trkpt lat="47.58011" lon="-3.01539">
        <ele>2.06</ele>
        <time>2016-08-23T09:45:57Z</time>
      </trkpt>
      <trkpt lat="47.57975" lon="-3.01512">
        <ele>3.02</ele>
        <time>2016-08-23T09:46:20Z</time>
      </trkpt>
      <trkpt lat="47.5793" lon="-3.0149">
        <ele>3.02</ele>
        <time>2016-08-23T09:46:45Z</time>
      </trkpt>
      <trkpt lat="47.57887" lon="-3.01471">
        <ele>4.46</ele>
        <time>2016-08-23T09:47:10Z</time>
      </trkpt>
      <trkpt lat="47.57846" lon="-3.01443">
        <ele>3.98</ele>
        <time>2016-08-23T09:47:35Z</time>
      </trkpt>
      <trkpt lat="47.57811" lon="-3.01431">
        <ele>3.02</ele>
        <time>2016-08-23T09:47:56Z</time>
      </trkpt>
      <trkpt lat="47.57761" lon="-3.01417">
        <ele>2.06</ele>
        <time>2016-08-23T09:48:25Z</time>
      </trkpt>
      <trkpt lat="47.5772" lon="-3.01408">
        <ele>1.1</ele>
        <time>2016-08-23T09:48:48Z</time>
      </trkpt>
      <trkpt lat="47.5768" lon="-3.01402">
        <ele>1.1</ele>
        <time>2016-08-23T09:49:10Z</time>
      </trkpt>
      <trkpt lat="47.57629" lon="-3.01402">
        <ele>1.1</ele>
        <time>2016-08-23T09:49:37Z</time>
      </trkpt>
      <trkpt lat="47.57584" lon="-3.01404">
        <ele>1.1</ele>
        <time>2016-08-23T09:50:01Z</time>
      </trkpt>
      <trkpt lat="47.57538" lon="-3.01405">
        <ele>1.1</ele>
        <time>2016-08-23T09:50:27Z</time>
      </trkpt>
      <trkpt lat="47.57494" lon="-3.01415">
        <ele>0.62</ele>
        <time>2016-08-23T09:50:52Z</time>
      </trkpt>
      <trkpt lat="47.57461" lon="-3.01412">
        <ele>0.62</ele>
        <time>2016-08-23T09:51:12Z</time>
      </trkpt>
      <trkpt lat="47.57427" lon="-3.01394">
        <ele>1.58</ele>
        <time>2016-08-23T09:51:34Z</time>
      </trkpt>
      <trkpt lat="47.57387" lon="-3.01371">
        <ele>1.58</ele>
        <time>2016-08-23T09:52:00Z</time>
      </trkpt>
      <trkpt lat="47.57352" lon="-3.01353">
        <ele>0.62</ele>
        <time>2016-08-23T09:52:23Z</time>
      </trkpt>
      <trkpt lat="47.57318" lon="-3.01323">
        <ele>1.1</ele>
        <time>2016-08-23T09:52:46Z</time>
      </trkpt>
      <trkpt lat="47.57278" lon="-3.01298">
        <ele>1.58</ele>
        <time>2016-08-23T09:53:11Z</time>
      </trkpt>
      <trkpt lat="47.57239" lon="-3.01285">
        <ele>2.06</ele>
        <time>2016-08-23T09:53:35Z</time>
      </trkpt>
      <trkpt lat="47.57197" lon="-3.01282">
        <ele>0.62</ele>
        <time>2016-08-23T09:54:00Z</time>
      </trkpt>
      <trkpt lat="47.57152" lon="-3.01283">
        <ele>0.62</ele>
        <time>2016-08-23T09:54:26Z</time>
      </trkpt>
      <trkpt lat="47.57115" lon="-3.01259">
        <ele>2.06</ele>
        <time>2016-08-23T09:54:50Z</time>
      </trkpt>
      <trkpt lat="47.5708" lon="-3.01231">
        <ele>1.58</ele>
        <time>2016-08-23T09:55:15Z</time>
      </trkpt>
      <trkpt lat="47.5706" lon="-3.01192">
        <ele>0.62</ele>
        <time>2016-08-23T09:55:37Z</time>
      </trkpt>
      <trkpt lat="47.57035" lon="-3.01153">
        <ele>1.58</ele>
        <time>2016-08-23T09:55:59Z</time>
      </trkpt>
      <trkpt lat="47.57008" lon="-3.01108">
        <ele>2.06</ele>
        <time>2016-08-23T09:56:24Z</time>
      </trkpt>
      <trkpt lat="47.56995" lon="-3.01076">
        <ele>1.1</ele>
        <time>2016-08-23T09:56:41Z</time>
      </trkpt>
      <trkpt lat="47.56977" lon="-3.01043">
        <ele>0.14</ele>
        <time>2016-08-23T09:57:00Z</time>
      </trkpt>
      <trkpt lat="47.56949" lon="-3.01011">
        <ele>1.58</ele>
        <time>2016-08-23T09:57:22Z</time>
      </trkpt>
      <trkpt lat="47.56921" lon="-3.00989">
        <ele>1.1</ele>
        <time>2016-08-23T09:57:41Z</time>
      </trkpt>
      <trkpt lat="47.56903" lon="-3.00976">
        <ele>1.1</ele>
        <time>2016-08-23T09:58:00Z</time>
      </trkpt>
      <trkpt lat="47.56895" lon="-3.00965">
        <ele>1.1</ele>
        <time>2016-08-23T09:58:20Z</time>
      </trkpt>
      <trkpt lat="47.56901" lon="-3.00955">
        <ele>1.58</ele>
        <time>2016-08-23T09:58:36Z</time>
      </trkpt>
      <trkpt lat="47.56909" lon="-3.00949">
        <ele>0.14</ele>
        <time>2016-08-23T09:58:50Z</time>
      </trkpt>
      <trkpt lat="47.56913" lon="-3.0093">
        <ele>0.14</ele>
        <time>2016-08-23T09:59:03Z</time>
      </trkpt>
      <trkpt lat="47.56901" lon="-3.00915">
        <ele>0.62</ele>
        <time>2016-08-23T09:59:23Z</time>
      </trkpt>
      <trkpt lat="47.56899" lon="-3.00915">
        <ele>0.62</ele>
        <time>2016-08-23T09:59:25Z</time>
      </trkpt>
      <trkpt lat="47.56879" lon="-3.00905">
        <ele>-0.34</ele>
        <time>2016-08-23T09:59:46Z</time>
      </trkpt>
      <trkpt lat="47.56875" lon="-3.00904">
        <ele>-0.34</ele>
        <time>2016-08-23T09:59:51Z</time>
      </trkpt>
      <trkpt lat="47.56852" lon="-3.00901">
        <ele>-1.3</ele>
        <time>2016-08-23T10:00:09Z</time>
      </trkpt>
      <trkpt lat="47.56821" lon="-3.00891">
        <ele>-1.3</ele>
        <time>2016-08-23T10:00:29Z</time>
      </trkpt>
      <trkpt lat="47.56792" lon="-3.00879">
        <ele>-1.3</ele>
        <time>2016-08-23T10:00:49Z</time>
      </trkpt>
      <trkpt lat="47.56762" lon="-3.00868">
        <ele>-0.34</ele>
        <time>2016-08-23T10:01:11Z</time>
      </trkpt>
      <trkpt lat="47.56726" lon="-3.00862">
        <ele>-1.3</ele>
        <time>2016-08-23T10:01:34Z</time>
      </trkpt>
      <trkpt lat="47.56688" lon="-3.00855">
        <ele>-1.3</ele>
        <time>2016-08-23T10:01:57Z</time>
      </trkpt>
      <trkpt lat="47.56652" lon="-3.00848">
        <ele>-0.34</ele>
        <time>2016-08-23T10:02:19Z</time>
      </trkpt>
      <trkpt lat="47.56623" lon="-3.00839">
        <ele>0.62</ele>
        <time>2016-08-23T10:02:38Z</time>
      </trkpt>
      <trkpt lat="47.56599" lon="-3.00825">
        <ele>-0.34</ele>
        <time>2016-08-23T10:02:55Z</time>
      </trkpt>
      <trkpt lat="47.56575" lon="-3.00812">
        <ele>-0.34</ele>
        <time>2016-08-23T10:03:14Z</time>
      </trkpt>
      <trkpt lat="47.56544" lon="-3.00798">
        <ele>-0.82</ele>
        <time>2016-08-23T10:03:36Z</time>
      </trkpt>
      <trkpt lat="47.56523" lon="-3.00793">
        <ele>-0.82</ele>
        <time>2016-08-23T10:03:53Z</time>
      </trkpt>
      <trkpt lat="47.56493" lon="-3.0078">
        <ele>0.14</ele>
        <time>2016-08-23T10:04:15Z</time>
      </trkpt>
      <trkpt lat="47.56472" lon="-3.00767">
        <ele>-0.34</ele>
        <time>2016-08-23T10:04:33Z</time>
      </trkpt>
      <trkpt lat="47.56467" lon="-3.00766">
        <ele>-0.82</ele>
        <time>2016-08-23T10:04:37Z</time>
      </trkpt>
      <trkpt lat="47.5644" lon="-3.00758">
        <ele>-0.34</ele>
        <time>2016-08-23T10:04:58Z</time>
      </trkpt>
      <trkpt lat="47.56413" lon="-3.00752">
        <ele>-0.34</ele>
        <time>2016-08-23T10:05:18Z</time>
      </trkpt>
      <trkpt lat="47.56381" lon="-3.00744">
        <ele>-1.3</ele>
        <time>2016-08-23T10:05:42Z</time>
      </trkpt>
      <trkpt lat="47.56351" lon="-3.00741">
        <ele>-2.27</ele>
        <time>2016-08-23T10:06:02Z</time>
      </trkpt>
      <trkpt lat="47.56323" lon="-3.00735">
        <ele>-1.79</ele>
        <time>2016-08-23T10:06:21Z</time>
      </trkpt>
      <trkpt lat="47.56291" lon="-3.00738">
        <ele>-1.79</ele>
        <time>2016-08-23T10:06:43Z</time>
      </trkpt>
      <trkpt lat="47.56251" lon="-3.0075">
        <ele>-0.82</ele>
        <time>2016-08-23T10:07:04Z</time>
      </trkpt>
      <trkpt lat="47.56213" lon="-3.00768">
        <ele>-0.34</ele>
        <time>2016-08-23T10:07:22Z</time>
      </trkpt>
      <trkpt lat="47.56168" lon="-3.00778">
        <ele>-2.75</ele>
        <time>2016-08-23T10:07:40Z</time>
      </trkpt>
      <trkpt lat="47.56127" lon="-3.00771">
        <ele>-2.75</ele>
        <time>2016-08-23T10:07:57Z</time>
      </trkpt>
      <trkpt lat="47.56085" lon="-3.00753">
        <ele>-2.75</ele>
        <time>2016-08-23T10:08:17Z</time>
      </trkpt>
      <trkpt lat="47.56046" lon="-3.00746">
        <ele>-2.75</ele>
        <time>2016-08-23T10:08:38Z</time>
      </trkpt>
      <trkpt lat="47.55994" lon="-3.0074">
        <ele>-3.71</ele>
        <time>2016-08-23T10:09:01Z</time>
      </trkpt>
      <trkpt lat="47.55955" lon="-3.00736">
        <ele>-2.27</ele>
        <time>2016-08-23T10:09:21Z</time>
      </trkpt>
      <trkpt lat="47.55921" lon="-3.00732">
        <ele>-2.27</ele>
        <time>2016-08-23T10:09:37Z</time>
      </trkpt>
      <trkpt lat="47.55881" lon="-3.00721">
        <ele>-1.79</ele>
        <time>2016-08-23T10:09:54Z</time>
      </trkpt>
      <trkpt lat="47.55842" lon="-3.00718">
        <ele>-2.75</ele>
        <time>2016-08-23T10:10:10Z</time>
      </trkpt>
      <trkpt lat="47.558" lon="-3.00717">
        <ele>-2.27</ele>
        <time>2016-08-23T10:10:27Z</time>
      </trkpt>
      <trkpt lat="47.55764" lon="-3.00742">
        <ele>-1.79</ele>
        <time>2016-08-23T10:10:43Z</time>
      </trkpt>
      <trkpt lat="47.55722" lon="-3.00753">
        <ele>-2.27</ele>
        <time>2016-08-23T10:11:01Z</time>
      </trkpt>
      <trkpt lat="47.55681" lon="-3.00741">
        <ele>-2.75</ele>
        <time>2016-08-23T10:11:18Z</time>
      </trkpt>
      <trkpt lat="47.55638" lon="-3.00728">
        <ele>-1.79</ele>
        <time>2016-08-23T10:11:38Z</time>
      </trkpt>
      <trkpt lat="47.55594" lon="-3.00714">
        <ele>-2.27</ele>
        <time>2016-08-23T10:11:59Z</time>
      </trkpt>
      <trkpt lat="47.55556" lon="-3.00701">
        <ele>-2.27</ele>
        <time>2016-08-23T10:12:19Z</time>
      </trkpt>
      <trkpt lat="47.55507" lon="-3.00691">
        <ele>-2.75</ele>
        <time>2016-08-23T10:12:41Z</time>
      </trkpt>
      <trkpt lat="47.55458" lon="-3.00682">
        <ele>-3.23</ele>
        <time>2016-08-23T10:13:04Z</time>
      </trkpt>
      <trkpt lat="47.55413" lon="-3.00676">
        <ele>-2.75</ele>
        <time>2016-08-23T10:13:24Z</time>
      </trkpt>
      <trkpt lat="47.55363" lon="-3.00666">
        <ele>-3.23</ele>
        <time>2016-08-23T10:13:47Z</time>
      </trkpt>
      <trkpt lat="47.55317" lon="-3.00664">
        <ele>-2.75</ele>
        <time>2016-08-23T10:14:08Z</time>
      </trkpt>
      <trkpt lat="47.55273" lon="-3.00667">
        <ele>-2.27</ele>
        <time>2016-08-23T10:14:26Z</time>
      </trkpt>
      <trkpt lat="47.55231" lon="-3.00658">
        <ele>-1.79</ele>
        <time>2016-08-23T10:14:43Z</time>
      </trkpt>
      <trkpt lat="47.55183" lon="-3.00656">
        <ele>-2.27</ele>
        <time>2016-08-23T10:15:03Z</time>
      </trkpt>
      <trkpt lat="47.55132" lon="-3.00658">
        <ele>-1.3</ele>
        <time>2016-08-23T10:15:23Z</time>
      </trkpt>
      <trkpt lat="47.55073" lon="-3.00645">
        <ele>-1.79</ele>
        <time>2016-08-23T10:15:47Z</time>
      </trkpt>
      <trkpt lat="47.55025" lon="-3.00631">
        <ele>-1.79</ele>
        <time>2016-08-23T10:16:08Z</time>
      </trkpt>
      <trkpt lat="47.54973" lon="-3.00621">
        <ele>-0.34</ele>
        <time>2016-08-23T10:16:30Z</time>
      </trkpt>
      <trkpt lat="47.54932" lon="-3.00613">
        <ele>-1.3</ele>
        <time>2016-08-23T10:16:48Z</time>
      </trkpt>
      <trkpt lat="47.54888" lon="-3.0061">
        <ele>-1.3</ele>
        <time>2016-08-23T10:17:06Z</time>
      </trkpt>
      <trkpt lat="47.54855" lon="-3.00608">
        <ele>-1.3</ele>
        <time>2016-08-23T10:17:20Z</time>
      </trkpt>
      <trkpt lat="47.54821" lon="-3.00606">
        <ele>-1.79</ele>
        <time>2016-08-23T10:17:34Z</time>
      </trkpt>
      <trkpt lat="47.54781" lon="-3.00601">
        <ele>-1.3</ele>
        <time>2016-08-23T10:17:50Z</time>
      </trkpt>
      <trkpt lat="47.54741" lon="-3.00595">
        <ele>-2.75</ele>
        <time>2016-08-23T10:18:06Z</time>
      </trkpt>
      <trkpt lat="47.54696" lon="-3.00584">
        <ele>-2.27</ele>
        <time>2016-08-23T10:18:24Z</time>
      </trkpt>
      <trkpt lat="47.54649" lon="-3.00574">
        <ele>-1.3</ele>
        <time>2016-08-23T10:18:43Z</time>
      </trkpt>
      <trkpt lat="47.54607" lon="-3.00566">
        <ele>-1.3</ele>
        <time>2016-08-23T10:19:00Z</time>
      </trkpt>
      <trkpt lat="47.54573" lon="-3.00559">
        <ele>-2.75</ele>
        <time>2016-08-23T10:19:14Z</time>
      </trkpt>
      <trkpt lat="47.54533" lon="-3.00552">
        <ele>-3.23</ele>
        <time>2016-08-23T10:19:30Z</time>
      </trkpt>
      <trkpt lat="47.54485" lon="-3.0054">
        <ele>-3.23</ele>
        <time>2016-08-23T10:19:50Z</time>
      </trkpt>
      <trkpt lat="47.54452" lon="-3.00531">
        <ele>-2.75</ele>
        <time>2016-08-23T10:20:04Z</time>
      </trkpt>
      <trkpt lat="47.54401" lon="-3.00517">
        <ele>-2.27</ele>
        <time>2016-08-23T10:20:25Z</time>
      </trkpt>
      <trkpt lat="47.54356" lon="-3.00506">
        <ele>-2.75</ele>
        <time>2016-08-23T10:20:44Z</time>
      </trkpt>
      <trkpt lat="47.54306" lon="-3.00491">
        <ele>-2.27</ele>
        <time>2016-08-23T10:21:04Z</time>
      </trkpt>
      <trkpt lat="47.54268" lon="-3.00479">
        <ele>-2.75</ele>
        <time>2016-08-23T10:21:20Z</time>
      </trkpt>
      <trkpt lat="47.5423" lon="-3.00466">
        <ele>-2.75</ele>
        <time>2016-08-23T10:21:36Z</time>
      </trkpt>
      <trkpt lat="47.54192" lon="-3.00452">
        <ele>-3.71</ele>
        <time>2016-08-23T10:21:53Z</time>
      </trkpt>
      <trkpt lat="47.54149" lon="-3.00444">
        <ele>-1.79</ele>
        <time>2016-08-23T10:22:11Z</time>
      </trkpt>
      <trkpt lat="47.54114" lon="-3.00437">
        <ele>-2.27</ele>
        <time>2016-08-23T10:22:25Z</time>
      </trkpt>
      <trkpt lat="47.54084" lon="-3.0043">
        <ele>-2.75</ele>
        <time>2016-08-23T10:22:38Z</time>
      </trkpt>
      <trkpt lat="47.54045" lon="-3.00421">
        <ele>-3.23</ele>
        <time>2016-08-23T10:22:54Z</time>
      </trkpt>
      <trkpt lat="47.54018" lon="-3.00413">
        <ele>-3.23</ele>
        <time>2016-08-23T10:23:06Z</time>
      </trkpt>
      <trkpt lat="47.53977" lon="-3.00399">
        <ele>-3.23</ele>
        <time>2016-08-23T10:23:23Z</time>
      </trkpt>
      <trkpt lat="47.53931" lon="-3.00386">
        <ele>-2.75</ele>
        <time>2016-08-23T10:23:41Z</time>
      </trkpt>
      <trkpt lat="47.53873" lon="-3.00369">
        <ele>-2.75</ele>
        <time>2016-08-23T10:24:04Z</time>
      </trkpt>
      <trkpt lat="47.53824" lon="-3.00352">
        <ele>-2.75</ele>
        <time>2016-08-23T10:24:24Z</time>
      </trkpt>
      <trkpt lat="47.53778" lon="-3.0034">
        <ele>-3.23</ele>
        <time>2016-08-23T10:24:42Z</time>
      </trkpt>
      <trkpt lat="47.53734" lon="-3.00328">
        <ele>-2.75</ele>
        <time>2016-08-23T10:25:00Z</time>
      </trkpt>
      <trkpt lat="47.53692" lon="-3.00315">
        <ele>-2.75</ele>
        <time>2016-08-23T10:25:17Z</time>
      </trkpt>
      <trkpt lat="47.53654" lon="-3.00304">
        <ele>-3.71</ele>
        <time>2016-08-23T10:25:33Z</time>
      </trkpt>
      <trkpt lat="47.53612" lon="-3.00292">
        <ele>-3.71</ele>
        <time>2016-08-23T10:25:50Z</time>
      </trkpt>
      <trkpt lat="47.53574" lon="-3.00279">
        <ele>-4.67</ele>
        <time>2016-08-23T10:26:06Z</time>
      </trkpt>
      <trkpt lat="47.53533" lon="-3.00266">
        <ele>-4.19</ele>
        <time>2016-08-23T10:26:23Z</time>
      </trkpt>
      <trkpt lat="47.53499" lon="-3.00257">
        <ele>-4.19</ele>
        <time>2016-08-23T10:26:37Z</time>
      </trkpt>
      <trkpt lat="47.53464" lon="-3.00245">
        <ele>-3.23</ele>
        <time>2016-08-23T10:26:52Z</time>
      </trkpt>
      <trkpt lat="47.53415" lon="-3.00227">
        <ele>-3.23</ele>
        <time>2016-08-23T10:27:13Z</time>
      </trkpt>
      <trkpt lat="47.53377" lon="-3.00211">
        <ele>-2.75</ele>
        <time>2016-08-23T10:27:30Z</time>
      </trkpt>
      <trkpt lat="47.53336" lon="-3.00197">
        <ele>-2.27</ele>
        <time>2016-08-23T10:27:48Z</time>
      </trkpt>
      <trkpt lat="47.53291" lon="-3.00182">
        <ele>-2.27</ele>
        <time>2016-08-23T10:28:08Z</time>
      </trkpt>
      <trkpt lat="47.53257" lon="-3.00172">
        <ele>-1.3</ele>
        <time>2016-08-23T10:28:23Z</time>
      </trkpt>
      <trkpt lat="47.53218" lon="-3.00161">
        <ele>-0.82</ele>
        <time>2016-08-23T10:28:41Z</time>
      </trkpt>
      <trkpt lat="47.53174" lon="-3.0015">
        <ele>-0.82</ele>
        <time>2016-08-23T10:29:01Z</time>
      </trkpt>
      <trkpt lat="47.53138" lon="-3.0014">
        <ele>-0.34</ele>
        <time>2016-08-23T10:29:18Z</time>
      </trkpt>
      <trkpt lat="47.53115" lon="-3.00134">
        <ele>-0.34</ele>
        <time>2016-08-23T10:29:30Z</time>
      </trkpt>
      <trkpt lat="47.53085" lon="-3.00125">
        <ele>-0.34</ele>
        <time>2016-08-23T10:29:46Z</time>
      </trkpt>
      <trkpt lat="47.53054" lon="-3.00119">
        <ele>0.62</ele>
        <time>2016-08-23T10:30:02Z</time>
      </trkpt>
      <trkpt lat="47.53028" lon="-3.00118">
        <ele>1.58</ele>
        <time>2016-08-23T10:30:16Z</time>
      </trkpt>
      <trkpt lat="47.53001" lon="-3.00124">
        <ele>1.1</ele>
        <time>2016-08-23T10:30:33Z</time>
      </trkpt>
      <trkpt lat="47.52978" lon="-3.00123">
        <ele>1.1</ele>
        <time>2016-08-23T10:30:50Z</time>
      </trkpt>
      <trkpt lat="47.52958" lon="-3.00128">
        <ele>1.1</ele>
        <time>2016-08-23T10:31:08Z</time>
      </trkpt>
      <trkpt lat="47.5294" lon="-3.00131">
        <ele>1.1</ele>
        <time>2016-08-23T10:31:24Z</time>
      </trkpt>
      <trkpt lat="47.52918" lon="-3.00134">
        <ele>2.06</ele>
        <time>2016-08-23T10:31:44Z</time>
      </trkpt>
      <trkpt lat="47.52899" lon="-3.00136">
        <ele>1.58</ele>
        <time>2016-08-23T10:32:03Z</time>
      </trkpt>
      <trkpt lat="47.52882" lon="-3.00141">
        <ele>0.14</ele>
        <time>2016-08-23T10:32:20Z</time>
      </trkpt>
      <trkpt lat="47.52863" lon="-3.00146">
        <ele>-0.82</ele>
        <time>2016-08-23T10:32:40Z</time>
      </trkpt>
      <trkpt lat="47.52847" lon="-3.00149">
        <ele>-1.3</ele>
        <time>2016-08-23T10:32:58Z</time>
      </trkpt>
      <trkpt lat="47.52834" lon="-3.00154">
        <ele>-2.27</ele>
        <time>2016-08-23T10:33:14Z</time>
      </trkpt>
      <trkpt lat="47.52821" lon="-3.00157">
        <ele>-3.23</ele>
        <time>2016-08-23T10:33:32Z</time>
      </trkpt>
      <trkpt lat="47.52809" lon="-3.00159">
        <ele>-2.75</ele>
        <time>2016-08-23T10:33:48Z</time>
      </trkpt>
      <trkpt lat="47.52796" lon="-3.00163">
        <ele>-1.79</ele>
        <time>2016-08-23T10:34:03Z</time>
      </trkpt>
      <trkpt lat="47.5278" lon="-3.00169">
        <ele>-2.75</ele>
        <time>2016-08-23T10:34:21Z</time>
      </trkpt>
      <trkpt lat="47.52763" lon="-3.00172">
        <ele>-2.75</ele>
        <time>2016-08-23T10:34:41Z</time>
      </trkpt>
      <trkpt lat="47.5275" lon="-3.00175">
        <ele>-3.71</ele>
        <time>2016-08-23T10:34:58Z</time>
      </trkpt>
      <trkpt lat="47.52735" lon="-3.00176">
        <ele>-3.23</ele>
        <time>2016-08-23T10:35:17Z</time>
      </trkpt>
      <trkpt lat="47.52722" lon="-3.00178">
        <ele>-2.27</ele>
        <time>2016-08-23T10:35:34Z</time>
      </trkpt>
      <trkpt lat="47.52712" lon="-3.0018">
        <ele>-1.79</ele>
        <time>2016-08-23T10:35:51Z</time>
      </trkpt>
      <trkpt lat="47.527" lon="-3.00184">
        <ele>-3.23</ele>
        <time>2016-08-23T10:36:11Z</time>
      </trkpt>
      <trkpt lat="47.52684" lon="-3.00187">
        <ele>-2.75</ele>
        <time>2016-08-23T10:36:33Z</time>
      </trkpt>
      <trkpt lat="47.52671" lon="-3.00189">
        <ele>-2.27</ele>
        <time>2016-08-23T10:36:52Z</time>
      </trkpt>
      <trkpt lat="47.52662" lon="-3.00193">
        <ele>-2.27</ele>
        <time>2016-08-23T10:37:09Z</time>
      </trkpt>
      <trkpt lat="47.52653" lon="-3.00196">
        <ele>-2.75</ele>
        <time>2016-08-23T10:37:26Z</time>
      </trkpt>
      <trkpt lat="47.52641" lon="-3.002">
        <ele>-1.3</ele>
        <time>2016-08-23T10:37:45Z</time>
      </trkpt>
      <trkpt lat="47.52628" lon="-3.00204">
        <ele>-0.82</ele>
        <time>2016-08-23T10:38:03Z</time>
      </trkpt>
      <trkpt lat="47.52617" lon="-3.0021">
        <ele>-1.3</ele>
        <time>2016-08-23T10:38:19Z</time>
      </trkpt>
      <trkpt lat="47.52602" lon="-3.00219">
        <ele>-1.79</ele>
        <time>2016-08-23T10:38:38Z</time>
      </trkpt>
      <trkpt lat="47.52587" lon="-3.00222">
        <ele>-1.79</ele>
        <time>2016-08-23T10:38:56Z</time>
      </trkpt>
      <trkpt lat="47.52572" lon="-3.00225">
        <ele>-1.3</ele>
        <time>2016-08-23T10:39:11Z</time>
      </trkpt>
      <trkpt lat="47.52552" lon="-3.00229">
        <ele>-0.34</ele>
        <time>2016-08-23T10:39:31Z</time>
      </trkpt>
      <trkpt lat="47.52531" lon="-3.00232">
        <ele>-0.34</ele>
        <time>2016-08-23T10:39:52Z</time>
      </trkpt>
      <trkpt lat="47.5251" lon="-3.00234">
        <ele>0.62</ele>
        <time>2016-08-23T10:40:11Z</time>
      </trkpt>
      <trkpt lat="47.52488" lon="-3.00235">
        <ele>1.1</ele>
        <time>2016-08-23T10:40:31Z</time>
      </trkpt>
      <trkpt lat="47.52471" lon="-3.00238">
        <ele>1.58</ele>
        <time>2016-08-23T10:40:45Z</time>
      </trkpt>
      <trkpt lat="47.5245" lon="-3.00237">
        <ele>1.58</ele>
        <time>2016-08-23T10:41:02Z</time>
      </trkpt>
      <trkpt lat="47.52422" lon="-3.00234">
        <ele>2.06</ele>
        <time>2016-08-23T10:41:22Z</time>
      </trkpt>
      <trkpt lat="47.52396" lon="-3.00234">
        <ele>2.06</ele>
        <time>2016-08-23T10:41:40Z</time>
      </trkpt>
      <trkpt lat="47.52367" lon="-3.00234">
        <ele>1.58</ele>
        <time>2016-08-23T10:42:00Z</time>
      </trkpt>
      <trkpt lat="47.52336" lon="-3.00239">
        <ele>1.58</ele>
        <time>2016-08-23T10:42:18Z</time>
      </trkpt>
      <trkpt lat="47.52307" lon="-3.00242">
        <ele>1.1</ele>
        <time>2016-08-23T10:42:34Z</time>
      </trkpt>
      <trkpt lat="47.52278" lon="-3.00242">
        <ele>1.58</ele>
        <time>2016-08-23T10:42:50Z</time>
      </trkpt>
      <trkpt lat="47.52249" lon="-3.00242">
        <ele>1.1</ele>
        <time>2016-08-23T10:43:06Z</time>
      </trkpt>
      <trkpt lat="47.52219" lon="-3.00259">
        <ele>0.62</ele>
        <time>2016-08-23T10:43:26Z</time>
      </trkpt>
      <trkpt lat="47.52205" lon="-3.00297">
        <ele>1.1</ele>
        <time>2016-08-23T10:43:43Z</time>
      </trkpt>
      <trkpt lat="47.52195" lon="-3.00333">
        <ele>1.58</ele>
        <time>2016-08-23T10:44:02Z</time>
      </trkpt>
      <trkpt lat="47.52187" lon="-3.00363">
        <ele>0.62</ele>
        <time>2016-08-23T10:44:19Z</time>
      </trkpt>
      <trkpt lat="47.52182" lon="-3.00389">
        <ele>0.62</ele>
        <time>2016-08-23T10:44:33Z</time>
      </trkpt>
      <trkpt lat="47.52165" lon="-3.00405">
        <ele>-0.34</ele>
        <time>2016-08-23T10:44:47Z</time>
      </trkpt>
      <trkpt lat="47.52139" lon="-3.00416">
        <ele>-0.82</ele>
        <time>2016-08-23T10:45:05Z</time>
      </trkpt>
      <trkpt lat="47.52103" lon="-3.0044">
        <ele>-0.82</ele>
        <time>2016-08-23T10:45:22Z</time>
      </trkpt>
      <trkpt lat="47.52056" lon="-3.00477">
        <ele>-2.27</ele>
        <time>2016-08-23T10:45:42Z</time>
      </trkpt>
      <trkpt lat="47.52014" lon="-3.00505">
        <ele>-2.75</ele>
        <time>2016-08-23T10:46:00Z</time>
      </trkpt>
      <trkpt lat="47.51979" lon="-3.00525">
        <ele>-1.79</ele>
        <time>2016-08-23T10:46:18Z</time>
      </trkpt>
      <trkpt lat="47.51964" lon="-3.00569">
        <ele>-1.79</ele>
        <time>2016-08-23T10:46:33Z</time>
      </trkpt>
      <trkpt lat="47.51953" lon="-3.00617">
        <ele>-1.3</ele>
        <time>2016-08-23T10:46:54Z</time>
      </trkpt>
      <trkpt lat="47.51935" lon="-3.00641">
        <ele>-0.34</ele>
        <time>2016-08-23T10:47:11Z</time>
      </trkpt>
      <trkpt lat="47.51916" lon="-3.00653">
        <ele>-0.34</ele>
        <time>2016-08-23T10:47:25Z</time>
      </trkpt>
      <trkpt lat="47.51889" lon="-3.00651">
        <ele>1.1</ele>
        <time>2016-08-23T10:47:42Z</time>
      </trkpt>
      <trkpt lat="47.51866" lon="-3.00645">
        <ele>1.58</ele>
        <time>2016-08-23T10:47:59Z</time>
      </trkpt>
      <trkpt lat="47.5184" lon="-3.00648">
        <ele>1.58</ele>
        <time>2016-08-23T10:48:16Z</time>
      </trkpt>
      <trkpt lat="47.51805" lon="-3.00652">
        <ele>0.62</ele>
        <time>2016-08-23T10:48:33Z</time>
      </trkpt>
      <trkpt lat="47.51765" lon="-3.00654">
        <ele>0.14</ele>
        <time>2016-08-23T10:48:50Z</time>
      </trkpt>
      <trkpt lat="47.51732" lon="-3.00655">
        <ele>1.1</ele>
        <time>2016-08-23T10:49:04Z</time>
      </trkpt>
      <trkpt lat="47.51688" lon="-3.00662">
        <ele>0.62</ele>
        <time>2016-08-23T10:49:21Z</time>
      </trkpt>
      <trkpt lat="47.51644" lon="-3.00671">
        <ele>-1.3</ele>
        <time>2016-08-23T10:49:38Z</time>
      </trkpt>
      <trkpt lat="47.51609" lon="-3.00675">
        <ele>-1.79</ele>
        <time>2016-08-23T10:49:52Z</time>
      </trkpt>
      <trkpt lat="47.51574" lon="-3.00677">
        <ele>-1.79</ele>
        <time>2016-08-23T10:50:06Z</time>
      </trkpt>
      <trkpt lat="47.51527" lon="-3.00677">
        <ele>-1.79</ele>
        <time>2016-08-23T10:50:25Z</time>
      </trkpt>
      <trkpt lat="47.51488" lon="-3.00676">
        <ele>-0.82</ele>
        <time>2016-08-23T10:50:41Z</time>
      </trkpt>
      <trkpt lat="47.51441" lon="-3.00673">
        <ele>0.14</ele>
        <time>2016-08-23T10:51:00Z</time>
      </trkpt>
      <trkpt lat="47.51398" lon="-3.00668">
        <ele>1.1</ele>
        <time>2016-08-23T10:51:18Z</time>
      </trkpt>
      <trkpt lat="47.51359" lon="-3.00664">
        <ele>2.54</ele>
        <time>2016-08-23T10:51:35Z</time>
      </trkpt>
      <trkpt lat="47.51325" lon="-3.00661">
        <ele>3.98</ele>
        <time>2016-08-23T10:51:50Z</time>
      </trkpt>
      <trkpt lat="47.51289" lon="-3.00656">
        <ele>3.98</ele>
        <time>2016-08-23T10:52:06Z</time>
      </trkpt>
      <trkpt lat="47.51255" lon="-3.00648">
        <ele>3.98</ele>
        <time>2016-08-23T10:52:23Z</time>
      </trkpt>
      <trkpt lat="47.51213" lon="-3.00645">
        <ele>4.46</ele>
        <time>2016-08-23T10:52:42Z</time>
      </trkpt>
      <trkpt lat="47.51176" lon="-3.00639">
        <ele>4.94</ele>
        <time>2016-08-23T10:52:59Z</time>
      </trkpt>
      <trkpt lat="47.51138" lon="-3.00634">
        <ele>4.46</ele>
        <time>2016-08-23T10:53:18Z</time>
      </trkpt>
      <trkpt lat="47.51092" lon="-3.00627">
        <ele>3.98</ele>
        <time>2016-08-23T10:53:39Z</time>
      </trkpt>
      <trkpt lat="47.51055" lon="-3.00623">
        <ele>3.5</ele>
        <time>2016-08-23T10:53:56Z</time>
      </trkpt>
      <trkpt lat="47.51021" lon="-3.0062">
        <ele>3.02</ele>
        <time>2016-08-23T10:54:12Z</time>
      </trkpt>
      <trkpt lat="47.50978" lon="-3.00617">
        <ele>3.02</ele>
        <time>2016-08-23T10:54:31Z</time>
      </trkpt>
      <trkpt lat="47.50943" lon="-3.00618">
        <ele>2.54</ele>
        <time>2016-08-23T10:54:46Z</time>
      </trkpt>
      <trkpt lat="47.50905" lon="-3.00614">
        <ele>3.5</ele>
        <time>2016-08-23T10:55:02Z</time>
      </trkpt>
      <trkpt lat="47.50874" lon="-3.00607">
        <ele>3.02</ele>
        <time>2016-08-23T10:55:17Z</time>
      </trkpt>
      <trkpt lat="47.50842" lon="-3.00603">
        <ele>2.54</ele>
        <time>2016-08-23T10:55:33Z</time>
      </trkpt>
      <trkpt lat="47.50815" lon="-3.00598">
        <ele>3.5</ele>
        <time>2016-08-23T10:55:48Z</time>
      </trkpt>
      <trkpt lat="47.50784" lon="-3.00596">
        <ele>2.06</ele>
        <time>2016-08-23T10:56:05Z</time>
      </trkpt>
      <trkpt lat="47.50752" lon="-3.00593">
        <ele>1.1</ele>
        <time>2016-08-23T10:56:22Z</time>
      </trkpt>
      <trkpt lat="47.50723" lon="-3.00592">
        <ele>0.14</ele>
        <time>2016-08-23T10:56:38Z</time>
      </trkpt>
      <trkpt lat="47.50693" lon="-3.00588">
        <ele>0.14</ele>
        <time>2016-08-23T10:56:56Z</time>
      </trkpt>
      <trkpt lat="47.5067" lon="-3.00585">
        <ele>-0.34</ele>
        <time>2016-08-23T10:57:11Z</time>
      </trkpt>
      <trkpt lat="47.50641" lon="-3.00583">
        <ele>0.62</ele>
        <time>2016-08-23T10:57:28Z</time>
      </trkpt>
      <trkpt lat="47.50604" lon="-3.0058">
        <ele>0.14</ele>
        <time>2016-08-23T10:57:49Z</time>
      </trkpt>
      <trkpt lat="47.50565" lon="-3.00577">
        <ele>-0.34</ele>
        <time>2016-08-23T10:58:10Z</time>
      </trkpt>
      <trkpt lat="47.50533" lon="-3.00572">
        <ele>-0.34</ele>
        <time>2016-08-23T10:58:27Z</time>
      </trkpt>
      <trkpt lat="47.50509" lon="-3.00567">
        <ele>-0.34</ele>
        <time>2016-08-23T10:58:43Z</time>
      </trkpt>
      <trkpt lat="47.50479" lon="-3.00567">
        <ele>-0.34</ele>
        <time>2016-08-23T10:59:01Z</time>
      </trkpt>
      <trkpt lat="47.50442" lon="-3.0057">
        <ele>0.14</ele>
        <time>2016-08-23T10:59:20Z</time>
      </trkpt>
      <trkpt lat="47.50407" lon="-3.00574">
        <ele>1.1</ele>
        <time>2016-08-23T10:59:37Z</time>
      </trkpt>
      <trkpt lat="47.50367" lon="-3.00579">
        <ele>1.58</ele>
        <time>2016-08-23T10:59:57Z</time>
      </trkpt>
      <trkpt lat="47.50338" lon="-3.00577">
        <ele>2.06</ele>
        <time>2016-08-23T11:00:13Z</time>
      </trkpt>
      <trkpt lat="47.50303" lon="-3.0057">
        <ele>2.06</ele>
        <time>2016-08-23T11:00:34Z</time>
      </trkpt>
      <trkpt lat="47.50268" lon="-3.0056">
        <ele>2.54</ele>
        <time>2016-08-23T11:00:56Z</time>
      </trkpt>
      <trkpt lat="47.50244" lon="-3.00557">
        <ele>1.58</ele>
        <time>2016-08-23T11:01:12Z</time>
      </trkpt>
      <trkpt lat="47.50215" lon="-3.0055">
        <ele>1.58</ele>
        <time>2016-08-23T11:01:31Z</time>
      </trkpt>
      <trkpt lat="47.50187" lon="-3.00542">
        <ele>0.62</ele>
        <time>2016-08-23T11:01:51Z</time>
      </trkpt>
      <trkpt lat="47.50158" lon="-3.00537">
        <ele>0.62</ele>
        <time>2016-08-23T11:02:10Z</time>
      </trkpt>
      <trkpt lat="47.50134" lon="-3.0053">
        <ele>0.62</ele>
        <time>2016-08-23T11:02:26Z</time>
      </trkpt>
      <trkpt lat="47.50105" lon="-3.00521">
        <ele>0.62</ele>
        <time>2016-08-23T11:02:45Z</time>
      </trkpt>
      <trkpt lat="47.50074" lon="-3.00516">
        <ele>2.06</ele>
        <time>2016-08-23T11:03:05Z</time>
      </trkpt>
      <trkpt lat="47.50046" lon="-3.00509">
        <ele>2.54</ele>
        <time>2016-08-23T11:03:22Z</time>
      </trkpt>
      <trkpt lat="47.50012" lon="-3.00503">
        <ele>2.06</ele>
        <time>2016-08-23T11:03:43Z</time>
      </trkpt>
      <trkpt lat="47.49979" lon="-3.00496">
        <ele>0.62</ele>
        <time>2016-08-23T11:04:01Z</time>
      </trkpt>
      <trkpt lat="47.49947" lon="-3.00491">
        <ele>-0.34</ele>
        <time>2016-08-23T11:04:19Z</time>
      </trkpt>
      <trkpt lat="47.49914" lon="-3.00486">
        <ele>0.14</ele>
        <time>2016-08-23T11:04:37Z</time>
      </trkpt>
      <trkpt lat="47.49874" lon="-3.00482">
        <ele>-0.34</ele>
        <time>2016-08-23T11:04:58Z</time>
      </trkpt>
      <trkpt lat="47.49835" lon="-3.00475">
        <ele>0.14</ele>
        <time>2016-08-23T11:05:19Z</time>
      </trkpt>
      <trkpt lat="47.49799" lon="-3.00468">
        <ele>0.62</ele>
        <time>2016-08-23T11:05:38Z</time>
      </trkpt>
      <trkpt lat="47.4976" lon="-3.00463">
        <ele>1.58</ele>
        <time>2016-08-23T11:05:58Z</time>
      </trkpt>
      <trkpt lat="47.49721" lon="-3.00459">
        <ele>2.06</ele>
        <time>2016-08-23T11:06:19Z</time>
      </trkpt>
      <trkpt lat="47.49689" lon="-3.00456">
        <ele>1.1</ele>
        <time>2016-08-23T11:06:36Z</time>
      </trkpt>
      <trkpt lat="47.49659" lon="-3.00452">
        <ele>0.62</ele>
        <time>2016-08-23T11:06:54Z</time>
      </trkpt>
      <trkpt lat="47.49633" lon="-3.00451">
        <ele>0.62</ele>
        <time>2016-08-23T11:07:12Z</time>
      </trkpt>
      <trkpt lat="47.49601" lon="-3.00446">
        <ele>1.58</ele>
        <time>2016-08-23T11:07:33Z</time>
      </trkpt>
      <trkpt lat="47.49567" lon="-3.00442">
        <ele>1.1</ele>
        <time>2016-08-23T11:07:54Z</time>
      </trkpt>
      <trkpt lat="47.49539" lon="-3.0044">
        <ele>1.58</ele>
        <time>2016-08-23T11:08:12Z</time>
      </trkpt>
      <trkpt lat="47.49503" lon="-3.00436">
        <ele>1.58</ele>
        <time>2016-08-23T11:08:33Z</time>
      </trkpt>
      <trkpt lat="47.49471" lon="-3.00433">
        <ele>1.1</ele>
        <time>2016-08-23T11:08:53Z</time>
      </trkpt>
      <trkpt lat="47.49443" lon="-3.00428">
        <ele>1.1</ele>
        <time>2016-08-23T11:09:09Z</time>
      </trkpt>
      <trkpt lat="47.49414" lon="-3.00422">
        <ele>1.1</ele>
        <time>2016-08-23T11:09:26Z</time>
      </trkpt>
      <trkpt lat="47.49375" lon="-3.00412">
        <ele>1.58</ele>
        <time>2016-08-23T11:09:47Z</time>
      </trkpt>
      <trkpt lat="47.49337" lon="-3.00399">
        <ele>1.58</ele>
        <time>2016-08-23T11:10:08Z</time>
      </trkpt>
      <trkpt lat="47.49302" lon="-3.00387">
        <ele>1.58</ele>
        <time>2016-08-23T11:10:28Z</time>
      </trkpt>
      <trkpt lat="47.49268" lon="-3.00378">
        <ele>1.58</ele>
        <time>2016-08-23T11:10:50Z</time>
      </trkpt>
      <trkpt lat="47.49227" lon="-3.00366">
        <ele>1.58</ele>
        <time>2016-08-23T11:11:13Z</time>
      </trkpt>
      <trkpt lat="47.49189" lon="-3.00354">
        <ele>2.06</ele>
        <time>2016-08-23T11:11:34Z</time>
      </trkpt>
      <trkpt lat="47.4915" lon="-3.0034">
        <ele>2.06</ele>
        <time>2016-08-23T11:11:56Z</time>
      </trkpt>
      <trkpt lat="47.4911" lon="-3.00329">
        <ele>1.1</ele>
        <time>2016-08-23T11:12:18Z</time>
      </trkpt>
      <trkpt lat="47.49072" lon="-3.00315">
        <ele>2.06</ele>
        <time>2016-08-23T11:12:39Z</time>
      </trkpt>
      <trkpt lat="47.49041" lon="-3.00303">
        <ele>1.58</ele>
        <time>2016-08-23T11:12:57Z</time>
      </trkpt>
      <trkpt lat="47.49008" lon="-3.00292">
        <ele>1.1</ele>
        <time>2016-08-23T11:13:16Z</time>
      </trkpt>
      <trkpt lat="47.48976" lon="-3.00284">
        <ele>1.1</ele>
        <time>2016-08-23T11:13:34Z</time>
      </trkpt>
      <trkpt lat="47.48939" lon="-3.00272">
        <ele>1.58</ele>
        <time>2016-08-23T11:13:54Z</time>
      </trkpt>
      <trkpt lat="47.48902" lon="-3.00257">
        <ele>1.1</ele>
        <time>2016-08-23T11:14:16Z</time>
      </trkpt>
      <trkpt lat="47.48872" lon="-3.00244">
        <ele>0.62</ele>
        <time>2016-08-23T11:14:35Z</time>
      </trkpt>
      <trkpt lat="47.48842" lon="-3.00234">
        <ele>0.62</ele>
        <time>2016-08-23T11:14:54Z</time>
      </trkpt>
      <trkpt lat="47.48813" lon="-3.00224">
        <ele>0.62</ele>
        <time>2016-08-23T11:15:11Z</time>
      </trkpt>
      <trkpt lat="47.48775" lon="-3.00213">
        <ele>0.62</ele>
        <time>2016-08-23T11:15:32Z</time>
      </trkpt>
      <trkpt lat="47.48737" lon="-3.00202">
        <ele>0.62</ele>
        <time>2016-08-23T11:15:52Z</time>
      </trkpt>
      <trkpt lat="47.48699" lon="-3.00191">
        <ele>1.1</ele>
        <time>2016-08-23T11:16:13Z</time>
      </trkpt>
      <trkpt lat="47.48664" lon="-3.00181">
        <ele>1.1</ele>
        <time>2016-08-23T11:16:33Z</time>
      </trkpt>
      <trkpt lat="47.48628" lon="-3.00172">
        <ele>0.62</ele>
        <time>2016-08-23T11:16:52Z</time>
      </trkpt>
      <trkpt lat="47.48591" lon="-3.0016">
        <ele>0.14</ele>
        <time>2016-08-23T11:17:13Z</time>
      </trkpt>
      <trkpt lat="47.48555" lon="-3.00147">
        <ele>0.14</ele>
        <time>2016-08-23T11:17:34Z</time>
      </trkpt>
      <trkpt lat="47.48521" lon="-3.00137">
        <ele>-0.34</ele>
        <time>2016-08-23T11:17:54Z</time>
      </trkpt>
      <trkpt lat="47.48484" lon="-3.00125">
        <ele>-0.34</ele>
        <time>2016-08-23T11:18:14Z</time>
      </trkpt>
      <trkpt lat="47.48444" lon="-3.00113">
        <ele>-0.34</ele>
        <time>2016-08-23T11:18:35Z</time>
      </trkpt>
      <trkpt lat="47.48398" lon="-3.00098">
        <ele>0.14</ele>
        <time>2016-08-23T11:18:59Z</time>
      </trkpt>
      <trkpt lat="47.48368" lon="-3.00091">
        <ele>-0.34</ele>
        <time>2016-08-23T11:19:16Z</time>
      </trkpt>
      <trkpt lat="47.48325" lon="-3.00081">
        <ele>-0.82</ele>
        <time>2016-08-23T11:19:37Z</time>
      </trkpt>
      <trkpt lat="47.48287" lon="-3.00074">
        <ele>-0.82</ele>
        <time>2016-08-23T11:19:55Z</time>
      </trkpt>
      <trkpt lat="47.48235" lon="-3.00061">
        <ele>-0.82</ele>
        <time>2016-08-23T11:20:19Z</time>
      </trkpt>
      <trkpt lat="47.48189" lon="-3.00049">
        <ele>-1.3</ele>
        <time>2016-08-23T11:20:40Z</time>
      </trkpt>
      <trkpt lat="47.48146" lon="-3.0004">
        <ele>-1.3</ele>
        <time>2016-08-23T11:21:00Z</time>
      </trkpt>
      <trkpt lat="47.48105" lon="-3.00029">
        <ele>-0.82</ele>
        <time>2016-08-23T11:21:19Z</time>
      </trkpt>
      <trkpt lat="47.48067" lon="-3.00017">
        <ele>0.14</ele>
        <time>2016-08-23T11:21:38Z</time>
      </trkpt>
      <trkpt lat="47.48024" lon="-3.00001">
        <ele>0.14</ele>
        <time>2016-08-23T11:22:00Z</time>
      </trkpt>
      <trkpt lat="47.47983" lon="-2.99991">
        <ele>-0.82</ele>
        <time>2016-08-23T11:22:21Z</time>
      </trkpt>
      <trkpt lat="47.47946" lon="-2.99979">
        <ele>0.14</ele>
        <time>2016-08-23T11:22:40Z</time>
      </trkpt>
      <trkpt lat="47.4791" lon="-2.99967">
        <ele>0.62</ele>
        <time>2016-08-23T11:23:00Z</time>
      </trkpt>
      <trkpt lat="47.47877" lon="-2.99957">
        <ele>0.14</ele>
        <time>2016-08-23T11:23:18Z</time>
      </trkpt>
      <trkpt lat="47.47838" lon="-2.99943">
        <ele>0.14</ele>
        <time>2016-08-23T11:23:41Z</time>
      </trkpt>
      <trkpt lat="47.47808" lon="-2.99933">
        <ele>0.14</ele>
        <time>2016-08-23T11:23:59Z</time>
      </trkpt>
      <trkpt lat="47.47773" lon="-2.9992">
        <ele>-0.34</ele>
        <time>2016-08-23T11:24:20Z</time>
      </trkpt>
      <trkpt lat="47.47744" lon="-2.99912">
        <ele>0.62</ele>
        <time>2016-08-23T11:24:37Z</time>
      </trkpt>
      <trkpt lat="47.47708" lon="-2.99905">
        <ele>0.62</ele>
        <time>2016-08-23T11:24:55Z</time>
      </trkpt>
      <trkpt lat="47.47664" lon="-2.99893">
        <ele>-0.34</ele>
        <time>2016-08-23T11:25:17Z</time>
      </trkpt>
      <trkpt lat="47.47621" lon="-2.99883">
        <ele>0.62</ele>
        <time>2016-08-23T11:25:38Z</time>
      </trkpt>
      <trkpt lat="47.47593" lon="-2.99874">
        <ele>0.62</ele>
        <time>2016-08-23T11:25:53Z</time>
      </trkpt>
      <trkpt lat="47.47558" lon="-2.99866">
        <ele>-0.34</ele>
        <time>2016-08-23T11:26:11Z</time>
      </trkpt>
      <trkpt lat="47.47525" lon="-2.99856">
        <ele>-0.82</ele>
        <time>2016-08-23T11:26:29Z</time>
      </trkpt>
      <trkpt lat="47.47491" lon="-2.99851">
        <ele>-1.3</ele>
        <time>2016-08-23T11:26:48Z</time>
      </trkpt>
      <trkpt lat="47.47453" lon="-2.9984">
        <ele>-0.34</ele>
        <time>2016-08-23T11:27:09Z</time>
      </trkpt>
      <trkpt lat="47.47418" lon="-2.99834">
        <ele>-0.82</ele>
        <time>2016-08-23T11:27:27Z</time>
      </trkpt>
      <trkpt lat="47.47379" lon="-2.99822">
        <ele>-0.82</ele>
        <time>2016-08-23T11:27:48Z</time>
      </trkpt>
      <trkpt lat="47.4734" lon="-2.99811">
        <ele>-0.34</ele>
        <time>2016-08-23T11:28:08Z</time>
      </trkpt>
      <trkpt lat="47.47303" lon="-2.998">
        <ele>-1.3</ele>
        <time>2016-08-23T11:28:27Z</time>
      </trkpt>
      <trkpt lat="47.47261" lon="-2.99787">
        <ele>-0.82</ele>
        <time>2016-08-23T11:28:49Z</time>
      </trkpt>
      <trkpt lat="47.47223" lon="-2.99772">
        <ele>-0.82</ele>
        <time>2016-08-23T11:29:11Z</time>
      </trkpt>
      <trkpt lat="47.47181" lon="-2.99769">
        <ele>-1.3</ele>
        <time>2016-08-23T11:29:33Z</time>
      </trkpt>
      <trkpt lat="47.47136" lon="-2.99765">
        <ele>-0.34</ele>
        <time>2016-08-23T11:29:53Z</time>
      </trkpt>
      <trkpt lat="47.4709" lon="-2.99764">
        <ele>-0.34</ele>
        <time>2016-08-23T11:30:13Z</time>
      </trkpt>
      <trkpt lat="47.47041" lon="-2.99764">
        <ele>-1.3</ele>
        <time>2016-08-23T11:30:34Z</time>
      </trkpt>
      <trkpt lat="47.46997" lon="-2.99759">
        <ele>-1.3</ele>
        <time>2016-08-23T11:30:53Z</time>
      </trkpt>
      <trkpt lat="47.46954" lon="-2.99748">
        <ele>-0.34</ele>
        <time>2016-08-23T11:31:14Z</time>
      </trkpt>
      <trkpt lat="47.46916" lon="-2.99741">
        <ele>0.14</ele>
        <time>2016-08-23T11:31:33Z</time>
      </trkpt>
      <trkpt lat="47.4688" lon="-2.99733">
        <ele>0.14</ele>
        <time>2016-08-23T11:31:52Z</time>
      </trkpt>
      <trkpt lat="47.46878" lon="-2.99732">
        <ele>-0.34</ele>
        <time>2016-08-23T11:31:53Z</time>
      </trkpt>
      <trkpt lat="47.46868" lon="-2.99729">
        <ele>-0.34</ele>
        <time>2016-08-23T11:31:59Z</time>
      </trkpt>
      <trkpt lat="47.46836" lon="-2.99721">
        <ele>0.14</ele>
        <time>2016-08-23T11:32:16Z</time>
      </trkpt>
      <trkpt lat="47.46803" lon="-2.99711">
        <ele>0.14</ele>
        <time>2016-08-23T11:32:34Z</time>
      </trkpt>
      <trkpt lat="47.46778" lon="-2.99705">
        <ele>0.62</ele>
        <time>2016-08-23T11:32:48Z</time>
      </trkpt>
      <trkpt lat="47.46743" lon="-2.99702">
        <ele>0.14</ele>
        <time>2016-08-23T11:33:06Z</time>
      </trkpt>
      <trkpt lat="47.46714" lon="-2.99698">
        <ele>-0.34</ele>
        <time>2016-08-23T11:33:20Z</time>
      </trkpt>
      <trkpt lat="47.4668" lon="-2.9969">
        <ele>-0.82</ele>
        <time>2016-08-23T11:33:38Z</time>
      </trkpt>
      <trkpt lat="47.46649" lon="-2.99685">
        <ele>-0.82</ele>
        <time>2016-08-23T11:33:58Z</time>
      </trkpt>
      <trkpt lat="47.46621" lon="-2.99682">
        <ele>0.14</ele>
        <time>2016-08-23T11:34:15Z</time>
      </trkpt>
      <trkpt lat="47.46619" lon="-2.99682">
        <ele>0.14</ele>
        <time>2016-08-23T11:34:16Z</time>
      </trkpt>
      <trkpt lat="47.46597" lon="-2.9968">
        <ele>-0.82</ele>
        <time>2016-08-23T11:34:30Z</time>
      </trkpt>
      <trkpt lat="47.46573" lon="-2.99678">
        <ele>-0.34</ele>
        <time>2016-08-23T11:34:46Z</time>
      </trkpt>
      <trkpt lat="47.46545" lon="-2.99677">
        <ele>-1.3</ele>
        <time>2016-08-23T11:35:04Z</time>
      </trkpt>
      <trkpt lat="47.46519" lon="-2.99672">
        <ele>-0.34</ele>
        <time>2016-08-23T11:35:22Z</time>
      </trkpt>
      <trkpt lat="47.46516" lon="-2.99671">
        <ele>-0.34</ele>
        <time>2016-08-23T11:35:24Z</time>
      </trkpt>
      <trkpt lat="47.46482" lon="-2.99672">
        <ele>-0.34</ele>
        <time>2016-08-23T11:35:45Z</time>
      </trkpt>
      <trkpt lat="47.46447" lon="-2.99671">
        <ele>-0.82</ele>
        <time>2016-08-23T11:36:05Z</time>
      </trkpt>
      <trkpt lat="47.46419" lon="-2.9967">
        <ele>-1.79</ele>
        <time>2016-08-23T11:36:22Z</time>
      </trkpt>
      <trkpt lat="47.46383" lon="-2.9967">
        <ele>-0.82</ele>
        <time>2016-08-23T11:36:42Z</time>
      </trkpt>
      <trkpt lat="47.46345" lon="-2.9967">
        <ele>-1.3</ele>
        <time>2016-08-23T11:37:03Z</time>
      </trkpt>
      <trkpt lat="47.46318" lon="-2.99669">
        <ele>-1.3</ele>
        <time>2016-08-23T11:37:19Z</time>
      </trkpt>
      <trkpt lat="47.46283" lon="-2.99669">
        <ele>-1.3</ele>
        <time>2016-08-23T11:37:39Z</time>
      </trkpt>
      <trkpt lat="47.46253" lon="-2.99669">
        <ele>-0.34</ele>
        <time>2016-08-23T11:37:56Z</time>
      </trkpt>
      <trkpt lat="47.46217" lon="-2.99667">
        <ele>-0.34</ele>
        <time>2016-08-23T11:38:17Z</time>
      </trkpt>
      <trkpt lat="47.46187" lon="-2.99666">
        <ele>-0.82</ele>
        <time>2016-08-23T11:38:35Z</time>
      </trkpt>
      <trkpt lat="47.46155" lon="-2.99665">
        <ele>-0.34</ele>
        <time>2016-08-23T11:38:55Z</time>
      </trkpt>
      <trkpt lat="47.4612" lon="-2.99668">
        <ele>0.62</ele>
        <time>2016-08-23T11:39:15Z</time>
      </trkpt>
      <trkpt lat="47.46086" lon="-2.99667">
        <ele>1.1</ele>
        <time>2016-08-23T11:39:36Z</time>
      </trkpt>
      <trkpt lat="47.46047" lon="-2.99668">
        <ele>-0.82</ele>
        <time>2016-08-23T11:39:59Z</time>
      </trkpt>
      <trkpt lat="47.46021" lon="-2.99668">
        <ele>-3.71</ele>
        <time>2016-08-23T11:40:14Z</time>
      </trkpt>
      <trkpt lat="47.45988" lon="-2.99673">
        <ele>-3.71</ele>
        <time>2016-08-23T11:40:34Z</time>
      </trkpt>
      <trkpt lat="47.45955" lon="-2.9968">
        <ele>-4.67</ele>
        <time>2016-08-23T11:40:51Z</time>
      </trkpt>
      <trkpt lat="47.45921" lon="-2.99683">
        <ele>-4.67</ele>
        <time>2016-08-23T11:41:10Z</time>
      </trkpt>
      <trkpt lat="47.45882" lon="-2.99684">
        <ele>-3.23</ele>
        <time>2016-08-23T11:41:32Z</time>
      </trkpt>
      <trkpt lat="47.45856" lon="-2.99684">
        <ele>-2.75</ele>
        <time>2016-08-23T11:41:45Z</time>
      </trkpt>
      <trkpt lat="47.45852" lon="-2.99685">
        <ele>-2.75</ele>
        <time>2016-08-23T11:41:47Z</time>
      </trkpt>
      <trkpt lat="47.45841" lon="-2.99684">
        <ele>-3.23</ele>
        <time>2016-08-23T11:41:54Z</time>
      </trkpt>
      <trkpt lat="47.4582" lon="-2.99682">
        <ele>-4.67</ele>
        <time>2016-08-23T11:42:07Z</time>
      </trkpt>
      <trkpt lat="47.45802" lon="-2.99682">
        <ele>-4.19</ele>
        <time>2016-08-23T11:42:20Z</time>
      </trkpt>
      <trkpt lat="47.4579" lon="-2.99683">
        <ele>-4.67</ele>
        <time>2016-08-23T11:42:28Z</time>
      </trkpt>
      <trkpt lat="47.45784" lon="-2.99684">
        <ele>-4.67</ele>
        <time>2016-08-23T11:42:34Z</time>
      </trkpt>
      <trkpt lat="47.45779" lon="-2.99686">
        <ele>-4.67</ele>
        <time>2016-08-23T11:42:38Z</time>
      </trkpt>
      <trkpt lat="47.45742" lon="-2.99694">
        <ele>-2.27</ele>
        <time>2016-08-23T11:42:59Z</time>
      </trkpt>
      <trkpt lat="47.45711" lon="-2.997">
        <ele>-2.27</ele>
        <time>2016-08-23T11:43:16Z</time>
      </trkpt>
      <trkpt lat="47.45686" lon="-2.99705">
        <ele>-1.3</ele>
        <time>2016-08-23T11:43:30Z</time>
      </trkpt>
      <trkpt lat="47.45657" lon="-2.99706">
        <ele>-1.3</ele>
        <time>2016-08-23T11:43:48Z</time>
      </trkpt>
      <trkpt lat="47.45633" lon="-2.99712">
        <ele>-1.3</ele>
        <time>2016-08-23T11:44:02Z</time>
      </trkpt>
      <trkpt lat="47.4561" lon="-2.99713">
        <ele>-1.3</ele>
        <time>2016-08-23T11:44:16Z</time>
      </trkpt>
      <trkpt lat="47.45586" lon="-2.99712">
        <ele>-1.3</ele>
        <time>2016-08-23T11:44:32Z</time>
      </trkpt>
      <trkpt lat="47.45565" lon="-2.99711">
        <ele>-1.3</ele>
        <time>2016-08-23T11:44:47Z</time>
      </trkpt>
      <trkpt lat="47.45537" lon="-2.9971">
        <ele>-1.3</ele>
        <time>2016-08-23T11:45:07Z</time>
      </trkpt>
      <trkpt lat="47.45515" lon="-2.99709">
        <ele>-1.3</ele>
        <time>2016-08-23T11:45:24Z</time>
      </trkpt>
      <trkpt lat="47.45483" lon="-2.99706">
        <ele>-1.3</ele>
        <time>2016-08-23T11:45:48Z</time>
      </trkpt>
      <trkpt lat="47.45459" lon="-2.99704">
        <ele>-1.3</ele>
        <time>2016-08-23T11:46:07Z</time>
      </trkpt>
      <trkpt lat="47.45436" lon="-2.99703">
        <ele>-0.82</ele>
        <time>2016-08-23T11:46:26Z</time>
      </trkpt>
      <trkpt lat="47.45414" lon="-2.99703">
        <ele>-0.82</ele>
        <time>2016-08-23T11:46:44Z</time>
      </trkpt>
      <trkpt lat="47.4539" lon="-2.99702">
        <ele>-0.82</ele>
        <time>2016-08-23T11:47:03Z</time>
      </trkpt>
      <trkpt lat="47.45365" lon="-2.99702">
        <ele>-1.3</ele>
        <time>2016-08-23T11:47:23Z</time>
      </trkpt>
      <trkpt lat="47.45335" lon="-2.99703">
        <ele>-1.3</ele>
        <time>2016-08-23T11:47:45Z</time>
      </trkpt>
      <trkpt lat="47.45313" lon="-2.99703">
        <ele>-0.82</ele>
        <time>2016-08-23T11:48:02Z</time>
      </trkpt>
      <trkpt lat="47.45287" lon="-2.997">
        <ele>-1.79</ele>
        <time>2016-08-23T11:48:23Z</time>
      </trkpt>
      <trkpt lat="47.45274" lon="-2.99698">
        <ele>-1.3</ele>
        <time>2016-08-23T11:48:36Z</time>
      </trkpt>
      <trkpt lat="47.45252" lon="-2.99701">
        <ele>-1.3</ele>
        <time>2016-08-23T11:48:54Z</time>
      </trkpt>
      <trkpt lat="47.45227" lon="-2.997">
        <ele>-1.3</ele>
        <time>2016-08-23T11:49:13Z</time>
      </trkpt>
      <trkpt lat="47.45205" lon="-2.99702">
        <ele>-1.3</ele>
        <time>2016-08-23T11:49:29Z</time>
      </trkpt>
      <trkpt lat="47.45181" lon="-2.99701">
        <ele>-1.3</ele>
        <time>2016-08-23T11:49:47Z</time>
      </trkpt>
      <trkpt lat="47.45151" lon="-2.99702">
        <ele>-1.3</ele>
        <time>2016-08-23T11:50:10Z</time>
      </trkpt>
      <trkpt lat="47.45126" lon="-2.997">
        <ele>-0.34</ele>
        <time>2016-08-23T11:50:31Z</time>
      </trkpt>
      <trkpt lat="47.45102" lon="-2.99703">
        <ele>-1.3</ele>
        <time>2016-08-23T11:50:50Z</time>
      </trkpt>
      <trkpt lat="47.45077" lon="-2.99703">
        <ele>-1.79</ele>
        <time>2016-08-23T11:51:09Z</time>
      </trkpt>
      <trkpt lat="47.45067" lon="-2.99705">
        <ele>-2.27</ele>
        <time>2016-08-23T11:51:16Z</time>
      </trkpt>
      <trkpt lat="47.45053" lon="-2.99703">
        <ele>-3.23</ele>
        <time>2016-08-23T11:51:27Z</time>
      </trkpt>
      <trkpt lat="47.45033" lon="-2.99701">
        <ele>-5.63</ele>
        <time>2016-08-23T11:51:44Z</time>
      </trkpt>
      <trkpt lat="47.45011" lon="-2.99705">
        <ele>-4.19</ele>
        <time>2016-08-23T11:52:02Z</time>
      </trkpt>
      <trkpt lat="47.44989" lon="-2.99708">
        <ele>-3.71</ele>
        <time>2016-08-23T11:52:19Z</time>
      </trkpt>
      <trkpt lat="47.44963" lon="-2.99716">
        <ele>-3.23</ele>
        <time>2016-08-23T11:52:36Z</time>
      </trkpt>
      <trkpt lat="47.44933" lon="-2.99723">
        <ele>-1.3</ele>
        <time>2016-08-23T11:52:56Z</time>
      </trkpt>
      <trkpt lat="47.44909" lon="-2.99726">
        <ele>-1.3</ele>
        <time>2016-08-23T11:53:12Z</time>
      </trkpt>
      <trkpt lat="47.44889" lon="-2.99732">
        <ele>-1.79</ele>
        <time>2016-08-23T11:53:26Z</time>
      </trkpt>
      <trkpt lat="47.44856" lon="-2.99738">
        <ele>-0.82</ele>
        <time>2016-08-23T11:53:47Z</time>
      </trkpt>
      <trkpt lat="47.44839" lon="-2.9974">
        <ele>-0.82</ele>
        <time>2016-08-23T11:54:01Z</time>
      </trkpt>
      <trkpt lat="47.4482" lon="-2.99746">
        <ele>-1.79</ele>
        <time>2016-08-23T11:54:14Z</time>
      </trkpt>
      <trkpt lat="47.44801" lon="-2.9975">
        <ele>-2.27</ele>
        <time>2016-08-23T11:54:27Z</time>
      </trkpt>
      <trkpt lat="47.44779" lon="-2.99756">
        <ele>-2.27</ele>
        <time>2016-08-23T11:54:42Z</time>
      </trkpt>
      <trkpt lat="47.44753" lon="-2.99769">
        <ele>-0.82</ele>
        <time>2016-08-23T11:54:59Z</time>
      </trkpt>
      <trkpt lat="47.4472" lon="-2.99786">
        <ele>0.14</ele>
        <time>2016-08-23T11:55:21Z</time>
      </trkpt>
      <trkpt lat="47.44689" lon="-2.998">
        <ele>-0.34</ele>
        <time>2016-08-23T11:55:40Z</time>
      </trkpt>
      <trkpt lat="47.44656" lon="-2.99817">
        <ele>0.62</ele>
        <time>2016-08-23T11:56:02Z</time>
      </trkpt>
      <trkpt lat="47.44625" lon="-2.99834">
        <ele>-0.34</ele>
        <time>2016-08-23T11:56:22Z</time>
      </trkpt>
      <trkpt lat="47.4462" lon="-2.99839">
        <ele>-0.82</ele>
        <time>2016-08-23T11:56:25Z</time>
      </trkpt>
      <trkpt lat="47.44608" lon="-2.99851">
        <ele>-2.75</ele>
        <time>2016-08-23T11:56:34Z</time>
      </trkpt>
      <trkpt lat="47.44589" lon="-2.9986">
        <ele>-5.15</ele>
        <time>2016-08-23T11:56:49Z</time>
      </trkpt>
      <trkpt lat="47.44575" lon="-2.99869">
        <ele>-6.11</ele>
        <time>2016-08-23T11:57:00Z</time>
      </trkpt>
      <trkpt lat="47.44562" lon="-2.99876">
        <ele>-6.11</ele>
        <time>2016-08-23T11:57:13Z</time>
      </trkpt>
      <trkpt lat="47.44534" lon="-2.99882">
        <ele>-6.59</ele>
        <time>2016-08-23T11:57:35Z</time>
      </trkpt>
      <trkpt lat="47.44505" lon="-2.99882">
        <ele>-6.59</ele>
        <time>2016-08-23T11:57:57Z</time>
      </trkpt>
      <trkpt lat="47.44497" lon="-2.9988">
        <ele>-5.15</ele>
        <time>2016-08-23T11:58:04Z</time>
      </trkpt>
      <trkpt lat="47.44475" lon="-2.99881">
        <ele>-3.23</ele>
        <time>2016-08-23T11:58:23Z</time>
      </trkpt>
      <trkpt lat="47.44461" lon="-2.99881">
        <ele>-3.71</ele>
        <time>2016-08-23T11:58:34Z</time>
      </trkpt>
      <trkpt lat="47.44441" lon="-2.99881">
        <ele>-5.63</ele>
        <time>2016-08-23T11:58:51Z</time>
      </trkpt>
      <trkpt lat="47.44432" lon="-2.99881">
        <ele>-5.15</ele>
        <time>2016-08-23T11:58:59Z</time>
      </trkpt>
      <trkpt lat="47.44418" lon="-2.9988">
        <ele>-5.15</ele>
        <time>2016-08-23T11:59:11Z</time>
      </trkpt>
      <trkpt lat="47.44414" lon="-2.99881">
        <ele>-5.15</ele>
        <time>2016-08-23T11:59:14Z</time>
      </trkpt>
      <trkpt lat="47.44412" lon="-2.99879">
        <ele>-5.15</ele>
        <time>2016-08-23T11:59:16Z</time>
      </trkpt>
      <trkpt lat="47.44407" lon="-2.99879">
        <ele>-5.15</ele>
        <time>2016-08-23T11:59:21Z</time>
      </trkpt>
      <trkpt lat="47.44384" lon="-2.9988">
        <ele>-3.23</ele>
        <time>2016-08-23T11:59:41Z</time>
      </trkpt>
      <trkpt lat="47.44364" lon="-2.99879">
        <ele>-2.27</ele>
        <time>2016-08-23T12:00:00Z</time>
      </trkpt>
      <trkpt lat="47.44348" lon="-2.99876">
        <ele>-2.27</ele>
        <time>2016-08-23T12:00:16Z</time>
      </trkpt>
      <trkpt lat="47.44329" lon="-2.99875">
        <ele>-2.75</ele>
        <time>2016-08-23T12:00:35Z</time>
      </trkpt>
      <trkpt lat="47.44311" lon="-2.99872">
        <ele>-2.27</ele>
        <time>2016-08-23T12:00:54Z</time>
      </trkpt>
      <trkpt lat="47.44292" lon="-2.99869">
        <ele>-2.27</ele>
        <time>2016-08-23T12:01:14Z</time>
      </trkpt>
      <trkpt lat="47.44278" lon="-2.99865">
        <ele>-1.79</ele>
        <time>2016-08-23T12:01:32Z</time>
      </trkpt>
      <trkpt lat="47.44264" lon="-2.99862">
        <ele>-0.82</ele>
        <time>2016-08-23T12:01:50Z</time>
      </trkpt>
      <trkpt lat="47.44247" lon="-2.99859">
        <ele>-0.34</ele>
        <time>2016-08-23T12:02:09Z</time>
      </trkpt>
      <trkpt lat="47.44231" lon="-2.99857">
        <ele>-0.82</ele>
        <time>2016-08-23T12:02:27Z</time>
      </trkpt>
      <trkpt lat="47.44217" lon="-2.99854">
        <ele>-1.3</ele>
        <time>2016-08-23T12:02:42Z</time>
      </trkpt>
      <trkpt lat="47.44202" lon="-2.99851">
        <ele>-1.79</ele>
        <time>2016-08-23T12:02:59Z</time>
      </trkpt>
      <trkpt lat="47.44183" lon="-2.9985">
        <ele>-2.27</ele>
        <time>2016-08-23T12:03:19Z</time>
      </trkpt>
      <trkpt lat="47.44168" lon="-2.99849">
        <ele>-1.79</ele>
        <time>2016-08-23T12:03:35Z</time>
      </trkpt>
      <trkpt lat="47.44151" lon="-2.99846">
        <ele>-1.79</ele>
        <time>2016-08-23T12:03:54Z</time>
      </trkpt>
      <trkpt lat="47.44134" lon="-2.99843">
        <ele>-1.79</ele>
        <time>2016-08-23T12:04:15Z</time>
      </trkpt>
      <trkpt lat="47.44118" lon="-2.99838">
        <ele>-1.3</ele>
        <time>2016-08-23T12:04:39Z</time>
      </trkpt>
      <trkpt lat="47.44102" lon="-2.99837">
        <ele>-1.3</ele>
        <time>2016-08-23T12:05:04Z</time>
      </trkpt>
      <trkpt lat="47.44093" lon="-2.99837">
        <ele>-1.3</ele>
        <time>2016-08-23T12:05:15Z</time>
      </trkpt>
      <trkpt lat="47.44074" lon="-2.9984">
        <ele>-1.3</ele>
        <time>2016-08-23T12:05:36Z</time>
      </trkpt>
      <trkpt lat="47.44057" lon="-2.99839">
        <ele>-1.79</ele>
        <time>2016-08-23T12:05:55Z</time>
      </trkpt>
      <trkpt lat="47.4404" lon="-2.99838">
        <ele>-0.82</ele>
        <time>2016-08-23T12:06:14Z</time>
      </trkpt>
      <trkpt lat="47.44026" lon="-2.99836">
        <ele>-1.79</ele>
        <time>2016-08-23T12:06:34Z</time>
      </trkpt>
      <trkpt lat="47.44011" lon="-2.99837">
        <ele>-1.79</ele>
        <time>2016-08-23T12:06:53Z</time>
      </trkpt>
      <trkpt lat="47.43996" lon="-2.99836">
        <ele>-1.79</ele>
        <time>2016-08-23T12:07:12Z</time>
      </trkpt>
      <trkpt lat="47.43981" lon="-2.99834">
        <ele>-0.82</ele>
        <time>2016-08-23T12:07:30Z</time>
      </trkpt>
      <trkpt lat="47.43961" lon="-2.99832">
        <ele>-0.82</ele>
        <time>2016-08-23T12:07:53Z</time>
      </trkpt>
      <trkpt lat="47.4395" lon="-2.99829">
        <ele>-0.34</ele>
        <time>2016-08-23T12:08:08Z</time>
      </trkpt>
      <trkpt lat="47.43937" lon="-2.99827">
        <ele>-0.82</ele>
        <time>2016-08-23T12:08:26Z</time>
      </trkpt>
      <trkpt lat="47.43919" lon="-2.99827">
        <ele>-0.82</ele>
        <time>2016-08-23T12:08:48Z</time>
      </trkpt>
      <trkpt lat="47.43908" lon="-2.99824">
        <ele>-1.3</ele>
        <time>2016-08-23T12:09:02Z</time>
      </trkpt>
      <trkpt lat="47.43903" lon="-2.99825">
        <ele>-1.3</ele>
        <time>2016-08-23T12:09:09Z</time>
      </trkpt>
      <trkpt lat="47.43886" lon="-2.99827">
        <ele>-0.34</ele>
        <time>2016-08-23T12:09:27Z</time>
      </trkpt>
      <trkpt lat="47.43868" lon="-2.99829">
        <ele>-0.34</ele>
        <time>2016-08-23T12:09:45Z</time>
      </trkpt>
      <trkpt lat="47.43852" lon="-2.99826">
        <ele>-0.34</ele>
        <time>2016-08-23T12:10:04Z</time>
      </trkpt>
      <trkpt lat="47.43841" lon="-2.99824">
        <ele>-1.79</ele>
        <time>2016-08-23T12:10:19Z</time>
      </trkpt>
      <trkpt lat="47.43828" lon="-2.99822">
        <ele>-3.23</ele>
        <time>2016-08-23T12:10:38Z</time>
      </trkpt>
      <trkpt lat="47.43818" lon="-2.99819">
        <ele>-3.23</ele>
        <time>2016-08-23T12:10:59Z</time>
      </trkpt>
      <trkpt lat="47.4381" lon="-2.9982">
        <ele>-2.75</ele>
        <time>2016-08-23T12:11:15Z</time>
      </trkpt>
      <trkpt lat="47.43798" lon="-2.9982">
        <ele>-1.79</ele>
        <time>2016-08-23T12:11:32Z</time>
      </trkpt>
      <trkpt lat="47.43785" lon="-2.99818">
        <ele>-2.27</ele>
        <time>2016-08-23T12:11:50Z</time>
      </trkpt>
      <trkpt lat="47.43776" lon="-2.99816">
        <ele>-1.79</ele>
        <time>2016-08-23T12:12:03Z</time>
      </trkpt>
      <trkpt lat="47.43764" lon="-2.99815">
        <ele>-1.3</ele>
        <time>2016-08-23T12:12:20Z</time>
      </trkpt>
      <trkpt lat="47.43749" lon="-2.99814">
        <ele>-1.79</ele>
        <time>2016-08-23T12:12:39Z</time>
      </trkpt>
      <trkpt lat="47.43748" lon="-2.99814">
        <ele>-1.79</ele>
        <time>2016-08-23T12:12:40Z</time>
      </trkpt>
      <trkpt lat="47.4373" lon="-2.99813">
        <ele>-2.27</ele>
        <time>2016-08-23T12:13:00Z</time>
      </trkpt>
      <trkpt lat="47.43712" lon="-2.99811">
        <ele>-2.27</ele>
        <time>2016-08-23T12:13:21Z</time>
      </trkpt>
      <trkpt lat="47.43692" lon="-2.99808">
        <ele>-5.15</ele>
        <time>2016-08-23T12:13:44Z</time>
      </trkpt>
      <trkpt lat="47.43682" lon="-2.99805">
        <ele>-4.67</ele>
        <time>2016-08-23T12:13:57Z</time>
      </trkpt>
      <trkpt lat="47.43663" lon="-2.99801">
        <ele>-3.23</ele>
        <time>2016-08-23T12:14:18Z</time>
      </trkpt>
      <trkpt lat="47.43644" lon="-2.99797">
        <ele>-2.75</ele>
        <time>2016-08-23T12:14:38Z</time>
      </trkpt>
      <trkpt lat="47.43626" lon="-2.99793">
        <ele>-2.75</ele>
        <time>2016-08-23T12:14:56Z</time>
      </trkpt>
      <trkpt lat="47.43608" lon="-2.99789">
        <ele>-2.75</ele>
        <time>2016-08-23T12:15:14Z</time>
      </trkpt>
      <trkpt lat="47.43585" lon="-2.99788">
        <ele>-1.79</ele>
        <time>2016-08-23T12:15:33Z</time>
      </trkpt>
      <trkpt lat="47.43565" lon="-2.99785">
        <ele>-1.79</ele>
        <time>2016-08-23T12:15:50Z</time>
      </trkpt>
      <trkpt lat="47.43548" lon="-2.99782">
        <ele>-1.79</ele>
        <time>2016-08-23T12:16:05Z</time>
      </trkpt>
      <trkpt lat="47.43524" lon="-2.99779">
        <ele>-1.79</ele>
        <time>2016-08-23T12:16:24Z</time>
      </trkpt>
      <trkpt lat="47.43493" lon="-2.99776">
        <ele>-3.23</ele>
        <time>2016-08-23T12:16:47Z</time>
      </trkpt>
      <trkpt lat="47.43469" lon="-2.99772">
        <ele>-3.71</ele>
        <time>2016-08-23T12:17:04Z</time>
      </trkpt>
      <trkpt lat="47.4344" lon="-2.99763">
        <ele>-4.19</ele>
        <time>2016-08-23T12:17:25Z</time>
      </trkpt>
      <trkpt lat="47.43416" lon="-2.99755">
        <ele>-5.15</ele>
        <time>2016-08-23T12:17:43Z</time>
      </trkpt>
      <trkpt lat="47.43389" lon="-2.99747">
        <ele>-5.63</ele>
        <time>2016-08-23T12:18:02Z</time>
      </trkpt>
      <trkpt lat="47.43364" lon="-2.99737">
        <ele>-6.11</ele>
        <time>2016-08-23T12:18:20Z</time>
      </trkpt>
      <trkpt lat="47.43345" lon="-2.99728">
        <ele>-5.63</ele>
        <time>2016-08-23T12:18:35Z</time>
      </trkpt>
      <trkpt lat="47.43329" lon="-2.99723">
        <ele>-6.11</ele>
        <time>2016-08-23T12:18:47Z</time>
      </trkpt>
      <trkpt lat="47.43305" lon="-2.99708">
        <ele>-5.63</ele>
        <time>2016-08-23T12:19:08Z</time>
      </trkpt>
      <trkpt lat="47.43281" lon="-2.99694">
        <ele>-6.59</ele>
        <time>2016-08-23T12:19:29Z</time>
      </trkpt>
      <trkpt lat="47.43248" lon="-2.99674">
        <ele>-6.11</ele>
        <time>2016-08-23T12:19:57Z</time>
      </trkpt>
      <trkpt lat="47.43221" lon="-2.99656">
        <ele>-6.11</ele>
        <time>2016-08-23T12:20:22Z</time>
      </trkpt>
      <trkpt lat="47.43189" lon="-2.99641">
        <ele>-4.67</ele>
        <time>2016-08-23T12:20:48Z</time>
      </trkpt>
      <trkpt lat="47.43163" lon="-2.9962">
        <ele>-4.19</ele>
        <time>2016-08-23T12:21:15Z</time>
      </trkpt>
      <trkpt lat="47.43141" lon="-2.99609">
        <ele>-3.71</ele>
        <time>2016-08-23T12:21:36Z</time>
      </trkpt>
      <trkpt lat="47.43125" lon="-2.996">
        <ele>-2.75</ele>
        <time>2016-08-23T12:21:52Z</time>
      </trkpt>
      <trkpt lat="47.43108" lon="-2.99589">
        <ele>-2.75</ele>
        <time>2016-08-23T12:22:10Z</time>
      </trkpt>
      <trkpt lat="47.43088" lon="-2.99573">
        <ele>-1.79</ele>
        <time>2016-08-23T12:22:33Z</time>
      </trkpt>
      <trkpt lat="47.43065" lon="-2.99559">
        <ele>-1.79</ele>
        <time>2016-08-23T12:22:57Z</time>
      </trkpt>
      <trkpt lat="47.43043" lon="-2.99542">
        <ele>-1.79</ele>
        <time>2016-08-23T12:23:23Z</time>
      </trkpt>
      <trkpt lat="47.43025" lon="-2.99533">
        <ele>-2.27</ele>
        <time>2016-08-23T12:23:42Z</time>
      </trkpt>
      <trkpt lat="47.43002" lon="-2.99518">
        <ele>-2.75</ele>
        <time>2016-08-23T12:24:06Z</time>
      </trkpt>
      <trkpt lat="47.42984" lon="-2.99503">
        <ele>-2.75</ele>
        <time>2016-08-23T12:24:29Z</time>
      </trkpt>
      <trkpt lat="47.42965" lon="-2.99492">
        <ele>-2.27</ele>
        <time>2016-08-23T12:24:52Z</time>
      </trkpt>
      <trkpt lat="47.42947" lon="-2.99479">
        <ele>-1.79</ele>
        <time>2016-08-23T12:25:17Z</time>
      </trkpt>
      <trkpt lat="47.42932" lon="-2.99469">
        <ele>-2.75</ele>
        <time>2016-08-23T12:25:39Z</time>
      </trkpt>
      <trkpt lat="47.42917" lon="-2.99462">
        <ele>-2.75</ele>
        <time>2016-08-23T12:25:59Z</time>
      </trkpt>
      <trkpt lat="47.42902" lon="-2.99454">
        <ele>-2.75</ele>
        <time>2016-08-23T12:26:18Z</time>
      </trkpt>
      <trkpt lat="47.42883" lon="-2.99446">
        <ele>-2.75</ele>
        <time>2016-08-23T12:26:38Z</time>
      </trkpt>
      <trkpt lat="47.42861" lon="-2.99435">
        <ele>-2.27</ele>
        <time>2016-08-23T12:27:01Z</time>
      </trkpt>
      <trkpt lat="47.4284" lon="-2.99427">
        <ele>-1.79</ele>
        <time>2016-08-23T12:27:21Z</time>
      </trkpt>
      <trkpt lat="47.42816" lon="-2.99417">
        <ele>-1.79</ele>
        <time>2016-08-23T12:27:41Z</time>
      </trkpt>
      <trkpt lat="47.42794" lon="-2.99405">
        <ele>-1.79</ele>
        <time>2016-08-23T12:28:04Z</time>
      </trkpt>
      <trkpt lat="47.42774" lon="-2.99395">
        <ele>-1.79</ele>
        <time>2016-08-23T12:28:26Z</time>
      </trkpt>
      <trkpt lat="47.42752" lon="-2.99387">
        <ele>-1.79</ele>
        <time>2016-08-23T12:28:48Z</time>
      </trkpt>
      <trkpt lat="47.42727" lon="-2.99378">
        <ele>-1.79</ele>
        <time>2016-08-23T12:29:08Z</time>
      </trkpt>
      <trkpt lat="47.42707" lon="-2.99365">
        <ele>-1.3</ele>
        <time>2016-08-23T12:29:28Z</time>
      </trkpt>
      <trkpt lat="47.42683" lon="-2.99356">
        <ele>-1.79</ele>
        <time>2016-08-23T12:29:50Z</time>
      </trkpt>
      <trkpt lat="47.4266" lon="-2.99346">
        <ele>-2.27</ele>
        <time>2016-08-23T12:30:10Z</time>
      </trkpt>
      <trkpt lat="47.42639" lon="-2.99336">
        <ele>-1.3</ele>
        <time>2016-08-23T12:30:30Z</time>
      </trkpt>
      <trkpt lat="47.42624" lon="-2.99328">
        <ele>-1.3</ele>
        <time>2016-08-23T12:30:46Z</time>
      </trkpt>
      <trkpt lat="47.42611" lon="-2.99316">
        <ele>-0.82</ele>
        <time>2016-08-23T12:31:08Z</time>
      </trkpt>
      <trkpt lat="47.426" lon="-2.99316">
        <ele>-1.79</ele>
        <time>2016-08-23T12:31:23Z</time>
      </trkpt>
      <trkpt lat="47.4258" lon="-2.99312">
        <ele>-0.34</ele>
        <time>2016-08-23T12:31:42Z</time>
      </trkpt>
      <trkpt lat="47.42557" lon="-2.99304">
        <ele>0.14</ele>
        <time>2016-08-23T12:32:01Z</time>
      </trkpt>
      <trkpt lat="47.42534" lon="-2.99295">
        <ele>-0.82</ele>
        <time>2016-08-23T12:32:20Z</time>
      </trkpt>
      <trkpt lat="47.42521" lon="-2.99288">
        <ele>-1.79</ele>
        <time>2016-08-23T12:32:32Z</time>
      </trkpt>
      <trkpt lat="47.42502" lon="-2.99281">
        <ele>-2.27</ele>
        <time>2016-08-23T12:32:50Z</time>
      </trkpt>
      <trkpt lat="47.42486" lon="-2.99275">
        <ele>-1.3</ele>
        <time>2016-08-23T12:33:04Z</time>
      </trkpt>
      <trkpt lat="47.42484" lon="-2.99274">
        <ele>-1.3</ele>
        <time>2016-08-23T12:33:06Z</time>
      </trkpt>
      <trkpt lat="47.42465" lon="-2.99262">
        <ele>-1.3</ele>
        <time>2016-08-23T12:33:26Z</time>
      </trkpt>
      <trkpt lat="47.42446" lon="-2.99253">
        <ele>-1.79</ele>
        <time>2016-08-23T12:33:46Z</time>
      </trkpt>
      <trkpt lat="47.42426" lon="-2.99243">
        <ele>-1.3</ele>
        <time>2016-08-23T12:34:05Z</time>
      </trkpt>
      <trkpt lat="47.42409" lon="-2.99234">
        <ele>-1.3</ele>
        <time>2016-08-23T12:34:23Z</time>
      </trkpt>
      <trkpt lat="47.42392" lon="-2.99227">
        <ele>-1.3</ele>
        <time>2016-08-23T12:34:42Z</time>
      </trkpt>
      <trkpt lat="47.42374" lon="-2.99219">
        <ele>-0.82</ele>
        <time>2016-08-23T12:35:00Z</time>
      </trkpt>
      <trkpt lat="47.42354" lon="-2.99213">
        <ele>-0.34</ele>
        <time>2016-08-23T12:35:20Z</time>
      </trkpt>
      <trkpt lat="47.42333" lon="-2.99204">
        <ele>-1.3</ele>
        <time>2016-08-23T12:35:39Z</time>
      </trkpt>
      <trkpt lat="47.42318" lon="-2.99196">
        <ele>-1.3</ele>
        <time>2016-08-23T12:35:56Z</time>
      </trkpt>
      <trkpt lat="47.42299" lon="-2.9919">
        <ele>-1.3</ele>
        <time>2016-08-23T12:36:16Z</time>
      </trkpt>
      <trkpt lat="47.42284" lon="-2.99184">
        <ele>-1.3</ele>
        <time>2016-08-23T12:36:33Z</time>
      </trkpt>
      <trkpt lat="47.42271" lon="-2.9918">
        <ele>-1.79</ele>
        <time>2016-08-23T12:36:47Z</time>
      </trkpt>
      <trkpt lat="47.42253" lon="-2.99176">
        <ele>-2.27</ele>
        <time>2016-08-23T12:37:05Z</time>
      </trkpt>
      <trkpt lat="47.42239" lon="-2.99175">
        <ele>-1.79</ele>
        <time>2016-08-23T12:37:17Z</time>
      </trkpt>
      <trkpt lat="47.42217" lon="-2.99167">
        <ele>-3.23</ele>
        <time>2016-08-23T12:37:37Z</time>
      </trkpt>
      <trkpt lat="47.422" lon="-2.9916">
        <ele>-2.27</ele>
        <time>2016-08-23T12:37:53Z</time>
      </trkpt>
      <trkpt lat="47.42183" lon="-2.99153">
        <ele>-1.79</ele>
        <time>2016-08-23T12:38:12Z</time>
      </trkpt>
      <trkpt lat="47.42164" lon="-2.99147">
        <ele>-1.3</ele>
        <time>2016-08-23T12:38:33Z</time>
      </trkpt>
      <trkpt lat="47.42145" lon="-2.99143">
        <ele>-1.3</ele>
        <time>2016-08-23T12:38:51Z</time>
      </trkpt>
      <trkpt lat="47.42123" lon="-2.99132">
        <ele>-0.82</ele>
        <time>2016-08-23T12:39:14Z</time>
      </trkpt>
      <trkpt lat="47.42114" lon="-2.99128">
        <ele>-0.82</ele>
        <time>2016-08-23T12:39:24Z</time>
      </trkpt>
      <trkpt lat="47.42099" lon="-2.99122">
        <ele>-1.3</ele>
        <time>2016-08-23T12:39:39Z</time>
      </trkpt>
      <trkpt lat="47.42077" lon="-2.99111">
        <ele>-0.34</ele>
        <time>2016-08-23T12:40:03Z</time>
      </trkpt>
      <trkpt lat="47.42061" lon="-2.99104">
        <ele>0.14</ele>
        <time>2016-08-23T12:40:22Z</time>
      </trkpt>
      <trkpt lat="47.42038" lon="-2.99099">
        <ele>-0.34</ele>
        <time>2016-08-23T12:40:44Z</time>
      </trkpt>
      <trkpt lat="47.4201" lon="-2.99093">
        <ele>0.14</ele>
        <time>2016-08-23T12:41:03Z</time>
      </trkpt>
      <trkpt lat="47.41984" lon="-2.9908">
        <ele>0.14</ele>
        <time>2016-08-23T12:41:22Z</time>
      </trkpt>
      <trkpt lat="47.41958" lon="-2.99069">
        <ele>-0.34</ele>
        <time>2016-08-23T12:41:42Z</time>
      </trkpt>
      <trkpt lat="47.41932" lon="-2.99058">
        <ele>-0.82</ele>
        <time>2016-08-23T12:42:03Z</time>
      </trkpt>
      <trkpt lat="47.41904" lon="-2.99044">
        <ele>-0.82</ele>
        <time>2016-08-23T12:42:25Z</time>
      </trkpt>
      <trkpt lat="47.41879" lon="-2.99033">
        <ele>-0.82</ele>
        <time>2016-08-23T12:42:46Z</time>
      </trkpt>
      <trkpt lat="47.41854" lon="-2.99023">
        <ele>-1.79</ele>
        <time>2016-08-23T12:43:04Z</time>
      </trkpt>
      <trkpt lat="47.41826" lon="-2.99012">
        <ele>-1.3</ele>
        <time>2016-08-23T12:43:23Z</time>
      </trkpt>
      <trkpt lat="47.41791" lon="-2.98998">
        <ele>-0.82</ele>
        <time>2016-08-23T12:43:46Z</time>
      </trkpt>
      <trkpt lat="47.41764" lon="-2.98984">
        <ele>-0.82</ele>
        <time>2016-08-23T12:44:05Z</time>
      </trkpt>
      <trkpt lat="47.41739" lon="-2.98968">
        <ele>-0.34</ele>
        <time>2016-08-23T12:44:25Z</time>
      </trkpt>
      <trkpt lat="47.41713" lon="-2.98954">
        <ele>-0.82</ele>
        <time>2016-08-23T12:44:47Z</time>
      </trkpt>
      <trkpt lat="47.4169" lon="-2.98943">
        <ele>-0.82</ele>
        <time>2016-08-23T12:45:05Z</time>
      </trkpt>
      <trkpt lat="47.41667" lon="-2.98929">
        <ele>-0.34</ele>
        <time>2016-08-23T12:45:25Z</time>
      </trkpt>
      <trkpt lat="47.41646" lon="-2.98916">
        <ele>-0.82</ele>
        <time>2016-08-23T12:45:45Z</time>
      </trkpt>
      <trkpt lat="47.41627" lon="-2.98905">
        <ele>-1.3</ele>
        <time>2016-08-23T12:46:03Z</time>
      </trkpt>
      <trkpt lat="47.41605" lon="-2.98887">
        <ele>-2.27</ele>
        <time>2016-08-23T12:46:27Z</time>
      </trkpt>
      <trkpt lat="47.41587" lon="-2.98879">
        <ele>-0.82</ele>
        <time>2016-08-23T12:46:43Z</time>
      </trkpt>
      <trkpt lat="47.4157" lon="-2.98863">
        <ele>-0.82</ele>
        <time>2016-08-23T12:47:03Z</time>
      </trkpt>
      <trkpt lat="47.4155" lon="-2.98851">
        <ele>-1.3</ele>
        <time>2016-08-23T12:47:22Z</time>
      </trkpt>
      <trkpt lat="47.4153" lon="-2.98837">
        <ele>-0.82</ele>
        <time>2016-08-23T12:47:39Z</time>
      </trkpt>
      <trkpt lat="47.41505" lon="-2.98817">
        <ele>-2.27</ele>
        <time>2016-08-23T12:48:01Z</time>
      </trkpt>
      <trkpt lat="47.41477" lon="-2.98801">
        <ele>-2.27</ele>
        <time>2016-08-23T12:48:23Z</time>
      </trkpt>
      <trkpt lat="47.41452" lon="-2.98783">
        <ele>-2.75</ele>
        <time>2016-08-23T12:48:43Z</time>
      </trkpt>
      <trkpt lat="47.41426" lon="-2.98765">
        <ele>-2.75</ele>
        <time>2016-08-23T12:49:03Z</time>
      </trkpt>
      <trkpt lat="47.41402" lon="-2.98749">
        <ele>-2.75</ele>
        <time>2016-08-23T12:49:21Z</time>
      </trkpt>
      <trkpt lat="47.41382" lon="-2.9873">
        <ele>-2.75</ele>
        <time>2016-08-23T12:49:39Z</time>
      </trkpt>
      <trkpt lat="47.41366" lon="-2.98717">
        <ele>-1.79</ele>
        <time>2016-08-23T12:49:53Z</time>
      </trkpt>
      <trkpt lat="47.41341" lon="-2.98701">
        <ele>-1.79</ele>
        <time>2016-08-23T12:50:13Z</time>
      </trkpt>
      <trkpt lat="47.41322" lon="-2.98685">
        <ele>-2.75</ele>
        <time>2016-08-23T12:50:29Z</time>
      </trkpt>
      <trkpt lat="47.41299" lon="-2.98671">
        <ele>-3.23</ele>
        <time>2016-08-23T12:50:47Z</time>
      </trkpt>
      <trkpt lat="47.41287" lon="-2.9866">
        <ele>-2.27</ele>
        <time>2016-08-23T12:50:57Z</time>
      </trkpt>
      <trkpt lat="47.41269" lon="-2.98645">
        <ele>-1.79</ele>
        <time>2016-08-23T12:51:12Z</time>
      </trkpt>
      <trkpt lat="47.4125" lon="-2.98632">
        <ele>-1.3</ele>
        <time>2016-08-23T12:51:29Z</time>
      </trkpt>
      <trkpt lat="47.41226" lon="-2.98615">
        <ele>-1.79</ele>
        <time>2016-08-23T12:51:49Z</time>
      </trkpt>
      <trkpt lat="47.41206" lon="-2.98604">
        <ele>-2.27</ele>
        <time>2016-08-23T12:52:04Z</time>
      </trkpt>
      <trkpt lat="47.41176" lon="-2.98585">
        <ele>-2.75</ele>
        <time>2016-08-23T12:52:24Z</time>
      </trkpt>
      <trkpt lat="47.41151" lon="-2.9857">
        <ele>-2.75</ele>
        <time>2016-08-23T12:52:42Z</time>
      </trkpt>
      <trkpt lat="47.41134" lon="-2.98556">
        <ele>-1.79</ele>
        <time>2016-08-23T12:52:55Z</time>
      </trkpt>
      <trkpt lat="47.41111" lon="-2.98538">
        <ele>-2.27</ele>
        <time>2016-08-23T12:53:14Z</time>
      </trkpt>
      <trkpt lat="47.41091" lon="-2.98518">
        <ele>-2.27</ele>
        <time>2016-08-23T12:53:33Z</time>
      </trkpt>
      <trkpt lat="47.41077" lon="-2.98504">
        <ele>-1.79</ele>
        <time>2016-08-23T12:53:48Z</time>
      </trkpt>
      <trkpt lat="47.41066" lon="-2.98495">
        <ele>-1.79</ele>
        <time>2016-08-23T12:53:58Z</time>
      </trkpt>
      <trkpt lat="47.41049" lon="-2.98481">
        <ele>-1.79</ele>
        <time>2016-08-23T12:54:14Z</time>
      </trkpt>
      <trkpt lat="47.41029" lon="-2.98466">
        <ele>-0.82</ele>
        <time>2016-08-23T12:54:31Z</time>
      </trkpt>
      <trkpt lat="47.41003" lon="-2.9845">
        <ele>-0.82</ele>
        <time>2016-08-23T12:54:50Z</time>
      </trkpt>
      <trkpt lat="47.40983" lon="-2.98432">
        <ele>-0.82</ele>
        <time>2016-08-23T12:55:07Z</time>
      </trkpt>
      <trkpt lat="47.40961" lon="-2.98415">
        <ele>0.14</ele>
        <time>2016-08-23T12:55:26Z</time>
      </trkpt>
      <trkpt lat="47.40948" lon="-2.98407">
        <ele>-0.34</ele>
        <time>2016-08-23T12:55:37Z</time>
      </trkpt>
      <trkpt lat="47.40932" lon="-2.98398">
        <ele>-0.82</ele>
        <time>2016-08-23T12:55:52Z</time>
      </trkpt>
      <trkpt lat="47.4093" lon="-2.98397">
        <ele>-0.82</ele>
        <time>2016-08-23T12:55:53Z</time>
      </trkpt>
      <trkpt lat="47.40907" lon="-2.98382">
        <ele>1.58</ele>
        <time>2016-08-23T12:56:13Z</time>
      </trkpt>
      <trkpt lat="47.40886" lon="-2.98366">
        <ele>0.14</ele>
        <time>2016-08-23T12:56:31Z</time>
      </trkpt>
      <trkpt lat="47.40867" lon="-2.9835">
        <ele>-1.3</ele>
        <time>2016-08-23T12:56:49Z</time>
      </trkpt>
      <trkpt lat="47.40851" lon="-2.98336">
        <ele>-0.82</ele>
        <time>2016-08-23T12:57:08Z</time>
      </trkpt>
      <trkpt lat="47.40837" lon="-2.98328">
        <ele>-2.27</ele>
        <time>2016-08-23T12:57:24Z</time>
      </trkpt>
      <trkpt lat="47.40831" lon="-2.98326">
        <ele>-1.79</ele>
        <time>2016-08-23T12:57:30Z</time>
      </trkpt>
      <trkpt lat="47.40825" lon="-2.98323">
        <ele>-1.3</ele>
        <time>2016-08-23T12:57:35Z</time>
      </trkpt>
      <trkpt lat="47.4082" lon="-2.9832">
        <ele>-1.3</ele>
        <time>2016-08-23T12:57:41Z</time>
      </trkpt>
      <trkpt lat="47.40815" lon="-2.98316">
        <ele>-1.79</ele>
        <time>2016-08-23T12:57:46Z</time>
      </trkpt>
      <trkpt lat="47.40799" lon="-2.98307">
        <ele>-2.27</ele>
        <time>2016-08-23T12:58:02Z</time>
      </trkpt>
      <trkpt lat="47.40779" lon="-2.98297">
        <ele>-1.3</ele>
        <time>2016-08-23T12:58:22Z</time>
      </trkpt>
      <trkpt lat="47.40768" lon="-2.98292">
        <ele>-1.79</ele>
        <time>2016-08-23T12:58:38Z</time>
      </trkpt>
      <trkpt lat="47.40741" lon="-2.98293">
        <ele>-1.3</ele>
        <time>2016-08-23T12:58:58Z</time>
      </trkpt>
      <trkpt lat="47.40725" lon="-2.98286">
        <ele>-1.3</ele>
        <time>2016-08-23T12:59:13Z</time>
      </trkpt>
      <trkpt lat="47.40699" lon="-2.9828">
        <ele>-1.3</ele>
        <time>2016-08-23T12:59:31Z</time>
      </trkpt>
      <trkpt lat="47.40682" lon="-2.98275">
        <ele>-1.3</ele>
        <time>2016-08-23T12:59:41Z</time>
      </trkpt>
      <trkpt lat="47.40674" lon="-2.98273">
        <ele>-1.3</ele>
        <time>2016-08-23T12:59:46Z</time>
      </trkpt>
      <trkpt lat="47.40642" lon="-2.98267">
        <ele>-2.75</ele>
        <time>2016-08-23T13:00:04Z</time>
      </trkpt>
      <trkpt lat="47.40611" lon="-2.98267">
        <ele>-1.79</ele>
        <time>2016-08-23T13:00:24Z</time>
      </trkpt>
      <trkpt lat="47.40584" lon="-2.98265">
        <ele>-1.3</ele>
        <time>2016-08-23T13:00:41Z</time>
      </trkpt>
      <trkpt lat="47.40552" lon="-2.98264">
        <ele>-1.3</ele>
        <time>2016-08-23T13:01:00Z</time>
      </trkpt>
      <trkpt lat="47.40516" lon="-2.9826">
        <ele>0.14</ele>
        <time>2016-08-23T13:01:20Z</time>
      </trkpt>
      <trkpt lat="47.40481" lon="-2.98259">
        <ele>0.14</ele>
        <time>2016-08-23T13:01:39Z</time>
      </trkpt>
      <trkpt lat="47.40452" lon="-2.98256">
        <ele>-0.82</ele>
        <time>2016-08-23T13:01:55Z</time>
      </trkpt>
      <trkpt lat="47.40417" lon="-2.98254">
        <ele>-1.3</ele>
        <time>2016-08-23T13:02:15Z</time>
      </trkpt>
      <trkpt lat="47.40386" lon="-2.9825">
        <ele>-1.3</ele>
        <time>2016-08-23T13:02:33Z</time>
      </trkpt>
      <trkpt lat="47.40358" lon="-2.98252">
        <ele>-0.34</ele>
        <time>2016-08-23T13:02:50Z</time>
      </trkpt>
      <trkpt lat="47.40323" lon="-2.98244">
        <ele>-1.3</ele>
        <time>2016-08-23T13:03:10Z</time>
      </trkpt>
      <trkpt lat="47.40299" lon="-2.98235">
        <ele>-0.82</ele>
        <time>2016-08-23T13:03:25Z</time>
      </trkpt>
      <trkpt lat="47.40297" lon="-2.98231">
        <ele>-0.82</ele>
        <time>2016-08-23T13:03:28Z</time>
      </trkpt>
      <trkpt lat="47.40303" lon="-2.98203">
        <ele>-1.79</ele>
        <time>2016-08-23T13:03:42Z</time>
      </trkpt>
      <trkpt lat="47.40304" lon="-2.98169">
        <ele>-2.27</ele>
        <time>2016-08-23T13:03:59Z</time>
      </trkpt>
      <trkpt lat="47.40306" lon="-2.98153">
        <ele>-2.27</ele>
        <time>2016-08-23T13:04:06Z</time>
      </trkpt>
      <trkpt lat="47.40306" lon="-2.98151">
        <ele>-2.27</ele>
        <time>2016-08-23T13:04:08Z</time>
      </trkpt>
      <trkpt lat="47.40308" lon="-2.98128">
        <ele>-0.82</ele>
        <time>2016-08-23T13:04:20Z</time>
      </trkpt>
      <trkpt lat="47.40308" lon="-2.98119">
        <ele>0.14</ele>
        <time>2016-08-23T13:04:25Z</time>
      </trkpt>
      <trkpt lat="47.40311" lon="-2.98083">
        <ele>0.14</ele>
        <time>2016-08-23T13:04:43Z</time>
      </trkpt>
      <trkpt lat="47.40308" lon="-2.98068">
        <ele>-0.82</ele>
        <time>2016-08-23T13:05:01Z</time>
      </trkpt>
      <trkpt lat="47.40313" lon="-2.98056">
        <ele>-0.34</ele>
        <time>2016-08-23T13:05:08Z</time>
      </trkpt>
      <trkpt lat="47.40317" lon="-2.98013">
        <ele>0.14</ele>
        <time>2016-08-23T13:05:27Z</time>
      </trkpt>
      <trkpt lat="47.40321" lon="-2.97964">
        <ele>-0.34</ele>
        <time>2016-08-23T13:05:47Z</time>
      </trkpt>
      <trkpt lat="47.40325" lon="-2.97914">
        <ele>-0.34</ele>
        <time>2016-08-23T13:06:07Z</time>
      </trkpt>
      <trkpt lat="47.40327" lon="-2.97856">
        <ele>0.14</ele>
        <time>2016-08-23T13:06:27Z</time>
      </trkpt>
      <trkpt lat="47.40334" lon="-2.97794">
        <ele>0.62</ele>
        <time>2016-08-23T13:06:49Z</time>
      </trkpt>
      <trkpt lat="47.40331" lon="-2.97753">
        <ele>-0.34</ele>
        <time>2016-08-23T13:07:03Z</time>
      </trkpt>
      <trkpt lat="47.40327" lon="-2.97704">
        <ele>0.14</ele>
        <time>2016-08-23T13:07:24Z</time>
      </trkpt>
      <trkpt lat="47.40325" lon="-2.97674">
        <ele>-1.3</ele>
        <time>2016-08-23T13:07:37Z</time>
      </trkpt>
      <trkpt lat="47.40325" lon="-2.97629">
        <ele>-0.34</ele>
        <time>2016-08-23T13:07:56Z</time>
      </trkpt>
      <trkpt lat="47.40325" lon="-2.97563">
        <ele>0.14</ele>
        <time>2016-08-23T13:08:20Z</time>
      </trkpt>
      <trkpt lat="47.40322" lon="-2.97502">
        <ele>1.1</ele>
        <time>2016-08-23T13:08:42Z</time>
      </trkpt>
      <trkpt lat="47.4032" lon="-2.97446">
        <ele>0.14</ele>
        <time>2016-08-23T13:09:03Z</time>
      </trkpt>
      <trkpt lat="47.40316" lon="-2.97385">
        <ele>0.14</ele>
        <time>2016-08-23T13:09:25Z</time>
      </trkpt>
      <trkpt lat="47.40314" lon="-2.97326">
        <ele>0.14</ele>
        <time>2016-08-23T13:09:47Z</time>
      </trkpt>
      <trkpt lat="47.40313" lon="-2.97264">
        <ele>0.14</ele>
        <time>2016-08-23T13:10:09Z</time>
      </trkpt>
      <trkpt lat="47.40313" lon="-2.97207">
        <ele>0.14</ele>
        <time>2016-08-23T13:10:28Z</time>
      </trkpt>
      <trkpt lat="47.40312" lon="-2.97156">
        <ele>1.1</ele>
        <time>2016-08-23T13:10:46Z</time>
      </trkpt>
      <trkpt lat="47.40309" lon="-2.97105">
        <ele>0.14</ele>
        <time>2016-08-23T13:11:06Z</time>
      </trkpt>
      <trkpt lat="47.40305" lon="-2.97067">
        <ele>-0.34</ele>
        <time>2016-08-23T13:11:22Z</time>
      </trkpt>
      <trkpt lat="47.40303" lon="-2.9701">
        <ele>0.62</ele>
        <time>2016-08-23T13:11:43Z</time>
      </trkpt>
      <trkpt lat="47.40296" lon="-2.96965">
        <ele>0.62</ele>
        <time>2016-08-23T13:12:01Z</time>
      </trkpt>
      <trkpt lat="47.40291" lon="-2.96918">
        <ele>0.14</ele>
        <time>2016-08-23T13:12:22Z</time>
      </trkpt>
      <trkpt lat="47.40292" lon="-2.96862">
        <ele>0.62</ele>
        <time>2016-08-23T13:12:43Z</time>
      </trkpt>
      <trkpt lat="47.40291" lon="-2.96798">
        <ele>1.1</ele>
        <time>2016-08-23T13:13:06Z</time>
      </trkpt>
      <trkpt lat="47.40287" lon="-2.96744">
        <ele>1.1</ele>
        <time>2016-08-23T13:13:25Z</time>
      </trkpt>
      <trkpt lat="47.40285" lon="-2.96695">
        <ele>1.1</ele>
        <time>2016-08-23T13:13:44Z</time>
      </trkpt>
      <trkpt lat="47.40284" lon="-2.96661">
        <ele>0.62</ele>
        <time>2016-08-23T13:13:57Z</time>
      </trkpt>
      <trkpt lat="47.40279" lon="-2.9661">
        <ele>1.58</ele>
        <time>2016-08-23T13:14:19Z</time>
      </trkpt>
      <trkpt lat="47.40278" lon="-2.96566">
        <ele>2.06</ele>
        <time>2016-08-23T13:14:42Z</time>
      </trkpt>
      <trkpt lat="47.40277" lon="-2.96528">
        <ele>1.1</ele>
        <time>2016-08-23T13:15:01Z</time>
      </trkpt>
      <trkpt lat="47.40281" lon="-2.96474">
        <ele>1.58</ele>
        <time>2016-08-23T13:15:22Z</time>
      </trkpt>
      <trkpt lat="47.4029" lon="-2.96425">
        <ele>0.62</ele>
        <time>2016-08-23T13:15:40Z</time>
      </trkpt>
      <trkpt lat="47.40295" lon="-2.96374">
        <ele>1.58</ele>
        <time>2016-08-23T13:15:59Z</time>
      </trkpt>
      <trkpt lat="47.40293" lon="-2.9633">
        <ele>1.1</ele>
        <time>2016-08-23T13:16:17Z</time>
      </trkpt>
      <trkpt lat="47.40289" lon="-2.96293">
        <ele>0.62</ele>
        <time>2016-08-23T13:16:34Z</time>
      </trkpt>
      <trkpt lat="47.40285" lon="-2.96239">
        <ele>1.58</ele>
        <time>2016-08-23T13:16:59Z</time>
      </trkpt>
      <trkpt lat="47.40278" lon="-2.96189">
        <ele>0.14</ele>
        <time>2016-08-23T13:17:23Z</time>
      </trkpt>
      <trkpt lat="47.40276" lon="-2.9618">
        <ele>0.62</ele>
        <time>2016-08-23T13:17:28Z</time>
      </trkpt>
      <trkpt lat="47.40274" lon="-2.96171">
        <ele>0.62</ele>
        <time>2016-08-23T13:17:33Z</time>
      </trkpt>
      <trkpt lat="47.40268" lon="-2.96139">
        <ele>-0.34</ele>
        <time>2016-08-23T13:17:55Z</time>
      </trkpt>
      <trkpt lat="47.40268" lon="-2.96133">
        <ele>0.14</ele>
        <time>2016-08-23T13:17:59Z</time>
      </trkpt>
      <trkpt lat="47.40266" lon="-2.96122">
        <ele>0.14</ele>
        <time>2016-08-23T13:18:07Z</time>
      </trkpt>
      <trkpt lat="47.40263" lon="-2.96104">
        <ele>0.62</ele>
        <time>2016-08-23T13:18:20Z</time>
      </trkpt>
      <trkpt lat="47.40258" lon="-2.96075">
        <ele>-0.34</ele>
        <time>2016-08-23T13:18:40Z</time>
      </trkpt>
      <trkpt lat="47.40257" lon="-2.96063">
        <ele>-0.82</ele>
        <time>2016-08-23T13:18:51Z</time>
      </trkpt>
      <trkpt lat="47.40253" lon="-2.96044">
        <ele>-0.82</ele>
        <time>2016-08-23T13:19:06Z</time>
      </trkpt>
      <trkpt lat="47.40241" lon="-2.96012">
        <ele>-0.34</ele>
        <time>2016-08-23T13:19:24Z</time>
      </trkpt>
      <trkpt lat="47.40227" lon="-2.95986">
        <ele>-0.34</ele>
        <time>2016-08-23T13:19:38Z</time>
      </trkpt>
      <trkpt lat="47.40211" lon="-2.95967">
        <ele>0.14</ele>
        <time>2016-08-23T13:19:51Z</time>
      </trkpt>
      <trkpt lat="47.40195" lon="-2.95942">
        <ele>0.62</ele>
        <time>2016-08-23T13:20:05Z</time>
      </trkpt>
      <trkpt lat="47.40184" lon="-2.95921">
        <ele>0.14</ele>
        <time>2016-08-23T13:20:16Z</time>
      </trkpt>
      <trkpt lat="47.40166" lon="-2.95891">
        <ele>-0.34</ele>
        <time>2016-08-23T13:20:32Z</time>
      </trkpt>
      <trkpt lat="47.4015" lon="-2.95862">
        <ele>-0.82</ele>
        <time>2016-08-23T13:20:46Z</time>
      </trkpt>
      <trkpt lat="47.40133" lon="-2.95844">
        <ele>-1.3</ele>
        <time>2016-08-23T13:20:59Z</time>
      </trkpt>
      <trkpt lat="47.40124" lon="-2.95832">
        <ele>-2.27</ele>
        <time>2016-08-23T13:21:06Z</time>
      </trkpt>
      <trkpt lat="47.40117" lon="-2.95821">
        <ele>-0.82</ele>
        <time>2016-08-23T13:21:13Z</time>
      </trkpt>
      <trkpt lat="47.40094" lon="-2.95783">
        <ele>-1.3</ele>
        <time>2016-08-23T13:21:33Z</time>
      </trkpt>
      <trkpt lat="47.40075" lon="-2.95756">
        <ele>-0.34</ele>
        <time>2016-08-23T13:21:50Z</time>
      </trkpt>
      <trkpt lat="47.40057" lon="-2.95719">
        <ele>-0.82</ele>
        <time>2016-08-23T13:22:08Z</time>
      </trkpt>
      <trkpt lat="47.40056" lon="-2.95718">
        <ele>-0.82</ele>
        <time>2016-08-23T13:22:09Z</time>
      </trkpt>
      <trkpt lat="47.40051" lon="-2.95708">
        <ele>-1.79</ele>
        <time>2016-08-23T13:22:14Z</time>
      </trkpt>
      <trkpt lat="47.4003" lon="-2.95669">
        <ele>-2.75</ele>
        <time>2016-08-23T13:22:34Z</time>
      </trkpt>
      <trkpt lat="47.40016" lon="-2.95649">
        <ele>0.14</ele>
        <time>2016-08-23T13:22:46Z</time>
      </trkpt>
      <trkpt lat="47.40003" lon="-2.95623">
        <ele>-2.75</ele>
        <time>2016-08-23T13:23:00Z</time>
      </trkpt>
      <trkpt lat="47.39986" lon="-2.95591">
        <ele>-3.71</ele>
        <time>2016-08-23T13:23:17Z</time>
      </trkpt>
      <trkpt lat="47.39979" lon="-2.95577">
        <ele>-2.75</ele>
        <time>2016-08-23T13:23:24Z</time>
      </trkpt>
      <trkpt lat="47.39967" lon="-2.95552">
        <ele>-1.3</ele>
        <time>2016-08-23T13:23:37Z</time>
      </trkpt>
      <trkpt lat="47.39948" lon="-2.95524">
        <ele>-0.34</ele>
        <time>2016-08-23T13:23:53Z</time>
      </trkpt>
      <trkpt lat="47.39926" lon="-2.955">
        <ele>0.14</ele>
        <time>2016-08-23T13:24:10Z</time>
      </trkpt>
      <trkpt lat="47.399" lon="-2.95465">
        <ele>-0.34</ele>
        <time>2016-08-23T13:24:31Z</time>
      </trkpt>
      <trkpt lat="47.39882" lon="-2.95438">
        <ele>-0.34</ele>
        <time>2016-08-23T13:24:45Z</time>
      </trkpt>
      <trkpt lat="47.39865" lon="-2.95412">
        <ele>-0.82</ele>
        <time>2016-08-23T13:24:58Z</time>
      </trkpt>
      <trkpt lat="47.39849" lon="-2.95385">
        <ele>-0.34</ele>
        <time>2016-08-23T13:25:12Z</time>
      </trkpt>
      <trkpt lat="47.39833" lon="-2.9536">
        <ele>-0.82</ele>
        <time>2016-08-23T13:25:26Z</time>
      </trkpt>
      <trkpt lat="47.39811" lon="-2.9533">
        <ele>-0.82</ele>
        <time>2016-08-23T13:25:43Z</time>
      </trkpt>
      <trkpt lat="47.39788" lon="-2.95285">
        <ele>0.14</ele>
        <time>2016-08-23T13:26:04Z</time>
      </trkpt>
      <trkpt lat="47.39772" lon="-2.95241">
        <ele>1.1</ele>
        <time>2016-08-23T13:26:22Z</time>
      </trkpt>
      <trkpt lat="47.39764" lon="-2.95199">
        <ele>0.14</ele>
        <time>2016-08-23T13:26:37Z</time>
      </trkpt>
      <trkpt lat="47.39758" lon="-2.95151">
        <ele>0.14</ele>
        <time>2016-08-23T13:26:54Z</time>
      </trkpt>
      <trkpt lat="47.39751" lon="-2.95095">
        <ele>0.14</ele>
        <time>2016-08-23T13:27:13Z</time>
      </trkpt>
      <trkpt lat="47.39739" lon="-2.95025">
        <ele>-0.82</ele>
        <time>2016-08-23T13:27:36Z</time>
      </trkpt>
      <trkpt lat="47.39729" lon="-2.94967">
        <ele>-0.34</ele>
        <time>2016-08-23T13:27:56Z</time>
      </trkpt>
      <trkpt lat="47.39721" lon="-2.94913">
        <ele>0.14</ele>
        <time>2016-08-23T13:28:15Z</time>
      </trkpt>
      <trkpt lat="47.39714" lon="-2.94879">
        <ele>-0.34</ele>
        <time>2016-08-23T13:28:31Z</time>
      </trkpt>
      <trkpt lat="47.39701" lon="-2.94861">
        <ele>-1.3</ele>
        <time>2016-08-23T13:28:50Z</time>
      </trkpt>
      <trkpt lat="47.3969" lon="-2.94852">
        <ele>-2.27</ele>
        <time>2016-08-23T13:29:05Z</time>
      </trkpt>
      <trkpt lat="47.39682" lon="-2.94843">
        <ele>-2.75</ele>
        <time>2016-08-23T13:29:19Z</time>
      </trkpt>
      <trkpt lat="47.39675" lon="-2.94831">
        <ele>-2.27</ele>
        <time>2016-08-23T13:29:36Z</time>
      </trkpt>
      <trkpt lat="47.39667" lon="-2.94818">
        <ele>-1.3</ele>
        <time>2016-08-23T13:29:53Z</time>
      </trkpt>
      <trkpt lat="47.39662" lon="-2.94803">
        <ele>-1.3</ele>
        <time>2016-08-23T13:30:11Z</time>
      </trkpt>
      <trkpt lat="47.39659" lon="-2.94792">
        <ele>-1.3</ele>
        <time>2016-08-23T13:30:22Z</time>
      </trkpt>
      <trkpt lat="47.3965" lon="-2.94767">
        <ele>-1.79</ele>
        <time>2016-08-23T13:30:42Z</time>
      </trkpt>
      <trkpt lat="47.39642" lon="-2.94739">
        <ele>-1.79</ele>
        <time>2016-08-23T13:31:02Z</time>
      </trkpt>
      <trkpt lat="47.3963" lon="-2.94714">
        <ele>-2.27</ele>
        <time>2016-08-23T13:31:23Z</time>
      </trkpt>
      <trkpt lat="47.39625" lon="-2.94707">
        <ele>-2.27</ele>
        <time>2016-08-23T13:31:32Z</time>
      </trkpt>
      <trkpt lat="47.39624" lon="-2.94705">
        <ele>-2.27</ele>
        <time>2016-08-23T13:31:34Z</time>
      </trkpt>
      <trkpt lat="47.39613" lon="-2.94692">
        <ele>-1.79</ele>
        <time>2016-08-23T13:31:51Z</time>
      </trkpt>
      <trkpt lat="47.39606" lon="-2.9468">
        <ele>-0.82</ele>
        <time>2016-08-23T13:32:07Z</time>
      </trkpt>
      <trkpt lat="47.39598" lon="-2.94665">
        <ele>-1.3</ele>
        <time>2016-08-23T13:32:23Z</time>
      </trkpt>
      <trkpt lat="47.39594" lon="-2.94659">
        <ele>-1.79</ele>
        <time>2016-08-23T13:32:31Z</time>
      </trkpt>
      <trkpt lat="47.39584" lon="-2.9464">
        <ele>-0.82</ele>
        <time>2016-08-23T13:32:46Z</time>
      </trkpt>
      <trkpt lat="47.3957" lon="-2.94619">
        <ele>-1.3</ele>
        <time>2016-08-23T13:33:02Z</time>
      </trkpt>
      <trkpt lat="47.39558" lon="-2.94599">
        <ele>-1.79</ele>
        <time>2016-08-23T13:33:18Z</time>
      </trkpt>
      <trkpt lat="47.39553" lon="-2.94589">
        <ele>-1.3</ele>
        <time>2016-08-23T13:33:27Z</time>
      </trkpt>
      <trkpt lat="47.39552" lon="-2.94585">
        <ele>-1.79</ele>
        <time>2016-08-23T13:33:30Z</time>
      </trkpt>
      <trkpt lat="47.39545" lon="-2.94572">
        <ele>-2.27</ele>
        <time>2016-08-23T13:33:45Z</time>
      </trkpt>
      <trkpt lat="47.39544" lon="-2.9457">
        <ele>-2.27</ele>
        <time>2016-08-23T13:34:01Z</time>
      </trkpt>
      <trkpt lat="47.39543" lon="-2.94568">
        <ele>-1.79</ele>
        <time>2016-08-23T13:34:24Z</time>
      </trkpt>
      <trkpt lat="47.39542" lon="-2.94565">
        <ele>-1.3</ele>
        <time>2016-08-23T13:34:43Z</time>
      </trkpt>
      <trkpt lat="47.39544" lon="-2.94555">
        <ele>-2.27</ele>
        <time>2016-08-23T13:35:02Z</time>
      </trkpt>
      <trkpt lat="47.39542" lon="-2.94545">
        <ele>-2.75</ele>
        <time>2016-08-23T13:35:23Z</time>
      </trkpt>
      <trkpt lat="47.39537" lon="-2.94535">
        <ele>-1.79</ele>
        <time>2016-08-23T13:35:42Z</time>
      </trkpt>
      <trkpt lat="47.39535" lon="-2.94532">
        <ele>-0.82</ele>
        <time>2016-08-23T13:35:55Z</time>
      </trkpt>
      <trkpt lat="47.39535" lon="-2.94529">
        <ele>-0.34</ele>
        <time>2016-08-23T13:36:06Z</time>
      </trkpt>
      <trkpt lat="47.39535" lon="-2.94527">
        <ele>-0.34</ele>
        <time>2016-08-23T13:36:25Z</time>
      </trkpt>
      <trkpt lat="47.39527" lon="-2.94514">
        <ele>0.14</ele>
        <time>2016-08-23T13:36:38Z</time>
      </trkpt>
      <trkpt lat="47.39512" lon="-2.94499">
        <ele>-0.82</ele>
        <time>2016-08-23T13:36:54Z</time>
      </trkpt>
      <trkpt lat="47.39495" lon="-2.94487">
        <ele>-0.82</ele>
        <time>2016-08-23T13:37:13Z</time>
      </trkpt>
      <trkpt lat="47.39486" lon="-2.94483">
        <ele>-0.82</ele>
        <time>2016-08-23T13:37:26Z</time>
      </trkpt>
      <trkpt lat="47.39476" lon="-2.94478">
        <ele>-0.34</ele>
        <time>2016-08-23T13:37:43Z</time>
      </trkpt>
      <trkpt lat="47.39473" lon="-2.94476">
        <ele>-0.34</ele>
        <time>2016-08-23T13:37:55Z</time>
      </trkpt>
      <trkpt lat="47.3947" lon="-2.94473">
        <ele>-0.34</ele>
        <time>2016-08-23T13:38:09Z</time>
      </trkpt>
      <trkpt lat="47.39468" lon="-2.94472">
        <ele>0.14</ele>
        <time>2016-08-23T13:38:31Z</time>
      </trkpt>
      <trkpt lat="47.39468" lon="-2.94476">
        <ele>0.14</ele>
        <time>2016-08-23T13:38:50Z</time>
      </trkpt>
      <trkpt lat="47.39468" lon="-2.94478">
        <ele>0.14</ele>
        <time>2016-08-23T13:39:06Z</time>
      </trkpt>
      <trkpt lat="47.39467" lon="-2.94481">
        <ele>0.62</ele>
        <time>2016-08-23T13:39:25Z</time>
      </trkpt>
      <trkpt lat="47.39468" lon="-2.94483">
        <ele>0.14</ele>
        <time>2016-08-23T13:39:42Z</time>
      </trkpt>
      <trkpt lat="47.39469" lon="-2.94484">
        <ele>-0.34</ele>
        <time>2016-08-23T13:40:00Z</time>
      </trkpt>
      <trkpt lat="47.39473" lon="-2.94483">
        <ele>-0.34</ele>
        <time>2016-08-23T13:40:09Z</time>
      </trkpt>
      <trkpt lat="47.39474" lon="-2.94483">
        <ele>-0.34</ele>
        <time>2016-08-23T13:40:16Z</time>
      </trkpt>
      <trkpt lat="47.39476" lon="-2.94482">
        <ele>-0.34</ele>
        <time>2016-08-23T13:40:28Z</time>
      </trkpt>
      <trkpt lat="47.39477" lon="-2.94481">
        <ele>-0.34</ele>
        <time>2016-08-23T13:40:47Z</time>
      </trkpt>
      <trkpt lat="47.39479" lon="-2.94479">
        <ele>-0.34</ele>
        <time>2016-08-23T13:41:03Z</time>
      </trkpt>
      <trkpt lat="47.3948" lon="-2.94478">
        <ele>-0.34</ele>
        <time>2016-08-23T13:41:21Z</time>
      </trkpt>
      <trkpt lat="47.39482" lon="-2.94475">
        <ele>0.14</ele>
        <time>2016-08-23T13:41:44Z</time>
      </trkpt>
      <trkpt lat="47.39482" lon="-2.94474">
        <ele>0.14</ele>
        <time>2016-08-23T13:42:00Z</time>
      </trkpt>
      <trkpt lat="47.39482" lon="-2.94473">
        <ele>0.14</ele>
        <time>2016-08-23T13:42:15Z</time>
      </trkpt>
      <trkpt lat="47.39482" lon="-2.94473">
        <ele>0.14</ele>
        <time>2016-08-23T13:42:37Z</time>
      </trkpt>
      <trkpt lat="47.39482" lon="-2.94473">
        <ele>0.14</ele>
        <time>2016-08-23T13:42:55Z</time>
      </trkpt>
      <trkpt lat="47.39482" lon="-2.94474">
        <ele>0.14</ele>
        <time>2016-08-23T13:43:22Z</time>
      </trkpt>
      <trkpt lat="47.39483" lon="-2.94476">
        <ele>0.14</ele>
        <time>2016-08-23T13:43:34Z</time>
      </trkpt>
      <trkpt lat="47.39483" lon="-2.94476">
        <ele>0.14</ele>
        <time>2016-08-23T13:43:36Z</time>
      </trkpt>
      <trkpt lat="47.39471" lon="-2.94466">
        <ele>3.5</ele>
        <time>2016-08-23T15:33:32Z</time>
      </trkpt>
      <trkpt lat="47.39477" lon="-2.94461">
        <ele>1.1</ele>
        <time>2016-08-23T15:33:53Z</time>
      </trkpt>
      <trkpt lat="47.39482" lon="-2.94463">
        <ele>1.58</ele>
        <time>2016-08-23T15:34:09Z</time>
      </trkpt>
      <trkpt lat="47.39503" lon="-2.94496">
        <ele>1.58</ele>
        <time>2016-08-23T15:34:30Z</time>
      </trkpt>
      <trkpt lat="47.39528" lon="-2.94559">
        <ele>1.58</ele>
        <time>2016-08-23T15:34:57Z</time>
      </trkpt>
      <trkpt lat="47.39531" lon="-2.94612">
        <ele>1.1</ele>
        <time>2016-08-23T15:35:19Z</time>
      </trkpt>
      <trkpt lat="47.39537" lon="-2.94661">
        <ele>1.1</ele>
        <time>2016-08-23T15:35:40Z</time>
      </trkpt>
      <trkpt lat="47.39544" lon="-2.94716">
        <ele>1.1</ele>
        <time>2016-08-23T15:36:04Z</time>
      </trkpt>
      <trkpt lat="47.39551" lon="-2.94769">
        <ele>1.58</ele>
        <time>2016-08-23T15:36:26Z</time>
      </trkpt>
      <trkpt lat="47.39556" lon="-2.94811">
        <ele>1.58</ele>
        <time>2016-08-23T15:36:44Z</time>
      </trkpt>
      <trkpt lat="47.39559" lon="-2.94846">
        <ele>2.06</ele>
        <time>2016-08-23T15:36:59Z</time>
      </trkpt>
      <trkpt lat="47.3956" lon="-2.9486">
        <ele>1.58</ele>
        <time>2016-08-23T15:37:05Z</time>
      </trkpt>
      <trkpt lat="47.39561" lon="-2.94881">
        <ele>1.58</ele>
        <time>2016-08-23T15:37:15Z</time>
      </trkpt>
      <trkpt lat="47.39561" lon="-2.94928">
        <ele>2.06</ele>
        <time>2016-08-23T15:37:36Z</time>
      </trkpt>
      <trkpt lat="47.39539" lon="-2.94957">
        <ele>3.02</ele>
        <time>2016-08-23T15:37:57Z</time>
      </trkpt>
      <trkpt lat="47.39507" lon="-2.94988">
        <ele>3.02</ele>
        <time>2016-08-23T15:38:21Z</time>
      </trkpt>
      <trkpt lat="47.39482" lon="-2.95019">
        <ele>3.02</ele>
        <time>2016-08-23T15:38:43Z</time>
      </trkpt>
      <trkpt lat="47.39449" lon="-2.9506">
        <ele>3.02</ele>
        <time>2016-08-23T15:39:11Z</time>
      </trkpt>
      <trkpt lat="47.39422" lon="-2.95091">
        <ele>3.98</ele>
        <time>2016-08-23T15:39:34Z</time>
      </trkpt>
      <trkpt lat="47.3941" lon="-2.95105">
        <ele>3.5</ele>
        <time>2016-08-23T15:39:57Z</time>
      </trkpt>
      <trkpt lat="47.39404" lon="-2.95114">
        <ele>3.5</ele>
        <time>2016-08-23T15:40:22Z</time>
      </trkpt>
      <trkpt lat="47.39404" lon="-2.95116">
        <ele>3.98</ele>
        <time>2016-08-23T15:40:48Z</time>
      </trkpt>
      <trkpt lat="47.39404" lon="-2.95114">
        <ele>3.5</ele>
        <time>2016-08-23T15:41:11Z</time>
      </trkpt>
      <trkpt lat="47.39405" lon="-2.95111">
        <ele>3.5</ele>
        <time>2016-08-23T15:41:38Z</time>
      </trkpt>
      <trkpt lat="47.39407" lon="-2.95108">
        <ele>3.5</ele>
        <time>2016-08-23T15:42:00Z</time>
      </trkpt>
      <trkpt lat="47.39409" lon="-2.95106">
        <ele>2.54</ele>
        <time>2016-08-23T15:42:20Z</time>
      </trkpt>
      <trkpt lat="47.3941" lon="-2.95106">
        <ele>2.06</ele>
        <time>2016-08-23T15:42:43Z</time>
      </trkpt>
      <trkpt lat="47.39411" lon="-2.95107">
        <ele>1.58</ele>
        <time>2016-08-23T15:43:04Z</time>
      </trkpt>
      <trkpt lat="47.39413" lon="-2.95109">
        <ele>1.58</ele>
        <time>2016-08-23T15:43:27Z</time>
      </trkpt>
      <trkpt lat="47.39414" lon="-2.95112">
        <ele>0.62</ele>
        <time>2016-08-23T15:43:47Z</time>
      </trkpt>
      <trkpt lat="47.39415" lon="-2.95114">
        <ele>0.62</ele>
        <time>2016-08-23T15:44:10Z</time>
      </trkpt>
      <trkpt lat="47.39416" lon="-2.95114">
        <ele>0.62</ele>
        <time>2016-08-23T15:44:36Z</time>
      </trkpt>
      <trkpt lat="47.39416" lon="-2.95115">
        <ele>1.1</ele>
        <time>2016-08-23T15:45:02Z</time>
      </trkpt>
      <trkpt lat="47.39422" lon="-2.95113">
        <ele>1.58</ele>
        <time>2016-08-23T15:45:29Z</time>
      </trkpt>
      <trkpt lat="47.39413" lon="-2.95117">
        <ele>1.1</ele>
        <time>2016-08-23T15:45:48Z</time>
      </trkpt>
      <trkpt lat="47.39403" lon="-2.95132">
        <ele>1.58</ele>
        <time>2016-08-23T15:46:07Z</time>
      </trkpt>
      <trkpt lat="47.3939" lon="-2.95154">
        <ele>3.02</ele>
        <time>2016-08-23T15:46:30Z</time>
      </trkpt>
      <trkpt lat="47.39378" lon="-2.95186">
        <ele>3.5</ele>
        <time>2016-08-23T15:46:53Z</time>
      </trkpt>
      <trkpt lat="47.39362" lon="-2.95241">
        <ele>3.02</ele>
        <time>2016-08-23T15:47:17Z</time>
      </trkpt>
      <trkpt lat="47.39343" lon="-2.95291">
        <ele>2.54</ele>
        <time>2016-08-23T15:47:38Z</time>
      </trkpt>
      <trkpt lat="47.39328" lon="-2.95343">
        <ele>3.02</ele>
        <time>2016-08-23T15:48:00Z</time>
      </trkpt>
      <trkpt lat="47.39317" lon="-2.95378">
        <ele>3.02</ele>
        <time>2016-08-23T15:48:18Z</time>
      </trkpt>
      <trkpt lat="47.39305" lon="-2.95421">
        <ele>3.5</ele>
        <time>2016-08-23T15:48:38Z</time>
      </trkpt>
      <trkpt lat="47.39292" lon="-2.95459">
        <ele>3.5</ele>
        <time>2016-08-23T15:48:54Z</time>
      </trkpt>
      <trkpt lat="47.39273" lon="-2.95499">
        <ele>3.02</ele>
        <time>2016-08-23T15:49:12Z</time>
      </trkpt>
      <trkpt lat="47.39262" lon="-2.95545">
        <ele>3.02</ele>
        <time>2016-08-23T15:49:34Z</time>
      </trkpt>
      <trkpt lat="47.39271" lon="-2.95598">
        <ele>3.5</ele>
        <time>2016-08-23T15:50:03Z</time>
      </trkpt>
      <trkpt lat="47.39278" lon="-2.95627">
        <ele>3.98</ele>
        <time>2016-08-23T15:50:27Z</time>
      </trkpt>
      <trkpt lat="47.39281" lon="-2.95629">
        <ele>4.46</ele>
        <time>2016-08-23T15:50:50Z</time>
      </trkpt>
      <trkpt lat="47.39273" lon="-2.95612">
        <ele>3.98</ele>
        <time>2016-08-23T15:51:16Z</time>
      </trkpt>
      <trkpt lat="47.39263" lon="-2.95589">
        <ele>3.98</ele>
        <time>2016-08-23T15:51:48Z</time>
      </trkpt>
      <trkpt lat="47.39268" lon="-2.9559">
        <ele>3.98</ele>
        <time>2016-08-23T15:52:11Z</time>
      </trkpt>
      <trkpt lat="47.39275" lon="-2.95589">
        <ele>3.5</ele>
        <time>2016-08-23T15:52:32Z</time>
      </trkpt>
      <trkpt lat="47.39276" lon="-2.95589">
        <ele>2.06</ele>
        <time>2016-08-23T15:52:59Z</time>
      </trkpt>
      <trkpt lat="47.39278" lon="-2.95587">
        <ele>2.54</ele>
        <time>2016-08-23T15:53:25Z</time>
      </trkpt>
      <trkpt lat="47.39278" lon="-2.95587">
        <ele>2.54</ele>
        <time>2016-08-23T15:53:53Z</time>
      </trkpt>
      <trkpt lat="47.39277" lon="-2.95587">
        <ele>2.06</ele>
        <time>2016-08-23T15:54:14Z</time>
      </trkpt>
      <trkpt lat="47.39278" lon="-2.95587">
        <ele>1.58</ele>
        <time>2016-08-23T15:54:36Z</time>
      </trkpt>
      <trkpt lat="47.39278" lon="-2.95586">
        <ele>1.1</ele>
        <time>2016-08-23T15:54:58Z</time>
      </trkpt>
      <trkpt lat="47.39278" lon="-2.95586">
        <ele>0.14</ele>
        <time>2016-08-23T15:55:26Z</time>
      </trkpt>
      <trkpt lat="47.39278" lon="-2.95586">
        <ele>-0.34</ele>
        <time>2016-08-23T15:55:53Z</time>
      </trkpt>
      <trkpt lat="47.39278" lon="-2.95586">
        <ele>-0.82</ele>
        <time>2016-08-23T15:56:16Z</time>
      </trkpt>
      <trkpt lat="47.39279" lon="-2.95585">
        <ele>-1.3</ele>
        <time>2016-08-23T15:56:43Z</time>
      </trkpt>
      <trkpt lat="47.39279" lon="-2.95585">
        <ele>-1.3</ele>
        <time>2016-08-23T15:57:07Z</time>
      </trkpt>
      <trkpt lat="47.39278" lon="-2.95585">
        <ele>-1.3</ele>
        <time>2016-08-23T15:57:27Z</time>
      </trkpt>
      <trkpt lat="47.39278" lon="-2.95585">
        <ele>-1.79</ele>
        <time>2016-08-23T15:57:52Z</time>
      </trkpt>
      <trkpt lat="47.39278" lon="-2.95584">
        <ele>-1.79</ele>
        <time>2016-08-23T15:58:22Z</time>
      </trkpt>
      <trkpt lat="47.39278" lon="-2.95584">
        <ele>-1.79</ele>
        <time>2016-08-23T15:58:46Z</time>
      </trkpt>
      <trkpt lat="47.39279" lon="-2.95585">
        <ele>-1.3</ele>
        <time>2016-08-23T15:59:15Z</time>
      </trkpt>
      <trkpt lat="47.39278" lon="-2.95586">
        <ele>-1.3</ele>
        <time>2016-08-23T15:59:44Z</time>
      </trkpt>
      <trkpt lat="47.39278" lon="-2.95585">
        <ele>-0.82</ele>
        <time>2016-08-23T16:00:09Z</time>
      </trkpt>
      <trkpt lat="47.39278" lon="-2.95585">
        <ele>-0.34</ele>
        <time>2016-08-23T16:00:31Z</time>
      </trkpt>
      <trkpt lat="47.39277" lon="-2.95585">
        <ele>-0.82</ele>
        <time>2016-08-23T16:00:50Z</time>
      </trkpt>
      <trkpt lat="47.39277" lon="-2.95586">
        <ele>-0.34</ele>
        <time>2016-08-23T16:01:09Z</time>
      </trkpt>
      <trkpt lat="47.39277" lon="-2.95586">
        <ele>-0.34</ele>
        <time>2016-08-23T16:01:12Z</time>
      </trkpt>
      <trkpt lat="47.39312" lon="-2.95777">
        <ele>3.02</ele>
        <time>2016-08-23T16:14:53Z</time>
      </trkpt>
      <trkpt lat="47.39312" lon="-2.9578">
        <ele>3.5</ele>
        <time>2016-08-23T16:14:54Z</time>
      </trkpt>
      <trkpt lat="47.393" lon="-2.9579">
        <ele>6.39</ele>
        <time>2016-08-23T16:15:12Z</time>
      </trkpt>
      <trkpt lat="47.3929" lon="-2.95802">
        <ele>7.35</ele>
        <time>2016-08-23T16:15:29Z</time>
      </trkpt>
      <trkpt lat="47.39281" lon="-2.95815">
        <ele>6.87</ele>
        <time>2016-08-23T16:15:46Z</time>
      </trkpt>
      <trkpt lat="47.39271" lon="-2.95829">
        <ele>5.42</ele>
        <time>2016-08-23T16:16:02Z</time>
      </trkpt>
      <trkpt lat="47.3926" lon="-2.95838">
        <ele>6.39</ele>
        <time>2016-08-23T16:16:18Z</time>
      </trkpt>
      <trkpt lat="47.39253" lon="-2.95843">
        <ele>7.35</ele>
        <time>2016-08-23T16:16:34Z</time>
      </trkpt>
      <trkpt lat="47.3925" lon="-2.95847">
        <ele>7.83</ele>
        <time>2016-08-23T16:16:50Z</time>
      </trkpt>
      <trkpt lat="47.39248" lon="-2.9585">
        <ele>8.79</ele>
        <time>2016-08-23T16:17:05Z</time>
      </trkpt>
      <trkpt lat="47.3924" lon="-2.95861">
        <ele>10.23</ele>
        <time>2016-08-23T16:17:18Z</time>
      </trkpt>
      <trkpt lat="47.39238" lon="-2.95869">
        <ele>11.67</ele>
        <time>2016-08-23T16:17:27Z</time>
      </trkpt>
      <trkpt lat="47.39233" lon="-2.95874">
        <ele>12.63</ele>
        <time>2016-08-23T16:17:36Z</time>
      </trkpt>
      <trkpt lat="47.39229" lon="-2.95879">
        <ele>11.19</ele>
        <time>2016-08-23T16:17:42Z</time>
      </trkpt>
      <trkpt lat="47.39217" lon="-2.95896">
        <ele>10.23</ele>
        <time>2016-08-23T16:17:58Z</time>
      </trkpt>
      <trkpt lat="47.39205" lon="-2.95914">
        <ele>12.15</ele>
        <time>2016-08-23T16:18:13Z</time>
      </trkpt>
      <trkpt lat="47.39206" lon="-2.95923">
        <ele>12.15</ele>
        <time>2016-08-23T16:18:22Z</time>
      </trkpt>
      <trkpt lat="47.39213" lon="-2.95915">
        <ele>11.19</ele>
        <time>2016-08-23T16:18:31Z</time>
      </trkpt>
      <trkpt lat="47.39219" lon="-2.95914">
        <ele>10.71</ele>
        <time>2016-08-23T16:18:47Z</time>
      </trkpt>
      <trkpt lat="47.39219" lon="-2.95914">
        <ele>10.23</ele>
        <time>2016-08-23T16:18:57Z</time>
      </trkpt>
      <trkpt lat="47.39216" lon="-2.95916">
        <ele>10.23</ele>
        <time>2016-08-23T16:19:02Z</time>
      </trkpt>
      <trkpt lat="47.39212" lon="-2.95921">
        <ele>9.27</ele>
        <time>2016-08-23T16:19:07Z</time>
      </trkpt>
      <trkpt lat="47.3921" lon="-2.95922">
        <ele>8.79</ele>
        <time>2016-08-23T16:19:09Z</time>
      </trkpt>
      <trkpt lat="47.39195" lon="-2.95928">
        <ele>8.31</ele>
        <time>2016-08-23T16:19:22Z</time>
      </trkpt>
      <trkpt lat="47.39188" lon="-2.95933">
        <ele>9.75</ele>
        <time>2016-08-23T16:19:29Z</time>
      </trkpt>
      <trkpt lat="47.39173" lon="-2.95953">
        <ele>14.08</ele>
        <time>2016-08-23T16:19:46Z</time>
      </trkpt>
      <trkpt lat="47.39159" lon="-2.9597">
        <ele>15.04</ele>
        <time>2016-08-23T16:20:01Z</time>
      </trkpt>
      <trkpt lat="47.39155" lon="-2.95973">
        <ele>16.96</ele>
        <time>2016-08-23T16:20:05Z</time>
      </trkpt>
      <trkpt lat="47.39152" lon="-2.95974">
        <ele>17.44</ele>
        <time>2016-08-23T16:20:07Z</time>
      </trkpt>
      <trkpt lat="47.39149" lon="-2.95975">
        <ele>17.92</ele>
        <time>2016-08-23T16:20:10Z</time>
      </trkpt>
      <trkpt lat="47.39138" lon="-2.95978">
        <ele>19.84</ele>
        <time>2016-08-23T16:20:20Z</time>
      </trkpt>
      <trkpt lat="47.39128" lon="-2.9598">
        <ele>22.73</ele>
        <time>2016-08-23T16:20:30Z</time>
      </trkpt>
      <trkpt lat="47.39117" lon="-2.95985">
        <ele>23.69</ele>
        <time>2016-08-23T16:20:40Z</time>
      </trkpt>
      <trkpt lat="47.39111" lon="-2.95987">
        <ele>23.69</ele>
        <time>2016-08-23T16:20:44Z</time>
      </trkpt>
      <trkpt lat="47.3911" lon="-2.95988">
        <ele>24.17</ele>
        <time>2016-08-23T16:20:46Z</time>
      </trkpt>
      <trkpt lat="47.39103" lon="-2.95987">
        <ele>26.09</ele>
        <time>2016-08-23T16:20:53Z</time>
      </trkpt>
      <trkpt lat="47.39097" lon="-2.95984">
        <ele>27.53</ele>
        <time>2016-08-23T16:20:59Z</time>
      </trkpt>
      <trkpt lat="47.39084" lon="-2.95986">
        <ele>27.53</ele>
        <time>2016-08-23T16:21:10Z</time>
      </trkpt>
      <trkpt lat="47.39075" lon="-2.95982">
        <ele>27.53</ele>
        <time>2016-08-23T16:21:19Z</time>
      </trkpt>
      <trkpt lat="47.39075" lon="-2.95984">
        <ele>27.53</ele>
        <time>2016-08-23T16:21:29Z</time>
      </trkpt>
      <trkpt lat="47.39067" lon="-2.95973">
        <ele>27.53</ele>
        <time>2016-08-23T16:21:40Z</time>
      </trkpt>
      <trkpt lat="47.39058" lon="-2.95957">
        <ele>28.5</ele>
        <time>2016-08-23T16:21:51Z</time>
      </trkpt>
      <trkpt lat="47.39057" lon="-2.95955">
        <ele>28.98</ele>
        <time>2016-08-23T16:21:52Z</time>
      </trkpt>
      <trkpt lat="47.39055" lon="-2.95948">
        <ele>29.94</ele>
        <time>2016-08-23T16:21:57Z</time>
      </trkpt>
      <trkpt lat="47.39049" lon="-2.95943">
        <ele>30.42</ele>
        <time>2016-08-23T16:22:01Z</time>
      </trkpt>
      <trkpt lat="47.39042" lon="-2.95942">
        <ele>29.94</ele>
        <time>2016-08-23T16:22:13Z</time>
      </trkpt>
      <trkpt lat="47.39044" lon="-2.95942">
        <ele>29.94</ele>
        <time>2016-08-23T16:22:30Z</time>
      </trkpt>
      <trkpt lat="47.39038" lon="-2.9594">
        <ele>29.94</ele>
        <time>2016-08-23T16:22:40Z</time>
      </trkpt>
      <trkpt lat="47.39028" lon="-2.9594">
        <ele>27.53</ele>
        <time>2016-08-23T16:22:51Z</time>
      </trkpt>
      <trkpt lat="47.39027" lon="-2.95943">
        <ele>27.53</ele>
        <time>2016-08-23T16:22:57Z</time>
      </trkpt>
      <trkpt lat="47.3903" lon="-2.95947">
        <ele>28.02</ele>
        <time>2016-08-23T16:23:01Z</time>
      </trkpt>
      <trkpt lat="47.39031" lon="-2.95952">
        <ele>27.53</ele>
        <time>2016-08-23T16:23:05Z</time>
      </trkpt>
      <trkpt lat="47.39032" lon="-2.95955">
        <ele>28.02</ele>
        <time>2016-08-23T16:23:13Z</time>
      </trkpt>
      <trkpt lat="47.39031" lon="-2.95967">
        <ele>27.53</ele>
        <time>2016-08-23T16:23:21Z</time>
      </trkpt>
      <trkpt lat="47.39031" lon="-2.95967">
        <ele>27.53</ele>
        <time>2016-08-23T16:23:24Z</time>
      </trkpt>
      <trkpt lat="47.39032" lon="-2.95986">
        <ele>27.53</ele>
        <time>2016-08-23T16:23:34Z</time>
      </trkpt>
      <trkpt lat="47.39033" lon="-2.96005">
        <ele>28.98</ele>
        <time>2016-08-23T16:23:44Z</time>
      </trkpt>
      <trkpt lat="47.39034" lon="-2.96018">
        <ele>29.46</ele>
        <time>2016-08-23T16:23:52Z</time>
      </trkpt>
      <trkpt lat="47.39032" lon="-2.96032">
        <ele>28.5</ele>
        <time>2016-08-23T16:24:00Z</time>
      </trkpt>
      <trkpt lat="47.39028" lon="-2.96042">
        <ele>28.5</ele>
        <time>2016-08-23T16:24:07Z</time>
      </trkpt>
      <trkpt lat="47.3902" lon="-2.96059">
        <ele>28.98</ele>
        <time>2016-08-23T16:24:20Z</time>
      </trkpt>
      <trkpt lat="47.39014" lon="-2.96068">
        <ele>29.46</ele>
        <time>2016-08-23T16:24:29Z</time>
      </trkpt>
      <trkpt lat="47.38998" lon="-2.96081">
        <ele>29.94</ele>
        <time>2016-08-23T16:24:42Z</time>
      </trkpt>
      <trkpt lat="47.38996" lon="-2.96081">
        <ele>29.46</ele>
        <time>2016-08-23T16:24:45Z</time>
      </trkpt>
      <trkpt lat="47.38988" lon="-2.96087">
        <ele>28.98</ele>
        <time>2016-08-23T16:24:55Z</time>
      </trkpt>
      <trkpt lat="47.38978" lon="-2.96093">
        <ele>29.94</ele>
        <time>2016-08-23T16:25:01Z</time>
      </trkpt>
      <trkpt lat="47.38977" lon="-2.96095">
        <ele>29.46</ele>
        <time>2016-08-23T16:25:05Z</time>
      </trkpt>
      <trkpt lat="47.38971" lon="-2.96098">
        <ele>29.94</ele>
        <time>2016-08-23T16:25:10Z</time>
      </trkpt>
      <trkpt lat="47.38956" lon="-2.96106">
        <ele>29.94</ele>
        <time>2016-08-23T16:25:24Z</time>
      </trkpt>
      <trkpt lat="47.38953" lon="-2.96107">
        <ele>29.94</ele>
        <time>2016-08-23T16:25:27Z</time>
      </trkpt>
      <trkpt lat="47.38949" lon="-2.96107">
        <ele>30.42</ele>
        <time>2016-08-23T16:25:31Z</time>
      </trkpt>
      <trkpt lat="47.38943" lon="-2.96111">
        <ele>30.42</ele>
        <time>2016-08-23T16:25:37Z</time>
      </trkpt>
      <trkpt lat="47.38932" lon="-2.96116">
        <ele>31.86</ele>
        <time>2016-08-23T16:25:48Z</time>
      </trkpt>
      <trkpt lat="47.38923" lon="-2.96119">
        <ele>30.9</ele>
        <time>2016-08-23T16:25:59Z</time>
      </trkpt>
      <trkpt lat="47.3892" lon="-2.96119">
        <ele>30.9</ele>
        <time>2016-08-23T16:26:09Z</time>
      </trkpt>
      <trkpt lat="47.38914" lon="-2.96122">
        <ele>31.86</ele>
        <time>2016-08-23T16:26:20Z</time>
      </trkpt>
      <trkpt lat="47.38914" lon="-2.96122">
        <ele>31.86</ele>
        <time>2016-08-23T16:26:22Z</time>
      </trkpt>
      <trkpt lat="47.38922" lon="-2.9612">
        <ele>29.94</ele>
        <time>2016-08-23T16:26:31Z</time>
      </trkpt>
      <trkpt lat="47.38919" lon="-2.96115">
        <ele>29.94</ele>
        <time>2016-08-23T16:26:34Z</time>
      </trkpt>
      <trkpt lat="47.38914" lon="-2.96122">
        <ele>31.86</ele>
        <time>2016-08-23T16:26:42Z</time>
      </trkpt>
      <trkpt lat="47.38899" lon="-2.96131">
        <ele>31.86</ele>
        <time>2016-08-23T16:26:56Z</time>
      </trkpt>
      <trkpt lat="47.3889" lon="-2.96137">
        <ele>32.34</ele>
        <time>2016-08-23T16:27:05Z</time>
      </trkpt>
      <trkpt lat="47.38887" lon="-2.96138">
        <ele>32.82</ele>
        <time>2016-08-23T16:27:08Z</time>
      </trkpt>
      <trkpt lat="47.38885" lon="-2.9614">
        <ele>32.82</ele>
        <time>2016-08-23T16:27:10Z</time>
      </trkpt>
      <trkpt lat="47.38875" lon="-2.96142">
        <ele>33.78</ele>
        <time>2016-08-23T16:27:19Z</time>
      </trkpt>
      <trkpt lat="47.38865" lon="-2.96115">
        <ele>34.74</ele>
        <time>2016-08-23T16:27:31Z</time>
      </trkpt>
      <trkpt lat="47.38861" lon="-2.96094">
        <ele>33.3</ele>
        <time>2016-08-23T16:27:43Z</time>
      </trkpt>
      <trkpt lat="47.38855" lon="-2.9608">
        <ele>33.3</ele>
        <time>2016-08-23T16:27:53Z</time>
      </trkpt>
      <trkpt lat="47.38851" lon="-2.96073">
        <ele>33.78</ele>
        <time>2016-08-23T16:27:59Z</time>
      </trkpt>
      <trkpt lat="47.38846" lon="-2.9607">
        <ele>33.78</ele>
        <time>2016-08-23T16:28:02Z</time>
      </trkpt>
      <trkpt lat="47.38843" lon="-2.96068">
        <ele>33.3</ele>
        <time>2016-08-23T16:28:09Z</time>
      </trkpt>
      <trkpt lat="47.38836" lon="-2.96069">
        <ele>33.3</ele>
        <time>2016-08-23T16:28:13Z</time>
      </trkpt>
      <trkpt lat="47.38833" lon="-2.96068">
        <ele>33.3</ele>
        <time>2016-08-23T16:28:17Z</time>
      </trkpt>
      <trkpt lat="47.38828" lon="-2.9607">
        <ele>33.3</ele>
        <time>2016-08-23T16:28:22Z</time>
      </trkpt>
      <trkpt lat="47.38821" lon="-2.9607">
        <ele>33.78</ele>
        <time>2016-08-23T16:28:28Z</time>
      </trkpt>
      <trkpt lat="47.38816" lon="-2.96071">
        <ele>33.78</ele>
        <time>2016-08-23T16:28:33Z</time>
      </trkpt>
      <trkpt lat="47.38809" lon="-2.96075">
        <ele>33.78</ele>
        <time>2016-08-23T16:28:38Z</time>
      </trkpt>
      <trkpt lat="47.38799" lon="-2.96081">
        <ele>33.78</ele>
        <time>2016-08-23T16:28:49Z</time>
      </trkpt>
      <trkpt lat="47.38796" lon="-2.96084">
        <ele>34.74</ele>
        <time>2016-08-23T16:28:53Z</time>
      </trkpt>
      <trkpt lat="47.38794" lon="-2.96088">
        <ele>34.74</ele>
        <time>2016-08-23T16:29:02Z</time>
      </trkpt>
      <trkpt lat="47.38799" lon="-2.96099">
        <ele>36.19</ele>
        <time>2016-08-23T16:29:09Z</time>
      </trkpt>
      <trkpt lat="47.38801" lon="-2.96102">
        <ele>36.19</ele>
        <time>2016-08-23T16:29:13Z</time>
      </trkpt>
      <trkpt lat="47.38801" lon="-2.96107">
        <ele>36.67</ele>
        <time>2016-08-23T16:29:16Z</time>
      </trkpt>
      <trkpt lat="47.38802" lon="-2.96111">
        <ele>36.67</ele>
        <time>2016-08-23T16:29:19Z</time>
      </trkpt>
      <trkpt lat="47.38801" lon="-2.96115">
        <ele>36.67</ele>
        <time>2016-08-23T16:29:22Z</time>
      </trkpt>
      <trkpt lat="47.388" lon="-2.96119">
        <ele>36.67</ele>
        <time>2016-08-23T16:29:34Z</time>
      </trkpt>
      <trkpt lat="47.38799" lon="-2.96119">
        <ele>36.67</ele>
        <time>2016-08-23T16:29:36Z</time>
      </trkpt>
      <trkpt lat="47.38794" lon="-2.96106">
        <ele>36.67</ele>
        <time>2016-08-23T16:29:44Z</time>
      </trkpt>
      <trkpt lat="47.38794" lon="-2.96099">
        <ele>37.15</ele>
        <time>2016-08-23T16:29:48Z</time>
      </trkpt>
      <trkpt lat="47.3879" lon="-2.96089">
        <ele>36.67</ele>
        <time>2016-08-23T16:29:52Z</time>
      </trkpt>
      <trkpt lat="47.38781" lon="-2.96086">
        <ele>35.23</ele>
        <time>2016-08-23T16:30:01Z</time>
      </trkpt>
      <trkpt lat="47.38767" lon="-2.96094">
        <ele>35.71</ele>
        <time>2016-08-23T16:30:12Z</time>
      </trkpt>
      <trkpt lat="47.38765" lon="-2.96094">
        <ele>35.71</ele>
        <time>2016-08-23T16:30:18Z</time>
      </trkpt>
      <trkpt lat="47.38754" lon="-2.96097">
        <ele>35.23</ele>
        <time>2016-08-23T16:30:24Z</time>
      </trkpt>
      <trkpt lat="47.38743" lon="-2.96098">
        <ele>35.23</ele>
        <time>2016-08-23T16:30:35Z</time>
      </trkpt>
      <trkpt lat="47.38738" lon="-2.961">
        <ele>34.74</ele>
        <time>2016-08-23T16:30:39Z</time>
      </trkpt>
      <trkpt lat="47.38726" lon="-2.96103">
        <ele>32.82</ele>
        <time>2016-08-23T16:30:50Z</time>
      </trkpt>
      <trkpt lat="47.38714" lon="-2.96107">
        <ele>33.3</ele>
        <time>2016-08-23T16:31:01Z</time>
      </trkpt>
      <trkpt lat="47.387" lon="-2.96112">
        <ele>34.74</ele>
        <time>2016-08-23T16:31:12Z</time>
      </trkpt>
      <trkpt lat="47.38691" lon="-2.96118">
        <ele>36.19</ele>
        <time>2016-08-23T16:31:20Z</time>
      </trkpt>
      <trkpt lat="47.38689" lon="-2.96128">
        <ele>36.67</ele>
        <time>2016-08-23T16:31:27Z</time>
      </trkpt>
      <trkpt lat="47.38689" lon="-2.96139">
        <ele>37.15</ele>
        <time>2016-08-23T16:31:35Z</time>
      </trkpt>
      <trkpt lat="47.3869" lon="-2.96164">
        <ele>37.15</ele>
        <time>2016-08-23T16:31:50Z</time>
      </trkpt>
      <trkpt lat="47.38695" lon="-2.96196">
        <ele>38.11</ele>
        <time>2016-08-23T16:32:08Z</time>
      </trkpt>
      <trkpt lat="47.38696" lon="-2.96207">
        <ele>38.11</ele>
        <time>2016-08-23T16:32:14Z</time>
      </trkpt>
      <trkpt lat="47.38698" lon="-2.96214">
        <ele>38.11</ele>
        <time>2016-08-23T16:32:21Z</time>
      </trkpt>
      <trkpt lat="47.38698" lon="-2.9621">
        <ele>37.63</ele>
        <time>2016-08-23T16:32:24Z</time>
      </trkpt>
      <trkpt lat="47.38701" lon="-2.96234">
        <ele>37.63</ele>
        <time>2016-08-23T16:32:37Z</time>
      </trkpt>
      <trkpt lat="47.38702" lon="-2.96244">
        <ele>38.59</ele>
        <time>2016-08-23T16:32:43Z</time>
      </trkpt>
      <trkpt lat="47.38701" lon="-2.96258">
        <ele>37.15</ele>
        <time>2016-08-23T16:32:50Z</time>
      </trkpt>
      <trkpt lat="47.38701" lon="-2.96274">
        <ele>36.19</ele>
        <time>2016-08-23T16:33:01Z</time>
      </trkpt>
      <trkpt lat="47.387" lon="-2.96288">
        <ele>36.19</ele>
        <time>2016-08-23T16:33:09Z</time>
      </trkpt>
      <trkpt lat="47.387" lon="-2.96307">
        <ele>37.15</ele>
        <time>2016-08-23T16:33:20Z</time>
      </trkpt>
      <trkpt lat="47.38702" lon="-2.96317">
        <ele>37.15</ele>
        <time>2016-08-23T16:33:29Z</time>
      </trkpt>
      <trkpt lat="47.38706" lon="-2.96332">
        <ele>37.63</ele>
        <time>2016-08-23T16:33:39Z</time>
      </trkpt>
      <trkpt lat="47.38707" lon="-2.96337">
        <ele>38.59</ele>
        <time>2016-08-23T16:33:53Z</time>
      </trkpt>
      <trkpt lat="47.38707" lon="-2.96337">
        <ele>38.59</ele>
        <time>2016-08-23T16:33:55Z</time>
      </trkpt>
      <trkpt lat="47.38716" lon="-2.96349">
        <ele>38.59</ele>
        <time>2016-08-23T16:34:04Z</time>
      </trkpt>
      <trkpt lat="47.38727" lon="-2.96349">
        <ele>38.59</ele>
        <time>2016-08-23T16:34:14Z</time>
      </trkpt>
      <trkpt lat="47.38741" lon="-2.96343">
        <ele>39.07</ele>
        <time>2016-08-23T16:34:25Z</time>
      </trkpt>
      <trkpt lat="47.38746" lon="-2.9634">
        <ele>38.59</ele>
        <time>2016-08-23T16:34:30Z</time>
      </trkpt>
      <trkpt lat="47.38759" lon="-2.96336">
        <ele>37.63</ele>
        <time>2016-08-23T16:34:41Z</time>
      </trkpt>
      <trkpt lat="47.38774" lon="-2.96331">
        <ele>38.11</ele>
        <time>2016-08-23T16:34:51Z</time>
      </trkpt>
      <trkpt lat="47.38791" lon="-2.96334">
        <ele>36.19</ele>
        <time>2016-08-23T16:35:04Z</time>
      </trkpt>
      <trkpt lat="47.38793" lon="-2.96332">
        <ele>36.19</ele>
        <time>2016-08-23T16:35:07Z</time>
      </trkpt>
      <trkpt lat="47.38795" lon="-2.96331">
        <ele>35.71</ele>
        <time>2016-08-23T16:35:09Z</time>
      </trkpt>
      <trkpt lat="47.38796" lon="-2.96311">
        <ele>35.71</ele>
        <time>2016-08-23T16:35:20Z</time>
      </trkpt>
      <trkpt lat="47.38795" lon="-2.96329">
        <ele>35.23</ele>
        <time>2016-08-23T16:35:31Z</time>
      </trkpt>
      <trkpt lat="47.38795" lon="-2.96328">
        <ele>36.19</ele>
        <time>2016-08-23T16:35:34Z</time>
      </trkpt>
      <trkpt lat="47.38796" lon="-2.96311">
        <ele>36.67</ele>
        <time>2016-08-23T16:35:45Z</time>
      </trkpt>
      <trkpt lat="47.38811" lon="-2.96285">
        <ele>36.19</ele>
        <time>2016-08-23T16:35:57Z</time>
      </trkpt>
      <trkpt lat="47.38814" lon="-2.9628">
        <ele>32.82</ele>
        <time>2016-08-23T16:36:06Z</time>
      </trkpt>
      <trkpt lat="47.38814" lon="-2.96277">
        <ele>32.34</ele>
        <time>2016-08-23T16:36:09Z</time>
      </trkpt>
      <trkpt lat="47.38812" lon="-2.96265">
        <ele>32.82</ele>
        <time>2016-08-23T16:36:19Z</time>
      </trkpt>
      <trkpt lat="47.38806" lon="-2.96244">
        <ele>34.26</ele>
        <time>2016-08-23T16:36:31Z</time>
      </trkpt>
      <trkpt lat="47.38802" lon="-2.96238">
        <ele>35.71</ele>
        <time>2016-08-23T16:36:37Z</time>
      </trkpt>
      <trkpt lat="47.38794" lon="-2.96225">
        <ele>36.67</ele>
        <time>2016-08-23T16:36:48Z</time>
      </trkpt>
      <trkpt lat="47.38785" lon="-2.96217">
        <ele>35.23</ele>
        <time>2016-08-23T16:37:01Z</time>
      </trkpt>
      <trkpt lat="47.38784" lon="-2.96207">
        <ele>35.71</ele>
        <time>2016-08-23T16:37:15Z</time>
      </trkpt>
      <trkpt lat="47.38784" lon="-2.96207">
        <ele>35.23</ele>
        <time>2016-08-23T16:37:22Z</time>
      </trkpt>
      <trkpt lat="47.38785" lon="-2.96212">
        <ele>35.23</ele>
        <time>2016-08-23T16:37:25Z</time>
      </trkpt>
      <trkpt lat="47.38787" lon="-2.96216">
        <ele>35.23</ele>
        <time>2016-08-23T16:37:27Z</time>
      </trkpt>
      <trkpt lat="47.38789" lon="-2.96225">
        <ele>36.67</ele>
        <time>2016-08-23T16:37:33Z</time>
      </trkpt>
      <trkpt lat="47.38782" lon="-2.96225">
        <ele>36.67</ele>
        <time>2016-08-23T16:37:41Z</time>
      </trkpt>
      <trkpt lat="47.3878" lon="-2.96225">
        <ele>36.67</ele>
        <time>2016-08-23T16:37:43Z</time>
      </trkpt>
      <trkpt lat="47.38772" lon="-2.96226">
        <ele>36.67</ele>
        <time>2016-08-23T16:37:53Z</time>
      </trkpt>
      <trkpt lat="47.3877" lon="-2.96226">
        <ele>36.67</ele>
        <time>2016-08-23T16:38:03Z</time>
      </trkpt>
      <trkpt lat="47.38769" lon="-2.96225">
        <ele>36.67</ele>
        <time>2016-08-23T16:38:12Z</time>
      </trkpt>
      <trkpt lat="47.38769" lon="-2.96225">
        <ele>36.67</ele>
        <time>2016-08-23T16:38:24Z</time>
      </trkpt>
      <trkpt lat="47.3877" lon="-2.96226">
        <ele>37.15</ele>
        <time>2016-08-23T16:38:41Z</time>
      </trkpt>
      <trkpt lat="47.38772" lon="-2.96224">
        <ele>36.67</ele>
        <time>2016-08-23T16:38:54Z</time>
      </trkpt>
      <trkpt lat="47.38784" lon="-2.9622">
        <ele>37.63</ele>
        <time>2016-08-23T16:39:06Z</time>
      </trkpt>
      <trkpt lat="47.38787" lon="-2.96214">
        <ele>38.11</ele>
        <time>2016-08-23T16:39:12Z</time>
      </trkpt>
      <trkpt lat="47.38784" lon="-2.96208">
        <ele>37.63</ele>
        <time>2016-08-23T16:39:24Z</time>
      </trkpt>
      <trkpt lat="47.38784" lon="-2.96208">
        <ele>37.63</ele>
        <time>2016-08-23T16:39:28Z</time>
      </trkpt>
      <trkpt lat="47.38787" lon="-2.96218">
        <ele>36.67</ele>
        <time>2016-08-23T16:39:35Z</time>
      </trkpt>
      <trkpt lat="47.38786" lon="-2.96225">
        <ele>35.71</ele>
        <time>2016-08-23T16:39:46Z</time>
      </trkpt>
      <trkpt lat="47.38785" lon="-2.96233">
        <ele>35.23</ele>
        <time>2016-08-23T16:39:53Z</time>
      </trkpt>
      <trkpt lat="47.38785" lon="-2.96223">
        <ele>35.23</ele>
        <time>2016-08-23T16:39:59Z</time>
      </trkpt>
      <trkpt lat="47.38779" lon="-2.96224">
        <ele>35.23</ele>
        <time>2016-08-23T16:40:12Z</time>
      </trkpt>
      <trkpt lat="47.38773" lon="-2.96223">
        <ele>35.23</ele>
        <time>2016-08-23T16:40:23Z</time>
      </trkpt>
      <trkpt lat="47.38779" lon="-2.96222">
        <ele>35.23</ele>
        <time>2016-08-23T16:40:28Z</time>
      </trkpt>
      <trkpt lat="47.38784" lon="-2.96221">
        <ele>34.74</ele>
        <time>2016-08-23T16:40:32Z</time>
      </trkpt>
      <trkpt lat="47.3879" lon="-2.96224">
        <ele>34.74</ele>
        <time>2016-08-23T16:40:39Z</time>
      </trkpt>
      <trkpt lat="47.38804" lon="-2.9622">
        <ele>37.15</ele>
        <time>2016-08-23T16:40:53Z</time>
      </trkpt>
      <trkpt lat="47.38805" lon="-2.96208">
        <ele>39.55</ele>
        <time>2016-08-23T16:41:06Z</time>
      </trkpt>
      <trkpt lat="47.38808" lon="-2.96198">
        <ele>41.95</ele>
        <time>2016-08-23T16:41:19Z</time>
      </trkpt>
      <trkpt lat="47.38806" lon="-2.96199">
        <ele>41.95</ele>
        <time>2016-08-23T16:41:31Z</time>
      </trkpt>
      <trkpt lat="47.38805" lon="-2.96203">
        <ele>40.99</ele>
        <time>2016-08-23T16:41:35Z</time>
      </trkpt>
      <trkpt lat="47.38806" lon="-2.96216">
        <ele>38.11</ele>
        <time>2016-08-23T16:41:48Z</time>
      </trkpt>
      <trkpt lat="47.38805" lon="-2.96218">
        <ele>38.11</ele>
        <time>2016-08-23T16:41:49Z</time>
      </trkpt>
      <trkpt lat="47.38804" lon="-2.96236">
        <ele>35.71</ele>
        <time>2016-08-23T16:42:01Z</time>
      </trkpt>
      <trkpt lat="47.38812" lon="-2.96254">
        <ele>34.26</ele>
        <time>2016-08-23T16:42:10Z</time>
      </trkpt>
      <trkpt lat="47.38813" lon="-2.96268">
        <ele>35.23</ele>
        <time>2016-08-23T16:42:19Z</time>
      </trkpt>
      <trkpt lat="47.38812" lon="-2.9627">
        <ele>35.23</ele>
        <time>2016-08-23T16:42:22Z</time>
      </trkpt>
      <trkpt lat="47.38812" lon="-2.96272">
        <ele>35.23</ele>
        <time>2016-08-23T16:42:24Z</time>
      </trkpt>
      <trkpt lat="47.38813" lon="-2.96277">
        <ele>34.74</ele>
        <time>2016-08-23T16:42:33Z</time>
      </trkpt>
      <trkpt lat="47.38815" lon="-2.96287">
        <ele>34.26</ele>
        <time>2016-08-23T16:42:42Z</time>
      </trkpt>
      <trkpt lat="47.38812" lon="-2.96293">
        <ele>34.74</ele>
        <time>2016-08-23T16:42:46Z</time>
      </trkpt>
      <trkpt lat="47.38807" lon="-2.96299">
        <ele>35.23</ele>
        <time>2016-08-23T16:42:54Z</time>
      </trkpt>
      <trkpt lat="47.38802" lon="-2.96302">
        <ele>35.71</ele>
        <time>2016-08-23T16:42:58Z</time>
      </trkpt>
      <trkpt lat="47.38799" lon="-2.96312">
        <ele>37.15</ele>
        <time>2016-08-23T16:43:05Z</time>
      </trkpt>
      <trkpt lat="47.38796" lon="-2.96326">
        <ele>37.15</ele>
        <time>2016-08-23T16:43:12Z</time>
      </trkpt>
      <trkpt lat="47.38791" lon="-2.96351">
        <ele>35.71</ele>
        <time>2016-08-23T16:43:27Z</time>
      </trkpt>
      <trkpt lat="47.38792" lon="-2.96354">
        <ele>35.23</ele>
        <time>2016-08-23T16:43:35Z</time>
      </trkpt>
      <trkpt lat="47.38793" lon="-2.9634">
        <ele>35.23</ele>
        <time>2016-08-23T16:43:42Z</time>
      </trkpt>
      <trkpt lat="47.38787" lon="-2.96333">
        <ele>35.71</ele>
        <time>2016-08-23T16:43:50Z</time>
      </trkpt>
      <trkpt lat="47.3878" lon="-2.96334">
        <ele>36.19</ele>
        <time>2016-08-23T16:43:54Z</time>
      </trkpt>
      <trkpt lat="47.38777" lon="-2.96334">
        <ele>36.67</ele>
        <time>2016-08-23T16:43:57Z</time>
      </trkpt>
      <trkpt lat="47.38767" lon="-2.96335">
        <ele>38.11</ele>
        <time>2016-08-23T16:44:03Z</time>
      </trkpt>
      <trkpt lat="47.38764" lon="-2.96334">
        <ele>38.59</ele>
        <time>2016-08-23T16:44:07Z</time>
      </trkpt>
      <trkpt lat="47.38753" lon="-2.96337">
        <ele>38.59</ele>
        <time>2016-08-23T16:44:19Z</time>
      </trkpt>
      <trkpt lat="47.3874" lon="-2.96345">
        <ele>39.07</ele>
        <time>2016-08-23T16:44:30Z</time>
      </trkpt>
      <trkpt lat="47.38728" lon="-2.96351">
        <ele>39.07</ele>
        <time>2016-08-23T16:44:39Z</time>
      </trkpt>
      <trkpt lat="47.38716" lon="-2.96349">
        <ele>39.55</ele>
        <time>2016-08-23T16:44:48Z</time>
      </trkpt>
      <trkpt lat="47.38714" lon="-2.96348">
        <ele>39.55</ele>
        <time>2016-08-23T16:44:50Z</time>
      </trkpt>
      <trkpt lat="47.38712" lon="-2.96349">
        <ele>38.59</ele>
        <time>2016-08-23T16:44:55Z</time>
      </trkpt>
      <trkpt lat="47.38718" lon="-2.9635">
        <ele>38.11</ele>
        <time>2016-08-23T16:45:01Z</time>
      </trkpt>
      <trkpt lat="47.38717" lon="-2.96348">
        <ele>38.11</ele>
        <time>2016-08-23T16:45:04Z</time>
      </trkpt>
      <trkpt lat="47.38714" lon="-2.96348">
        <ele>38.11</ele>
        <time>2016-08-23T16:45:06Z</time>
      </trkpt>
      <trkpt lat="47.38706" lon="-2.96357">
        <ele>38.11</ele>
        <time>2016-08-23T16:45:14Z</time>
      </trkpt>
      <trkpt lat="47.38692" lon="-2.9637">
        <ele>36.19</ele>
        <time>2016-08-23T16:45:24Z</time>
      </trkpt>
      <trkpt lat="47.38686" lon="-2.96378">
        <ele>34.74</ele>
        <time>2016-08-23T16:45:36Z</time>
      </trkpt>
      <trkpt lat="47.38668" lon="-2.9638">
        <ele>33.3</ele>
        <time>2016-08-23T16:45:50Z</time>
      </trkpt>
      <trkpt lat="47.38662" lon="-2.96376">
        <ele>32.82</ele>
        <time>2016-08-23T16:45:57Z</time>
      </trkpt>
      <trkpt lat="47.38652" lon="-2.96362">
        <ele>32.82</ele>
        <time>2016-08-23T16:46:06Z</time>
      </trkpt>
      <trkpt lat="47.38641" lon="-2.96348">
        <ele>32.34</ele>
        <time>2016-08-23T16:46:15Z</time>
      </trkpt>
      <trkpt lat="47.38641" lon="-2.96348">
        <ele>32.82</ele>
        <time>2016-08-23T16:46:19Z</time>
      </trkpt>
      <trkpt lat="47.38637" lon="-2.96348">
        <ele>33.78</ele>
        <time>2016-08-23T16:46:25Z</time>
      </trkpt>
      <trkpt lat="47.38635" lon="-2.96348">
        <ele>34.26</ele>
        <time>2016-08-23T16:46:28Z</time>
      </trkpt>
      <trkpt lat="47.3863" lon="-2.96342">
        <ele>32.34</ele>
        <time>2016-08-23T16:46:34Z</time>
      </trkpt>
      <trkpt lat="47.38617" lon="-2.96326">
        <ele>31.38</ele>
        <time>2016-08-23T16:46:48Z</time>
      </trkpt>
      <trkpt lat="47.38608" lon="-2.96318">
        <ele>30.42</ele>
        <time>2016-08-23T16:46:57Z</time>
      </trkpt>
      <trkpt lat="47.38603" lon="-2.96311">
        <ele>29.94</ele>
        <time>2016-08-23T16:47:00Z</time>
      </trkpt>
      <trkpt lat="47.38595" lon="-2.96305">
        <ele>29.94</ele>
        <time>2016-08-23T16:47:08Z</time>
      </trkpt>
      <trkpt lat="47.38582" lon="-2.96296">
        <ele>29.94</ele>
        <time>2016-08-23T16:47:19Z</time>
      </trkpt>
      <trkpt lat="47.38566" lon="-2.96288">
        <ele>29.94</ele>
        <time>2016-08-23T16:47:30Z</time>
      </trkpt>
      <trkpt lat="47.38556" lon="-2.96287">
        <ele>29.94</ele>
        <time>2016-08-23T16:47:39Z</time>
      </trkpt>
      <trkpt lat="47.38544" lon="-2.96288">
        <ele>30.9</ele>
        <time>2016-08-23T16:47:47Z</time>
      </trkpt>
      <trkpt lat="47.38538" lon="-2.96289">
        <ele>30.9</ele>
        <time>2016-08-23T16:47:53Z</time>
      </trkpt>
      <trkpt lat="47.38536" lon="-2.96294">
        <ele>30.42</ele>
        <time>2016-08-23T16:47:57Z</time>
      </trkpt>
      <trkpt lat="47.3852" lon="-2.96308">
        <ele>29.94</ele>
        <time>2016-08-23T16:48:11Z</time>
      </trkpt>
      <trkpt lat="47.38516" lon="-2.96308">
        <ele>28.98</ele>
        <time>2016-08-23T16:48:23Z</time>
      </trkpt>
      <trkpt lat="47.38515" lon="-2.96309">
        <ele>29.46</ele>
        <time>2016-08-23T16:48:28Z</time>
      </trkpt>
      <trkpt lat="47.38515" lon="-2.96313">
        <ele>29.46</ele>
        <time>2016-08-23T16:48:30Z</time>
      </trkpt>
      <trkpt lat="47.38516" lon="-2.96326">
        <ele>28.98</ele>
        <time>2016-08-23T16:48:40Z</time>
      </trkpt>
      <trkpt lat="47.38511" lon="-2.9634">
        <ele>29.46</ele>
        <time>2016-08-23T16:48:48Z</time>
      </trkpt>
      <trkpt lat="47.38502" lon="-2.96352">
        <ele>28.02</ele>
        <time>2016-08-23T16:48:58Z</time>
      </trkpt>
      <trkpt lat="47.38501" lon="-2.96354">
        <ele>27.53</ele>
        <time>2016-08-23T16:49:02Z</time>
      </trkpt>
      <trkpt lat="47.38493" lon="-2.96354">
        <ele>26.57</ele>
        <time>2016-08-23T16:49:06Z</time>
      </trkpt>
      <trkpt lat="47.3849" lon="-2.96356">
        <ele>26.57</ele>
        <time>2016-08-23T16:49:13Z</time>
      </trkpt>
      <trkpt lat="47.38491" lon="-2.96361">
        <ele>26.09</ele>
        <time>2016-08-23T16:49:17Z</time>
      </trkpt>
      <trkpt lat="47.38487" lon="-2.96355">
        <ele>26.09</ele>
        <time>2016-08-23T16:49:28Z</time>
      </trkpt>
      <trkpt lat="47.38496" lon="-2.96374">
        <ele>24.65</ele>
        <time>2016-08-23T16:49:42Z</time>
      </trkpt>
      <trkpt lat="47.38495" lon="-2.96382">
        <ele>23.69</ele>
        <time>2016-08-23T16:49:49Z</time>
      </trkpt>
      <trkpt lat="47.38486" lon="-2.96383">
        <ele>19.84</ele>
        <time>2016-08-23T16:50:03Z</time>
      </trkpt>
      <trkpt lat="47.38485" lon="-2.96383">
        <ele>19.36</ele>
        <time>2016-08-23T16:50:17Z</time>
      </trkpt>
      <trkpt lat="47.38486" lon="-2.96383">
        <ele>19.36</ele>
        <time>2016-08-23T16:50:27Z</time>
      </trkpt>
      <trkpt lat="47.38486" lon="-2.96382">
        <ele>19.36</ele>
        <time>2016-08-23T16:50:28Z</time>
      </trkpt>
      <trkpt lat="47.38488" lon="-2.96381">
        <ele>20.32</ele>
        <time>2016-08-23T16:50:30Z</time>
      </trkpt>
      <trkpt lat="47.38488" lon="-2.96376">
        <ele>22.25</ele>
        <time>2016-08-23T16:50:33Z</time>
      </trkpt>
      <trkpt lat="47.38491" lon="-2.96363">
        <ele>25.13</ele>
        <time>2016-08-23T16:50:41Z</time>
      </trkpt>
      <trkpt lat="47.38491" lon="-2.96363">
        <ele>25.13</ele>
        <time>2016-08-23T16:50:42Z</time>
      </trkpt>
      <trkpt lat="47.38485" lon="-2.96349">
        <ele>26.57</ele>
        <time>2016-08-23T16:50:51Z</time>
      </trkpt>
      <trkpt lat="47.38484" lon="-2.96346">
        <ele>26.57</ele>
        <time>2016-08-23T16:50:57Z</time>
      </trkpt>
      <trkpt lat="47.38477" lon="-2.96339">
        <ele>26.57</ele>
        <time>2016-08-23T16:51:08Z</time>
      </trkpt>
      <trkpt lat="47.38475" lon="-2.96339">
        <ele>26.09</ele>
        <time>2016-08-23T16:51:12Z</time>
      </trkpt>
      <trkpt lat="47.38474" lon="-2.96344">
        <ele>26.09</ele>
        <time>2016-08-23T16:51:16Z</time>
      </trkpt>
      <trkpt lat="47.3847" lon="-2.96347">
        <ele>24.17</ele>
        <time>2016-08-23T16:51:24Z</time>
      </trkpt>
      <trkpt lat="47.38467" lon="-2.96347">
        <ele>24.17</ele>
        <time>2016-08-23T16:51:26Z</time>
      </trkpt>
      <trkpt lat="47.38464" lon="-2.96352">
        <ele>23.69</ele>
        <time>2016-08-23T16:51:40Z</time>
      </trkpt>
      <trkpt lat="47.38465" lon="-2.9635">
        <ele>23.21</ele>
        <time>2016-08-23T16:51:51Z</time>
      </trkpt>
      <trkpt lat="47.38466" lon="-2.96349">
        <ele>23.21</ele>
        <time>2016-08-23T16:51:53Z</time>
      </trkpt>
      <trkpt lat="47.38466" lon="-2.96346">
        <ele>23.21</ele>
        <time>2016-08-23T16:51:56Z</time>
      </trkpt>
      <trkpt lat="47.38458" lon="-2.96341">
        <ele>23.69</ele>
        <time>2016-08-23T16:52:04Z</time>
      </trkpt>
      <trkpt lat="47.38457" lon="-2.9634">
        <ele>23.21</ele>
        <time>2016-08-23T16:52:07Z</time>
      </trkpt>
      <trkpt lat="47.38457" lon="-2.96344">
        <ele>23.21</ele>
        <time>2016-08-23T16:52:18Z</time>
      </trkpt>
      <trkpt lat="47.38455" lon="-2.96346">
        <ele>23.21</ele>
        <time>2016-08-23T16:52:21Z</time>
      </trkpt>
      <trkpt lat="47.3845" lon="-2.9635">
        <ele>22.73</ele>
        <time>2016-08-23T16:52:27Z</time>
      </trkpt>
      <trkpt lat="47.38448" lon="-2.96343">
        <ele>21.29</ele>
        <time>2016-08-23T16:52:36Z</time>
      </trkpt>
      <trkpt lat="47.38448" lon="-2.96343">
        <ele>22.25</ele>
        <time>2016-08-23T16:52:59Z</time>
      </trkpt>
      <trkpt lat="47.38448" lon="-2.96342">
        <ele>22.73</ele>
        <time>2016-08-23T16:53:20Z</time>
      </trkpt>
      <trkpt lat="47.38448" lon="-2.96343">
        <ele>22.73</ele>
        <time>2016-08-23T16:53:24Z</time>
      </trkpt>
      <trkpt lat="47.38449" lon="-2.96342">
        <ele>22.73</ele>
        <time>2016-08-23T16:53:34Z</time>
      </trkpt>
      <trkpt lat="47.38451" lon="-2.96331">
        <ele>23.21</ele>
        <time>2016-08-23T16:53:45Z</time>
      </trkpt>
      <trkpt lat="47.38451" lon="-2.96332">
        <ele>23.21</ele>
        <time>2016-08-23T16:53:55Z</time>
      </trkpt>
      <trkpt lat="47.38451" lon="-2.9633">
        <ele>22.73</ele>
        <time>2016-08-23T16:54:16Z</time>
      </trkpt>
      <trkpt lat="47.38453" lon="-2.96321">
        <ele>22.73</ele>
        <time>2016-08-23T16:54:23Z</time>
      </trkpt>
      <trkpt lat="47.38455" lon="-2.96315">
        <ele>22.25</ele>
        <time>2016-08-23T16:54:25Z</time>
      </trkpt>
      <trkpt lat="47.3846" lon="-2.96313">
        <ele>21.77</ele>
        <time>2016-08-23T16:54:32Z</time>
      </trkpt>
      <trkpt lat="47.38466" lon="-2.96306">
        <ele>21.77</ele>
        <time>2016-08-23T16:54:39Z</time>
      </trkpt>
      <trkpt lat="47.38464" lon="-2.96289">
        <ele>23.21</ele>
        <time>2016-08-23T16:54:45Z</time>
      </trkpt>
      <trkpt lat="47.3846" lon="-2.96283">
        <ele>23.21</ele>
        <time>2016-08-23T16:54:54Z</time>
      </trkpt>
      <trkpt lat="47.38443" lon="-2.96273">
        <ele>24.17</ele>
        <time>2016-08-23T16:55:05Z</time>
      </trkpt>
      <trkpt lat="47.38434" lon="-2.96265">
        <ele>24.65</ele>
        <time>2016-08-23T16:55:15Z</time>
      </trkpt>
      <trkpt lat="47.38425" lon="-2.96255">
        <ele>23.69</ele>
        <time>2016-08-23T16:55:25Z</time>
      </trkpt>
      <trkpt lat="47.38426" lon="-2.96255">
        <ele>23.69</ele>
        <time>2016-08-23T16:55:30Z</time>
      </trkpt>
      <trkpt lat="47.38438" lon="-2.96266">
        <ele>23.69</ele>
        <time>2016-08-23T16:55:39Z</time>
      </trkpt>
      <trkpt lat="47.38426" lon="-2.96256">
        <ele>23.21</ele>
        <time>2016-08-23T16:55:49Z</time>
      </trkpt>
      <trkpt lat="47.38425" lon="-2.96252">
        <ele>23.21</ele>
        <time>2016-08-23T16:56:01Z</time>
      </trkpt>
      <trkpt lat="47.38425" lon="-2.96252">
        <ele>23.21</ele>
        <time>2016-08-23T16:56:06Z</time>
      </trkpt>
      <trkpt lat="47.38423" lon="-2.96246">
        <ele>23.21</ele>
        <time>2016-08-23T16:56:14Z</time>
      </trkpt>
      <trkpt lat="47.38424" lon="-2.96245">
        <ele>22.73</ele>
        <time>2016-08-23T16:56:23Z</time>
      </trkpt>
      <trkpt lat="47.38424" lon="-2.96245">
        <ele>22.73</ele>
        <time>2016-08-23T16:56:24Z</time>
      </trkpt>
      <trkpt lat="47.38423" lon="-2.96229">
        <ele>22.73</ele>
        <time>2016-08-23T16:56:34Z</time>
      </trkpt>
      <trkpt lat="47.38421" lon="-2.96203">
        <ele>21.29</ele>
        <time>2016-08-23T16:56:46Z</time>
      </trkpt>
      <trkpt lat="47.38425" lon="-2.96177">
        <ele>19.84</ele>
        <time>2016-08-23T16:56:55Z</time>
      </trkpt>
      <trkpt lat="47.38426" lon="-2.96177">
        <ele>20.32</ele>
        <time>2016-08-23T16:57:05Z</time>
      </trkpt>
      <trkpt lat="47.38426" lon="-2.96165">
        <ele>20.32</ele>
        <time>2016-08-23T16:57:17Z</time>
      </trkpt>
      <trkpt lat="47.3843" lon="-2.96145">
        <ele>19.84</ele>
        <time>2016-08-23T16:57:28Z</time>
      </trkpt>
      <trkpt lat="47.38436" lon="-2.96121">
        <ele>20.32</ele>
        <time>2016-08-23T16:57:39Z</time>
      </trkpt>
      <trkpt lat="47.38437" lon="-2.96117">
        <ele>21.29</ele>
        <time>2016-08-23T16:57:42Z</time>
      </trkpt>
      <trkpt lat="47.38436" lon="-2.96118">
        <ele>21.29</ele>
        <time>2016-08-23T16:57:45Z</time>
      </trkpt>
      <trkpt lat="47.38435" lon="-2.96125">
        <ele>20.81</ele>
        <time>2016-08-23T16:57:52Z</time>
      </trkpt>
      <trkpt lat="47.38435" lon="-2.96124">
        <ele>20.81</ele>
        <time>2016-08-23T16:57:54Z</time>
      </trkpt>
      <trkpt lat="47.38442" lon="-2.96112">
        <ele>21.77</ele>
        <time>2016-08-23T16:58:05Z</time>
      </trkpt>
      <trkpt lat="47.38448" lon="-2.96095">
        <ele>20.81</ele>
        <time>2016-08-23T16:58:13Z</time>
      </trkpt>
      <trkpt lat="47.38449" lon="-2.96093">
        <ele>20.81</ele>
        <time>2016-08-23T16:58:18Z</time>
      </trkpt>
      <trkpt lat="47.38455" lon="-2.96084">
        <ele>20.81</ele>
        <time>2016-08-23T16:58:25Z</time>
      </trkpt>
      <trkpt lat="47.38457" lon="-2.96082">
        <ele>20.81</ele>
        <time>2016-08-23T16:58:29Z</time>
      </trkpt>
      <trkpt lat="47.3846" lon="-2.96071">
        <ele>19.36</ele>
        <time>2016-08-23T16:58:39Z</time>
      </trkpt>
      <trkpt lat="47.38466" lon="-2.96044">
        <ele>19.36</ele>
        <time>2016-08-23T16:58:48Z</time>
      </trkpt>
      <trkpt lat="47.38465" lon="-2.96047">
        <ele>19.84</ele>
        <time>2016-08-23T16:58:51Z</time>
      </trkpt>
      <trkpt lat="47.38464" lon="-2.96049">
        <ele>19.84</ele>
        <time>2016-08-23T16:59:02Z</time>
      </trkpt>
      <trkpt lat="47.38465" lon="-2.96048">
        <ele>19.84</ele>
        <time>2016-08-23T16:59:03Z</time>
      </trkpt>
      <trkpt lat="47.3847" lon="-2.96038">
        <ele>18.4</ele>
        <time>2016-08-23T16:59:13Z</time>
      </trkpt>
      <trkpt lat="47.3847" lon="-2.96023">
        <ele>16.96</ele>
        <time>2016-08-23T16:59:23Z</time>
      </trkpt>
      <trkpt lat="47.3847" lon="-2.96022">
        <ele>16.48</ele>
        <time>2016-08-23T16:59:26Z</time>
      </trkpt>
      <trkpt lat="47.38472" lon="-2.96019">
        <ele>16</ele>
        <time>2016-08-23T16:59:30Z</time>
      </trkpt>
      <trkpt lat="47.38474" lon="-2.96008">
        <ele>15.04</ele>
        <time>2016-08-23T16:59:38Z</time>
      </trkpt>
      <trkpt lat="47.38478" lon="-2.95981">
        <ele>18.4</ele>
        <time>2016-08-23T16:59:49Z</time>
      </trkpt>
      <trkpt lat="47.38469" lon="-2.95985">
        <ele>14.08</ele>
        <time>2016-08-23T17:00:01Z</time>
      </trkpt>
      <trkpt lat="47.38461" lon="-2.95983">
        <ele>10.23</ele>
        <time>2016-08-23T17:00:10Z</time>
      </trkpt>
      <trkpt lat="47.38447" lon="-2.95986">
        <ele>7.35</ele>
        <time>2016-08-23T17:00:22Z</time>
      </trkpt>
      <trkpt lat="47.38435" lon="-2.95994">
        <ele>5.91</ele>
        <time>2016-08-23T17:00:31Z</time>
      </trkpt>
      <trkpt lat="47.38425" lon="-2.96003">
        <ele>4.94</ele>
        <time>2016-08-23T17:00:41Z</time>
      </trkpt>
      <trkpt lat="47.38428" lon="-2.95999">
        <ele>3.98</ele>
        <time>2016-08-23T17:00:53Z</time>
      </trkpt>
      <trkpt lat="47.38426" lon="-2.96">
        <ele>3.5</ele>
        <time>2016-08-23T17:01:04Z</time>
      </trkpt>
      <trkpt lat="47.38426" lon="-2.96">
        <ele>3.5</ele>
        <time>2016-08-23T17:01:16Z</time>
      </trkpt>
      <trkpt lat="47.38424" lon="-2.95999">
        <ele>3.5</ele>
        <time>2016-08-23T17:01:27Z</time>
      </trkpt>
      <trkpt lat="47.38424" lon="-2.96001">
        <ele>2.54</ele>
        <time>2016-08-23T17:01:31Z</time>
      </trkpt>
      <trkpt lat="47.38427" lon="-2.96006">
        <ele>1.58</ele>
        <time>2016-08-23T17:01:41Z</time>
      </trkpt>
      <trkpt lat="47.38428" lon="-2.95997">
        <ele>1.58</ele>
        <time>2016-08-23T17:01:50Z</time>
      </trkpt>
      <trkpt lat="47.38432" lon="-2.95995">
        <ele>2.06</ele>
        <time>2016-08-23T17:01:59Z</time>
      </trkpt>
      <trkpt lat="47.38425" lon="-2.96003">
        <ele>3.02</ele>
        <time>2016-08-23T17:02:09Z</time>
      </trkpt>
      <trkpt lat="47.38425" lon="-2.96002">
        <ele>3.5</ele>
        <time>2016-08-23T17:02:21Z</time>
      </trkpt>
      <trkpt lat="47.38425" lon="-2.95998">
        <ele>3.5</ele>
        <time>2016-08-23T17:02:34Z</time>
      </trkpt>
      <trkpt lat="47.38427" lon="-2.95997">
        <ele>3.5</ele>
        <time>2016-08-23T17:02:41Z</time>
      </trkpt>
      <trkpt lat="47.38426" lon="-2.95993">
        <ele>4.46</ele>
        <time>2016-08-23T17:02:49Z</time>
      </trkpt>
      <trkpt lat="47.38425" lon="-2.95992">
        <ele>4.46</ele>
        <time>2016-08-23T17:02:59Z</time>
      </trkpt>
      <trkpt lat="47.38427" lon="-2.95992">
        <ele>4.94</ele>
        <time>2016-08-23T17:03:14Z</time>
      </trkpt>
      <trkpt lat="47.38427" lon="-2.95991">
        <ele>5.42</ele>
        <time>2016-08-23T17:03:21Z</time>
      </trkpt>
      <trkpt lat="47.38424" lon="-2.95985">
        <ele>5.42</ele>
        <time>2016-08-23T17:03:26Z</time>
      </trkpt>
      <trkpt lat="47.38422" lon="-2.95981">
        <ele>5.91</ele>
        <time>2016-08-23T17:03:32Z</time>
      </trkpt>
      <trkpt lat="47.38427" lon="-2.95987">
        <ele>5.91</ele>
        <time>2016-08-23T17:03:44Z</time>
      </trkpt>
      <trkpt lat="47.38428" lon="-2.95987">
        <ele>5.91</ele>
        <time>2016-08-23T17:03:45Z</time>
      </trkpt>
      <trkpt lat="47.38428" lon="-2.95989">
        <ele>6.87</ele>
        <time>2016-08-23T17:03:57Z</time>
      </trkpt>
      <trkpt lat="47.38429" lon="-2.9599">
        <ele>6.87</ele>
        <time>2016-08-23T17:04:00Z</time>
      </trkpt>
      <trkpt lat="47.38444" lon="-2.95979">
        <ele>6.39</ele>
        <time>2016-08-23T17:04:14Z</time>
      </trkpt>
      <trkpt lat="47.38465" lon="-2.95972">
        <ele>6.87</ele>
        <time>2016-08-23T17:04:33Z</time>
      </trkpt>
      <trkpt lat="47.38475" lon="-2.95966">
        <ele>8.79</ele>
        <time>2016-08-23T17:04:47Z</time>
      </trkpt>
      <trkpt lat="47.38486" lon="-2.95971">
        <ele>11.67</ele>
        <time>2016-08-23T17:05:01Z</time>
      </trkpt>
      <trkpt lat="47.38484" lon="-2.95966">
        <ele>12.63</ele>
        <time>2016-08-23T17:05:11Z</time>
      </trkpt>
      <trkpt lat="47.38482" lon="-2.95965">
        <ele>13.12</ele>
        <time>2016-08-23T17:05:23Z</time>
      </trkpt>
      <trkpt lat="47.38487" lon="-2.95968">
        <ele>13.12</ele>
        <time>2016-08-23T17:05:28Z</time>
      </trkpt>
      <trkpt lat="47.38501" lon="-2.95959">
        <ele>13.6</ele>
        <time>2016-08-23T17:05:41Z</time>
      </trkpt>
      <trkpt lat="47.38511" lon="-2.95949">
        <ele>13.12</ele>
        <time>2016-08-23T17:05:51Z</time>
      </trkpt>
      <trkpt lat="47.38522" lon="-2.95938">
        <ele>14.08</ele>
        <time>2016-08-23T17:06:02Z</time>
      </trkpt>
      <trkpt lat="47.38533" lon="-2.9593">
        <ele>14.56</ele>
        <time>2016-08-23T17:06:13Z</time>
      </trkpt>
      <trkpt lat="47.3854" lon="-2.95922">
        <ele>16</ele>
        <time>2016-08-23T17:06:21Z</time>
      </trkpt>
      <trkpt lat="47.38542" lon="-2.95917">
        <ele>16</ele>
        <time>2016-08-23T17:06:24Z</time>
      </trkpt>
      <trkpt lat="47.38544" lon="-2.95914">
        <ele>15.52</ele>
        <time>2016-08-23T17:06:36Z</time>
      </trkpt>
      <trkpt lat="47.38544" lon="-2.95914">
        <ele>16</ele>
        <time>2016-08-23T17:06:41Z</time>
      </trkpt>
      <trkpt lat="47.38545" lon="-2.95909">
        <ele>16</ele>
        <time>2016-08-23T17:06:47Z</time>
      </trkpt>
      <trkpt lat="47.38544" lon="-2.95905">
        <ele>15.52</ele>
        <time>2016-08-23T17:06:50Z</time>
      </trkpt>
      <trkpt lat="47.38545" lon="-2.95917">
        <ele>16.48</ele>
        <time>2016-08-23T17:06:55Z</time>
      </trkpt>
      <trkpt lat="47.38542" lon="-2.95918">
        <ele>16.48</ele>
        <time>2016-08-23T17:07:06Z</time>
      </trkpt>
      <trkpt lat="47.3854" lon="-2.95919">
        <ele>16.96</ele>
        <time>2016-08-23T17:07:15Z</time>
      </trkpt>
      <trkpt lat="47.38543" lon="-2.95912">
        <ele>16.48</ele>
        <time>2016-08-23T17:07:21Z</time>
      </trkpt>
      <trkpt lat="47.38544" lon="-2.95901">
        <ele>16.48</ele>
        <time>2016-08-23T17:07:31Z</time>
      </trkpt>
      <trkpt lat="47.38544" lon="-2.95891">
        <ele>16.48</ele>
        <time>2016-08-23T17:07:41Z</time>
      </trkpt>
      <trkpt lat="47.38543" lon="-2.95874">
        <ele>16.96</ele>
        <time>2016-08-23T17:07:51Z</time>
      </trkpt>
      <trkpt lat="47.38543" lon="-2.95867">
        <ele>17.92</ele>
        <time>2016-08-23T17:07:56Z</time>
      </trkpt>
      <trkpt lat="47.38545" lon="-2.95864">
        <ele>17.92</ele>
        <time>2016-08-23T17:08:01Z</time>
      </trkpt>
      <trkpt lat="47.38548" lon="-2.95845">
        <ele>19.36</ele>
        <time>2016-08-23T17:08:11Z</time>
      </trkpt>
      <trkpt lat="47.38552" lon="-2.9583">
        <ele>21.77</ele>
        <time>2016-08-23T17:08:19Z</time>
      </trkpt>
      <trkpt lat="47.38555" lon="-2.95829">
        <ele>22.25</ele>
        <time>2016-08-23T17:08:22Z</time>
      </trkpt>
      <trkpt lat="47.38554" lon="-2.95815">
        <ele>22.25</ele>
        <time>2016-08-23T17:08:30Z</time>
      </trkpt>
      <trkpt lat="47.38555" lon="-2.95809">
        <ele>22.73</ele>
        <time>2016-08-23T17:08:34Z</time>
      </trkpt>
      <trkpt lat="47.38559" lon="-2.9579">
        <ele>22.73</ele>
        <time>2016-08-23T17:08:45Z</time>
      </trkpt>
      <trkpt lat="47.38563" lon="-2.95768">
        <ele>24.65</ele>
        <time>2016-08-23T17:08:57Z</time>
      </trkpt>
      <trkpt lat="47.38563" lon="-2.95764">
        <ele>25.13</ele>
        <time>2016-08-23T17:09:00Z</time>
      </trkpt>
      <trkpt lat="47.38563" lon="-2.9576">
        <ele>25.13</ele>
        <time>2016-08-23T17:09:03Z</time>
      </trkpt>
      <trkpt lat="47.38567" lon="-2.95744">
        <ele>24.65</ele>
        <time>2016-08-23T17:09:16Z</time>
      </trkpt>
      <trkpt lat="47.38567" lon="-2.95721">
        <ele>25.61</ele>
        <time>2016-08-23T17:09:27Z</time>
      </trkpt>
      <trkpt lat="47.38566" lon="-2.9571">
        <ele>26.57</ele>
        <time>2016-08-23T17:09:35Z</time>
      </trkpt>
      <trkpt lat="47.38564" lon="-2.95703">
        <ele>26.57</ele>
        <time>2016-08-23T17:09:41Z</time>
      </trkpt>
      <trkpt lat="47.38565" lon="-2.95702">
        <ele>26.09</ele>
        <time>2016-08-23T17:09:47Z</time>
      </trkpt>
      <trkpt lat="47.38561" lon="-2.95677">
        <ele>25.61</ele>
        <time>2016-08-23T17:09:58Z</time>
      </trkpt>
      <trkpt lat="47.38565" lon="-2.95668">
        <ele>25.61</ele>
        <time>2016-08-23T17:10:04Z</time>
      </trkpt>
      <trkpt lat="47.38577" lon="-2.9565">
        <ele>27.05</ele>
        <time>2016-08-23T17:10:17Z</time>
      </trkpt>
      <trkpt lat="47.38581" lon="-2.9564">
        <ele>27.05</ele>
        <time>2016-08-23T17:10:28Z</time>
      </trkpt>
      <trkpt lat="47.38594" lon="-2.9561">
        <ele>25.61</ele>
        <time>2016-08-23T17:10:46Z</time>
      </trkpt>
      <trkpt lat="47.38592" lon="-2.9561">
        <ele>26.57</ele>
        <time>2016-08-23T17:10:54Z</time>
      </trkpt>
      <trkpt lat="47.386" lon="-2.95597">
        <ele>26.57</ele>
        <time>2016-08-23T17:11:06Z</time>
      </trkpt>
      <trkpt lat="47.3861" lon="-2.95574">
        <ele>26.57</ele>
        <time>2016-08-23T17:11:23Z</time>
      </trkpt>
      <trkpt lat="47.38617" lon="-2.95562">
        <ele>26.57</ele>
        <time>2016-08-23T17:11:35Z</time>
      </trkpt>
      <trkpt lat="47.38619" lon="-2.95557">
        <ele>26.57</ele>
        <time>2016-08-23T17:11:45Z</time>
      </trkpt>
      <trkpt lat="47.38631" lon="-2.95547">
        <ele>26.57</ele>
        <time>2016-08-23T17:11:58Z</time>
      </trkpt>
      <trkpt lat="47.38643" lon="-2.95543">
        <ele>27.05</ele>
        <time>2016-08-23T17:12:10Z</time>
      </trkpt>
      <trkpt lat="47.38657" lon="-2.95546">
        <ele>26.09</ele>
        <time>2016-08-23T17:12:23Z</time>
      </trkpt>
      <trkpt lat="47.3866" lon="-2.95545">
        <ele>26.57</ele>
        <time>2016-08-23T17:12:27Z</time>
      </trkpt>
      <trkpt lat="47.3868" lon="-2.95549">
        <ele>27.53</ele>
        <time>2016-08-23T17:12:44Z</time>
      </trkpt>
      <trkpt lat="47.38694" lon="-2.95552">
        <ele>26.57</ele>
        <time>2016-08-23T17:12:56Z</time>
      </trkpt>
      <trkpt lat="47.38711" lon="-2.95551">
        <ele>28.5</ele>
        <time>2016-08-23T17:13:10Z</time>
      </trkpt>
      <trkpt lat="47.38711" lon="-2.9555">
        <ele>28.02</ele>
        <time>2016-08-23T17:13:21Z</time>
      </trkpt>
      <trkpt lat="47.38713" lon="-2.95547">
        <ele>28.98</ele>
        <time>2016-08-23T17:13:31Z</time>
      </trkpt>
      <trkpt lat="47.38719" lon="-2.9555">
        <ele>29.46</ele>
        <time>2016-08-23T17:13:37Z</time>
      </trkpt>
      <trkpt lat="47.38738" lon="-2.95548">
        <ele>27.05</ele>
        <time>2016-08-23T17:13:50Z</time>
      </trkpt>
      <trkpt lat="47.38741" lon="-2.95547">
        <ele>27.05</ele>
        <time>2016-08-23T17:13:55Z</time>
      </trkpt>
      <trkpt lat="47.38758" lon="-2.95545">
        <ele>27.05</ele>
        <time>2016-08-23T17:14:09Z</time>
      </trkpt>
      <trkpt lat="47.38773" lon="-2.95545">
        <ele>28.98</ele>
        <time>2016-08-23T17:14:19Z</time>
      </trkpt>
      <trkpt lat="47.38777" lon="-2.95546">
        <ele>29.94</ele>
        <time>2016-08-23T17:14:31Z</time>
      </trkpt>
      <trkpt lat="47.3879" lon="-2.95546">
        <ele>29.46</ele>
        <time>2016-08-23T17:14:41Z</time>
      </trkpt>
      <trkpt lat="47.38794" lon="-2.95546">
        <ele>30.42</ele>
        <time>2016-08-23T17:14:43Z</time>
      </trkpt>
      <trkpt lat="47.38813" lon="-2.95549">
        <ele>31.38</ele>
        <time>2016-08-23T17:14:58Z</time>
      </trkpt>
      <trkpt lat="47.38816" lon="-2.95551">
        <ele>27.53</ele>
        <time>2016-08-23T17:15:08Z</time>
      </trkpt>
      <trkpt lat="47.38828" lon="-2.95554">
        <ele>23.69</ele>
        <time>2016-08-23T17:15:19Z</time>
      </trkpt>
      <trkpt lat="47.3884" lon="-2.95554">
        <ele>22.73</ele>
        <time>2016-08-23T17:15:29Z</time>
      </trkpt>
      <trkpt lat="47.38856" lon="-2.95549">
        <ele>23.21</ele>
        <time>2016-08-23T17:15:41Z</time>
      </trkpt>
      <trkpt lat="47.38866" lon="-2.95549">
        <ele>24.17</ele>
        <time>2016-08-23T17:15:50Z</time>
      </trkpt>
      <trkpt lat="47.38873" lon="-2.95548">
        <ele>24.17</ele>
        <time>2016-08-23T17:16:00Z</time>
      </trkpt>
      <trkpt lat="47.38882" lon="-2.95538">
        <ele>23.69</ele>
        <time>2016-08-23T17:16:12Z</time>
      </trkpt>
      <trkpt lat="47.38883" lon="-2.95529">
        <ele>24.17</ele>
        <time>2016-08-23T17:16:17Z</time>
      </trkpt>
      <trkpt lat="47.38883" lon="-2.95529">
        <ele>24.17</ele>
        <time>2016-08-23T17:16:20Z</time>
      </trkpt>
      <trkpt lat="47.38884" lon="-2.95524">
        <ele>24.17</ele>
        <time>2016-08-23T17:16:29Z</time>
      </trkpt>
      <trkpt lat="47.38884" lon="-2.95523">
        <ele>23.69</ele>
        <time>2016-08-23T17:16:31Z</time>
      </trkpt>
      <trkpt lat="47.38888" lon="-2.95504">
        <ele>24.17</ele>
        <time>2016-08-23T17:16:42Z</time>
      </trkpt>
      <trkpt lat="47.3889" lon="-2.95489">
        <ele>24.65</ele>
        <time>2016-08-23T17:16:49Z</time>
      </trkpt>
      <trkpt lat="47.38889" lon="-2.95472">
        <ele>24.65</ele>
        <time>2016-08-23T17:16:58Z</time>
      </trkpt>
      <trkpt lat="47.38889" lon="-2.95458">
        <ele>25.61</ele>
        <time>2016-08-23T17:17:07Z</time>
      </trkpt>
      <trkpt lat="47.38888" lon="-2.95457">
        <ele>25.61</ele>
        <time>2016-08-23T17:17:12Z</time>
      </trkpt>
      <trkpt lat="47.38888" lon="-2.9544">
        <ele>25.13</ele>
        <time>2016-08-23T17:17:21Z</time>
      </trkpt>
      <trkpt lat="47.38887" lon="-2.95423">
        <ele>25.61</ele>
        <time>2016-08-23T17:17:31Z</time>
      </trkpt>
      <trkpt lat="47.38886" lon="-2.95414">
        <ele>25.61</ele>
        <time>2016-08-23T17:17:37Z</time>
      </trkpt>
      <trkpt lat="47.38887" lon="-2.95392">
        <ele>25.13</ele>
        <time>2016-08-23T17:17:47Z</time>
      </trkpt>
      <trkpt lat="47.38887" lon="-2.95392">
        <ele>25.13</ele>
        <time>2016-08-23T17:17:49Z</time>
      </trkpt>
      <trkpt lat="47.38886" lon="-2.95371">
        <ele>26.09</ele>
        <time>2016-08-23T17:18:00Z</time>
      </trkpt>
      <trkpt lat="47.3888" lon="-2.95354">
        <ele>26.09</ele>
        <time>2016-08-23T17:18:09Z</time>
      </trkpt>
      <trkpt lat="47.3888" lon="-2.95354">
        <ele>26.09</ele>
        <time>2016-08-23T17:18:11Z</time>
      </trkpt>
      <trkpt lat="47.38872" lon="-2.95337">
        <ele>26.57</ele>
        <time>2016-08-23T17:18:23Z</time>
      </trkpt>
      <trkpt lat="47.38864" lon="-2.9532">
        <ele>26.57</ele>
        <time>2016-08-23T17:18:36Z</time>
      </trkpt>
      <trkpt lat="47.38861" lon="-2.95315">
        <ele>26.57</ele>
        <time>2016-08-23T17:18:38Z</time>
      </trkpt>
      <trkpt lat="47.38857" lon="-2.95309">
        <ele>27.53</ele>
        <time>2016-08-23T17:18:42Z</time>
      </trkpt>
      <trkpt lat="47.38856" lon="-2.95305">
        <ele>27.05</ele>
        <time>2016-08-23T17:18:45Z</time>
      </trkpt>
      <trkpt lat="47.38861" lon="-2.95301">
        <ele>27.05</ele>
        <time>2016-08-23T17:18:50Z</time>
      </trkpt>
      <trkpt lat="47.3887" lon="-2.95299">
        <ele>26.57</ele>
        <time>2016-08-23T17:18:57Z</time>
      </trkpt>
      <trkpt lat="47.38879" lon="-2.953">
        <ele>24.65</ele>
        <time>2016-08-23T17:19:11Z</time>
      </trkpt>
      <trkpt lat="47.38878" lon="-2.95299">
        <ele>24.65</ele>
        <time>2016-08-23T17:19:25Z</time>
      </trkpt>
      <trkpt lat="47.38882" lon="-2.95299">
        <ele>25.13</ele>
        <time>2016-08-23T17:19:38Z</time>
      </trkpt>
      <trkpt lat="47.38883" lon="-2.95288">
        <ele>24.17</ele>
        <time>2016-08-23T17:19:50Z</time>
      </trkpt>
      <trkpt lat="47.3889" lon="-2.95301">
        <ele>23.21</ele>
        <time>2016-08-23T17:19:59Z</time>
      </trkpt>
      <trkpt lat="47.38894" lon="-2.95297">
        <ele>22.25</ele>
        <time>2016-08-23T17:20:10Z</time>
      </trkpt>
      <trkpt lat="47.38897" lon="-2.95293">
        <ele>22.25</ele>
        <time>2016-08-23T17:20:15Z</time>
      </trkpt>
      <trkpt lat="47.38898" lon="-2.95269">
        <ele>24.17</ele>
        <time>2016-08-23T17:20:27Z</time>
      </trkpt>
      <trkpt lat="47.38899" lon="-2.95248">
        <ele>25.61</ele>
        <time>2016-08-23T17:20:38Z</time>
      </trkpt>
      <trkpt lat="47.38899" lon="-2.95244">
        <ele>25.61</ele>
        <time>2016-08-23T17:20:41Z</time>
      </trkpt>
      <trkpt lat="47.38903" lon="-2.9524">
        <ele>25.13</ele>
        <time>2016-08-23T17:20:51Z</time>
      </trkpt>
      <trkpt lat="47.38904" lon="-2.95236">
        <ele>25.61</ele>
        <time>2016-08-23T17:21:02Z</time>
      </trkpt>
      <trkpt lat="47.38909" lon="-2.95237">
        <ele>26.09</ele>
        <time>2016-08-23T17:21:07Z</time>
      </trkpt>
      <trkpt lat="47.38916" lon="-2.95237">
        <ele>26.09</ele>
        <time>2016-08-23T17:21:13Z</time>
      </trkpt>
      <trkpt lat="47.38921" lon="-2.95224">
        <ele>27.53</ele>
        <time>2016-08-23T17:21:21Z</time>
      </trkpt>
      <trkpt lat="47.38923" lon="-2.95211">
        <ele>26.57</ele>
        <time>2016-08-23T17:21:30Z</time>
      </trkpt>
      <trkpt lat="47.38923" lon="-2.95196">
        <ele>25.61</ele>
        <time>2016-08-23T17:21:38Z</time>
      </trkpt>
      <trkpt lat="47.38913" lon="-2.95193">
        <ele>24.17</ele>
        <time>2016-08-23T17:21:47Z</time>
      </trkpt>
      <trkpt lat="47.38912" lon="-2.9519">
        <ele>24.17</ele>
        <time>2016-08-23T17:22:01Z</time>
      </trkpt>
      <trkpt lat="47.38911" lon="-2.95188">
        <ele>24.65</ele>
        <time>2016-08-23T17:22:13Z</time>
      </trkpt>
      <trkpt lat="47.3891" lon="-2.95194">
        <ele>24.65</ele>
        <time>2016-08-23T17:22:25Z</time>
      </trkpt>
      <trkpt lat="47.38907" lon="-2.95197">
        <ele>24.17</ele>
        <time>2016-08-23T17:22:35Z</time>
      </trkpt>
      <trkpt lat="47.38911" lon="-2.95189">
        <ele>25.13</ele>
        <time>2016-08-23T17:22:48Z</time>
      </trkpt>
      <trkpt lat="47.38912" lon="-2.9519">
        <ele>25.13</ele>
        <time>2016-08-23T17:22:55Z</time>
      </trkpt>
      <trkpt lat="47.38912" lon="-2.95187">
        <ele>26.09</ele>
        <time>2016-08-23T17:23:05Z</time>
      </trkpt>
      <trkpt lat="47.38911" lon="-2.9519">
        <ele>26.09</ele>
        <time>2016-08-23T17:23:18Z</time>
      </trkpt>
      <trkpt lat="47.38912" lon="-2.95196">
        <ele>25.13</ele>
        <time>2016-08-23T17:23:28Z</time>
      </trkpt>
      <trkpt lat="47.38912" lon="-2.95196">
        <ele>24.65</ele>
        <time>2016-08-23T17:23:35Z</time>
      </trkpt>
      <trkpt lat="47.38909" lon="-2.95197">
        <ele>24.65</ele>
        <time>2016-08-23T17:23:39Z</time>
      </trkpt>
      <trkpt lat="47.38905" lon="-2.95189">
        <ele>23.69</ele>
        <time>2016-08-23T17:23:50Z</time>
      </trkpt>
      <trkpt lat="47.38908" lon="-2.95188">
        <ele>24.17</ele>
        <time>2016-08-23T17:24:00Z</time>
      </trkpt>
      <trkpt lat="47.38913" lon="-2.95188">
        <ele>25.61</ele>
        <time>2016-08-23T17:24:14Z</time>
      </trkpt>
      <trkpt lat="47.38911" lon="-2.95192">
        <ele>25.13</ele>
        <time>2016-08-23T17:24:28Z</time>
      </trkpt>
      <trkpt lat="47.38908" lon="-2.95192">
        <ele>25.13</ele>
        <time>2016-08-23T17:24:35Z</time>
      </trkpt>
      <trkpt lat="47.38905" lon="-2.95193">
        <ele>24.65</ele>
        <time>2016-08-23T17:24:39Z</time>
      </trkpt>
      <trkpt lat="47.389" lon="-2.95183">
        <ele>24.65</ele>
        <time>2016-08-23T17:24:47Z</time>
      </trkpt>
      <trkpt lat="47.38901" lon="-2.95178">
        <ele>23.21</ele>
        <time>2016-08-23T17:24:51Z</time>
      </trkpt>
      <trkpt lat="47.38903" lon="-2.95174">
        <ele>22.73</ele>
        <time>2016-08-23T17:24:54Z</time>
      </trkpt>
      <trkpt lat="47.38906" lon="-2.95174">
        <ele>23.69</ele>
        <time>2016-08-23T17:24:58Z</time>
      </trkpt>
      <trkpt lat="47.38922" lon="-2.9517">
        <ele>25.13</ele>
        <time>2016-08-23T17:25:18Z</time>
      </trkpt>
      <trkpt lat="47.38937" lon="-2.95166">
        <ele>25.13</ele>
        <time>2016-08-23T17:25:35Z</time>
      </trkpt>
      <trkpt lat="47.38948" lon="-2.95168">
        <ele>26.09</ele>
        <time>2016-08-23T17:25:50Z</time>
      </trkpt>
      <trkpt lat="47.38959" lon="-2.95171">
        <ele>27.05</ele>
        <time>2016-08-23T17:26:03Z</time>
      </trkpt>
      <trkpt lat="47.38966" lon="-2.95174">
        <ele>27.53</ele>
        <time>2016-08-23T17:26:12Z</time>
      </trkpt>
      <trkpt lat="47.38982" lon="-2.95175">
        <ele>28.02</ele>
        <time>2016-08-23T17:26:27Z</time>
      </trkpt>
      <trkpt lat="47.39001" lon="-2.9517">
        <ele>28.02</ele>
        <time>2016-08-23T17:26:46Z</time>
      </trkpt>
      <trkpt lat="47.39018" lon="-2.95176">
        <ele>27.53</ele>
        <time>2016-08-23T17:27:04Z</time>
      </trkpt>
      <trkpt lat="47.39029" lon="-2.95193">
        <ele>27.53</ele>
        <time>2016-08-23T17:27:22Z</time>
      </trkpt>
      <trkpt lat="47.39032" lon="-2.95198">
        <ele>27.53</ele>
        <time>2016-08-23T17:27:51Z</time>
      </trkpt>
      <trkpt lat="47.39032" lon="-2.95202">
        <ele>27.53</ele>
        <time>2016-08-23T17:28:01Z</time>
      </trkpt>
      <trkpt lat="47.39034" lon="-2.95213">
        <ele>27.53</ele>
        <time>2016-08-23T17:28:08Z</time>
      </trkpt>
      <trkpt lat="47.3904" lon="-2.95239">
        <ele>25.61</ele>
        <time>2016-08-23T17:28:24Z</time>
      </trkpt>
      <trkpt lat="47.39043" lon="-2.95251">
        <ele>24.65</ele>
        <time>2016-08-23T17:28:38Z</time>
      </trkpt>
      <trkpt lat="47.39044" lon="-2.95254">
        <ele>24.65</ele>
        <time>2016-08-23T17:28:40Z</time>
      </trkpt>
      <trkpt lat="47.39045" lon="-2.9526">
        <ele>24.65</ele>
        <time>2016-08-23T17:28:44Z</time>
      </trkpt>
      <trkpt lat="47.39049" lon="-2.9529">
        <ele>25.13</ele>
        <time>2016-08-23T17:29:05Z</time>
      </trkpt>
      <trkpt lat="47.39052" lon="-2.95307">
        <ele>25.61</ele>
        <time>2016-08-23T17:29:17Z</time>
      </trkpt>
      <trkpt lat="47.39052" lon="-2.95314">
        <ele>25.13</ele>
        <time>2016-08-23T17:29:28Z</time>
      </trkpt>
      <trkpt lat="47.39052" lon="-2.95328">
        <ele>25.13</ele>
        <time>2016-08-23T17:29:40Z</time>
      </trkpt>
      <trkpt lat="47.39051" lon="-2.95349">
        <ele>25.13</ele>
        <time>2016-08-23T17:29:50Z</time>
      </trkpt>
      <trkpt lat="47.39052" lon="-2.95363">
        <ele>25.13</ele>
        <time>2016-08-23T17:29:59Z</time>
      </trkpt>
      <trkpt lat="47.39051" lon="-2.9537">
        <ele>26.57</ele>
        <time>2016-08-23T17:30:03Z</time>
      </trkpt>
      <trkpt lat="47.39053" lon="-2.95385">
        <ele>27.53</ele>
        <time>2016-08-23T17:30:13Z</time>
      </trkpt>
      <trkpt lat="47.39054" lon="-2.9539">
        <ele>28.02</ele>
        <time>2016-08-23T17:30:23Z</time>
      </trkpt>
      <trkpt lat="47.39054" lon="-2.95394">
        <ele>28.02</ele>
        <time>2016-08-23T17:30:25Z</time>
      </trkpt>
      <trkpt lat="47.39054" lon="-2.95397">
        <ele>28.5</ele>
        <time>2016-08-23T17:30:35Z</time>
      </trkpt>
      <trkpt lat="47.39049" lon="-2.95416">
        <ele>29.46</ele>
        <time>2016-08-23T17:30:47Z</time>
      </trkpt>
      <trkpt lat="47.39047" lon="-2.95423">
        <ele>28.02</ele>
        <time>2016-08-23T17:30:52Z</time>
      </trkpt>
      <trkpt lat="47.39043" lon="-2.95447">
        <ele>29.46</ele>
        <time>2016-08-23T17:31:04Z</time>
      </trkpt>
      <trkpt lat="47.39041" lon="-2.95455">
        <ele>29.94</ele>
        <time>2016-08-23T17:31:11Z</time>
      </trkpt>
      <trkpt lat="47.39045" lon="-2.95474">
        <ele>32.34</ele>
        <time>2016-08-23T17:31:20Z</time>
      </trkpt>
      <trkpt lat="47.39049" lon="-2.95495">
        <ele>30.9</ele>
        <time>2016-08-23T17:31:36Z</time>
      </trkpt>
      <trkpt lat="47.39049" lon="-2.95503">
        <ele>31.38</ele>
        <time>2016-08-23T17:31:46Z</time>
      </trkpt>
      <trkpt lat="47.39049" lon="-2.95505">
        <ele>31.38</ele>
        <time>2016-08-23T17:31:47Z</time>
      </trkpt>
      <trkpt lat="47.39051" lon="-2.95521">
        <ele>30.9</ele>
        <time>2016-08-23T17:31:54Z</time>
      </trkpt>
      <trkpt lat="47.3905" lon="-2.95526">
        <ele>31.38</ele>
        <time>2016-08-23T17:31:56Z</time>
      </trkpt>
      <trkpt lat="47.39053" lon="-2.95542">
        <ele>32.34</ele>
        <time>2016-08-23T17:32:08Z</time>
      </trkpt>
      <trkpt lat="47.39053" lon="-2.95547">
        <ele>32.34</ele>
        <time>2016-08-23T17:32:11Z</time>
      </trkpt>
      <trkpt lat="47.39051" lon="-2.95562">
        <ele>31.38</ele>
        <time>2016-08-23T17:32:24Z</time>
      </trkpt>
      <trkpt lat="47.39051" lon="-2.95563">
        <ele>31.38</ele>
        <time>2016-08-23T17:32:26Z</time>
      </trkpt>
      <trkpt lat="47.39038" lon="-2.95578">
        <ele>34.74</ele>
        <time>2016-08-23T17:32:38Z</time>
      </trkpt>
      <trkpt lat="47.39038" lon="-2.95579">
        <ele>35.23</ele>
        <time>2016-08-23T17:32:39Z</time>
      </trkpt>
      <trkpt lat="47.3904" lon="-2.95584">
        <ele>36.67</ele>
        <time>2016-08-23T17:32:42Z</time>
      </trkpt>
      <trkpt lat="47.39044" lon="-2.95589">
        <ele>37.63</ele>
        <time>2016-08-23T17:32:47Z</time>
      </trkpt>
      <trkpt lat="47.39047" lon="-2.95595">
        <ele>38.59</ele>
        <time>2016-08-23T17:32:52Z</time>
      </trkpt>
      <trkpt lat="47.39049" lon="-2.95611">
        <ele>39.55</ele>
        <time>2016-08-23T17:33:01Z</time>
      </trkpt>
      <trkpt lat="47.39057" lon="-2.95613">
        <ele>37.63</ele>
        <time>2016-08-23T17:33:07Z</time>
      </trkpt>
      <trkpt lat="47.39063" lon="-2.95604">
        <ele>37.63</ele>
        <time>2016-08-23T17:33:11Z</time>
      </trkpt>
      <trkpt lat="47.39065" lon="-2.95598">
        <ele>37.15</ele>
        <time>2016-08-23T17:33:15Z</time>
      </trkpt>
      <trkpt lat="47.39068" lon="-2.9558">
        <ele>36.19</ele>
        <time>2016-08-23T17:33:26Z</time>
      </trkpt>
      <trkpt lat="47.39069" lon="-2.95577">
        <ele>35.71</ele>
        <time>2016-08-23T17:33:28Z</time>
      </trkpt>
      <trkpt lat="47.39074" lon="-2.95579">
        <ele>35.23</ele>
        <time>2016-08-23T17:33:38Z</time>
      </trkpt>
      <trkpt lat="47.39079" lon="-2.95583">
        <ele>34.74</ele>
        <time>2016-08-23T17:33:43Z</time>
      </trkpt>
      <trkpt lat="47.39093" lon="-2.95588">
        <ele>35.23</ele>
        <time>2016-08-23T17:33:53Z</time>
      </trkpt>
      <trkpt lat="47.39102" lon="-2.95603">
        <ele>33.3</ele>
        <time>2016-08-23T17:34:04Z</time>
      </trkpt>
      <trkpt lat="47.39107" lon="-2.95618">
        <ele>32.34</ele>
        <time>2016-08-23T17:34:14Z</time>
      </trkpt>
      <trkpt lat="47.39116" lon="-2.9564">
        <ele>31.86</ele>
        <time>2016-08-23T17:34:27Z</time>
      </trkpt>
      <trkpt lat="47.39119" lon="-2.95648">
        <ele>31.38</ele>
        <time>2016-08-23T17:34:31Z</time>
      </trkpt>
      <trkpt lat="47.3912" lon="-2.95654">
        <ele>31.86</ele>
        <time>2016-08-23T17:34:35Z</time>
      </trkpt>
      <trkpt lat="47.39128" lon="-2.95672">
        <ele>29.46</ele>
        <time>2016-08-23T17:34:44Z</time>
      </trkpt>
      <trkpt lat="47.39132" lon="-2.9568">
        <ele>28.98</ele>
        <time>2016-08-23T17:34:52Z</time>
      </trkpt>
      <trkpt lat="47.39136" lon="-2.9569">
        <ele>28.98</ele>
        <time>2016-08-23T17:34:57Z</time>
      </trkpt>
      <trkpt lat="47.39146" lon="-2.9571">
        <ele>29.46</ele>
        <time>2016-08-23T17:35:09Z</time>
      </trkpt>
      <trkpt lat="47.39151" lon="-2.95728">
        <ele>28.5</ele>
        <time>2016-08-23T17:35:20Z</time>
      </trkpt>
      <trkpt lat="47.39156" lon="-2.95746">
        <ele>26.57</ele>
        <time>2016-08-23T17:35:32Z</time>
      </trkpt>
      <trkpt lat="47.39159" lon="-2.95758">
        <ele>27.53</ele>
        <time>2016-08-23T17:35:42Z</time>
      </trkpt>
      <trkpt lat="47.39165" lon="-2.95776">
        <ele>27.05</ele>
        <time>2016-08-23T17:35:54Z</time>
      </trkpt>
      <trkpt lat="47.39165" lon="-2.95777">
        <ele>27.05</ele>
        <time>2016-08-23T17:35:55Z</time>
      </trkpt>
      <trkpt lat="47.39169" lon="-2.95793">
        <ele>26.57</ele>
        <time>2016-08-23T17:36:04Z</time>
      </trkpt>
      <trkpt lat="47.39173" lon="-2.95807">
        <ele>28.02</ele>
        <time>2016-08-23T17:36:18Z</time>
      </trkpt>
      <trkpt lat="47.39179" lon="-2.95819">
        <ele>27.53</ele>
        <time>2016-08-23T17:36:29Z</time>
      </trkpt>
      <trkpt lat="47.39183" lon="-2.95825">
        <ele>27.53</ele>
        <time>2016-08-23T17:36:36Z</time>
      </trkpt>
      <trkpt lat="47.39185" lon="-2.95827">
        <ele>27.53</ele>
        <time>2016-08-23T17:36:38Z</time>
      </trkpt>
      <trkpt lat="47.3919" lon="-2.9583">
        <ele>26.57</ele>
        <time>2016-08-23T17:36:48Z</time>
      </trkpt>
      <trkpt lat="47.39201" lon="-2.95839">
        <ele>26.09</ele>
        <time>2016-08-23T17:37:01Z</time>
      </trkpt>
      <trkpt lat="47.39213" lon="-2.95846">
        <ele>25.61</ele>
        <time>2016-08-23T17:37:14Z</time>
      </trkpt>
      <trkpt lat="47.39219" lon="-2.9585">
        <ele>25.13</ele>
        <time>2016-08-23T17:37:26Z</time>
      </trkpt>
      <trkpt lat="47.3922" lon="-2.95851">
        <ele>24.65</ele>
        <time>2016-08-23T17:37:31Z</time>
      </trkpt>
      <trkpt lat="47.39224" lon="-2.95853">
        <ele>23.69</ele>
        <time>2016-08-23T17:37:38Z</time>
      </trkpt>
      <trkpt lat="47.39232" lon="-2.95858">
        <ele>20.32</ele>
        <time>2016-08-23T17:37:50Z</time>
      </trkpt>
      <trkpt lat="47.39233" lon="-2.95863">
        <ele>17.92</ele>
        <time>2016-08-23T17:38:03Z</time>
      </trkpt>
      <trkpt lat="47.39232" lon="-2.95866">
        <ele>16.48</ele>
        <time>2016-08-23T17:38:07Z</time>
      </trkpt>
      <trkpt lat="47.39229" lon="-2.95875">
        <ele>15.52</ele>
        <time>2016-08-23T17:38:13Z</time>
      </trkpt>
      <trkpt lat="47.39233" lon="-2.95884">
        <ele>15.52</ele>
        <time>2016-08-23T17:38:19Z</time>
      </trkpt>
      <trkpt lat="47.39242" lon="-2.9588">
        <ele>16.48</ele>
        <time>2016-08-23T17:38:26Z</time>
      </trkpt>
      <trkpt lat="47.39256" lon="-2.95882">
        <ele>16.48</ele>
        <time>2016-08-23T17:38:38Z</time>
      </trkpt>
      <trkpt lat="47.39257" lon="-2.95882">
        <ele>16.48</ele>
        <time>2016-08-23T17:38:40Z</time>
      </trkpt>
      <trkpt lat="47.39261" lon="-2.95883">
        <ele>16</ele>
        <time>2016-08-23T17:38:54Z</time>
      </trkpt>
      <trkpt lat="47.39255" lon="-2.9588">
        <ele>15.52</ele>
        <time>2016-08-23T17:39:05Z</time>
      </trkpt>
      <trkpt lat="47.39261" lon="-2.95884">
        <ele>16.48</ele>
        <time>2016-08-23T17:39:20Z</time>
      </trkpt>
      <trkpt lat="47.39267" lon="-2.95887">
        <ele>16.96</ele>
        <time>2016-08-23T17:39:31Z</time>
      </trkpt>
      <trkpt lat="47.39268" lon="-2.95887">
        <ele>16.96</ele>
        <time>2016-08-23T17:39:32Z</time>
      </trkpt>
      <trkpt lat="47.39269" lon="-2.95891">
        <ele>17.44</ele>
        <time>2016-08-23T17:39:43Z</time>
      </trkpt>
      <trkpt lat="47.3926" lon="-2.95892">
        <ele>18.88</ele>
        <time>2016-08-23T17:39:54Z</time>
      </trkpt>
      <trkpt lat="47.39249" lon="-2.95894">
        <ele>20.32</ele>
        <time>2016-08-23T17:40:07Z</time>
      </trkpt>
      <trkpt lat="47.39247" lon="-2.95894">
        <ele>20.32</ele>
        <time>2016-08-23T17:40:10Z</time>
      </trkpt>
      <trkpt lat="47.39242" lon="-2.95895">
        <ele>20.81</ele>
        <time>2016-08-23T17:40:21Z</time>
      </trkpt>
      <trkpt lat="47.39237" lon="-2.95896">
        <ele>21.29</ele>
        <time>2016-08-23T17:40:31Z</time>
      </trkpt>
      <trkpt lat="47.39236" lon="-2.95897">
        <ele>20.32</ele>
        <time>2016-08-23T17:40:37Z</time>
      </trkpt>
      <trkpt lat="47.39235" lon="-2.959">
        <ele>19.84</ele>
        <time>2016-08-23T17:40:43Z</time>
      </trkpt>
      <trkpt lat="47.3923" lon="-2.95905">
        <ele>19.36</ele>
        <time>2016-08-23T17:40:52Z</time>
      </trkpt>
      <trkpt lat="47.39233" lon="-2.95907">
        <ele>20.81</ele>
        <time>2016-08-23T17:41:02Z</time>
      </trkpt>
      <trkpt lat="47.39236" lon="-2.95906">
        <ele>21.29</ele>
        <time>2016-08-23T17:41:15Z</time>
      </trkpt>
      <trkpt lat="47.39235" lon="-2.95906">
        <ele>20.81</ele>
        <time>2016-08-23T17:41:51Z</time>
      </trkpt>
      <trkpt lat="47.39236" lon="-2.95906">
        <ele>19.36</ele>
        <time>2016-08-23T17:42:26Z</time>
      </trkpt>
      <trkpt lat="47.39236" lon="-2.95907">
        <ele>18.4</ele>
        <time>2016-08-23T17:42:55Z</time>
      </trkpt>
      <trkpt lat="47.39236" lon="-2.95907">
        <ele>17.92</ele>
        <time>2016-08-23T17:43:20Z</time>
      </trkpt>
      <trkpt lat="47.39236" lon="-2.95909">
        <ele>18.88</ele>
        <time>2016-08-23T17:43:52Z</time>
      </trkpt>
      <trkpt lat="47.39237" lon="-2.95909">
        <ele>19.36</ele>
        <time>2016-08-23T17:44:25Z</time>
      </trkpt>
      <trkpt lat="47.39236" lon="-2.95909">
        <ele>19.36</ele>
        <time>2016-08-23T17:44:45Z</time>
      </trkpt>
      <trkpt lat="47.39236" lon="-2.95909">
        <ele>20.32</ele>
        <time>2016-08-23T17:45:10Z</time>
      </trkpt>
    </trkseg>
  </trk>
  <trk>
    <name><![CDATA[Tracé actuel: 24 AOU 2016 11:31]]></name>
    <trkseg>
      <trkpt lat="47.40035" lon="-2.97087">
        <ele>-11.4</ele>
        <time>2016-08-24T09:31:29Z</time>
      </trkpt>
      <trkpt lat="47.40041" lon="-2.97102">
        <ele>-13.32</ele>
        <time>2016-08-24T09:31:35Z</time>
      </trkpt>
      <trkpt lat="47.40062" lon="-2.97132">
        <ele>-13.8</ele>
        <time>2016-08-24T09:31:54Z</time>
      </trkpt>
      <trkpt lat="47.40082" lon="-2.97164">
        <ele>0.62</ele>
        <time>2016-08-24T09:32:09Z</time>
      </trkpt>
      <trkpt lat="47.40105" lon="-2.97201">
        <ele>0.14</ele>
        <time>2016-08-24T09:32:28Z</time>
      </trkpt>
      <trkpt lat="47.40129" lon="-2.97238">
        <ele>0.14</ele>
        <time>2016-08-24T09:32:48Z</time>
      </trkpt>
      <trkpt lat="47.40149" lon="-2.97266">
        <ele>0.14</ele>
        <time>2016-08-24T09:33:04Z</time>
      </trkpt>
      <trkpt lat="47.4017" lon="-2.97303">
        <ele>-0.34</ele>
        <time>2016-08-24T09:33:23Z</time>
      </trkpt>
      <trkpt lat="47.40191" lon="-2.97334">
        <ele>0.14</ele>
        <time>2016-08-24T09:33:40Z</time>
      </trkpt>
      <trkpt lat="47.40217" lon="-2.97368">
        <ele>1.1</ele>
        <time>2016-08-24T09:34:00Z</time>
      </trkpt>
      <trkpt lat="47.40245" lon="-2.97396">
        <ele>1.1</ele>
        <time>2016-08-24T09:34:20Z</time>
      </trkpt>
      <trkpt lat="47.40272" lon="-2.97423">
        <ele>1.58</ele>
        <time>2016-08-24T09:34:39Z</time>
      </trkpt>
      <trkpt lat="47.40293" lon="-2.97451">
        <ele>1.58</ele>
        <time>2016-08-24T09:34:55Z</time>
      </trkpt>
      <trkpt lat="47.40313" lon="-2.9749">
        <ele>0.14</ele>
        <time>2016-08-24T09:35:14Z</time>
      </trkpt>
      <trkpt lat="47.40328" lon="-2.97532">
        <ele>0.62</ele>
        <time>2016-08-24T09:35:32Z</time>
      </trkpt>
      <trkpt lat="47.40341" lon="-2.97579">
        <ele>0.14</ele>
        <time>2016-08-24T09:35:51Z</time>
      </trkpt>
      <trkpt lat="47.40354" lon="-2.97629">
        <ele>0.62</ele>
        <time>2016-08-24T09:36:10Z</time>
      </trkpt>
      <trkpt lat="47.40364" lon="-2.97676">
        <ele>1.58</ele>
        <time>2016-08-24T09:36:28Z</time>
      </trkpt>
      <trkpt lat="47.40377" lon="-2.97731">
        <ele>2.06</ele>
        <time>2016-08-24T09:36:49Z</time>
      </trkpt>
      <trkpt lat="47.40387" lon="-2.97781">
        <ele>1.58</ele>
        <time>2016-08-24T09:37:08Z</time>
      </trkpt>
      <trkpt lat="47.40397" lon="-2.97829">
        <ele>2.06</ele>
        <time>2016-08-24T09:37:26Z</time>
      </trkpt>
      <trkpt lat="47.40404" lon="-2.97873">
        <ele>2.06</ele>
        <time>2016-08-24T09:37:42Z</time>
      </trkpt>
      <trkpt lat="47.40412" lon="-2.97915">
        <ele>1.1</ele>
        <time>2016-08-24T09:37:58Z</time>
      </trkpt>
      <trkpt lat="47.40426" lon="-2.97961">
        <ele>0.14</ele>
        <time>2016-08-24T09:38:16Z</time>
      </trkpt>
      <trkpt lat="47.40442" lon="-2.98007">
        <ele>0.62</ele>
        <time>2016-08-24T09:38:34Z</time>
      </trkpt>
      <trkpt lat="47.40458" lon="-2.98042">
        <ele>0.14</ele>
        <time>2016-08-24T09:38:49Z</time>
      </trkpt>
      <trkpt lat="47.40476" lon="-2.98079">
        <ele>0.14</ele>
        <time>2016-08-24T09:39:06Z</time>
      </trkpt>
      <trkpt lat="47.40487" lon="-2.98122">
        <ele>0.14</ele>
        <time>2016-08-24T09:39:22Z</time>
      </trkpt>
      <trkpt lat="47.40498" lon="-2.98168">
        <ele>0.62</ele>
        <time>2016-08-24T09:39:39Z</time>
      </trkpt>
      <trkpt lat="47.40507" lon="-2.9822">
        <ele>1.1</ele>
        <time>2016-08-24T09:39:58Z</time>
      </trkpt>
      <trkpt lat="47.40515" lon="-2.98271">
        <ele>0.62</ele>
        <time>2016-08-24T09:40:16Z</time>
      </trkpt>
      <trkpt lat="47.40526" lon="-2.98315">
        <ele>0.62</ele>
        <time>2016-08-24T09:40:32Z</time>
      </trkpt>
      <trkpt lat="47.40537" lon="-2.98359">
        <ele>-0.34</ele>
        <time>2016-08-24T09:40:48Z</time>
      </trkpt>
      <trkpt lat="47.40546" lon="-2.98409">
        <ele>0.14</ele>
        <time>2016-08-24T09:41:06Z</time>
      </trkpt>
      <trkpt lat="47.40558" lon="-2.98456">
        <ele>0.14</ele>
        <time>2016-08-24T09:41:23Z</time>
      </trkpt>
      <trkpt lat="47.4057" lon="-2.98506">
        <ele>0.62</ele>
        <time>2016-08-24T09:41:41Z</time>
      </trkpt>
      <trkpt lat="47.40583" lon="-2.98554">
        <ele>0.14</ele>
        <time>2016-08-24T09:41:58Z</time>
      </trkpt>
      <trkpt lat="47.40601" lon="-2.98607">
        <ele>0.62</ele>
        <time>2016-08-24T09:42:18Z</time>
      </trkpt>
      <trkpt lat="47.40615" lon="-2.9865">
        <ele>0.14</ele>
        <time>2016-08-24T09:42:34Z</time>
      </trkpt>
      <trkpt lat="47.40625" lon="-2.98696">
        <ele>0.62</ele>
        <time>2016-08-24T09:42:50Z</time>
      </trkpt>
      <trkpt lat="47.40634" lon="-2.98742">
        <ele>1.58</ele>
        <time>2016-08-24T09:43:06Z</time>
      </trkpt>
      <trkpt lat="47.40643" lon="-2.98784">
        <ele>1.58</ele>
        <time>2016-08-24T09:43:21Z</time>
      </trkpt>
      <trkpt lat="47.40649" lon="-2.98827">
        <ele>1.1</ele>
        <time>2016-08-24T09:43:36Z</time>
      </trkpt>
      <trkpt lat="47.40655" lon="-2.9887">
        <ele>0.14</ele>
        <time>2016-08-24T09:43:50Z</time>
      </trkpt>
      <trkpt lat="47.40661" lon="-2.98916">
        <ele>0.62</ele>
        <time>2016-08-24T09:44:06Z</time>
      </trkpt>
      <trkpt lat="47.40668" lon="-2.98957">
        <ele>0.62</ele>
        <time>2016-08-24T09:44:20Z</time>
      </trkpt>
      <trkpt lat="47.40676" lon="-2.99006">
        <ele>0.62</ele>
        <time>2016-08-24T09:44:37Z</time>
      </trkpt>
      <trkpt lat="47.40682" lon="-2.9905">
        <ele>0.62</ele>
        <time>2016-08-24T09:44:52Z</time>
      </trkpt>
      <trkpt lat="47.40686" lon="-2.99098">
        <ele>1.1</ele>
        <time>2016-08-24T09:45:08Z</time>
      </trkpt>
      <trkpt lat="47.40687" lon="-2.99159">
        <ele>1.1</ele>
        <time>2016-08-24T09:45:28Z</time>
      </trkpt>
      <trkpt lat="47.40686" lon="-2.9921">
        <ele>1.1</ele>
        <time>2016-08-24T09:45:45Z</time>
      </trkpt>
      <trkpt lat="47.4069" lon="-2.99256">
        <ele>1.1</ele>
        <time>2016-08-24T09:46:00Z</time>
      </trkpt>
      <trkpt lat="47.40698" lon="-2.99317">
        <ele>0.14</ele>
        <time>2016-08-24T09:46:20Z</time>
      </trkpt>
      <trkpt lat="47.40703" lon="-2.99363">
        <ele>0.62</ele>
        <time>2016-08-24T09:46:35Z</time>
      </trkpt>
      <trkpt lat="47.40706" lon="-2.9941">
        <ele>0.14</ele>
        <time>2016-08-24T09:46:50Z</time>
      </trkpt>
      <trkpt lat="47.40706" lon="-2.99465">
        <ele>0.14</ele>
        <time>2016-08-24T09:47:07Z</time>
      </trkpt>
      <trkpt lat="47.40705" lon="-2.99515">
        <ele>0.62</ele>
        <time>2016-08-24T09:47:23Z</time>
      </trkpt>
      <trkpt lat="47.40707" lon="-2.99563">
        <ele>0.14</ele>
        <time>2016-08-24T09:47:38Z</time>
      </trkpt>
      <trkpt lat="47.40702" lon="-2.99613">
        <ele>0.62</ele>
        <time>2016-08-24T09:47:54Z</time>
      </trkpt>
      <trkpt lat="47.40694" lon="-2.99664">
        <ele>1.1</ele>
        <time>2016-08-24T09:48:10Z</time>
      </trkpt>
      <trkpt lat="47.40681" lon="-2.99723">
        <ele>0.14</ele>
        <time>2016-08-24T09:48:29Z</time>
      </trkpt>
      <trkpt lat="47.40667" lon="-2.9978">
        <ele>-0.82</ele>
        <time>2016-08-24T09:48:48Z</time>
      </trkpt>
      <trkpt lat="47.40656" lon="-2.99832">
        <ele>-0.82</ele>
        <time>2016-08-24T09:49:05Z</time>
      </trkpt>
      <trkpt lat="47.40648" lon="-2.99886">
        <ele>0.14</ele>
        <time>2016-08-24T09:49:23Z</time>
      </trkpt>
      <trkpt lat="47.40638" lon="-2.99935">
        <ele>-0.82</ele>
        <time>2016-08-24T09:49:40Z</time>
      </trkpt>
      <trkpt lat="47.40628" lon="-2.99988">
        <ele>-0.34</ele>
        <time>2016-08-24T09:49:58Z</time>
      </trkpt>
      <trkpt lat="47.40617" lon="-3.0004">
        <ele>0.14</ele>
        <time>2016-08-24T09:50:16Z</time>
      </trkpt>
      <trkpt lat="47.40604" lon="-3.00086">
        <ele>0.62</ele>
        <time>2016-08-24T09:50:33Z</time>
      </trkpt>
      <trkpt lat="47.40584" lon="-3.0012">
        <ele>1.58</ele>
        <time>2016-08-24T09:50:48Z</time>
      </trkpt>
      <trkpt lat="47.40555" lon="-3.00146">
        <ele>1.58</ele>
        <time>2016-08-24T09:51:04Z</time>
      </trkpt>
      <trkpt lat="47.40525" lon="-3.00175">
        <ele>1.58</ele>
        <time>2016-08-24T09:51:21Z</time>
      </trkpt>
      <trkpt lat="47.40502" lon="-3.00195">
        <ele>1.58</ele>
        <time>2016-08-24T09:51:34Z</time>
      </trkpt>
      <trkpt lat="47.40472" lon="-3.00223">
        <ele>1.1</ele>
        <time>2016-08-24T09:51:51Z</time>
      </trkpt>
      <trkpt lat="47.40441" lon="-3.00255">
        <ele>1.1</ele>
        <time>2016-08-24T09:52:09Z</time>
      </trkpt>
      <trkpt lat="47.40407" lon="-3.00269">
        <ele>1.58</ele>
        <time>2016-08-24T09:52:27Z</time>
      </trkpt>
      <trkpt lat="47.40371" lon="-3.00276">
        <ele>1.58</ele>
        <time>2016-08-24T09:52:45Z</time>
      </trkpt>
      <trkpt lat="47.40344" lon="-3.00278">
        <ele>2.06</ele>
        <time>2016-08-24T09:52:59Z</time>
      </trkpt>
      <trkpt lat="47.40311" lon="-3.00283">
        <ele>2.06</ele>
        <time>2016-08-24T09:53:16Z</time>
      </trkpt>
      <trkpt lat="47.40278" lon="-3.00307">
        <ele>1.58</ele>
        <time>2016-08-24T09:53:34Z</time>
      </trkpt>
      <trkpt lat="47.40251" lon="-3.00333">
        <ele>1.58</ele>
        <time>2016-08-24T09:53:50Z</time>
      </trkpt>
      <trkpt lat="47.40217" lon="-3.00364">
        <ele>1.1</ele>
        <time>2016-08-24T09:54:09Z</time>
      </trkpt>
      <trkpt lat="47.40186" lon="-3.00398">
        <ele>1.1</ele>
        <time>2016-08-24T09:54:28Z</time>
      </trkpt>
      <trkpt lat="47.40158" lon="-3.00427">
        <ele>2.06</ele>
        <time>2016-08-24T09:54:45Z</time>
      </trkpt>
      <trkpt lat="47.40124" lon="-3.00457">
        <ele>2.54</ele>
        <time>2016-08-24T09:55:04Z</time>
      </trkpt>
      <trkpt lat="47.40091" lon="-3.00481">
        <ele>2.54</ele>
        <time>2016-08-24T09:55:21Z</time>
      </trkpt>
      <trkpt lat="47.40064" lon="-3.00497">
        <ele>2.06</ele>
        <time>2016-08-24T09:55:35Z</time>
      </trkpt>
      <trkpt lat="47.40028" lon="-3.00515">
        <ele>1.58</ele>
        <time>2016-08-24T09:55:53Z</time>
      </trkpt>
      <trkpt lat="47.39999" lon="-3.00523">
        <ele>2.06</ele>
        <time>2016-08-24T09:56:07Z</time>
      </trkpt>
      <trkpt lat="47.39977" lon="-3.00525">
        <ele>1.58</ele>
        <time>2016-08-24T09:56:18Z</time>
      </trkpt>
      <trkpt lat="47.39941" lon="-3.00524">
        <ele>1.1</ele>
        <time>2016-08-24T09:56:36Z</time>
      </trkpt>
      <trkpt lat="47.39911" lon="-3.00521">
        <ele>1.1</ele>
        <time>2016-08-24T09:56:52Z</time>
      </trkpt>
      <trkpt lat="47.3988" lon="-3.00512">
        <ele>1.1</ele>
        <time>2016-08-24T09:57:08Z</time>
      </trkpt>
      <trkpt lat="47.39878" lon="-3.00511">
        <ele>1.1</ele>
        <time>2016-08-24T09:57:09Z</time>
      </trkpt>
      <trkpt lat="47.3987" lon="-3.00508">
        <ele>1.1</ele>
        <time>2016-08-24T09:57:13Z</time>
      </trkpt>
      <trkpt lat="47.3984" lon="-3.00497">
        <ele>1.58</ele>
        <time>2016-08-24T09:57:29Z</time>
      </trkpt>
      <trkpt lat="47.39812" lon="-3.00481">
        <ele>1.1</ele>
        <time>2016-08-24T09:57:45Z</time>
      </trkpt>
      <trkpt lat="47.39786" lon="-3.00461">
        <ele>1.1</ele>
        <time>2016-08-24T09:58:01Z</time>
      </trkpt>
      <trkpt lat="47.39765" lon="-3.00436">
        <ele>1.1</ele>
        <time>2016-08-24T09:58:16Z</time>
      </trkpt>
      <trkpt lat="47.3975" lon="-3.00405">
        <ele>1.58</ele>
        <time>2016-08-24T09:58:31Z</time>
      </trkpt>
      <trkpt lat="47.39742" lon="-3.00364">
        <ele>1.58</ele>
        <time>2016-08-24T09:58:48Z</time>
      </trkpt>
      <trkpt lat="47.3973" lon="-3.00331">
        <ele>1.58</ele>
        <time>2016-08-24T09:59:03Z</time>
      </trkpt>
      <trkpt lat="47.39716" lon="-3.003">
        <ele>0.62</ele>
        <time>2016-08-24T09:59:17Z</time>
      </trkpt>
      <trkpt lat="47.39699" lon="-3.00265">
        <ele>0.62</ele>
        <time>2016-08-24T09:59:34Z</time>
      </trkpt>
      <trkpt lat="47.39686" lon="-3.00229">
        <ele>0.62</ele>
        <time>2016-08-24T09:59:50Z</time>
      </trkpt>
      <trkpt lat="47.39672" lon="-3.00187">
        <ele>1.1</ele>
        <time>2016-08-24T10:00:08Z</time>
      </trkpt>
      <trkpt lat="47.39664" lon="-3.00159">
        <ele>1.58</ele>
        <time>2016-08-24T10:00:20Z</time>
      </trkpt>
      <trkpt lat="47.39652" lon="-3.00115">
        <ele>1.58</ele>
        <time>2016-08-24T10:00:38Z</time>
      </trkpt>
      <trkpt lat="47.39645" lon="-3.00079">
        <ele>1.58</ele>
        <time>2016-08-24T10:00:53Z</time>
      </trkpt>
      <trkpt lat="47.39637" lon="-3.00037">
        <ele>1.1</ele>
        <time>2016-08-24T10:01:10Z</time>
      </trkpt>
      <trkpt lat="47.3963" lon="-2.99998">
        <ele>1.1</ele>
        <time>2016-08-24T10:01:26Z</time>
      </trkpt>
      <trkpt lat="47.39631" lon="-2.99951">
        <ele>0.62</ele>
        <time>2016-08-24T10:01:45Z</time>
      </trkpt>
      <trkpt lat="47.39631" lon="-2.99903">
        <ele>0.62</ele>
        <time>2016-08-24T10:02:04Z</time>
      </trkpt>
      <trkpt lat="47.39631" lon="-2.99855">
        <ele>1.1</ele>
        <time>2016-08-24T10:02:23Z</time>
      </trkpt>
      <trkpt lat="47.3963" lon="-2.9981">
        <ele>1.1</ele>
        <time>2016-08-24T10:02:41Z</time>
      </trkpt>
      <trkpt lat="47.3963" lon="-2.99756">
        <ele>1.58</ele>
        <time>2016-08-24T10:03:02Z</time>
      </trkpt>
      <trkpt lat="47.39634" lon="-2.99705">
        <ele>1.58</ele>
        <time>2016-08-24T10:03:22Z</time>
      </trkpt>
      <trkpt lat="47.39635" lon="-2.99661">
        <ele>0.62</ele>
        <time>2016-08-24T10:03:40Z</time>
      </trkpt>
      <trkpt lat="47.39634" lon="-2.99614">
        <ele>0.62</ele>
        <time>2016-08-24T10:03:58Z</time>
      </trkpt>
      <trkpt lat="47.39635" lon="-2.99569">
        <ele>1.1</ele>
        <time>2016-08-24T10:04:16Z</time>
      </trkpt>
      <trkpt lat="47.39642" lon="-2.99516">
        <ele>1.1</ele>
        <time>2016-08-24T10:04:37Z</time>
      </trkpt>
      <trkpt lat="47.39653" lon="-2.99469">
        <ele>1.1</ele>
        <time>2016-08-24T10:04:57Z</time>
      </trkpt>
      <trkpt lat="47.3966" lon="-2.99421">
        <ele>0.62</ele>
        <time>2016-08-24T10:05:17Z</time>
      </trkpt>
      <trkpt lat="47.39664" lon="-2.99387">
        <ele>1.1</ele>
        <time>2016-08-24T10:05:34Z</time>
      </trkpt>
      <trkpt lat="47.39665" lon="-2.99385">
        <ele>1.1</ele>
        <time>2016-08-24T10:05:35Z</time>
      </trkpt>
      <trkpt lat="47.3967" lon="-2.99357">
        <ele>0.62</ele>
        <time>2016-08-24T10:05:56Z</time>
      </trkpt>
      <trkpt lat="47.39676" lon="-2.99336">
        <ele>0.14</ele>
        <time>2016-08-24T10:06:16Z</time>
      </trkpt>
      <trkpt lat="47.39678" lon="-2.99318">
        <ele>0.62</ele>
        <time>2016-08-24T10:06:34Z</time>
      </trkpt>
      <trkpt lat="47.39684" lon="-2.99305">
        <ele>1.1</ele>
        <time>2016-08-24T10:06:53Z</time>
      </trkpt>
      <trkpt lat="47.39695" lon="-2.99305">
        <ele>1.1</ele>
        <time>2016-08-24T10:07:11Z</time>
      </trkpt>
      <trkpt lat="47.39706" lon="-2.99311">
        <ele>1.58</ele>
        <time>2016-08-24T10:07:29Z</time>
      </trkpt>
      <trkpt lat="47.39714" lon="-2.99317">
        <ele>2.54</ele>
        <time>2016-08-24T10:07:47Z</time>
      </trkpt>
      <trkpt lat="47.39717" lon="-2.99321">
        <ele>1.58</ele>
        <time>2016-08-24T10:08:06Z</time>
      </trkpt>
      <trkpt lat="47.39717" lon="-2.9932">
        <ele>1.58</ele>
        <time>2016-08-24T10:08:20Z</time>
      </trkpt>
      <trkpt lat="47.39713" lon="-2.99312">
        <ele>2.06</ele>
        <time>2016-08-24T10:08:37Z</time>
      </trkpt>
      <trkpt lat="47.3971" lon="-2.99307">
        <ele>1.58</ele>
        <time>2016-08-24T10:08:53Z</time>
      </trkpt>
      <trkpt lat="47.39708" lon="-2.99303">
        <ele>2.06</ele>
        <time>2016-08-24T10:09:08Z</time>
      </trkpt>
      <trkpt lat="47.39708" lon="-2.99302">
        <ele>1.58</ele>
        <time>2016-08-24T10:09:26Z</time>
      </trkpt>
      <trkpt lat="47.39709" lon="-2.99301">
        <ele>1.1</ele>
        <time>2016-08-24T10:09:42Z</time>
      </trkpt>
      <trkpt lat="47.39709" lon="-2.99301">
        <ele>1.1</ele>
        <time>2016-08-24T10:10:00Z</time>
      </trkpt>
      <trkpt lat="47.39709" lon="-2.99302">
        <ele>0.62</ele>
        <time>2016-08-24T10:10:16Z</time>
      </trkpt>
      <trkpt lat="47.39708" lon="-2.99303">
        <ele>0.14</ele>
        <time>2016-08-24T10:10:34Z</time>
      </trkpt>
      <trkpt lat="47.39708" lon="-2.99303">
        <ele>0.14</ele>
        <time>2016-08-24T10:10:49Z</time>
      </trkpt>
      <trkpt lat="47.39708" lon="-2.99304">
        <ele>0.14</ele>
        <time>2016-08-24T10:11:07Z</time>
      </trkpt>
      <trkpt lat="47.39709" lon="-2.99303">
        <ele>0.62</ele>
        <time>2016-08-24T10:11:18Z</time>
      </trkpt>
      <trkpt lat="47.39709" lon="-2.99303">
        <ele>1.1</ele>
        <time>2016-08-24T10:11:23Z</time>
      </trkpt>
      <trkpt lat="47.3967" lon="-3.00745">
        <ele>-1.3</ele>
        <time>2016-08-24T12:09:44Z</time>
      </trkpt>
      <trkpt lat="47.39665" lon="-3.00761">
        <ele>2.54</ele>
        <time>2016-08-24T12:10:03Z</time>
      </trkpt>
      <trkpt lat="47.3966" lon="-3.00781">
        <ele>3.5</ele>
        <time>2016-08-24T12:10:20Z</time>
      </trkpt>
      <trkpt lat="47.39655" lon="-3.00799">
        <ele>2.06</ele>
        <time>2016-08-24T12:10:35Z</time>
      </trkpt>
      <trkpt lat="47.39648" lon="-3.00829">
        <ele>1.1</ele>
        <time>2016-08-24T12:10:53Z</time>
      </trkpt>
      <trkpt lat="47.39642" lon="-3.00858">
        <ele>0.14</ele>
        <time>2016-08-24T12:11:10Z</time>
      </trkpt>
      <trkpt lat="47.39636" lon="-3.00891">
        <ele>-0.34</ele>
        <time>2016-08-24T12:11:30Z</time>
      </trkpt>
      <trkpt lat="47.39629" lon="-3.00918">
        <ele>-0.34</ele>
        <time>2016-08-24T12:11:45Z</time>
      </trkpt>
      <trkpt lat="47.39625" lon="-3.00948">
        <ele>-0.34</ele>
        <time>2016-08-24T12:12:03Z</time>
      </trkpt>
      <trkpt lat="47.39626" lon="-3.0098">
        <ele>-0.82</ele>
        <time>2016-08-24T12:12:22Z</time>
      </trkpt>
      <trkpt lat="47.39628" lon="-3.01014">
        <ele>-0.82</ele>
        <time>2016-08-24T12:12:42Z</time>
      </trkpt>
      <trkpt lat="47.39629" lon="-3.01027">
        <ele>-0.82</ele>
        <time>2016-08-24T12:12:50Z</time>
      </trkpt>
      <trkpt lat="47.39627" lon="-3.01059">
        <ele>0.14</ele>
        <time>2016-08-24T12:13:11Z</time>
      </trkpt>
      <trkpt lat="47.39621" lon="-3.01096">
        <ele>0.62</ele>
        <time>2016-08-24T12:13:34Z</time>
      </trkpt>
      <trkpt lat="47.39611" lon="-3.01125">
        <ele>-0.34</ele>
        <time>2016-08-24T12:13:52Z</time>
      </trkpt>
      <trkpt lat="47.39591" lon="-3.01156">
        <ele>0.62</ele>
        <time>2016-08-24T12:14:12Z</time>
      </trkpt>
      <trkpt lat="47.39586" lon="-3.01185">
        <ele>0.62</ele>
        <time>2016-08-24T12:14:29Z</time>
      </trkpt>
      <trkpt lat="47.39586" lon="-3.01201">
        <ele>0.14</ele>
        <time>2016-08-24T12:14:47Z</time>
      </trkpt>
      <trkpt lat="47.39588" lon="-3.01203">
        <ele>0.14</ele>
        <time>2016-08-24T12:14:51Z</time>
      </trkpt>
      <trkpt lat="47.39592" lon="-3.01235">
        <ele>0.14</ele>
        <time>2016-08-24T12:15:06Z</time>
      </trkpt>
      <trkpt lat="47.39579" lon="-3.01261">
        <ele>0.14</ele>
        <time>2016-08-24T12:15:22Z</time>
      </trkpt>
      <trkpt lat="47.39566" lon="-3.01296">
        <ele>-0.34</ele>
        <time>2016-08-24T12:15:41Z</time>
      </trkpt>
      <trkpt lat="47.39556" lon="-3.01321">
        <ele>-0.82</ele>
        <time>2016-08-24T12:15:58Z</time>
      </trkpt>
      <trkpt lat="47.39548" lon="-3.01342">
        <ele>-0.82</ele>
        <time>2016-08-24T12:16:13Z</time>
      </trkpt>
      <trkpt lat="47.39541" lon="-3.01352">
        <ele>-0.34</ele>
        <time>2016-08-24T12:16:27Z</time>
      </trkpt>
      <trkpt lat="47.39526" lon="-3.01386">
        <ele>0.14</ele>
        <time>2016-08-24T12:16:45Z</time>
      </trkpt>
      <trkpt lat="47.3952" lon="-3.01417">
        <ele>1.1</ele>
        <time>2016-08-24T12:17:05Z</time>
      </trkpt>
      <trkpt lat="47.39513" lon="-3.01455">
        <ele>1.1</ele>
        <time>2016-08-24T12:17:22Z</time>
      </trkpt>
      <trkpt lat="47.39505" lon="-3.01489">
        <ele>0.62</ele>
        <time>2016-08-24T12:17:41Z</time>
      </trkpt>
      <trkpt lat="47.39488" lon="-3.01535">
        <ele>0.62</ele>
        <time>2016-08-24T12:18:01Z</time>
      </trkpt>
      <trkpt lat="47.39479" lon="-3.01556">
        <ele>0.62</ele>
        <time>2016-08-24T12:18:17Z</time>
      </trkpt>
      <trkpt lat="47.39475" lon="-3.01562">
        <ele>0.14</ele>
        <time>2016-08-24T12:18:24Z</time>
      </trkpt>
      <trkpt lat="47.39457" lon="-3.01591">
        <ele>0.14</ele>
        <time>2016-08-24T12:18:42Z</time>
      </trkpt>
      <trkpt lat="47.3944" lon="-3.01628">
        <ele>0.14</ele>
        <time>2016-08-24T12:19:01Z</time>
      </trkpt>
      <trkpt lat="47.39423" lon="-3.01656">
        <ele>1.1</ele>
        <time>2016-08-24T12:19:17Z</time>
      </trkpt>
      <trkpt lat="47.39399" lon="-3.01687">
        <ele>2.54</ele>
        <time>2016-08-24T12:19:36Z</time>
      </trkpt>
      <trkpt lat="47.39374" lon="-3.01715">
        <ele>3.5</ele>
        <time>2016-08-24T12:19:54Z</time>
      </trkpt>
      <trkpt lat="47.39356" lon="-3.01745">
        <ele>2.54</ele>
        <time>2016-08-24T12:20:10Z</time>
      </trkpt>
      <trkpt lat="47.39351" lon="-3.01782">
        <ele>2.06</ele>
        <time>2016-08-24T12:20:28Z</time>
      </trkpt>
      <trkpt lat="47.3935" lon="-3.01813">
        <ele>1.58</ele>
        <time>2016-08-24T12:20:44Z</time>
      </trkpt>
      <trkpt lat="47.39342" lon="-3.01842">
        <ele>1.1</ele>
        <time>2016-08-24T12:21:01Z</time>
      </trkpt>
      <trkpt lat="47.39326" lon="-3.01876">
        <ele>0.62</ele>
        <time>2016-08-24T12:21:17Z</time>
      </trkpt>
      <trkpt lat="47.39302" lon="-3.01913">
        <ele>1.1</ele>
        <time>2016-08-24T12:21:34Z</time>
      </trkpt>
      <trkpt lat="47.39285" lon="-3.01943">
        <ele>1.1</ele>
        <time>2016-08-24T12:21:49Z</time>
      </trkpt>
      <trkpt lat="47.39264" lon="-3.01979">
        <ele>1.1</ele>
        <time>2016-08-24T12:22:05Z</time>
      </trkpt>
      <trkpt lat="47.39242" lon="-3.02026">
        <ele>0.62</ele>
        <time>2016-08-24T12:22:23Z</time>
      </trkpt>
      <trkpt lat="47.39216" lon="-3.02075">
        <ele>0.14</ele>
        <time>2016-08-24T12:22:40Z</time>
      </trkpt>
      <trkpt lat="47.39193" lon="-3.02117">
        <ele>0.14</ele>
        <time>2016-08-24T12:22:55Z</time>
      </trkpt>
      <trkpt lat="47.3918" lon="-3.02159">
        <ele>-0.34</ele>
        <time>2016-08-24T12:23:11Z</time>
      </trkpt>
      <trkpt lat="47.39163" lon="-3.02189">
        <ele>-0.34</ele>
        <time>2016-08-24T12:23:29Z</time>
      </trkpt>
      <trkpt lat="47.39149" lon="-3.02222">
        <ele>0.14</ele>
        <time>2016-08-24T12:23:42Z</time>
      </trkpt>
      <trkpt lat="47.39146" lon="-3.02231">
        <ele>0.14</ele>
        <time>2016-08-24T12:23:48Z</time>
      </trkpt>
      <trkpt lat="47.39127" lon="-3.02257">
        <ele>-0.34</ele>
        <time>2016-08-24T12:24:04Z</time>
      </trkpt>
      <trkpt lat="47.391" lon="-3.02295">
        <ele>-0.34</ele>
        <time>2016-08-24T12:24:20Z</time>
      </trkpt>
      <trkpt lat="47.39068" lon="-3.02311">
        <ele>0.14</ele>
        <time>2016-08-24T12:24:35Z</time>
      </trkpt>
      <trkpt lat="47.39036" lon="-3.02288">
        <ele>-0.34</ele>
        <time>2016-08-24T12:24:50Z</time>
      </trkpt>
      <trkpt lat="47.39004" lon="-3.02272">
        <ele>-0.34</ele>
        <time>2016-08-24T12:25:05Z</time>
      </trkpt>
      <trkpt lat="47.3897" lon="-3.02257">
        <ele>0.62</ele>
        <time>2016-08-24T12:25:20Z</time>
      </trkpt>
      <trkpt lat="47.38931" lon="-3.02238">
        <ele>0.14</ele>
        <time>2016-08-24T12:25:36Z</time>
      </trkpt>
      <trkpt lat="47.38898" lon="-3.02208">
        <ele>0.14</ele>
        <time>2016-08-24T12:25:52Z</time>
      </trkpt>
      <trkpt lat="47.38869" lon="-3.02174">
        <ele>0.14</ele>
        <time>2016-08-24T12:26:07Z</time>
      </trkpt>
      <trkpt lat="47.38836" lon="-3.02141">
        <ele>-0.34</ele>
        <time>2016-08-24T12:26:24Z</time>
      </trkpt>
      <trkpt lat="47.38809" lon="-3.02115">
        <ele>-0.82</ele>
        <time>2016-08-24T12:26:37Z</time>
      </trkpt>
      <trkpt lat="47.38782" lon="-3.02084">
        <ele>-0.34</ele>
        <time>2016-08-24T12:26:51Z</time>
      </trkpt>
      <trkpt lat="47.38756" lon="-3.02033">
        <ele>-0.82</ele>
        <time>2016-08-24T12:27:10Z</time>
      </trkpt>
      <trkpt lat="47.38734" lon="-3.01987">
        <ele>-1.3</ele>
        <time>2016-08-24T12:27:27Z</time>
      </trkpt>
      <trkpt lat="47.38714" lon="-3.01948">
        <ele>-0.82</ele>
        <time>2016-08-24T12:27:43Z</time>
      </trkpt>
      <trkpt lat="47.38693" lon="-3.01963">
        <ele>-0.34</ele>
        <time>2016-08-24T12:27:54Z</time>
      </trkpt>
      <trkpt lat="47.38671" lon="-3.02008">
        <ele>0.14</ele>
        <time>2016-08-24T12:28:11Z</time>
      </trkpt>
      <trkpt lat="47.38647" lon="-3.02054">
        <ele>1.1</ele>
        <time>2016-08-24T12:28:26Z</time>
      </trkpt>
      <trkpt lat="47.38617" lon="-3.02112">
        <ele>1.1</ele>
        <time>2016-08-24T12:28:45Z</time>
      </trkpt>
      <trkpt lat="47.3859" lon="-3.02162">
        <ele>1.1</ele>
        <time>2016-08-24T12:29:02Z</time>
      </trkpt>
      <trkpt lat="47.38559" lon="-3.02222">
        <ele>1.1</ele>
        <time>2016-08-24T12:29:22Z</time>
      </trkpt>
      <trkpt lat="47.38527" lon="-3.0228">
        <ele>0.62</ele>
        <time>2016-08-24T12:29:42Z</time>
      </trkpt>
      <trkpt lat="47.385" lon="-3.02329">
        <ele>1.58</ele>
        <time>2016-08-24T12:29:59Z</time>
      </trkpt>
      <trkpt lat="47.38473" lon="-3.02376">
        <ele>1.1</ele>
        <time>2016-08-24T12:30:15Z</time>
      </trkpt>
      <trkpt lat="47.38444" lon="-3.02423">
        <ele>1.58</ele>
        <time>2016-08-24T12:30:31Z</time>
      </trkpt>
      <trkpt lat="47.38414" lon="-3.02474">
        <ele>1.1</ele>
        <time>2016-08-24T12:30:48Z</time>
      </trkpt>
      <trkpt lat="47.38385" lon="-3.02522">
        <ele>1.1</ele>
        <time>2016-08-24T12:31:04Z</time>
      </trkpt>
      <trkpt lat="47.3835" lon="-3.02571">
        <ele>1.1</ele>
        <time>2016-08-24T12:31:21Z</time>
      </trkpt>
      <trkpt lat="47.38314" lon="-3.02628">
        <ele>1.58</ele>
        <time>2016-08-24T12:31:40Z</time>
      </trkpt>
      <trkpt lat="47.38284" lon="-3.0268">
        <ele>2.06</ele>
        <time>2016-08-24T12:31:57Z</time>
      </trkpt>
      <trkpt lat="47.38247" lon="-3.02727">
        <ele>1.1</ele>
        <time>2016-08-24T12:32:14Z</time>
      </trkpt>
      <trkpt lat="47.38213" lon="-3.02773">
        <ele>1.58</ele>
        <time>2016-08-24T12:32:30Z</time>
      </trkpt>
      <trkpt lat="47.3819" lon="-3.02808">
        <ele>1.1</ele>
        <time>2016-08-24T12:32:42Z</time>
      </trkpt>
      <trkpt lat="47.38155" lon="-3.02859">
        <ele>0.14</ele>
        <time>2016-08-24T12:32:59Z</time>
      </trkpt>
      <trkpt lat="47.38123" lon="-3.02906">
        <ele>0.62</ele>
        <time>2016-08-24T12:33:15Z</time>
      </trkpt>
      <trkpt lat="47.38093" lon="-3.02957">
        <ele>0.62</ele>
        <time>2016-08-24T12:33:31Z</time>
      </trkpt>
      <trkpt lat="47.38061" lon="-3.03006">
        <ele>1.1</ele>
        <time>2016-08-24T12:33:48Z</time>
      </trkpt>
      <trkpt lat="47.38032" lon="-3.03056">
        <ele>0.14</ele>
        <time>2016-08-24T12:34:04Z</time>
      </trkpt>
      <trkpt lat="47.37994" lon="-3.03114">
        <ele>0.14</ele>
        <time>2016-08-24T12:34:23Z</time>
      </trkpt>
      <trkpt lat="47.37962" lon="-3.03166">
        <ele>-0.34</ele>
        <time>2016-08-24T12:34:40Z</time>
      </trkpt>
      <trkpt lat="47.37933" lon="-3.03212">
        <ele>0.14</ele>
        <time>2016-08-24T12:34:55Z</time>
      </trkpt>
      <trkpt lat="47.37906" lon="-3.03251">
        <ele>0.14</ele>
        <time>2016-08-24T12:35:08Z</time>
      </trkpt>
      <trkpt lat="47.37872" lon="-3.03308">
        <ele>0.14</ele>
        <time>2016-08-24T12:35:26Z</time>
      </trkpt>
      <trkpt lat="47.37842" lon="-3.03354">
        <ele>0.62</ele>
        <time>2016-08-24T12:35:41Z</time>
      </trkpt>
      <trkpt lat="47.37808" lon="-3.03412">
        <ele>0.14</ele>
        <time>2016-08-24T12:35:59Z</time>
      </trkpt>
      <trkpt lat="47.37778" lon="-3.03458">
        <ele>0.14</ele>
        <time>2016-08-24T12:36:14Z</time>
      </trkpt>
      <trkpt lat="47.37746" lon="-3.03512">
        <ele>0.62</ele>
        <time>2016-08-24T12:36:31Z</time>
      </trkpt>
      <trkpt lat="47.37713" lon="-3.03561">
        <ele>0.14</ele>
        <time>2016-08-24T12:36:47Z</time>
      </trkpt>
      <trkpt lat="47.37679" lon="-3.03608">
        <ele>0.14</ele>
        <time>2016-08-24T12:37:03Z</time>
      </trkpt>
      <trkpt lat="47.37644" lon="-3.03664">
        <ele>0.14</ele>
        <time>2016-08-24T12:37:21Z</time>
      </trkpt>
      <trkpt lat="47.37615" lon="-3.03709">
        <ele>0.14</ele>
        <time>2016-08-24T12:37:36Z</time>
      </trkpt>
      <trkpt lat="47.37586" lon="-3.03755">
        <ele>0.62</ele>
        <time>2016-08-24T12:37:51Z</time>
      </trkpt>
      <trkpt lat="47.37548" lon="-3.03814">
        <ele>1.1</ele>
        <time>2016-08-24T12:38:11Z</time>
      </trkpt>
      <trkpt lat="47.37516" lon="-3.03864">
        <ele>1.1</ele>
        <time>2016-08-24T12:38:28Z</time>
      </trkpt>
      <trkpt lat="47.37486" lon="-3.03918">
        <ele>1.1</ele>
        <time>2016-08-24T12:38:45Z</time>
      </trkpt>
      <trkpt lat="47.37457" lon="-3.03967">
        <ele>1.1</ele>
        <time>2016-08-24T12:39:01Z</time>
      </trkpt>
      <trkpt lat="47.37428" lon="-3.04014">
        <ele>1.58</ele>
        <time>2016-08-24T12:39:17Z</time>
      </trkpt>
      <trkpt lat="47.37402" lon="-3.0406">
        <ele>1.1</ele>
        <time>2016-08-24T12:39:32Z</time>
      </trkpt>
      <trkpt lat="47.37379" lon="-3.04102">
        <ele>1.1</ele>
        <time>2016-08-24T12:39:46Z</time>
      </trkpt>
      <trkpt lat="47.37352" lon="-3.04154">
        <ele>1.1</ele>
        <time>2016-08-24T12:40:03Z</time>
      </trkpt>
      <trkpt lat="47.37329" lon="-3.04199">
        <ele>1.58</ele>
        <time>2016-08-24T12:40:18Z</time>
      </trkpt>
      <trkpt lat="47.3731" lon="-3.04239">
        <ele>1.1</ele>
        <time>2016-08-24T12:40:31Z</time>
      </trkpt>
      <trkpt lat="47.37288" lon="-3.0429">
        <ele>1.1</ele>
        <time>2016-08-24T12:40:47Z</time>
      </trkpt>
      <trkpt lat="47.37264" lon="-3.04344">
        <ele>1.58</ele>
        <time>2016-08-24T12:41:05Z</time>
      </trkpt>
      <trkpt lat="47.37243" lon="-3.04397">
        <ele>1.58</ele>
        <time>2016-08-24T12:41:22Z</time>
      </trkpt>
      <trkpt lat="47.3722" lon="-3.0444">
        <ele>1.58</ele>
        <time>2016-08-24T12:41:38Z</time>
      </trkpt>
      <trkpt lat="47.37199" lon="-3.04484">
        <ele>2.06</ele>
        <time>2016-08-24T12:41:53Z</time>
      </trkpt>
      <trkpt lat="47.37179" lon="-3.04525">
        <ele>2.06</ele>
        <time>2016-08-24T12:42:07Z</time>
      </trkpt>
      <trkpt lat="47.37147" lon="-3.04573">
        <ele>2.54</ele>
        <time>2016-08-24T12:42:24Z</time>
      </trkpt>
      <trkpt lat="47.37119" lon="-3.04623">
        <ele>2.06</ele>
        <time>2016-08-24T12:42:40Z</time>
      </trkpt>
      <trkpt lat="47.37095" lon="-3.04668">
        <ele>2.54</ele>
        <time>2016-08-24T12:42:54Z</time>
      </trkpt>
      <trkpt lat="47.37074" lon="-3.04707">
        <ele>2.06</ele>
        <time>2016-08-24T12:43:07Z</time>
      </trkpt>
      <trkpt lat="47.37045" lon="-3.04767">
        <ele>0.62</ele>
        <time>2016-08-24T12:43:26Z</time>
      </trkpt>
      <trkpt lat="47.37018" lon="-3.04818">
        <ele>0.62</ele>
        <time>2016-08-24T12:43:43Z</time>
      </trkpt>
      <trkpt lat="47.36996" lon="-3.04862">
        <ele>1.1</ele>
        <time>2016-08-24T12:43:58Z</time>
      </trkpt>
      <trkpt lat="47.36972" lon="-3.04916">
        <ele>1.1</ele>
        <time>2016-08-24T12:44:15Z</time>
      </trkpt>
      <trkpt lat="47.36952" lon="-3.04965">
        <ele>0.62</ele>
        <time>2016-08-24T12:44:30Z</time>
      </trkpt>
      <trkpt lat="47.36932" lon="-3.05014">
        <ele>0.62</ele>
        <time>2016-08-24T12:44:45Z</time>
      </trkpt>
      <trkpt lat="47.36911" lon="-3.05059">
        <ele>1.1</ele>
        <time>2016-08-24T12:44:59Z</time>
      </trkpt>
      <trkpt lat="47.36891" lon="-3.05112">
        <ele>0.62</ele>
        <time>2016-08-24T12:45:15Z</time>
      </trkpt>
      <trkpt lat="47.36868" lon="-3.0517">
        <ele>0.62</ele>
        <time>2016-08-24T12:45:33Z</time>
      </trkpt>
      <trkpt lat="47.36849" lon="-3.05218">
        <ele>0.62</ele>
        <time>2016-08-24T12:45:48Z</time>
      </trkpt>
      <trkpt lat="47.36826" lon="-3.05277">
        <ele>1.1</ele>
        <time>2016-08-24T12:46:06Z</time>
      </trkpt>
      <trkpt lat="47.3681" lon="-3.05318">
        <ele>1.58</ele>
        <time>2016-08-24T12:46:19Z</time>
      </trkpt>
      <trkpt lat="47.36792" lon="-3.05367">
        <ele>2.06</ele>
        <time>2016-08-24T12:46:34Z</time>
      </trkpt>
      <trkpt lat="47.36773" lon="-3.05414">
        <ele>2.06</ele>
        <time>2016-08-24T12:46:49Z</time>
      </trkpt>
      <trkpt lat="47.36752" lon="-3.05459">
        <ele>1.58</ele>
        <time>2016-08-24T12:47:04Z</time>
      </trkpt>
      <trkpt lat="47.36731" lon="-3.05508">
        <ele>1.58</ele>
        <time>2016-08-24T12:47:20Z</time>
      </trkpt>
      <trkpt lat="47.36714" lon="-3.05551">
        <ele>1.58</ele>
        <time>2016-08-24T12:47:34Z</time>
      </trkpt>
      <trkpt lat="47.36688" lon="-3.05611">
        <ele>1.58</ele>
        <time>2016-08-24T12:47:53Z</time>
      </trkpt>
      <trkpt lat="47.36664" lon="-3.05671">
        <ele>1.1</ele>
        <time>2016-08-24T12:48:11Z</time>
      </trkpt>
      <trkpt lat="47.36645" lon="-3.05721">
        <ele>1.1</ele>
        <time>2016-08-24T12:48:26Z</time>
      </trkpt>
      <trkpt lat="47.3662" lon="-3.05779">
        <ele>1.58</ele>
        <time>2016-08-24T12:48:44Z</time>
      </trkpt>
      <trkpt lat="47.36601" lon="-3.05819">
        <ele>1.1</ele>
        <time>2016-08-24T12:48:57Z</time>
      </trkpt>
      <trkpt lat="47.36571" lon="-3.05872">
        <ele>1.1</ele>
        <time>2016-08-24T12:49:15Z</time>
      </trkpt>
      <trkpt lat="47.36544" lon="-3.05919">
        <ele>1.1</ele>
        <time>2016-08-24T12:49:31Z</time>
      </trkpt>
      <trkpt lat="47.36519" lon="-3.05968">
        <ele>1.58</ele>
        <time>2016-08-24T12:49:47Z</time>
      </trkpt>
      <trkpt lat="47.36494" lon="-3.06021">
        <ele>1.58</ele>
        <time>2016-08-24T12:50:03Z</time>
      </trkpt>
      <trkpt lat="47.36473" lon="-3.06069">
        <ele>1.58</ele>
        <time>2016-08-24T12:50:18Z</time>
      </trkpt>
      <trkpt lat="47.36446" lon="-3.06123">
        <ele>1.58</ele>
        <time>2016-08-24T12:50:35Z</time>
      </trkpt>
      <trkpt lat="47.36425" lon="-3.06172">
        <ele>2.06</ele>
        <time>2016-08-24T12:50:50Z</time>
      </trkpt>
      <trkpt lat="47.364" lon="-3.06231">
        <ele>2.54</ele>
        <time>2016-08-24T12:51:08Z</time>
      </trkpt>
      <trkpt lat="47.36381" lon="-3.06275">
        <ele>1.1</ele>
        <time>2016-08-24T12:51:22Z</time>
      </trkpt>
      <trkpt lat="47.36357" lon="-3.06322">
        <ele>-0.34</ele>
        <time>2016-08-24T12:51:37Z</time>
      </trkpt>
      <trkpt lat="47.36338" lon="-3.06376">
        <ele>-0.34</ele>
        <time>2016-08-24T12:51:53Z</time>
      </trkpt>
      <trkpt lat="47.36318" lon="-3.06431">
        <ele>0.14</ele>
        <time>2016-08-24T12:52:10Z</time>
      </trkpt>
      <trkpt lat="47.36304" lon="-3.06478">
        <ele>0.14</ele>
        <time>2016-08-24T12:52:24Z</time>
      </trkpt>
      <trkpt lat="47.36287" lon="-3.06534">
        <ele>0.14</ele>
        <time>2016-08-24T12:52:42Z</time>
      </trkpt>
      <trkpt lat="47.3627" lon="-3.06587">
        <ele>0.14</ele>
        <time>2016-08-24T12:52:59Z</time>
      </trkpt>
      <trkpt lat="47.36258" lon="-3.06627">
        <ele>0.14</ele>
        <time>2016-08-24T12:53:12Z</time>
      </trkpt>
      <trkpt lat="47.36244" lon="-3.06674">
        <ele>-0.34</ele>
        <time>2016-08-24T12:53:27Z</time>
      </trkpt>
      <trkpt lat="47.36226" lon="-3.06723">
        <ele>0.14</ele>
        <time>2016-08-24T12:53:43Z</time>
      </trkpt>
      <trkpt lat="47.36207" lon="-3.06775">
        <ele>0.14</ele>
        <time>2016-08-24T12:53:59Z</time>
      </trkpt>
      <trkpt lat="47.36191" lon="-3.0682">
        <ele>0.62</ele>
        <time>2016-08-24T12:54:13Z</time>
      </trkpt>
      <trkpt lat="47.36173" lon="-3.06874">
        <ele>0.14</ele>
        <time>2016-08-24T12:54:30Z</time>
      </trkpt>
      <trkpt lat="47.36153" lon="-3.06931">
        <ele>-0.34</ele>
        <time>2016-08-24T12:54:48Z</time>
      </trkpt>
      <trkpt lat="47.36135" lon="-3.0699">
        <ele>-0.34</ele>
        <time>2016-08-24T12:55:07Z</time>
      </trkpt>
      <trkpt lat="47.36118" lon="-3.07039">
        <ele>0.14</ele>
        <time>2016-08-24T12:55:23Z</time>
      </trkpt>
      <trkpt lat="47.361" lon="-3.07091">
        <ele>0.14</ele>
        <time>2016-08-24T12:55:40Z</time>
      </trkpt>
      <trkpt lat="47.36083" lon="-3.07141">
        <ele>0.14</ele>
        <time>2016-08-24T12:55:56Z</time>
      </trkpt>
      <trkpt lat="47.36065" lon="-3.07197">
        <ele>-0.34</ele>
        <time>2016-08-24T12:56:14Z</time>
      </trkpt>
      <trkpt lat="47.36047" lon="-3.07245">
        <ele>0.14</ele>
        <time>2016-08-24T12:56:30Z</time>
      </trkpt>
      <trkpt lat="47.3603" lon="-3.07293">
        <ele>0.62</ele>
        <time>2016-08-24T12:56:45Z</time>
      </trkpt>
      <trkpt lat="47.36008" lon="-3.0735">
        <ele>1.1</ele>
        <time>2016-08-24T12:57:03Z</time>
      </trkpt>
      <trkpt lat="47.35991" lon="-3.07394">
        <ele>1.1</ele>
        <time>2016-08-24T12:57:17Z</time>
      </trkpt>
      <trkpt lat="47.35973" lon="-3.07437">
        <ele>1.1</ele>
        <time>2016-08-24T12:57:31Z</time>
      </trkpt>
      <trkpt lat="47.35951" lon="-3.07496">
        <ele>0.62</ele>
        <time>2016-08-24T12:57:49Z</time>
      </trkpt>
      <trkpt lat="47.35933" lon="-3.07552">
        <ele>0.14</ele>
        <time>2016-08-24T12:58:06Z</time>
      </trkpt>
      <trkpt lat="47.35914" lon="-3.07603">
        <ele>0.14</ele>
        <time>2016-08-24T12:58:22Z</time>
      </trkpt>
      <trkpt lat="47.35893" lon="-3.07667">
        <ele>0.62</ele>
        <time>2016-08-24T12:58:41Z</time>
      </trkpt>
      <trkpt lat="47.35877" lon="-3.07722">
        <ele>0.14</ele>
        <time>2016-08-24T12:58:58Z</time>
      </trkpt>
      <trkpt lat="47.35864" lon="-3.07767">
        <ele>-0.34</ele>
        <time>2016-08-24T12:59:12Z</time>
      </trkpt>
      <trkpt lat="47.35853" lon="-3.07826">
        <ele>-0.34</ele>
        <time>2016-08-24T12:59:30Z</time>
      </trkpt>
      <trkpt lat="47.35842" lon="-3.07877">
        <ele>-0.34</ele>
        <time>2016-08-24T12:59:45Z</time>
      </trkpt>
      <trkpt lat="47.3583" lon="-3.07925">
        <ele>-0.34</ele>
        <time>2016-08-24T12:59:59Z</time>
      </trkpt>
      <trkpt lat="47.35814" lon="-3.07984">
        <ele>-0.34</ele>
        <time>2016-08-24T13:00:15Z</time>
      </trkpt>
      <trkpt lat="47.35801" lon="-3.08032">
        <ele>0.14</ele>
        <time>2016-08-24T13:00:28Z</time>
      </trkpt>
      <trkpt lat="47.35785" lon="-3.08097">
        <ele>0.14</ele>
        <time>2016-08-24T13:00:46Z</time>
      </trkpt>
      <trkpt lat="47.3577" lon="-3.0815">
        <ele>0.14</ele>
        <time>2016-08-24T13:01:01Z</time>
      </trkpt>
      <trkpt lat="47.35754" lon="-3.08197">
        <ele>0.14</ele>
        <time>2016-08-24T13:01:14Z</time>
      </trkpt>
      <trkpt lat="47.35737" lon="-3.08244">
        <ele>0.62</ele>
        <time>2016-08-24T13:01:27Z</time>
      </trkpt>
      <trkpt lat="47.35719" lon="-3.08288">
        <ele>0.14</ele>
        <time>2016-08-24T13:01:40Z</time>
      </trkpt>
      <trkpt lat="47.357" lon="-3.08341">
        <ele>0.14</ele>
        <time>2016-08-24T13:01:55Z</time>
      </trkpt>
      <trkpt lat="47.35684" lon="-3.08394">
        <ele>0.14</ele>
        <time>2016-08-24T13:02:10Z</time>
      </trkpt>
      <trkpt lat="47.35669" lon="-3.08455">
        <ele>0.62</ele>
        <time>2016-08-24T13:02:27Z</time>
      </trkpt>
      <trkpt lat="47.35654" lon="-3.08505">
        <ele>0.62</ele>
        <time>2016-08-24T13:02:41Z</time>
      </trkpt>
      <trkpt lat="47.35637" lon="-3.08559">
        <ele>-0.34</ele>
        <time>2016-08-24T13:02:56Z</time>
      </trkpt>
      <trkpt lat="47.35621" lon="-3.08609">
        <ele>0.62</ele>
        <time>2016-08-24T13:03:10Z</time>
      </trkpt>
      <trkpt lat="47.3561" lon="-3.08661">
        <ele>0.14</ele>
        <time>2016-08-24T13:03:24Z</time>
      </trkpt>
      <trkpt lat="47.35599" lon="-3.08718">
        <ele>0.62</ele>
        <time>2016-08-24T13:03:40Z</time>
      </trkpt>
      <trkpt lat="47.35584" lon="-3.0878">
        <ele>0.62</ele>
        <time>2016-08-24T13:03:58Z</time>
      </trkpt>
      <trkpt lat="47.35571" lon="-3.08838">
        <ele>0.14</ele>
        <time>2016-08-24T13:04:14Z</time>
      </trkpt>
      <trkpt lat="47.3556" lon="-3.08898">
        <ele>0.14</ele>
        <time>2016-08-24T13:04:31Z</time>
      </trkpt>
      <trkpt lat="47.35551" lon="-3.08947">
        <ele>1.1</ele>
        <time>2016-08-24T13:04:45Z</time>
      </trkpt>
      <trkpt lat="47.35532" lon="-3.08999">
        <ele>1.1</ele>
        <time>2016-08-24T13:05:01Z</time>
      </trkpt>
      <trkpt lat="47.35518" lon="-3.09054">
        <ele>0.62</ele>
        <time>2016-08-24T13:05:17Z</time>
      </trkpt>
      <trkpt lat="47.35506" lon="-3.09109">
        <ele>-0.34</ele>
        <time>2016-08-24T13:05:33Z</time>
      </trkpt>
      <trkpt lat="47.35485" lon="-3.09176">
        <ele>0.14</ele>
        <time>2016-08-24T13:05:52Z</time>
      </trkpt>
      <trkpt lat="47.3547" lon="-3.09226">
        <ele>0.14</ele>
        <time>2016-08-24T13:06:06Z</time>
      </trkpt>
      <trkpt lat="47.35453" lon="-3.09277">
        <ele>0.14</ele>
        <time>2016-08-24T13:06:21Z</time>
      </trkpt>
      <trkpt lat="47.3544" lon="-3.09333">
        <ele>0.14</ele>
        <time>2016-08-24T13:06:37Z</time>
      </trkpt>
      <trkpt lat="47.35428" lon="-3.09385">
        <ele>0.14</ele>
        <time>2016-08-24T13:06:52Z</time>
      </trkpt>
      <trkpt lat="47.35415" lon="-3.09445">
        <ele>0.14</ele>
        <time>2016-08-24T13:07:09Z</time>
      </trkpt>
      <trkpt lat="47.35405" lon="-3.09494">
        <ele>0.62</ele>
        <time>2016-08-24T13:07:23Z</time>
      </trkpt>
      <trkpt lat="47.35386" lon="-3.09542">
        <ele>0.62</ele>
        <time>2016-08-24T13:07:38Z</time>
      </trkpt>
      <trkpt lat="47.35368" lon="-3.09589">
        <ele>0.62</ele>
        <time>2016-08-24T13:07:53Z</time>
      </trkpt>
      <trkpt lat="47.35355" lon="-3.09657">
        <ele>-0.34</ele>
        <time>2016-08-24T13:08:13Z</time>
      </trkpt>
      <trkpt lat="47.35347" lon="-3.09723">
        <ele>-0.34</ele>
        <time>2016-08-24T13:08:33Z</time>
      </trkpt>
      <trkpt lat="47.3534" lon="-3.09771">
        <ele>-1.79</ele>
        <time>2016-08-24T13:08:49Z</time>
      </trkpt>
      <trkpt lat="47.35322" lon="-3.09832">
        <ele>-1.3</ele>
        <time>2016-08-24T13:09:09Z</time>
      </trkpt>
      <trkpt lat="47.35307" lon="-3.09891">
        <ele>-2.27</ele>
        <time>2016-08-24T13:09:28Z</time>
      </trkpt>
      <trkpt lat="47.35295" lon="-3.0994">
        <ele>-2.75</ele>
        <time>2016-08-24T13:09:44Z</time>
      </trkpt>
      <trkpt lat="47.35286" lon="-3.09997">
        <ele>-2.75</ele>
        <time>2016-08-24T13:10:02Z</time>
      </trkpt>
      <trkpt lat="47.35277" lon="-3.10057">
        <ele>-2.75</ele>
        <time>2016-08-24T13:10:21Z</time>
      </trkpt>
      <trkpt lat="47.35271" lon="-3.10109">
        <ele>-3.23</ele>
        <time>2016-08-24T13:10:38Z</time>
      </trkpt>
      <trkpt lat="47.35261" lon="-3.10157">
        <ele>-2.27</ele>
        <time>2016-08-24T13:10:54Z</time>
      </trkpt>
      <trkpt lat="47.35255" lon="-3.1022">
        <ele>-2.27</ele>
        <time>2016-08-24T13:11:14Z</time>
      </trkpt>
      <trkpt lat="47.35246" lon="-3.10285">
        <ele>-2.27</ele>
        <time>2016-08-24T13:11:35Z</time>
      </trkpt>
      <trkpt lat="47.35238" lon="-3.10337">
        <ele>-1.79</ele>
        <time>2016-08-24T13:11:52Z</time>
      </trkpt>
      <trkpt lat="47.35229" lon="-3.10396">
        <ele>-1.3</ele>
        <time>2016-08-24T13:12:11Z</time>
      </trkpt>
      <trkpt lat="47.35219" lon="-3.10446">
        <ele>-2.27</ele>
        <time>2016-08-24T13:12:27Z</time>
      </trkpt>
      <trkpt lat="47.35207" lon="-3.10499">
        <ele>-2.27</ele>
        <time>2016-08-24T13:12:45Z</time>
      </trkpt>
      <trkpt lat="47.3519" lon="-3.10559">
        <ele>-1.79</ele>
        <time>2016-08-24T13:13:07Z</time>
      </trkpt>
      <trkpt lat="47.35174" lon="-3.10598">
        <ele>-0.82</ele>
        <time>2016-08-24T13:13:24Z</time>
      </trkpt>
      <trkpt lat="47.3516" lon="-3.10623">
        <ele>-0.34</ele>
        <time>2016-08-24T13:13:38Z</time>
      </trkpt>
      <trkpt lat="47.35147" lon="-3.10643">
        <ele>-0.34</ele>
        <time>2016-08-24T13:13:51Z</time>
      </trkpt>
      <trkpt lat="47.35131" lon="-3.10662">
        <ele>0.14</ele>
        <time>2016-08-24T13:14:06Z</time>
      </trkpt>
      <trkpt lat="47.35113" lon="-3.10676">
        <ele>0.14</ele>
        <time>2016-08-24T13:14:24Z</time>
      </trkpt>
      <trkpt lat="47.35094" lon="-3.10688">
        <ele>0.14</ele>
        <time>2016-08-24T13:14:43Z</time>
      </trkpt>
      <trkpt lat="47.35082" lon="-3.10716">
        <ele>-0.34</ele>
        <time>2016-08-24T13:15:02Z</time>
      </trkpt>
      <trkpt lat="47.35073" lon="-3.10745">
        <ele>-1.3</ele>
        <time>2016-08-24T13:15:18Z</time>
      </trkpt>
      <trkpt lat="47.35069" lon="-3.1079">
        <ele>-1.79</ele>
        <time>2016-08-24T13:15:37Z</time>
      </trkpt>
      <trkpt lat="47.35069" lon="-3.10831">
        <ele>-2.27</ele>
        <time>2016-08-24T13:15:55Z</time>
      </trkpt>
      <trkpt lat="47.35068" lon="-3.10879">
        <ele>-1.79</ele>
        <time>2016-08-24T13:16:16Z</time>
      </trkpt>
      <trkpt lat="47.35067" lon="-3.10918">
        <ele>-2.27</ele>
        <time>2016-08-24T13:16:34Z</time>
      </trkpt>
      <trkpt lat="47.35064" lon="-3.10959">
        <ele>-2.27</ele>
        <time>2016-08-24T13:16:52Z</time>
      </trkpt>
      <trkpt lat="47.35064" lon="-3.11009">
        <ele>-2.27</ele>
        <time>2016-08-24T13:17:13Z</time>
      </trkpt>
      <trkpt lat="47.35061" lon="-3.11062">
        <ele>-2.27</ele>
        <time>2016-08-24T13:17:36Z</time>
      </trkpt>
      <trkpt lat="47.35056" lon="-3.11115">
        <ele>-2.27</ele>
        <time>2016-08-24T13:17:58Z</time>
      </trkpt>
      <trkpt lat="47.3505" lon="-3.11166">
        <ele>-2.27</ele>
        <time>2016-08-24T13:18:18Z</time>
      </trkpt>
      <trkpt lat="47.35047" lon="-3.11211">
        <ele>-1.79</ele>
        <time>2016-08-24T13:18:37Z</time>
      </trkpt>
      <trkpt lat="47.35046" lon="-3.11248">
        <ele>-1.79</ele>
        <time>2016-08-24T13:18:55Z</time>
      </trkpt>
      <trkpt lat="47.35041" lon="-3.11287">
        <ele>-1.3</ele>
        <time>2016-08-24T13:19:13Z</time>
      </trkpt>
      <trkpt lat="47.35036" lon="-3.1134">
        <ele>-1.3</ele>
        <time>2016-08-24T13:19:35Z</time>
      </trkpt>
      <trkpt lat="47.3503" lon="-3.1139">
        <ele>-1.79</ele>
        <time>2016-08-24T13:19:57Z</time>
      </trkpt>
      <trkpt lat="47.35024" lon="-3.11436">
        <ele>-1.79</ele>
        <time>2016-08-24T13:20:16Z</time>
      </trkpt>
      <trkpt lat="47.35019" lon="-3.11487">
        <ele>-2.27</ele>
        <time>2016-08-24T13:20:37Z</time>
      </trkpt>
      <trkpt lat="47.35012" lon="-3.11531">
        <ele>-1.79</ele>
        <time>2016-08-24T13:20:54Z</time>
      </trkpt>
      <trkpt lat="47.35006" lon="-3.11583">
        <ele>-1.79</ele>
        <time>2016-08-24T13:21:14Z</time>
      </trkpt>
      <trkpt lat="47.35001" lon="-3.11639">
        <ele>-1.79</ele>
        <time>2016-08-24T13:21:37Z</time>
      </trkpt>
      <trkpt lat="47.34994" lon="-3.11678">
        <ele>-2.27</ele>
        <time>2016-08-24T13:21:52Z</time>
      </trkpt>
      <trkpt lat="47.34978" lon="-3.11728">
        <ele>-2.27</ele>
        <time>2016-08-24T13:22:11Z</time>
      </trkpt>
      <trkpt lat="47.34967" lon="-3.1178">
        <ele>-2.27</ele>
        <time>2016-08-24T13:22:30Z</time>
      </trkpt>
      <trkpt lat="47.3496" lon="-3.11836">
        <ele>-1.79</ele>
        <time>2016-08-24T13:22:50Z</time>
      </trkpt>
      <trkpt lat="47.34953" lon="-3.1189">
        <ele>-0.82</ele>
        <time>2016-08-24T13:23:10Z</time>
      </trkpt>
      <trkpt lat="47.34948" lon="-3.11947">
        <ele>-0.34</ele>
        <time>2016-08-24T13:23:31Z</time>
      </trkpt>
      <trkpt lat="47.34945" lon="-3.11993">
        <ele>-0.82</ele>
        <time>2016-08-24T13:23:48Z</time>
      </trkpt>
      <trkpt lat="47.3494" lon="-3.12058">
        <ele>-0.82</ele>
        <time>2016-08-24T13:24:12Z</time>
      </trkpt>
      <trkpt lat="47.34935" lon="-3.1211">
        <ele>-0.34</ele>
        <time>2016-08-24T13:24:31Z</time>
      </trkpt>
      <trkpt lat="47.34931" lon="-3.12167">
        <ele>-0.82</ele>
        <time>2016-08-24T13:24:52Z</time>
      </trkpt>
      <trkpt lat="47.34928" lon="-3.12217">
        <ele>-0.82</ele>
        <time>2016-08-24T13:25:10Z</time>
      </trkpt>
      <trkpt lat="47.34923" lon="-3.12267">
        <ele>-0.82</ele>
        <time>2016-08-24T13:25:28Z</time>
      </trkpt>
      <trkpt lat="47.34914" lon="-3.12333">
        <ele>-0.82</ele>
        <time>2016-08-24T13:25:51Z</time>
      </trkpt>
      <trkpt lat="47.34908" lon="-3.12385">
        <ele>-0.82</ele>
        <time>2016-08-24T13:26:09Z</time>
      </trkpt>
      <trkpt lat="47.349" lon="-3.12448">
        <ele>-0.82</ele>
        <time>2016-08-24T13:26:31Z</time>
      </trkpt>
      <trkpt lat="47.34893" lon="-3.12501">
        <ele>-0.82</ele>
        <time>2016-08-24T13:26:49Z</time>
      </trkpt>
      <trkpt lat="47.34888" lon="-3.12564">
        <ele>-0.82</ele>
        <time>2016-08-24T13:27:10Z</time>
      </trkpt>
      <trkpt lat="47.34883" lon="-3.1262">
        <ele>-0.82</ele>
        <time>2016-08-24T13:27:28Z</time>
      </trkpt>
      <trkpt lat="47.34875" lon="-3.12677">
        <ele>-0.82</ele>
        <time>2016-08-24T13:27:46Z</time>
      </trkpt>
      <trkpt lat="47.34865" lon="-3.12732">
        <ele>-0.82</ele>
        <time>2016-08-24T13:28:03Z</time>
      </trkpt>
      <trkpt lat="47.34857" lon="-3.12803">
        <ele>-0.82</ele>
        <time>2016-08-24T13:28:24Z</time>
      </trkpt>
      <trkpt lat="47.34848" lon="-3.12868">
        <ele>-0.82</ele>
        <time>2016-08-24T13:28:43Z</time>
      </trkpt>
      <trkpt lat="47.34842" lon="-3.12938">
        <ele>-0.34</ele>
        <time>2016-08-24T13:29:04Z</time>
      </trkpt>
      <trkpt lat="47.34838" lon="-3.12999">
        <ele>-0.82</ele>
        <time>2016-08-24T13:29:23Z</time>
      </trkpt>
      <trkpt lat="47.34828" lon="-3.1308">
        <ele>-0.82</ele>
        <time>2016-08-24T13:29:47Z</time>
      </trkpt>
      <trkpt lat="47.34818" lon="-3.1316">
        <ele>-0.82</ele>
        <time>2016-08-24T13:30:10Z</time>
      </trkpt>
      <trkpt lat="47.34812" lon="-3.13218">
        <ele>-0.82</ele>
        <time>2016-08-24T13:30:27Z</time>
      </trkpt>
      <trkpt lat="47.34809" lon="-3.13273">
        <ele>-0.34</ele>
        <time>2016-08-24T13:30:43Z</time>
      </trkpt>
      <trkpt lat="47.34804" lon="-3.13354">
        <ele>-0.34</ele>
        <time>2016-08-24T13:31:06Z</time>
      </trkpt>
      <trkpt lat="47.34801" lon="-3.13412">
        <ele>-0.82</ele>
        <time>2016-08-24T13:31:23Z</time>
      </trkpt>
      <trkpt lat="47.34797" lon="-3.13478">
        <ele>-0.34</ele>
        <time>2016-08-24T13:31:42Z</time>
      </trkpt>
      <trkpt lat="47.34792" lon="-3.13551">
        <ele>-0.82</ele>
        <time>2016-08-24T13:32:02Z</time>
      </trkpt>
      <trkpt lat="47.34787" lon="-3.13624">
        <ele>-0.82</ele>
        <time>2016-08-24T13:32:22Z</time>
      </trkpt>
      <trkpt lat="47.34781" lon="-3.137">
        <ele>-0.34</ele>
        <time>2016-08-24T13:32:43Z</time>
      </trkpt>
      <trkpt lat="47.34774" lon="-3.13764">
        <ele>-0.34</ele>
        <time>2016-08-24T13:33:01Z</time>
      </trkpt>
      <trkpt lat="47.34765" lon="-3.13853">
        <ele>-0.82</ele>
        <time>2016-08-24T13:33:26Z</time>
      </trkpt>
      <trkpt lat="47.34763" lon="-3.13918">
        <ele>-0.82</ele>
        <time>2016-08-24T13:33:43Z</time>
      </trkpt>
      <trkpt lat="47.34757" lon="-3.13987">
        <ele>-0.82</ele>
        <time>2016-08-24T13:34:01Z</time>
      </trkpt>
      <trkpt lat="47.34751" lon="-3.14059">
        <ele>-0.34</ele>
        <time>2016-08-24T13:34:21Z</time>
      </trkpt>
      <trkpt lat="47.34743" lon="-3.1413">
        <ele>-0.34</ele>
        <time>2016-08-24T13:34:42Z</time>
      </trkpt>
      <trkpt lat="47.34735" lon="-3.14199">
        <ele>-0.82</ele>
        <time>2016-08-24T13:35:03Z</time>
      </trkpt>
      <trkpt lat="47.3473" lon="-3.14255">
        <ele>-0.82</ele>
        <time>2016-08-24T13:35:19Z</time>
      </trkpt>
      <trkpt lat="47.34721" lon="-3.14326">
        <ele>-0.82</ele>
        <time>2016-08-24T13:35:40Z</time>
      </trkpt>
      <trkpt lat="47.34703" lon="-3.1439">
        <ele>-0.82</ele>
        <time>2016-08-24T13:36:01Z</time>
      </trkpt>
      <trkpt lat="47.34678" lon="-3.1442">
        <ele>-1.3</ele>
        <time>2016-08-24T13:36:19Z</time>
      </trkpt>
      <trkpt lat="47.34647" lon="-3.14434">
        <ele>-0.82</ele>
        <time>2016-08-24T13:36:43Z</time>
      </trkpt>
      <trkpt lat="47.34624" lon="-3.1443">
        <ele>0.62</ele>
        <time>2016-08-24T13:37:04Z</time>
      </trkpt>
      <trkpt lat="47.34605" lon="-3.14424">
        <ele>0.14</ele>
        <time>2016-08-24T13:37:25Z</time>
      </trkpt>
      <trkpt lat="47.34583" lon="-3.1442">
        <ele>-0.34</ele>
        <time>2016-08-24T13:37:48Z</time>
      </trkpt>
      <trkpt lat="47.34564" lon="-3.14437">
        <ele>-1.3</ele>
        <time>2016-08-24T13:38:10Z</time>
      </trkpt>
      <trkpt lat="47.34546" lon="-3.14451">
        <ele>-0.82</ele>
        <time>2016-08-24T13:38:31Z</time>
      </trkpt>
      <trkpt lat="47.34525" lon="-3.14456">
        <ele>-0.82</ele>
        <time>2016-08-24T13:38:52Z</time>
      </trkpt>
      <trkpt lat="47.34521" lon="-3.14482">
        <ele>-1.3</ele>
        <time>2016-08-24T13:39:09Z</time>
      </trkpt>
      <trkpt lat="47.34538" lon="-3.14514">
        <ele>-0.34</ele>
        <time>2016-08-24T13:39:31Z</time>
      </trkpt>
      <trkpt lat="47.34558" lon="-3.14528">
        <ele>-0.82</ele>
        <time>2016-08-24T13:39:52Z</time>
      </trkpt>
      <trkpt lat="47.34575" lon="-3.14553">
        <ele>-0.34</ele>
        <time>2016-08-24T13:40:17Z</time>
      </trkpt>
      <trkpt lat="47.34588" lon="-3.14582">
        <ele>0.14</ele>
        <time>2016-08-24T13:40:41Z</time>
      </trkpt>
      <trkpt lat="47.34599" lon="-3.14607">
        <ele>0.14</ele>
        <time>2016-08-24T13:41:03Z</time>
      </trkpt>
      <trkpt lat="47.34605" lon="-3.14612">
        <ele>-0.34</ele>
        <time>2016-08-24T13:41:11Z</time>
      </trkpt>
      <trkpt lat="47.34615" lon="-3.14612">
        <ele>0.14</ele>
        <time>2016-08-24T13:41:22Z</time>
      </trkpt>
      <trkpt lat="47.34632" lon="-3.14594">
        <ele>-0.34</ele>
        <time>2016-08-24T13:41:42Z</time>
      </trkpt>
      <trkpt lat="47.34657" lon="-3.14575">
        <ele>-0.34</ele>
        <time>2016-08-24T13:42:07Z</time>
      </trkpt>
      <trkpt lat="47.34682" lon="-3.14568">
        <ele>0.14</ele>
        <time>2016-08-24T13:42:32Z</time>
      </trkpt>
      <trkpt lat="47.34687" lon="-3.14572">
        <ele>0.14</ele>
        <time>2016-08-24T13:42:37Z</time>
      </trkpt>
      <trkpt lat="47.34691" lon="-3.14582">
        <ele>0.14</ele>
        <time>2016-08-24T13:42:45Z</time>
      </trkpt>
      <trkpt lat="47.34694" lon="-3.14617">
        <ele>2.06</ele>
        <time>2016-08-24T13:43:08Z</time>
      </trkpt>
      <trkpt lat="47.34696" lon="-3.14645">
        <ele>2.06</ele>
        <time>2016-08-24T13:43:28Z</time>
      </trkpt>
      <trkpt lat="47.34695" lon="-3.14679">
        <ele>2.54</ele>
        <time>2016-08-24T13:43:51Z</time>
      </trkpt>
      <trkpt lat="47.34691" lon="-3.14712">
        <ele>1.58</ele>
        <time>2016-08-24T13:44:12Z</time>
      </trkpt>
      <trkpt lat="47.34684" lon="-3.14749">
        <ele>0.62</ele>
        <time>2016-08-24T13:44:35Z</time>
      </trkpt>
      <trkpt lat="47.34676" lon="-3.14783">
        <ele>0.62</ele>
        <time>2016-08-24T13:44:56Z</time>
      </trkpt>
      <trkpt lat="47.3467" lon="-3.14816">
        <ele>-0.34</ele>
        <time>2016-08-24T13:45:16Z</time>
      </trkpt>
      <trkpt lat="47.34666" lon="-3.14851">
        <ele>0.62</ele>
        <time>2016-08-24T13:45:38Z</time>
      </trkpt>
      <trkpt lat="47.34664" lon="-3.14881">
        <ele>0.14</ele>
        <time>2016-08-24T13:45:58Z</time>
      </trkpt>
      <trkpt lat="47.34669" lon="-3.14903">
        <ele>0.14</ele>
        <time>2016-08-24T13:46:17Z</time>
      </trkpt>
      <trkpt lat="47.34673" lon="-3.14934">
        <ele>-0.34</ele>
        <time>2016-08-24T13:46:36Z</time>
      </trkpt>
      <trkpt lat="47.34679" lon="-3.14977">
        <ele>-0.34</ele>
        <time>2016-08-24T13:46:57Z</time>
      </trkpt>
      <trkpt lat="47.34687" lon="-3.15019">
        <ele>-1.3</ele>
        <time>2016-08-24T13:47:21Z</time>
      </trkpt>
      <trkpt lat="47.34697" lon="-3.1505">
        <ele>-2.27</ele>
        <time>2016-08-24T13:47:46Z</time>
      </trkpt>
      <trkpt lat="47.3471" lon="-3.1508">
        <ele>-0.82</ele>
        <time>2016-08-24T13:48:13Z</time>
      </trkpt>
      <trkpt lat="47.34719" lon="-3.15116">
        <ele>0.62</ele>
        <time>2016-08-24T13:48:42Z</time>
      </trkpt>
      <trkpt lat="47.34731" lon="-3.15148">
        <ele>4.94</ele>
        <time>2016-08-24T13:49:10Z</time>
      </trkpt>
      <trkpt lat="47.34744" lon="-3.15168">
        <ele>4.46</ele>
        <time>2016-08-24T13:49:35Z</time>
      </trkpt>
      <trkpt lat="47.34757" lon="-3.15172">
        <ele>3.98</ele>
        <time>2016-08-24T13:49:56Z</time>
      </trkpt>
      <trkpt lat="47.34738" lon="-3.15183">
        <ele>3.5</ele>
        <time>2016-08-24T13:50:22Z</time>
      </trkpt>
      <trkpt lat="47.34725" lon="-3.1519">
        <ele>1.58</ele>
        <time>2016-08-24T13:50:53Z</time>
      </trkpt>
      <trkpt lat="47.34721" lon="-3.15193">
        <ele>1.58</ele>
        <time>2016-08-24T13:51:23Z</time>
      </trkpt>
      <trkpt lat="47.34721" lon="-3.15193">
        <ele>1.1</ele>
        <time>2016-08-24T13:51:48Z</time>
      </trkpt>
      <trkpt lat="47.34721" lon="-3.15195">
        <ele>1.58</ele>
        <time>2016-08-24T13:52:18Z</time>
      </trkpt>
      <trkpt lat="47.3472" lon="-3.15196">
        <ele>1.58</ele>
        <time>2016-08-24T13:52:49Z</time>
      </trkpt>
      <trkpt lat="47.34719" lon="-3.15197">
        <ele>1.1</ele>
        <time>2016-08-24T13:53:23Z</time>
      </trkpt>
      <trkpt lat="47.34719" lon="-3.15197">
        <ele>1.1</ele>
        <time>2016-08-24T13:53:50Z</time>
      </trkpt>
      <trkpt lat="47.34718" lon="-3.15197">
        <ele>2.06</ele>
        <time>2016-08-24T13:54:19Z</time>
      </trkpt>
      <trkpt lat="47.34717" lon="-3.15197">
        <ele>1.58</ele>
        <time>2016-08-24T13:54:53Z</time>
      </trkpt>
      <trkpt lat="47.34716" lon="-3.15197">
        <ele>2.06</ele>
        <time>2016-08-24T13:55:30Z</time>
      </trkpt>
      <trkpt lat="47.34716" lon="-3.15198">
        <ele>2.54</ele>
        <time>2016-08-24T13:56:00Z</time>
      </trkpt>
      <trkpt lat="47.34716" lon="-3.15198">
        <ele>2.06</ele>
        <time>2016-08-24T13:56:36Z</time>
      </trkpt>
      <trkpt lat="47.34716" lon="-3.15198">
        <ele>1.1</ele>
        <time>2016-08-24T13:57:05Z</time>
      </trkpt>
      <trkpt lat="47.34716" lon="-3.15197">
        <ele>1.1</ele>
        <time>2016-08-24T13:57:39Z</time>
      </trkpt>
      <trkpt lat="47.34716" lon="-3.15198">
        <ele>1.1</ele>
        <time>2016-08-24T13:58:08Z</time>
      </trkpt>
      <trkpt lat="47.34715" lon="-3.15198">
        <ele>1.1</ele>
        <time>2016-08-24T13:58:47Z</time>
      </trkpt>
      <trkpt lat="47.34715" lon="-3.15198">
        <ele>1.58</ele>
        <time>2016-08-24T13:59:29Z</time>
      </trkpt>
      <trkpt lat="47.34715" lon="-3.15199">
        <ele>1.58</ele>
        <time>2016-08-24T14:00:05Z</time>
      </trkpt>
      <trkpt lat="47.34715" lon="-3.15198">
        <ele>1.1</ele>
        <time>2016-08-24T14:00:35Z</time>
      </trkpt>
      <trkpt lat="47.34716" lon="-3.15199">
        <ele>1.58</ele>
        <time>2016-08-24T14:01:16Z</time>
      </trkpt>
      <trkpt lat="47.34715" lon="-3.15199">
        <ele>1.1</ele>
        <time>2016-08-24T14:01:49Z</time>
      </trkpt>
      <trkpt lat="47.34715" lon="-3.15199">
        <ele>1.58</ele>
        <time>2016-08-24T14:02:24Z</time>
      </trkpt>
      <trkpt lat="47.34715" lon="-3.15197">
        <ele>2.06</ele>
        <time>2016-08-24T14:03:03Z</time>
      </trkpt>
      <trkpt lat="47.34715" lon="-3.15198">
        <ele>2.06</ele>
        <time>2016-08-24T14:03:38Z</time>
      </trkpt>
      <trkpt lat="47.34716" lon="-3.15198">
        <ele>2.06</ele>
        <time>2016-08-24T14:04:12Z</time>
      </trkpt>
      <trkpt lat="47.34716" lon="-3.15199">
        <ele>2.54</ele>
        <time>2016-08-24T14:04:44Z</time>
      </trkpt>
      <trkpt lat="47.34716" lon="-3.15198">
        <ele>2.06</ele>
        <time>2016-08-24T14:05:20Z</time>
      </trkpt>
      <trkpt lat="47.34716" lon="-3.15198">
        <ele>1.1</ele>
        <time>2016-08-24T14:05:59Z</time>
      </trkpt>
      <trkpt lat="47.34715" lon="-3.15198">
        <ele>1.1</ele>
        <time>2016-08-24T14:06:32Z</time>
      </trkpt>
      <trkpt lat="47.34715" lon="-3.15198">
        <ele>1.58</ele>
        <time>2016-08-24T14:07:03Z</time>
      </trkpt>
      <trkpt lat="47.34715" lon="-3.15198">
        <ele>1.1</ele>
        <time>2016-08-24T14:07:37Z</time>
      </trkpt>
      <trkpt lat="47.34715" lon="-3.15198">
        <ele>1.1</ele>
        <time>2016-08-24T14:08:12Z</time>
      </trkpt>
      <trkpt lat="47.34715" lon="-3.15199">
        <ele>1.58</ele>
        <time>2016-08-24T14:08:39Z</time>
      </trkpt>
      <trkpt lat="47.34716" lon="-3.15199">
        <ele>2.06</ele>
        <time>2016-08-24T14:09:17Z</time>
      </trkpt>
      <trkpt lat="47.34716" lon="-3.15199">
        <ele>2.06</ele>
        <time>2016-08-24T14:09:52Z</time>
      </trkpt>
      <trkpt lat="47.34716" lon="-3.15199">
        <ele>1.58</ele>
        <time>2016-08-24T14:10:30Z</time>
      </trkpt>
      <trkpt lat="47.34716" lon="-3.15198">
        <ele>1.58</ele>
        <time>2016-08-24T14:11:03Z</time>
      </trkpt>
      <trkpt lat="47.34716" lon="-3.15199">
        <ele>2.06</ele>
        <time>2016-08-24T14:11:30Z</time>
      </trkpt>
      <trkpt lat="47.34716" lon="-3.15199">
        <ele>1.58</ele>
        <time>2016-08-24T14:12:04Z</time>
      </trkpt>
      <trkpt lat="47.34716" lon="-3.15199">
        <ele>2.54</ele>
        <time>2016-08-24T14:12:34Z</time>
      </trkpt>
      <trkpt lat="47.34716" lon="-3.15199">
        <ele>3.02</ele>
        <time>2016-08-24T14:13:05Z</time>
      </trkpt>
      <trkpt lat="47.34716" lon="-3.15199">
        <ele>3.02</ele>
        <time>2016-08-24T14:13:44Z</time>
      </trkpt>
      <trkpt lat="47.34716" lon="-3.15199">
        <ele>3.5</ele>
        <time>2016-08-24T14:14:20Z</time>
      </trkpt>
      <trkpt lat="47.34716" lon="-3.15199">
        <ele>3.02</ele>
        <time>2016-08-24T14:14:59Z</time>
      </trkpt>
      <trkpt lat="47.34716" lon="-3.15198">
        <ele>3.5</ele>
        <time>2016-08-24T14:15:32Z</time>
      </trkpt>
      <trkpt lat="47.34716" lon="-3.15198">
        <ele>3.02</ele>
        <time>2016-08-24T14:16:04Z</time>
      </trkpt>
      <trkpt lat="47.34716" lon="-3.15199">
        <ele>2.54</ele>
        <time>2016-08-24T14:16:39Z</time>
      </trkpt>
      <trkpt lat="47.34716" lon="-3.15199">
        <ele>1.58</ele>
        <time>2016-08-24T14:17:12Z</time>
      </trkpt>
      <trkpt lat="47.34717" lon="-3.15198">
        <ele>1.1</ele>
        <time>2016-08-24T14:17:47Z</time>
      </trkpt>
      <trkpt lat="47.34717" lon="-3.15199">
        <ele>1.1</ele>
        <time>2016-08-24T14:18:22Z</time>
      </trkpt>
      <trkpt lat="47.34717" lon="-3.15198">
        <ele>1.1</ele>
        <time>2016-08-24T14:18:55Z</time>
      </trkpt>
      <trkpt lat="47.34716" lon="-3.15198">
        <ele>1.1</ele>
        <time>2016-08-24T14:19:28Z</time>
      </trkpt>
      <trkpt lat="47.34716" lon="-3.15198">
        <ele>1.1</ele>
        <time>2016-08-24T14:20:05Z</time>
      </trkpt>
      <trkpt lat="47.34716" lon="-3.15198">
        <ele>0.62</ele>
        <time>2016-08-24T14:20:42Z</time>
      </trkpt>
      <trkpt lat="47.34716" lon="-3.15198">
        <ele>0.62</ele>
        <time>2016-08-24T14:21:15Z</time>
      </trkpt>
      <trkpt lat="47.34716" lon="-3.15198">
        <ele>1.58</ele>
        <time>2016-08-24T14:21:43Z</time>
      </trkpt>
      <trkpt lat="47.34717" lon="-3.15198">
        <ele>2.54</ele>
        <time>2016-08-24T14:22:23Z</time>
      </trkpt>
      <trkpt lat="47.34717" lon="-3.15199">
        <ele>3.02</ele>
        <time>2016-08-24T14:22:58Z</time>
      </trkpt>
      <trkpt lat="47.34717" lon="-3.15199">
        <ele>3.02</ele>
        <time>2016-08-24T14:23:32Z</time>
      </trkpt>
      <trkpt lat="47.34716" lon="-3.15199">
        <ele>3.98</ele>
        <time>2016-08-24T14:24:09Z</time>
      </trkpt>
      <trkpt lat="47.34716" lon="-3.15199">
        <ele>4.46</ele>
        <time>2016-08-24T14:24:43Z</time>
      </trkpt>
      <trkpt lat="47.34716" lon="-3.15199">
        <ele>4.94</ele>
        <time>2016-08-24T14:25:17Z</time>
      </trkpt>
      <trkpt lat="47.34716" lon="-3.15198">
        <ele>5.91</ele>
        <time>2016-08-24T14:25:52Z</time>
      </trkpt>
      <trkpt lat="47.34716" lon="-3.15199">
        <ele>5.91</ele>
        <time>2016-08-24T14:26:25Z</time>
      </trkpt>
      <trkpt lat="47.34716" lon="-3.15199">
        <ele>6.87</ele>
        <time>2016-08-24T14:27:09Z</time>
      </trkpt>
      <trkpt lat="47.34715" lon="-3.15198">
        <ele>7.35</ele>
        <time>2016-08-24T14:27:45Z</time>
      </trkpt>
      <trkpt lat="47.34716" lon="-3.15198">
        <ele>6.87</ele>
        <time>2016-08-24T14:28:17Z</time>
      </trkpt>
      <trkpt lat="47.34715" lon="-3.15197">
        <ele>7.35</ele>
        <time>2016-08-24T14:28:48Z</time>
      </trkpt>
    </trkseg>
  </trk>
  <trk>
    <name><![CDATA[Tracé actuel: 25 AOU 2016 10:16]]></name>
    <trkseg>
      <trkpt lat="47.34691" lon="-3.1523">
        <ele>11.19</ele>
        <time>2016-08-25T08:16:49Z</time>
      </trkpt>
      <trkpt lat="47.34696" lon="-3.15242">
        <ele>13.12</ele>
        <time>2016-08-25T08:17:02Z</time>
      </trkpt>
      <trkpt lat="47.347" lon="-3.15253">
        <ele>13.12</ele>
        <time>2016-08-25T08:17:13Z</time>
      </trkpt>
      <trkpt lat="47.34699" lon="-3.15262">
        <ele>14.56</ele>
        <time>2016-08-25T08:17:20Z</time>
      </trkpt>
      <trkpt lat="47.34702" lon="-3.15269">
        <ele>15.52</ele>
        <time>2016-08-25T08:17:26Z</time>
      </trkpt>
      <trkpt lat="47.34691" lon="-3.15284">
        <ele>17.44</ele>
        <time>2016-08-25T08:17:40Z</time>
      </trkpt>
      <trkpt lat="47.34679" lon="-3.15298">
        <ele>19.36</ele>
        <time>2016-08-25T08:17:54Z</time>
      </trkpt>
      <trkpt lat="47.34667" lon="-3.15311">
        <ele>21.29</ele>
        <time>2016-08-25T08:18:11Z</time>
      </trkpt>
      <trkpt lat="47.34661" lon="-3.15329">
        <ele>20.81</ele>
        <time>2016-08-25T08:18:26Z</time>
      </trkpt>
      <trkpt lat="47.34657" lon="-3.15335">
        <ele>18.88</ele>
        <time>2016-08-25T08:18:36Z</time>
      </trkpt>
      <trkpt lat="47.3466" lon="-3.15358">
        <ele>17.44</ele>
        <time>2016-08-25T08:18:51Z</time>
      </trkpt>
      <trkpt lat="47.34656" lon="-3.15359">
        <ele>18.88</ele>
        <time>2016-08-25T08:19:05Z</time>
      </trkpt>
      <trkpt lat="47.34687" lon="-3.15329">
        <ele>24.17</ele>
        <time>2016-08-25T08:19:30Z</time>
      </trkpt>
      <trkpt lat="47.34688" lon="-3.15335">
        <ele>7.83</ele>
        <time>2016-08-25T08:19:52Z</time>
      </trkpt>
      <trkpt lat="47.34686" lon="-3.15334">
        <ele>10.23</ele>
        <time>2016-08-25T08:20:10Z</time>
      </trkpt>
      <trkpt lat="47.34687" lon="-3.15336">
        <ele>7.35</ele>
        <time>2016-08-25T08:20:33Z</time>
      </trkpt>
      <trkpt lat="47.34684" lon="-3.15328">
        <ele>6.39</ele>
        <time>2016-08-25T08:20:46Z</time>
      </trkpt>
      <trkpt lat="47.3468" lon="-3.15317">
        <ele>5.91</ele>
        <time>2016-08-25T08:20:59Z</time>
      </trkpt>
      <trkpt lat="47.34681" lon="-3.15316">
        <ele>5.42</ele>
        <time>2016-08-25T08:21:09Z</time>
      </trkpt>
      <trkpt lat="47.34681" lon="-3.15315">
        <ele>4.94</ele>
        <time>2016-08-25T08:21:20Z</time>
      </trkpt>
      <trkpt lat="47.34681" lon="-3.15315">
        <ele>4.94</ele>
        <time>2016-08-25T08:21:22Z</time>
      </trkpt>
      <trkpt lat="47.34682" lon="-3.15317">
        <ele>4.94</ele>
        <time>2016-08-25T08:21:34Z</time>
      </trkpt>
      <trkpt lat="47.34677" lon="-3.15316">
        <ele>4.46</ele>
        <time>2016-08-25T08:21:47Z</time>
      </trkpt>
      <trkpt lat="47.3467" lon="-3.15317">
        <ele>3.98</ele>
        <time>2016-08-25T08:21:59Z</time>
      </trkpt>
      <trkpt lat="47.34665" lon="-3.15317">
        <ele>5.42</ele>
        <time>2016-08-25T08:22:12Z</time>
      </trkpt>
      <trkpt lat="47.34665" lon="-3.15318">
        <ele>5.91</ele>
        <time>2016-08-25T08:22:26Z</time>
      </trkpt>
      <trkpt lat="47.34664" lon="-3.15318">
        <ele>6.39</ele>
        <time>2016-08-25T08:22:43Z</time>
      </trkpt>
      <trkpt lat="47.34665" lon="-3.1532">
        <ele>6.39</ele>
        <time>2016-08-25T08:22:53Z</time>
      </trkpt>
      <trkpt lat="47.34669" lon="-3.15327">
        <ele>7.83</ele>
        <time>2016-08-25T08:23:03Z</time>
      </trkpt>
      <trkpt lat="47.34677" lon="-3.15348">
        <ele>8.79</ele>
        <time>2016-08-25T08:23:17Z</time>
      </trkpt>
      <trkpt lat="47.34678" lon="-3.1535">
        <ele>8.79</ele>
        <time>2016-08-25T08:23:25Z</time>
      </trkpt>
      <trkpt lat="47.34687" lon="-3.15368">
        <ele>8.31</ele>
        <time>2016-08-25T08:23:37Z</time>
      </trkpt>
      <trkpt lat="47.34693" lon="-3.15377">
        <ele>5.91</ele>
        <time>2016-08-25T08:23:48Z</time>
      </trkpt>
      <trkpt lat="47.34694" lon="-3.15381">
        <ele>4.94</ele>
        <time>2016-08-25T08:24:04Z</time>
      </trkpt>
      <trkpt lat="47.34696" lon="-3.15384">
        <ele>4.94</ele>
        <time>2016-08-25T08:24:17Z</time>
      </trkpt>
      <trkpt lat="47.34696" lon="-3.15385">
        <ele>4.94</ele>
        <time>2016-08-25T08:24:19Z</time>
      </trkpt>
      <trkpt lat="47.34698" lon="-3.15386">
        <ele>4.94</ele>
        <time>2016-08-25T08:24:23Z</time>
      </trkpt>
      <trkpt lat="47.34707" lon="-3.15383">
        <ele>8.31</ele>
        <time>2016-08-25T08:24:30Z</time>
      </trkpt>
      <trkpt lat="47.34722" lon="-3.15383">
        <ele>9.75</ele>
        <time>2016-08-25T08:24:44Z</time>
      </trkpt>
      <trkpt lat="47.34735" lon="-3.15386">
        <ele>9.27</ele>
        <time>2016-08-25T08:24:57Z</time>
      </trkpt>
      <trkpt lat="47.34751" lon="-3.15389">
        <ele>9.27</ele>
        <time>2016-08-25T08:25:12Z</time>
      </trkpt>
      <trkpt lat="47.34768" lon="-3.15394">
        <ele>7.83</ele>
        <time>2016-08-25T08:25:28Z</time>
      </trkpt>
      <trkpt lat="47.34769" lon="-3.15397">
        <ele>6.87</ele>
        <time>2016-08-25T08:25:31Z</time>
      </trkpt>
      <trkpt lat="47.34773" lon="-3.15402">
        <ele>6.87</ele>
        <time>2016-08-25T08:25:36Z</time>
      </trkpt>
      <trkpt lat="47.34775" lon="-3.15404">
        <ele>6.39</ele>
        <time>2016-08-25T08:25:38Z</time>
      </trkpt>
      <trkpt lat="47.34777" lon="-3.15406">
        <ele>6.39</ele>
        <time>2016-08-25T08:25:40Z</time>
      </trkpt>
      <trkpt lat="47.34778" lon="-3.1542">
        <ele>4.94</ele>
        <time>2016-08-25T08:25:53Z</time>
      </trkpt>
      <trkpt lat="47.34778" lon="-3.15422">
        <ele>4.94</ele>
        <time>2016-08-25T08:26:07Z</time>
      </trkpt>
      <trkpt lat="47.34777" lon="-3.15422">
        <ele>5.42</ele>
        <time>2016-08-25T08:26:17Z</time>
      </trkpt>
      <trkpt lat="47.34774" lon="-3.15424">
        <ele>5.42</ele>
        <time>2016-08-25T08:26:20Z</time>
      </trkpt>
      <trkpt lat="47.34771" lon="-3.15431">
        <ele>5.91</ele>
        <time>2016-08-25T08:26:26Z</time>
      </trkpt>
      <trkpt lat="47.34774" lon="-3.15455">
        <ele>6.39</ele>
        <time>2016-08-25T08:26:41Z</time>
      </trkpt>
      <trkpt lat="47.34773" lon="-3.15467">
        <ele>6.39</ele>
        <time>2016-08-25T08:26:48Z</time>
      </trkpt>
      <trkpt lat="47.34776" lon="-3.15476">
        <ele>6.87</ele>
        <time>2016-08-25T08:26:54Z</time>
      </trkpt>
      <trkpt lat="47.34774" lon="-3.15478">
        <ele>6.87</ele>
        <time>2016-08-25T08:26:56Z</time>
      </trkpt>
      <trkpt lat="47.34767" lon="-3.1549">
        <ele>7.83</ele>
        <time>2016-08-25T08:27:11Z</time>
      </trkpt>
      <trkpt lat="47.34765" lon="-3.1549">
        <ele>7.35</ele>
        <time>2016-08-25T08:27:17Z</time>
      </trkpt>
      <trkpt lat="47.34755" lon="-3.15489">
        <ele>7.35</ele>
        <time>2016-08-25T08:27:26Z</time>
      </trkpt>
      <trkpt lat="47.34742" lon="-3.15488">
        <ele>7.35</ele>
        <time>2016-08-25T08:27:39Z</time>
      </trkpt>
      <trkpt lat="47.34726" lon="-3.15486">
        <ele>6.87</ele>
        <time>2016-08-25T08:27:55Z</time>
      </trkpt>
      <trkpt lat="47.34715" lon="-3.15481">
        <ele>6.87</ele>
        <time>2016-08-25T08:28:11Z</time>
      </trkpt>
      <trkpt lat="47.34715" lon="-3.15485">
        <ele>6.87</ele>
        <time>2016-08-25T08:28:15Z</time>
      </trkpt>
      <trkpt lat="47.34711" lon="-3.15486">
        <ele>7.35</ele>
        <time>2016-08-25T08:28:27Z</time>
      </trkpt>
      <trkpt lat="47.34709" lon="-3.15489">
        <ele>7.83</ele>
        <time>2016-08-25T08:28:32Z</time>
      </trkpt>
      <trkpt lat="47.34711" lon="-3.15493">
        <ele>7.83</ele>
        <time>2016-08-25T08:28:35Z</time>
      </trkpt>
      <trkpt lat="47.34713" lon="-3.15503">
        <ele>7.35</ele>
        <time>2016-08-25T08:28:42Z</time>
      </trkpt>
      <trkpt lat="47.34712" lon="-3.15508">
        <ele>7.83</ele>
        <time>2016-08-25T08:28:48Z</time>
      </trkpt>
      <trkpt lat="47.34713" lon="-3.15526">
        <ele>7.35</ele>
        <time>2016-08-25T08:28:59Z</time>
      </trkpt>
      <trkpt lat="47.34714" lon="-3.15538">
        <ele>7.35</ele>
        <time>2016-08-25T08:29:06Z</time>
      </trkpt>
      <trkpt lat="47.34717" lon="-3.15551">
        <ele>5.42</ele>
        <time>2016-08-25T08:29:21Z</time>
      </trkpt>
      <trkpt lat="47.34717" lon="-3.15553">
        <ele>5.42</ele>
        <time>2016-08-25T08:29:25Z</time>
      </trkpt>
      <trkpt lat="47.34718" lon="-3.1557">
        <ele>6.39</ele>
        <time>2016-08-25T08:29:38Z</time>
      </trkpt>
      <trkpt lat="47.34722" lon="-3.15598">
        <ele>4.94</ele>
        <time>2016-08-25T08:29:55Z</time>
      </trkpt>
      <trkpt lat="47.34727" lon="-3.15622">
        <ele>4.94</ele>
        <time>2016-08-25T08:30:10Z</time>
      </trkpt>
      <trkpt lat="47.3473" lon="-3.15636">
        <ele>5.42</ele>
        <time>2016-08-25T08:30:23Z</time>
      </trkpt>
      <trkpt lat="47.34732" lon="-3.15638">
        <ele>5.42</ele>
        <time>2016-08-25T08:30:32Z</time>
      </trkpt>
      <trkpt lat="47.34741" lon="-3.15657">
        <ele>4.94</ele>
        <time>2016-08-25T08:30:48Z</time>
      </trkpt>
      <trkpt lat="47.34742" lon="-3.15659">
        <ele>4.46</ele>
        <time>2016-08-25T08:30:50Z</time>
      </trkpt>
      <trkpt lat="47.34748" lon="-3.15671">
        <ele>4.94</ele>
        <time>2016-08-25T08:31:06Z</time>
      </trkpt>
      <trkpt lat="47.34748" lon="-3.15671">
        <ele>4.94</ele>
        <time>2016-08-25T08:31:20Z</time>
      </trkpt>
      <trkpt lat="47.34748" lon="-3.15671">
        <ele>5.42</ele>
        <time>2016-08-25T08:31:43Z</time>
      </trkpt>
      <trkpt lat="47.34749" lon="-3.15672">
        <ele>4.94</ele>
        <time>2016-08-25T08:32:04Z</time>
      </trkpt>
      <trkpt lat="47.34749" lon="-3.15673">
        <ele>4.94</ele>
        <time>2016-08-25T08:32:24Z</time>
      </trkpt>
      <trkpt lat="47.34751" lon="-3.15673">
        <ele>5.42</ele>
        <time>2016-08-25T08:32:45Z</time>
      </trkpt>
      <trkpt lat="47.3475" lon="-3.15674">
        <ele>5.42</ele>
        <time>2016-08-25T08:33:05Z</time>
      </trkpt>
      <trkpt lat="47.3475" lon="-3.15674">
        <ele>5.42</ele>
        <time>2016-08-25T08:33:18Z</time>
      </trkpt>
      <trkpt lat="47.3475" lon="-3.15674">
        <ele>5.42</ele>
        <time>2016-08-25T08:33:37Z</time>
      </trkpt>
      <trkpt lat="47.34751" lon="-3.15675">
        <ele>4.94</ele>
        <time>2016-08-25T08:33:57Z</time>
      </trkpt>
      <trkpt lat="47.34752" lon="-3.15678">
        <ele>4.94</ele>
        <time>2016-08-25T08:34:16Z</time>
      </trkpt>
      <trkpt lat="47.34762" lon="-3.15689">
        <ele>5.42</ele>
        <time>2016-08-25T08:34:29Z</time>
      </trkpt>
      <trkpt lat="47.34777" lon="-3.15697">
        <ele>6.39</ele>
        <time>2016-08-25T08:34:44Z</time>
      </trkpt>
      <trkpt lat="47.34788" lon="-3.15708">
        <ele>7.83</ele>
        <time>2016-08-25T08:34:59Z</time>
      </trkpt>
      <trkpt lat="47.34789" lon="-3.15709">
        <ele>7.83</ele>
        <time>2016-08-25T08:35:00Z</time>
      </trkpt>
      <trkpt lat="47.34792" lon="-3.1572">
        <ele>7.35</ele>
        <time>2016-08-25T08:35:08Z</time>
      </trkpt>
      <trkpt lat="47.34806" lon="-3.15717">
        <ele>6.87</ele>
        <time>2016-08-25T08:35:20Z</time>
      </trkpt>
      <trkpt lat="47.34819" lon="-3.15719">
        <ele>8.31</ele>
        <time>2016-08-25T08:35:37Z</time>
      </trkpt>
      <trkpt lat="47.34819" lon="-3.15719">
        <ele>8.79</ele>
        <time>2016-08-25T08:35:41Z</time>
      </trkpt>
      <trkpt lat="47.34825" lon="-3.15726">
        <ele>8.79</ele>
        <time>2016-08-25T08:35:48Z</time>
      </trkpt>
      <trkpt lat="47.34832" lon="-3.15708">
        <ele>10.23</ele>
        <time>2016-08-25T08:35:56Z</time>
      </trkpt>
      <trkpt lat="47.34846" lon="-3.15695">
        <ele>14.56</ele>
        <time>2016-08-25T08:36:07Z</time>
      </trkpt>
      <trkpt lat="47.34853" lon="-3.15688">
        <ele>16.48</ele>
        <time>2016-08-25T08:36:15Z</time>
      </trkpt>
      <trkpt lat="47.34851" lon="-3.15665">
        <ele>16.48</ele>
        <time>2016-08-25T08:36:31Z</time>
      </trkpt>
      <trkpt lat="47.34846" lon="-3.15652">
        <ele>16.48</ele>
        <time>2016-08-25T08:36:40Z</time>
      </trkpt>
      <trkpt lat="47.3484" lon="-3.15628">
        <ele>16.48</ele>
        <time>2016-08-25T08:36:58Z</time>
      </trkpt>
      <trkpt lat="47.34857" lon="-3.15612">
        <ele>16.96</ele>
        <time>2016-08-25T08:37:14Z</time>
      </trkpt>
      <trkpt lat="47.34877" lon="-3.15597">
        <ele>18.88</ele>
        <time>2016-08-25T08:37:31Z</time>
      </trkpt>
      <trkpt lat="47.34891" lon="-3.15576">
        <ele>25.13</ele>
        <time>2016-08-25T08:37:50Z</time>
      </trkpt>
      <trkpt lat="47.34912" lon="-3.15562">
        <ele>31.38</ele>
        <time>2016-08-25T08:38:10Z</time>
      </trkpt>
      <trkpt lat="47.34929" lon="-3.15564">
        <ele>38.11</ele>
        <time>2016-08-25T08:38:26Z</time>
      </trkpt>
      <trkpt lat="47.34946" lon="-3.1558">
        <ele>42.44</ele>
        <time>2016-08-25T08:38:44Z</time>
      </trkpt>
      <trkpt lat="47.34966" lon="-3.15594">
        <ele>43.88</ele>
        <time>2016-08-25T08:39:02Z</time>
      </trkpt>
      <trkpt lat="47.34968" lon="-3.15591">
        <ele>43.88</ele>
        <time>2016-08-25T08:39:05Z</time>
      </trkpt>
      <trkpt lat="47.34969" lon="-3.15588">
        <ele>43.88</ele>
        <time>2016-08-25T08:39:07Z</time>
      </trkpt>
      <trkpt lat="47.34977" lon="-3.15554">
        <ele>40.51</ele>
        <time>2016-08-25T08:39:27Z</time>
      </trkpt>
      <trkpt lat="47.3498" lon="-3.15526">
        <ele>41.95</ele>
        <time>2016-08-25T08:39:43Z</time>
      </trkpt>
      <trkpt lat="47.34981" lon="-3.15521">
        <ele>41.95</ele>
        <time>2016-08-25T08:39:46Z</time>
      </trkpt>
      <trkpt lat="47.34992" lon="-3.15496">
        <ele>44.84</ele>
        <time>2016-08-25T08:40:04Z</time>
      </trkpt>
      <trkpt lat="47.34997" lon="-3.1548">
        <ele>39.07</ele>
        <time>2016-08-25T08:40:17Z</time>
      </trkpt>
      <trkpt lat="47.34995" lon="-3.15474">
        <ele>38.11</ele>
        <time>2016-08-25T08:40:21Z</time>
      </trkpt>
      <trkpt lat="47.34983" lon="-3.15462">
        <ele>33.78</ele>
        <time>2016-08-25T08:40:36Z</time>
      </trkpt>
      <trkpt lat="47.34967" lon="-3.15456">
        <ele>33.78</ele>
        <time>2016-08-25T08:40:55Z</time>
      </trkpt>
      <trkpt lat="47.3498" lon="-3.15464">
        <ele>21.77</ele>
        <time>2016-08-25T08:43:32Z</time>
      </trkpt>
      <trkpt lat="47.34993" lon="-3.15471">
        <ele>35.71</ele>
        <time>2016-08-25T08:43:43Z</time>
      </trkpt>
      <trkpt lat="47.34998" lon="-3.15477">
        <ele>40.51</ele>
        <time>2016-08-25T08:43:55Z</time>
      </trkpt>
      <trkpt lat="47.35017" lon="-3.15491">
        <ele>41.47</ele>
        <time>2016-08-25T08:44:11Z</time>
      </trkpt>
      <trkpt lat="47.3504" lon="-3.15489">
        <ele>40.51</ele>
        <time>2016-08-25T08:44:28Z</time>
      </trkpt>
      <trkpt lat="47.35059" lon="-3.15483">
        <ele>39.07</ele>
        <time>2016-08-25T08:44:45Z</time>
      </trkpt>
      <trkpt lat="47.35076" lon="-3.15472">
        <ele>36.67</ele>
        <time>2016-08-25T08:45:01Z</time>
      </trkpt>
      <trkpt lat="47.35084" lon="-3.15465">
        <ele>37.63</ele>
        <time>2016-08-25T08:45:11Z</time>
      </trkpt>
      <trkpt lat="47.35092" lon="-3.15464">
        <ele>38.11</ele>
        <time>2016-08-25T08:45:18Z</time>
      </trkpt>
      <trkpt lat="47.35099" lon="-3.15468">
        <ele>39.07</ele>
        <time>2016-08-25T08:45:25Z</time>
      </trkpt>
      <trkpt lat="47.35117" lon="-3.15477">
        <ele>40.99</ele>
        <time>2016-08-25T08:45:42Z</time>
      </trkpt>
      <trkpt lat="47.35122" lon="-3.15473">
        <ele>40.51</ele>
        <time>2016-08-25T08:45:55Z</time>
      </trkpt>
      <trkpt lat="47.35122" lon="-3.1547">
        <ele>39.55</ele>
        <time>2016-08-25T08:46:18Z</time>
      </trkpt>
      <trkpt lat="47.35123" lon="-3.1547">
        <ele>38.59</ele>
        <time>2016-08-25T08:46:40Z</time>
      </trkpt>
      <trkpt lat="47.35123" lon="-3.15471">
        <ele>37.63</ele>
        <time>2016-08-25T08:46:58Z</time>
      </trkpt>
      <trkpt lat="47.35124" lon="-3.15471">
        <ele>37.63</ele>
        <time>2016-08-25T08:47:00Z</time>
      </trkpt>
      <trkpt lat="47.35116" lon="-3.15474">
        <ele>37.15</ele>
        <time>2016-08-25T08:47:08Z</time>
      </trkpt>
      <trkpt lat="47.35115" lon="-3.15473">
        <ele>37.15</ele>
        <time>2016-08-25T08:47:09Z</time>
      </trkpt>
      <trkpt lat="47.35101" lon="-3.15464">
        <ele>37.63</ele>
        <time>2016-08-25T08:47:24Z</time>
      </trkpt>
      <trkpt lat="47.35094" lon="-3.15462">
        <ele>37.63</ele>
        <time>2016-08-25T08:47:30Z</time>
      </trkpt>
      <trkpt lat="47.3509" lon="-3.15459">
        <ele>37.63</ele>
        <time>2016-08-25T08:47:41Z</time>
      </trkpt>
      <trkpt lat="47.35091" lon="-3.15459">
        <ele>37.15</ele>
        <time>2016-08-25T08:47:55Z</time>
      </trkpt>
      <trkpt lat="47.35089" lon="-3.15459">
        <ele>36.67</ele>
        <time>2016-08-25T08:48:05Z</time>
      </trkpt>
      <trkpt lat="47.35088" lon="-3.15458">
        <ele>34.74</ele>
        <time>2016-08-25T08:48:39Z</time>
      </trkpt>
      <trkpt lat="47.35087" lon="-3.15458">
        <ele>34.26</ele>
        <time>2016-08-25T08:49:11Z</time>
      </trkpt>
      <trkpt lat="47.35087" lon="-3.15457">
        <ele>33.78</ele>
        <time>2016-08-25T08:49:39Z</time>
      </trkpt>
      <trkpt lat="47.35084" lon="-3.1546">
        <ele>33.78</ele>
        <time>2016-08-25T08:50:00Z</time>
      </trkpt>
      <trkpt lat="47.35077" lon="-3.15472">
        <ele>33.78</ele>
        <time>2016-08-25T08:50:14Z</time>
      </trkpt>
      <trkpt lat="47.35068" lon="-3.1548">
        <ele>34.74</ele>
        <time>2016-08-25T08:50:28Z</time>
      </trkpt>
      <trkpt lat="47.35051" lon="-3.15483">
        <ele>38.59</ele>
        <time>2016-08-25T08:50:44Z</time>
      </trkpt>
      <trkpt lat="47.35038" lon="-3.15487">
        <ele>38.59</ele>
        <time>2016-08-25T08:50:58Z</time>
      </trkpt>
      <trkpt lat="47.35024" lon="-3.15488">
        <ele>38.59</ele>
        <time>2016-08-25T08:51:12Z</time>
      </trkpt>
      <trkpt lat="47.35013" lon="-3.15485">
        <ele>39.55</ele>
        <time>2016-08-25T08:51:25Z</time>
      </trkpt>
      <trkpt lat="47.35005" lon="-3.15477">
        <ele>37.15</ele>
        <time>2016-08-25T08:51:37Z</time>
      </trkpt>
      <trkpt lat="47.34999" lon="-3.15484">
        <ele>36.19</ele>
        <time>2016-08-25T08:51:50Z</time>
      </trkpt>
      <trkpt lat="47.34994" lon="-3.15501">
        <ele>35.23</ele>
        <time>2016-08-25T08:51:59Z</time>
      </trkpt>
      <trkpt lat="47.34988" lon="-3.15522">
        <ele>32.34</ele>
        <time>2016-08-25T08:52:12Z</time>
      </trkpt>
      <trkpt lat="47.34988" lon="-3.15524">
        <ele>32.34</ele>
        <time>2016-08-25T08:52:13Z</time>
      </trkpt>
      <trkpt lat="47.34987" lon="-3.15532">
        <ele>31.86</ele>
        <time>2016-08-25T08:52:17Z</time>
      </trkpt>
      <trkpt lat="47.34986" lon="-3.15542">
        <ele>31.86</ele>
        <time>2016-08-25T08:52:23Z</time>
      </trkpt>
      <trkpt lat="47.34981" lon="-3.15554">
        <ele>30.42</ele>
        <time>2016-08-25T08:52:31Z</time>
      </trkpt>
      <trkpt lat="47.34979" lon="-3.15565">
        <ele>28.98</ele>
        <time>2016-08-25T08:52:38Z</time>
      </trkpt>
      <trkpt lat="47.34977" lon="-3.15572">
        <ele>28.02</ele>
        <time>2016-08-25T08:52:42Z</time>
      </trkpt>
      <trkpt lat="47.34972" lon="-3.15593">
        <ele>26.57</ele>
        <time>2016-08-25T08:52:57Z</time>
      </trkpt>
      <trkpt lat="47.34971" lon="-3.15596">
        <ele>27.05</ele>
        <time>2016-08-25T08:52:59Z</time>
      </trkpt>
      <trkpt lat="47.34953" lon="-3.15582">
        <ele>34.74</ele>
        <time>2016-08-25T08:53:17Z</time>
      </trkpt>
      <trkpt lat="47.34939" lon="-3.15571">
        <ele>39.55</ele>
        <time>2016-08-25T08:53:31Z</time>
      </trkpt>
      <trkpt lat="47.34918" lon="-3.1556">
        <ele>40.03</ele>
        <time>2016-08-25T08:53:48Z</time>
      </trkpt>
      <trkpt lat="47.34916" lon="-3.15561">
        <ele>40.99</ele>
        <time>2016-08-25T08:53:51Z</time>
      </trkpt>
      <trkpt lat="47.34915" lon="-3.15565">
        <ele>40.99</ele>
        <time>2016-08-25T08:53:54Z</time>
      </trkpt>
      <trkpt lat="47.34902" lon="-3.15582">
        <ele>42.92</ele>
        <time>2016-08-25T08:54:09Z</time>
      </trkpt>
      <trkpt lat="47.34874" lon="-3.15591">
        <ele>46.76</ele>
        <time>2016-08-25T08:54:26Z</time>
      </trkpt>
      <trkpt lat="47.34853" lon="-3.15603">
        <ele>53.49</ele>
        <time>2016-08-25T08:54:42Z</time>
      </trkpt>
      <trkpt lat="47.34831" lon="-3.15614">
        <ele>57.34</ele>
        <time>2016-08-25T08:54:57Z</time>
      </trkpt>
      <trkpt lat="47.3483" lon="-3.15621">
        <ele>56.86</ele>
        <time>2016-08-25T08:55:08Z</time>
      </trkpt>
      <trkpt lat="47.34849" lon="-3.15652">
        <ele>39.07</ele>
        <time>2016-08-25T08:55:18Z</time>
      </trkpt>
      <trkpt lat="47.34849" lon="-3.15653">
        <ele>27.53</ele>
        <time>2016-08-25T08:55:34Z</time>
      </trkpt>
      <trkpt lat="47.3485" lon="-3.15654">
        <ele>27.05</ele>
        <time>2016-08-25T08:55:38Z</time>
      </trkpt>
      <trkpt lat="47.34847" lon="-3.15661">
        <ele>28.98</ele>
        <time>2016-08-25T08:55:47Z</time>
      </trkpt>
      <trkpt lat="47.34849" lon="-3.15673">
        <ele>36.19</ele>
        <time>2016-08-25T08:55:57Z</time>
      </trkpt>
      <trkpt lat="47.34848" lon="-3.15683">
        <ele>35.71</ele>
        <time>2016-08-25T08:56:06Z</time>
      </trkpt>
      <trkpt lat="47.34839" lon="-3.15692">
        <ele>33.78</ele>
        <time>2016-08-25T08:56:17Z</time>
      </trkpt>
      <trkpt lat="47.34837" lon="-3.15697">
        <ele>31.38</ele>
        <time>2016-08-25T08:56:28Z</time>
      </trkpt>
      <trkpt lat="47.34832" lon="-3.15705">
        <ele>28.98</ele>
        <time>2016-08-25T08:56:35Z</time>
      </trkpt>
      <trkpt lat="47.34824" lon="-3.1572">
        <ele>21.29</ele>
        <time>2016-08-25T08:56:46Z</time>
      </trkpt>
      <trkpt lat="47.34812" lon="-3.15712">
        <ele>16.96</ele>
        <time>2016-08-25T08:57:02Z</time>
      </trkpt>
      <trkpt lat="47.3481" lon="-3.15711">
        <ele>16.48</ele>
        <time>2016-08-25T08:57:14Z</time>
      </trkpt>
      <trkpt lat="47.34815" lon="-3.15715">
        <ele>19.36</ele>
        <time>2016-08-25T08:57:28Z</time>
      </trkpt>
      <trkpt lat="47.34814" lon="-3.15715">
        <ele>19.36</ele>
        <time>2016-08-25T08:57:29Z</time>
      </trkpt>
      <trkpt lat="47.3481" lon="-3.15713">
        <ele>17.44</ele>
        <time>2016-08-25T08:57:42Z</time>
      </trkpt>
      <trkpt lat="47.3481" lon="-3.15712">
        <ele>15.52</ele>
        <time>2016-08-25T08:57:53Z</time>
      </trkpt>
      <trkpt lat="47.3481" lon="-3.15713">
        <ele>14.56</ele>
        <time>2016-08-25T08:58:08Z</time>
      </trkpt>
      <trkpt lat="47.34809" lon="-3.15712">
        <ele>13.6</ele>
        <time>2016-08-25T08:58:31Z</time>
      </trkpt>
      <trkpt lat="47.34809" lon="-3.15713">
        <ele>12.15</ele>
        <time>2016-08-25T08:58:57Z</time>
      </trkpt>
      <trkpt lat="47.34809" lon="-3.15713">
        <ele>11.67</ele>
        <time>2016-08-25T08:59:17Z</time>
      </trkpt>
      <trkpt lat="47.3481" lon="-3.15714">
        <ele>11.67</ele>
        <time>2016-08-25T08:59:38Z</time>
      </trkpt>
      <trkpt lat="47.34809" lon="-3.15714">
        <ele>11.19</ele>
        <time>2016-08-25T08:59:54Z</time>
      </trkpt>
      <trkpt lat="47.34809" lon="-3.15719">
        <ele>10.71</ele>
        <time>2016-08-25T09:00:11Z</time>
      </trkpt>
      <trkpt lat="47.34809" lon="-3.15721">
        <ele>10.23</ele>
        <time>2016-08-25T09:00:38Z</time>
      </trkpt>
      <trkpt lat="47.3481" lon="-3.15718">
        <ele>9.27</ele>
        <time>2016-08-25T09:00:53Z</time>
      </trkpt>
      <trkpt lat="47.34809" lon="-3.15716">
        <ele>8.31</ele>
        <time>2016-08-25T09:01:21Z</time>
      </trkpt>
      <trkpt lat="47.3481" lon="-3.15716">
        <ele>8.31</ele>
        <time>2016-08-25T09:01:48Z</time>
      </trkpt>
      <trkpt lat="47.3481" lon="-3.15716">
        <ele>8.31</ele>
        <time>2016-08-25T09:02:10Z</time>
      </trkpt>
      <trkpt lat="47.34805" lon="-3.15718">
        <ele>7.83</ele>
        <time>2016-08-25T09:02:22Z</time>
      </trkpt>
      <trkpt lat="47.34799" lon="-3.15719">
        <ele>8.31</ele>
        <time>2016-08-25T09:02:36Z</time>
      </trkpt>
      <trkpt lat="47.34798" lon="-3.15719">
        <ele>8.79</ele>
        <time>2016-08-25T09:02:50Z</time>
      </trkpt>
      <trkpt lat="47.34798" lon="-3.15719">
        <ele>8.79</ele>
        <time>2016-08-25T09:02:51Z</time>
      </trkpt>
      <trkpt lat="47.34757" lon="-3.14537">
        <ele>6.39</ele>
        <time>2016-08-25T09:55:17Z</time>
      </trkpt>
      <trkpt lat="47.34765" lon="-3.14506">
        <ele>1.1</ele>
        <time>2016-08-25T09:55:31Z</time>
      </trkpt>
      <trkpt lat="47.34783" lon="-3.14452">
        <ele>2.06</ele>
        <time>2016-08-25T09:55:55Z</time>
      </trkpt>
      <trkpt lat="47.34794" lon="-3.14419">
        <ele>2.54</ele>
        <time>2016-08-25T09:56:10Z</time>
      </trkpt>
      <trkpt lat="47.34803" lon="-3.14385">
        <ele>2.54</ele>
        <time>2016-08-25T09:56:25Z</time>
      </trkpt>
      <trkpt lat="47.34823" lon="-3.14346">
        <ele>3.02</ele>
        <time>2016-08-25T09:56:45Z</time>
      </trkpt>
      <trkpt lat="47.34846" lon="-3.14315">
        <ele>3.02</ele>
        <time>2016-08-25T09:57:03Z</time>
      </trkpt>
      <trkpt lat="47.34854" lon="-3.14302">
        <ele>3.02</ele>
        <time>2016-08-25T09:57:10Z</time>
      </trkpt>
      <trkpt lat="47.34855" lon="-3.14298">
        <ele>2.54</ele>
        <time>2016-08-25T09:57:12Z</time>
      </trkpt>
      <trkpt lat="47.34861" lon="-3.14278">
        <ele>1.58</ele>
        <time>2016-08-25T09:57:21Z</time>
      </trkpt>
      <trkpt lat="47.34872" lon="-3.14242">
        <ele>1.58</ele>
        <time>2016-08-25T09:57:37Z</time>
      </trkpt>
      <trkpt lat="47.34883" lon="-3.14204">
        <ele>1.58</ele>
        <time>2016-08-25T09:57:54Z</time>
      </trkpt>
      <trkpt lat="47.34892" lon="-3.1417">
        <ele>2.06</ele>
        <time>2016-08-25T09:58:09Z</time>
      </trkpt>
      <trkpt lat="47.349" lon="-3.14136">
        <ele>1.58</ele>
        <time>2016-08-25T09:58:24Z</time>
      </trkpt>
      <trkpt lat="47.34916" lon="-3.14086">
        <ele>1.58</ele>
        <time>2016-08-25T09:58:46Z</time>
      </trkpt>
      <trkpt lat="47.34927" lon="-3.14038">
        <ele>1.1</ele>
        <time>2016-08-25T09:59:07Z</time>
      </trkpt>
      <trkpt lat="47.3494" lon="-3.13997">
        <ele>1.58</ele>
        <time>2016-08-25T09:59:26Z</time>
      </trkpt>
      <trkpt lat="47.34956" lon="-3.13951">
        <ele>2.54</ele>
        <time>2016-08-25T09:59:48Z</time>
      </trkpt>
      <trkpt lat="47.34968" lon="-3.13907">
        <ele>2.54</ele>
        <time>2016-08-25T10:00:09Z</time>
      </trkpt>
      <trkpt lat="47.34978" lon="-3.13851">
        <ele>1.58</ele>
        <time>2016-08-25T10:00:35Z</time>
      </trkpt>
      <trkpt lat="47.34989" lon="-3.13804">
        <ele>1.58</ele>
        <time>2016-08-25T10:00:57Z</time>
      </trkpt>
      <trkpt lat="47.34999" lon="-3.13759">
        <ele>2.54</ele>
        <time>2016-08-25T10:01:18Z</time>
      </trkpt>
      <trkpt lat="47.35011" lon="-3.13718">
        <ele>2.54</ele>
        <time>2016-08-25T10:01:38Z</time>
      </trkpt>
      <trkpt lat="47.35022" lon="-3.13666">
        <ele>2.54</ele>
        <time>2016-08-25T10:02:02Z</time>
      </trkpt>
      <trkpt lat="47.35033" lon="-3.13617">
        <ele>2.54</ele>
        <time>2016-08-25T10:02:25Z</time>
      </trkpt>
      <trkpt lat="47.35041" lon="-3.13569">
        <ele>3.02</ele>
        <time>2016-08-25T10:02:47Z</time>
      </trkpt>
      <trkpt lat="47.35045" lon="-3.13518">
        <ele>2.54</ele>
        <time>2016-08-25T10:03:11Z</time>
      </trkpt>
      <trkpt lat="47.35047" lon="-3.13466">
        <ele>2.54</ele>
        <time>2016-08-25T10:03:34Z</time>
      </trkpt>
      <trkpt lat="47.3505" lon="-3.13421">
        <ele>2.54</ele>
        <time>2016-08-25T10:03:55Z</time>
      </trkpt>
      <trkpt lat="47.35036" lon="-3.13381">
        <ele>2.06</ele>
        <time>2016-08-25T10:04:15Z</time>
      </trkpt>
      <trkpt lat="47.35003" lon="-3.13354">
        <ele>2.06</ele>
        <time>2016-08-25T10:04:38Z</time>
      </trkpt>
      <trkpt lat="47.34972" lon="-3.13357">
        <ele>2.54</ele>
        <time>2016-08-25T10:04:56Z</time>
      </trkpt>
      <trkpt lat="47.34945" lon="-3.13342">
        <ele>3.02</ele>
        <time>2016-08-25T10:05:15Z</time>
      </trkpt>
      <trkpt lat="47.34945" lon="-3.13289">
        <ele>3.02</ele>
        <time>2016-08-25T10:05:39Z</time>
      </trkpt>
      <trkpt lat="47.34944" lon="-3.13236">
        <ele>2.06</ele>
        <time>2016-08-25T10:06:02Z</time>
      </trkpt>
      <trkpt lat="47.34932" lon="-3.13183">
        <ele>2.06</ele>
        <time>2016-08-25T10:06:27Z</time>
      </trkpt>
      <trkpt lat="47.34928" lon="-3.13139">
        <ele>2.06</ele>
        <time>2016-08-25T10:06:48Z</time>
      </trkpt>
      <trkpt lat="47.34933" lon="-3.131">
        <ele>3.98</ele>
        <time>2016-08-25T10:07:15Z</time>
      </trkpt>
      <trkpt lat="47.34934" lon="-3.1307">
        <ele>2.54</ele>
        <time>2016-08-25T10:07:41Z</time>
      </trkpt>
      <trkpt lat="47.3494" lon="-3.13042">
        <ele>2.54</ele>
        <time>2016-08-25T10:08:06Z</time>
      </trkpt>
      <trkpt lat="47.34941" lon="-3.13013">
        <ele>2.54</ele>
        <time>2016-08-25T10:08:32Z</time>
      </trkpt>
      <trkpt lat="47.34948" lon="-3.12985">
        <ele>2.06</ele>
        <time>2016-08-25T10:08:56Z</time>
      </trkpt>
      <trkpt lat="47.34959" lon="-3.12958">
        <ele>2.54</ele>
        <time>2016-08-25T10:09:19Z</time>
      </trkpt>
      <trkpt lat="47.34981" lon="-3.12919">
        <ele>3.02</ele>
        <time>2016-08-25T10:09:44Z</time>
      </trkpt>
      <trkpt lat="47.34996" lon="-3.12868">
        <ele>2.54</ele>
        <time>2016-08-25T10:10:11Z</time>
      </trkpt>
      <trkpt lat="47.35016" lon="-3.12822">
        <ele>2.54</ele>
        <time>2016-08-25T10:10:37Z</time>
      </trkpt>
      <trkpt lat="47.35039" lon="-3.12766">
        <ele>1.58</ele>
        <time>2016-08-25T10:11:05Z</time>
      </trkpt>
      <trkpt lat="47.35054" lon="-3.12707">
        <ele>2.06</ele>
        <time>2016-08-25T10:11:29Z</time>
      </trkpt>
      <trkpt lat="47.35079" lon="-3.12636">
        <ele>2.06</ele>
        <time>2016-08-25T10:11:57Z</time>
      </trkpt>
      <trkpt lat="47.35088" lon="-3.12597">
        <ele>3.02</ele>
        <time>2016-08-25T10:12:12Z</time>
      </trkpt>
      <trkpt lat="47.35095" lon="-3.1257">
        <ele>2.54</ele>
        <time>2016-08-25T10:12:23Z</time>
      </trkpt>
      <trkpt lat="47.35106" lon="-3.12521">
        <ele>2.54</ele>
        <time>2016-08-25T10:12:43Z</time>
      </trkpt>
      <trkpt lat="47.35106" lon="-3.12486">
        <ele>2.54</ele>
        <time>2016-08-25T10:13:01Z</time>
      </trkpt>
      <trkpt lat="47.35115" lon="-3.12444">
        <ele>3.02</ele>
        <time>2016-08-25T10:13:22Z</time>
      </trkpt>
      <trkpt lat="47.35129" lon="-3.12401">
        <ele>3.02</ele>
        <time>2016-08-25T10:13:40Z</time>
      </trkpt>
      <trkpt lat="47.35142" lon="-3.12356">
        <ele>2.54</ele>
        <time>2016-08-25T10:13:59Z</time>
      </trkpt>
      <trkpt lat="47.3515" lon="-3.12316">
        <ele>2.54</ele>
        <time>2016-08-25T10:14:16Z</time>
      </trkpt>
      <trkpt lat="47.35161" lon="-3.1227">
        <ele>3.02</ele>
        <time>2016-08-25T10:14:36Z</time>
      </trkpt>
      <trkpt lat="47.35172" lon="-3.12226">
        <ele>2.06</ele>
        <time>2016-08-25T10:14:57Z</time>
      </trkpt>
      <trkpt lat="47.35187" lon="-3.12183">
        <ele>2.54</ele>
        <time>2016-08-25T10:15:19Z</time>
      </trkpt>
      <trkpt lat="47.352" lon="-3.12151">
        <ele>2.54</ele>
        <time>2016-08-25T10:15:36Z</time>
      </trkpt>
      <trkpt lat="47.35209" lon="-3.12129">
        <ele>3.5</ele>
        <time>2016-08-25T10:15:49Z</time>
      </trkpt>
      <trkpt lat="47.35225" lon="-3.12096">
        <ele>3.02</ele>
        <time>2016-08-25T10:16:11Z</time>
      </trkpt>
      <trkpt lat="47.35236" lon="-3.12065">
        <ele>3.02</ele>
        <time>2016-08-25T10:16:31Z</time>
      </trkpt>
      <trkpt lat="47.35248" lon="-3.12028">
        <ele>4.46</ele>
        <time>2016-08-25T10:16:56Z</time>
      </trkpt>
      <trkpt lat="47.35253" lon="-3.12008">
        <ele>4.46</ele>
        <time>2016-08-25T10:17:11Z</time>
      </trkpt>
      <trkpt lat="47.35261" lon="-3.11986">
        <ele>3.98</ele>
        <time>2016-08-25T10:17:29Z</time>
      </trkpt>
      <trkpt lat="47.35273" lon="-3.11964">
        <ele>3.5</ele>
        <time>2016-08-25T10:17:48Z</time>
      </trkpt>
      <trkpt lat="47.35274" lon="-3.11963">
        <ele>3.5</ele>
        <time>2016-08-25T10:17:49Z</time>
      </trkpt>
      <trkpt lat="47.35276" lon="-3.11961">
        <ele>3.02</ele>
        <time>2016-08-25T10:17:51Z</time>
      </trkpt>
      <trkpt lat="47.35283" lon="-3.11945">
        <ele>2.54</ele>
        <time>2016-08-25T10:18:05Z</time>
      </trkpt>
      <trkpt lat="47.35287" lon="-3.11929">
        <ele>2.54</ele>
        <time>2016-08-25T10:18:19Z</time>
      </trkpt>
      <trkpt lat="47.35289" lon="-3.11925">
        <ele>2.06</ele>
        <time>2016-08-25T10:18:23Z</time>
      </trkpt>
      <trkpt lat="47.35295" lon="-3.11913">
        <ele>2.06</ele>
        <time>2016-08-25T10:18:36Z</time>
      </trkpt>
      <trkpt lat="47.35305" lon="-3.11897">
        <ele>2.06</ele>
        <time>2016-08-25T10:18:55Z</time>
      </trkpt>
      <trkpt lat="47.35311" lon="-3.11887">
        <ele>2.06</ele>
        <time>2016-08-25T10:19:09Z</time>
      </trkpt>
      <trkpt lat="47.35318" lon="-3.11882">
        <ele>1.58</ele>
        <time>2016-08-25T10:19:20Z</time>
      </trkpt>
      <trkpt lat="47.3533" lon="-3.11872">
        <ele>1.58</ele>
        <time>2016-08-25T10:19:40Z</time>
      </trkpt>
      <trkpt lat="47.35338" lon="-3.11865">
        <ele>1.58</ele>
        <time>2016-08-25T10:19:53Z</time>
      </trkpt>
      <trkpt lat="47.35342" lon="-3.11859">
        <ele>1.1</ele>
        <time>2016-08-25T10:20:09Z</time>
      </trkpt>
      <trkpt lat="47.35349" lon="-3.11851">
        <ele>1.58</ele>
        <time>2016-08-25T10:20:30Z</time>
      </trkpt>
      <trkpt lat="47.35352" lon="-3.11845">
        <ele>2.54</ele>
        <time>2016-08-25T10:20:44Z</time>
      </trkpt>
      <trkpt lat="47.35354" lon="-3.11841">
        <ele>2.06</ele>
        <time>2016-08-25T10:20:55Z</time>
      </trkpt>
      <trkpt lat="47.35354" lon="-3.11839">
        <ele>2.06</ele>
        <time>2016-08-25T10:21:10Z</time>
      </trkpt>
      <trkpt lat="47.35355" lon="-3.11836">
        <ele>1.58</ele>
        <time>2016-08-25T10:21:22Z</time>
      </trkpt>
      <trkpt lat="47.35355" lon="-3.11834">
        <ele>1.1</ele>
        <time>2016-08-25T10:21:36Z</time>
      </trkpt>
      <trkpt lat="47.35355" lon="-3.11831">
        <ele>1.1</ele>
        <time>2016-08-25T10:21:54Z</time>
      </trkpt>
      <trkpt lat="47.35355" lon="-3.11829">
        <ele>1.58</ele>
        <time>2016-08-25T10:22:07Z</time>
      </trkpt>
      <trkpt lat="47.35355" lon="-3.11825">
        <ele>1.58</ele>
        <time>2016-08-25T10:22:26Z</time>
      </trkpt>
      <trkpt lat="47.35355" lon="-3.11822">
        <ele>1.1</ele>
        <time>2016-08-25T10:22:48Z</time>
      </trkpt>
      <trkpt lat="47.35356" lon="-3.1182">
        <ele>1.1</ele>
        <time>2016-08-25T10:23:06Z</time>
      </trkpt>
      <trkpt lat="47.35357" lon="-3.11818">
        <ele>1.58</ele>
        <time>2016-08-25T10:23:26Z</time>
      </trkpt>
      <trkpt lat="47.35358" lon="-3.11818">
        <ele>1.58</ele>
        <time>2016-08-25T10:23:44Z</time>
      </trkpt>
      <trkpt lat="47.3536" lon="-3.11819">
        <ele>2.06</ele>
        <time>2016-08-25T10:24:06Z</time>
      </trkpt>
      <trkpt lat="47.35362" lon="-3.1182">
        <ele>3.02</ele>
        <time>2016-08-25T10:24:31Z</time>
      </trkpt>
      <trkpt lat="47.35363" lon="-3.11822">
        <ele>3.98</ele>
        <time>2016-08-25T10:24:54Z</time>
      </trkpt>
      <trkpt lat="47.35365" lon="-3.11823">
        <ele>3.98</ele>
        <time>2016-08-25T10:25:17Z</time>
      </trkpt>
      <trkpt lat="47.35366" lon="-3.11824">
        <ele>3.98</ele>
        <time>2016-08-25T10:25:38Z</time>
      </trkpt>
      <trkpt lat="47.35368" lon="-3.11825">
        <ele>4.46</ele>
        <time>2016-08-25T10:25:56Z</time>
      </trkpt>
      <trkpt lat="47.35369" lon="-3.11827">
        <ele>4.46</ele>
        <time>2016-08-25T10:26:17Z</time>
      </trkpt>
      <trkpt lat="47.35371" lon="-3.11829">
        <ele>3.5</ele>
        <time>2016-08-25T10:26:28Z</time>
      </trkpt>
      <trkpt lat="47.35373" lon="-3.11832">
        <ele>3.5</ele>
        <time>2016-08-25T10:26:41Z</time>
      </trkpt>
      <trkpt lat="47.35374" lon="-3.11837">
        <ele>3.02</ele>
        <time>2016-08-25T10:27:05Z</time>
      </trkpt>
      <trkpt lat="47.35375" lon="-3.11841">
        <ele>3.02</ele>
        <time>2016-08-25T10:27:26Z</time>
      </trkpt>
      <trkpt lat="47.35376" lon="-3.11844">
        <ele>3.5</ele>
        <time>2016-08-25T10:27:40Z</time>
      </trkpt>
      <trkpt lat="47.35376" lon="-3.11848">
        <ele>4.46</ele>
        <time>2016-08-25T10:27:57Z</time>
      </trkpt>
      <trkpt lat="47.35376" lon="-3.11853">
        <ele>4.46</ele>
        <time>2016-08-25T10:28:11Z</time>
      </trkpt>
      <trkpt lat="47.35377" lon="-3.11862">
        <ele>3.98</ele>
        <time>2016-08-25T10:28:28Z</time>
      </trkpt>
      <trkpt lat="47.35379" lon="-3.11874">
        <ele>4.94</ele>
        <time>2016-08-25T10:28:39Z</time>
      </trkpt>
      <trkpt lat="47.35381" lon="-3.11881">
        <ele>4.46</ele>
        <time>2016-08-25T10:28:47Z</time>
      </trkpt>
      <trkpt lat="47.35383" lon="-3.11889">
        <ele>3.98</ele>
        <time>2016-08-25T10:28:59Z</time>
      </trkpt>
      <trkpt lat="47.35392" lon="-3.11913">
        <ele>3.98</ele>
        <time>2016-08-25T10:29:13Z</time>
      </trkpt>
      <trkpt lat="47.35395" lon="-3.11915">
        <ele>3.02</ele>
        <time>2016-08-25T10:29:15Z</time>
      </trkpt>
      <trkpt lat="47.35413" lon="-3.11895">
        <ele>2.06</ele>
        <time>2016-08-25T10:29:31Z</time>
      </trkpt>
      <trkpt lat="47.35415" lon="-3.11886">
        <ele>2.54</ele>
        <time>2016-08-25T10:29:35Z</time>
      </trkpt>
      <trkpt lat="47.35413" lon="-3.11854">
        <ele>3.5</ele>
        <time>2016-08-25T10:29:48Z</time>
      </trkpt>
      <trkpt lat="47.35409" lon="-3.1182">
        <ele>4.94</ele>
        <time>2016-08-25T10:30:03Z</time>
      </trkpt>
      <trkpt lat="47.35415" lon="-3.11779">
        <ele>7.35</ele>
        <time>2016-08-25T10:30:21Z</time>
      </trkpt>
      <trkpt lat="47.35421" lon="-3.1175">
        <ele>8.31</ele>
        <time>2016-08-25T10:30:33Z</time>
      </trkpt>
      <trkpt lat="47.35428" lon="-3.11708">
        <ele>7.83</ele>
        <time>2016-08-25T10:30:50Z</time>
      </trkpt>
      <trkpt lat="47.35429" lon="-3.11666">
        <ele>8.31</ele>
        <time>2016-08-25T10:31:07Z</time>
      </trkpt>
      <trkpt lat="47.3543" lon="-3.11654">
        <ele>7.83</ele>
        <time>2016-08-25T10:31:12Z</time>
      </trkpt>
      <trkpt lat="47.3544" lon="-3.1162">
        <ele>6.87</ele>
        <time>2016-08-25T10:31:28Z</time>
      </trkpt>
      <trkpt lat="47.35446" lon="-3.11576">
        <ele>4.46</ele>
        <time>2016-08-25T10:31:46Z</time>
      </trkpt>
      <trkpt lat="47.35451" lon="-3.11537">
        <ele>3.5</ele>
        <time>2016-08-25T10:32:02Z</time>
      </trkpt>
      <trkpt lat="47.35461" lon="-3.11492">
        <ele>3.5</ele>
        <time>2016-08-25T10:32:21Z</time>
      </trkpt>
      <trkpt lat="47.3547" lon="-3.11456">
        <ele>3.98</ele>
        <time>2016-08-25T10:32:36Z</time>
      </trkpt>
      <trkpt lat="47.35473" lon="-3.11447">
        <ele>3.5</ele>
        <time>2016-08-25T10:32:40Z</time>
      </trkpt>
      <trkpt lat="47.35489" lon="-3.11397">
        <ele>2.54</ele>
        <time>2016-08-25T10:33:01Z</time>
      </trkpt>
      <trkpt lat="47.35492" lon="-3.11347">
        <ele>3.5</ele>
        <time>2016-08-25T10:33:21Z</time>
      </trkpt>
      <trkpt lat="47.35482" lon="-3.11298">
        <ele>3.98</ele>
        <time>2016-08-25T10:33:41Z</time>
      </trkpt>
      <trkpt lat="47.35481" lon="-3.11256">
        <ele>3.5</ele>
        <time>2016-08-25T10:33:59Z</time>
      </trkpt>
      <trkpt lat="47.35497" lon="-3.11217">
        <ele>3.02</ele>
        <time>2016-08-25T10:34:17Z</time>
      </trkpt>
      <trkpt lat="47.35506" lon="-3.11181">
        <ele>1.58</ele>
        <time>2016-08-25T10:34:31Z</time>
      </trkpt>
      <trkpt lat="47.35512" lon="-3.11152">
        <ele>0.62</ele>
        <time>2016-08-25T10:34:43Z</time>
      </trkpt>
      <trkpt lat="47.35518" lon="-3.11105">
        <ele>-0.34</ele>
        <time>2016-08-25T10:35:02Z</time>
      </trkpt>
      <trkpt lat="47.35517" lon="-3.11062">
        <ele>-0.34</ele>
        <time>2016-08-25T10:35:19Z</time>
      </trkpt>
      <trkpt lat="47.35516" lon="-3.11024">
        <ele>1.1</ele>
        <time>2016-08-25T10:35:34Z</time>
      </trkpt>
      <trkpt lat="47.35513" lon="-3.10986">
        <ele>0.62</ele>
        <time>2016-08-25T10:35:49Z</time>
      </trkpt>
      <trkpt lat="47.35506" lon="-3.10953">
        <ele>0.62</ele>
        <time>2016-08-25T10:36:03Z</time>
      </trkpt>
      <trkpt lat="47.35511" lon="-3.10895">
        <ele>1.58</ele>
        <time>2016-08-25T10:36:25Z</time>
      </trkpt>
      <trkpt lat="47.35519" lon="-3.10831">
        <ele>2.54</ele>
        <time>2016-08-25T10:36:50Z</time>
      </trkpt>
      <trkpt lat="47.35525" lon="-3.10774">
        <ele>2.54</ele>
        <time>2016-08-25T10:37:12Z</time>
      </trkpt>
      <trkpt lat="47.3553" lon="-3.10718">
        <ele>2.54</ele>
        <time>2016-08-25T10:37:34Z</time>
      </trkpt>
      <trkpt lat="47.35535" lon="-3.1066">
        <ele>2.54</ele>
        <time>2016-08-25T10:37:56Z</time>
      </trkpt>
      <trkpt lat="47.35538" lon="-3.10589">
        <ele>2.54</ele>
        <time>2016-08-25T10:38:23Z</time>
      </trkpt>
      <trkpt lat="47.35537" lon="-3.10523">
        <ele>3.02</ele>
        <time>2016-08-25T10:38:48Z</time>
      </trkpt>
      <trkpt lat="47.35533" lon="-3.10464">
        <ele>3.5</ele>
        <time>2016-08-25T10:39:11Z</time>
      </trkpt>
      <trkpt lat="47.35529" lon="-3.10414">
        <ele>2.54</ele>
        <time>2016-08-25T10:39:31Z</time>
      </trkpt>
      <trkpt lat="47.35523" lon="-3.10352">
        <ele>2.54</ele>
        <time>2016-08-25T10:39:56Z</time>
      </trkpt>
      <trkpt lat="47.35531" lon="-3.10292">
        <ele>3.02</ele>
        <time>2016-08-25T10:40:19Z</time>
      </trkpt>
      <trkpt lat="47.35537" lon="-3.10249">
        <ele>3.02</ele>
        <time>2016-08-25T10:40:37Z</time>
      </trkpt>
      <trkpt lat="47.35548" lon="-3.10218">
        <ele>3.02</ele>
        <time>2016-08-25T10:40:59Z</time>
      </trkpt>
      <trkpt lat="47.35561" lon="-3.10187">
        <ele>2.54</ele>
        <time>2016-08-25T10:41:26Z</time>
      </trkpt>
      <trkpt lat="47.35576" lon="-3.10134">
        <ele>1.58</ele>
        <time>2016-08-25T10:41:49Z</time>
      </trkpt>
      <trkpt lat="47.35591" lon="-3.10067">
        <ele>1.58</ele>
        <time>2016-08-25T10:42:15Z</time>
      </trkpt>
      <trkpt lat="47.35606" lon="-3.1001">
        <ele>0.62</ele>
        <time>2016-08-25T10:42:37Z</time>
      </trkpt>
      <trkpt lat="47.35622" lon="-3.09959">
        <ele>0.62</ele>
        <time>2016-08-25T10:42:57Z</time>
      </trkpt>
      <trkpt lat="47.35633" lon="-3.09907">
        <ele>1.1</ele>
        <time>2016-08-25T10:43:17Z</time>
      </trkpt>
      <trkpt lat="47.35652" lon="-3.09845">
        <ele>1.58</ele>
        <time>2016-08-25T10:43:41Z</time>
      </trkpt>
      <trkpt lat="47.35669" lon="-3.09789">
        <ele>1.58</ele>
        <time>2016-08-25T10:44:03Z</time>
      </trkpt>
      <trkpt lat="47.35684" lon="-3.09731">
        <ele>2.06</ele>
        <time>2016-08-25T10:44:25Z</time>
      </trkpt>
      <trkpt lat="47.35699" lon="-3.09669">
        <ele>2.06</ele>
        <time>2016-08-25T10:44:48Z</time>
      </trkpt>
      <trkpt lat="47.35718" lon="-3.09607">
        <ele>2.06</ele>
        <time>2016-08-25T10:45:12Z</time>
      </trkpt>
      <trkpt lat="47.35733" lon="-3.09547">
        <ele>1.1</ele>
        <time>2016-08-25T10:45:35Z</time>
      </trkpt>
      <trkpt lat="47.3575" lon="-3.09489">
        <ele>1.1</ele>
        <time>2016-08-25T10:45:57Z</time>
      </trkpt>
      <trkpt lat="47.35763" lon="-3.09433">
        <ele>1.58</ele>
        <time>2016-08-25T10:46:18Z</time>
      </trkpt>
      <trkpt lat="47.35781" lon="-3.09374">
        <ele>2.06</ele>
        <time>2016-08-25T10:46:41Z</time>
      </trkpt>
      <trkpt lat="47.35795" lon="-3.09316">
        <ele>1.1</ele>
        <time>2016-08-25T10:47:03Z</time>
      </trkpt>
      <trkpt lat="47.35805" lon="-3.09282">
        <ele>2.06</ele>
        <time>2016-08-25T10:47:23Z</time>
      </trkpt>
      <trkpt lat="47.35812" lon="-3.09255">
        <ele>2.06</ele>
        <time>2016-08-25T10:47:47Z</time>
      </trkpt>
      <trkpt lat="47.35827" lon="-3.09232">
        <ele>2.54</ele>
        <time>2016-08-25T10:48:14Z</time>
      </trkpt>
      <trkpt lat="47.35843" lon="-3.09199">
        <ele>3.02</ele>
        <time>2016-08-25T10:48:40Z</time>
      </trkpt>
      <trkpt lat="47.35865" lon="-3.09162">
        <ele>2.54</ele>
        <time>2016-08-25T10:49:05Z</time>
      </trkpt>
      <trkpt lat="47.3588" lon="-3.09126">
        <ele>3.5</ele>
        <time>2016-08-25T10:49:28Z</time>
      </trkpt>
      <trkpt lat="47.35897" lon="-3.09088">
        <ele>3.5</ele>
        <time>2016-08-25T10:49:54Z</time>
      </trkpt>
      <trkpt lat="47.35911" lon="-3.09051">
        <ele>2.54</ele>
        <time>2016-08-25T10:50:20Z</time>
      </trkpt>
      <trkpt lat="47.3593" lon="-3.09015">
        <ele>3.02</ele>
        <time>2016-08-25T10:50:44Z</time>
      </trkpt>
      <trkpt lat="47.35951" lon="-3.08973">
        <ele>2.54</ele>
        <time>2016-08-25T10:51:10Z</time>
      </trkpt>
      <trkpt lat="47.35968" lon="-3.0893">
        <ele>3.02</ele>
        <time>2016-08-25T10:51:33Z</time>
      </trkpt>
      <trkpt lat="47.35988" lon="-3.08883">
        <ele>3.02</ele>
        <time>2016-08-25T10:51:57Z</time>
      </trkpt>
      <trkpt lat="47.36004" lon="-3.08842">
        <ele>2.54</ele>
        <time>2016-08-25T10:52:17Z</time>
      </trkpt>
      <trkpt lat="47.36025" lon="-3.0879">
        <ele>2.54</ele>
        <time>2016-08-25T10:52:41Z</time>
      </trkpt>
      <trkpt lat="47.36044" lon="-3.08741">
        <ele>2.54</ele>
        <time>2016-08-25T10:53:04Z</time>
      </trkpt>
      <trkpt lat="47.36063" lon="-3.08692">
        <ele>1.1</ele>
        <time>2016-08-25T10:53:26Z</time>
      </trkpt>
      <trkpt lat="47.36085" lon="-3.08647">
        <ele>0.14</ele>
        <time>2016-08-25T10:53:48Z</time>
      </trkpt>
      <trkpt lat="47.36112" lon="-3.08602">
        <ele>-0.34</ele>
        <time>2016-08-25T10:54:11Z</time>
      </trkpt>
      <trkpt lat="47.36139" lon="-3.08562">
        <ele>0.14</ele>
        <time>2016-08-25T10:54:33Z</time>
      </trkpt>
      <trkpt lat="47.36167" lon="-3.08526">
        <ele>0.62</ele>
        <time>2016-08-25T10:54:56Z</time>
      </trkpt>
      <trkpt lat="47.36186" lon="-3.08485">
        <ele>1.1</ele>
        <time>2016-08-25T10:55:20Z</time>
      </trkpt>
      <trkpt lat="47.36196" lon="-3.08449">
        <ele>1.58</ele>
        <time>2016-08-25T10:55:40Z</time>
      </trkpt>
      <trkpt lat="47.36207" lon="-3.08415">
        <ele>2.06</ele>
        <time>2016-08-25T10:56:01Z</time>
      </trkpt>
      <trkpt lat="47.36224" lon="-3.08375">
        <ele>1.58</ele>
        <time>2016-08-25T10:56:24Z</time>
      </trkpt>
      <trkpt lat="47.36237" lon="-3.08344">
        <ele>1.58</ele>
        <time>2016-08-25T10:56:42Z</time>
      </trkpt>
      <trkpt lat="47.36251" lon="-3.0831">
        <ele>2.06</ele>
        <time>2016-08-25T10:57:02Z</time>
      </trkpt>
      <trkpt lat="47.36268" lon="-3.08272">
        <ele>1.58</ele>
        <time>2016-08-25T10:57:25Z</time>
      </trkpt>
      <trkpt lat="47.36284" lon="-3.0824">
        <ele>1.58</ele>
        <time>2016-08-25T10:57:46Z</time>
      </trkpt>
      <trkpt lat="47.36298" lon="-3.08212">
        <ele>1.58</ele>
        <time>2016-08-25T10:58:05Z</time>
      </trkpt>
      <trkpt lat="47.36318" lon="-3.08177">
        <ele>1.1</ele>
        <time>2016-08-25T10:58:29Z</time>
      </trkpt>
      <trkpt lat="47.3634" lon="-3.08151">
        <ele>0.62</ele>
        <time>2016-08-25T10:58:50Z</time>
      </trkpt>
      <trkpt lat="47.36362" lon="-3.08119">
        <ele>1.1</ele>
        <time>2016-08-25T10:59:13Z</time>
      </trkpt>
      <trkpt lat="47.36387" lon="-3.08084">
        <ele>0.14</ele>
        <time>2016-08-25T10:59:38Z</time>
      </trkpt>
      <trkpt lat="47.36401" lon="-3.08048">
        <ele>-0.34</ele>
        <time>2016-08-25T11:00:00Z</time>
      </trkpt>
      <trkpt lat="47.36412" lon="-3.08009">
        <ele>2.54</ele>
        <time>2016-08-25T11:00:23Z</time>
      </trkpt>
      <trkpt lat="47.36423" lon="-3.07964">
        <ele>3.02</ele>
        <time>2016-08-25T11:00:52Z</time>
      </trkpt>
      <trkpt lat="47.36437" lon="-3.07928">
        <ele>3.5</ele>
        <time>2016-08-25T11:01:17Z</time>
      </trkpt>
      <trkpt lat="47.36451" lon="-3.07891">
        <ele>2.54</ele>
        <time>2016-08-25T11:01:41Z</time>
      </trkpt>
      <trkpt lat="47.36464" lon="-3.07859">
        <ele>2.06</ele>
        <time>2016-08-25T11:02:05Z</time>
      </trkpt>
      <trkpt lat="47.36477" lon="-3.07828">
        <ele>1.1</ele>
        <time>2016-08-25T11:02:31Z</time>
      </trkpt>
      <trkpt lat="47.36489" lon="-3.07801">
        <ele>0.14</ele>
        <time>2016-08-25T11:02:55Z</time>
      </trkpt>
      <trkpt lat="47.36504" lon="-3.07774">
        <ele>1.58</ele>
        <time>2016-08-25T11:03:20Z</time>
      </trkpt>
      <trkpt lat="47.36519" lon="-3.07744">
        <ele>1.58</ele>
        <time>2016-08-25T11:03:45Z</time>
      </trkpt>
      <trkpt lat="47.36533" lon="-3.07719">
        <ele>2.06</ele>
        <time>2016-08-25T11:04:04Z</time>
      </trkpt>
      <trkpt lat="47.36551" lon="-3.07678">
        <ele>1.58</ele>
        <time>2016-08-25T11:04:32Z</time>
      </trkpt>
      <trkpt lat="47.36564" lon="-3.07649">
        <ele>1.58</ele>
        <time>2016-08-25T11:04:51Z</time>
      </trkpt>
      <trkpt lat="47.36578" lon="-3.07617">
        <ele>2.06</ele>
        <time>2016-08-25T11:05:11Z</time>
      </trkpt>
      <trkpt lat="47.36598" lon="-3.07573">
        <ele>3.02</ele>
        <time>2016-08-25T11:05:37Z</time>
      </trkpt>
      <trkpt lat="47.36615" lon="-3.07532">
        <ele>2.06</ele>
        <time>2016-08-25T11:06:02Z</time>
      </trkpt>
      <trkpt lat="47.36632" lon="-3.07491">
        <ele>1.58</ele>
        <time>2016-08-25T11:06:29Z</time>
      </trkpt>
      <trkpt lat="47.36649" lon="-3.07455">
        <ele>1.58</ele>
        <time>2016-08-25T11:06:55Z</time>
      </trkpt>
      <trkpt lat="47.36664" lon="-3.07421">
        <ele>2.06</ele>
        <time>2016-08-25T11:07:20Z</time>
      </trkpt>
      <trkpt lat="47.3668" lon="-3.07388">
        <ele>2.06</ele>
        <time>2016-08-25T11:07:45Z</time>
      </trkpt>
      <trkpt lat="47.36694" lon="-3.07355">
        <ele>1.1</ele>
        <time>2016-08-25T11:08:09Z</time>
      </trkpt>
      <trkpt lat="47.3671" lon="-3.07319">
        <ele>1.1</ele>
        <time>2016-08-25T11:08:39Z</time>
      </trkpt>
      <trkpt lat="47.36725" lon="-3.07286">
        <ele>1.58</ele>
        <time>2016-08-25T11:09:01Z</time>
      </trkpt>
      <trkpt lat="47.36739" lon="-3.07255">
        <ele>1.1</ele>
        <time>2016-08-25T11:09:24Z</time>
      </trkpt>
      <trkpt lat="47.36755" lon="-3.07222">
        <ele>1.58</ele>
        <time>2016-08-25T11:09:48Z</time>
      </trkpt>
      <trkpt lat="47.36771" lon="-3.07188">
        <ele>2.54</ele>
        <time>2016-08-25T11:10:12Z</time>
      </trkpt>
      <trkpt lat="47.36782" lon="-3.07163">
        <ele>2.06</ele>
        <time>2016-08-25T11:10:30Z</time>
      </trkpt>
      <trkpt lat="47.36795" lon="-3.07132">
        <ele>2.06</ele>
        <time>2016-08-25T11:10:51Z</time>
      </trkpt>
      <trkpt lat="47.36812" lon="-3.071">
        <ele>2.54</ele>
        <time>2016-08-25T11:11:14Z</time>
      </trkpt>
      <trkpt lat="47.36835" lon="-3.07055">
        <ele>2.54</ele>
        <time>2016-08-25T11:11:41Z</time>
      </trkpt>
      <trkpt lat="47.36853" lon="-3.07018">
        <ele>2.54</ele>
        <time>2016-08-25T11:12:02Z</time>
      </trkpt>
      <trkpt lat="47.36871" lon="-3.06979">
        <ele>2.54</ele>
        <time>2016-08-25T11:12:24Z</time>
      </trkpt>
      <trkpt lat="47.36892" lon="-3.06934">
        <ele>3.02</ele>
        <time>2016-08-25T11:12:48Z</time>
      </trkpt>
      <trkpt lat="47.36909" lon="-3.06897">
        <ele>2.54</ele>
        <time>2016-08-25T11:13:09Z</time>
      </trkpt>
      <trkpt lat="47.36925" lon="-3.06864">
        <ele>2.54</ele>
        <time>2016-08-25T11:13:28Z</time>
      </trkpt>
      <trkpt lat="47.36939" lon="-3.0683">
        <ele>2.06</ele>
        <time>2016-08-25T11:13:47Z</time>
      </trkpt>
      <trkpt lat="47.36956" lon="-3.06784">
        <ele>2.54</ele>
        <time>2016-08-25T11:14:10Z</time>
      </trkpt>
      <trkpt lat="47.36968" lon="-3.06755">
        <ele>2.06</ele>
        <time>2016-08-25T11:14:25Z</time>
      </trkpt>
      <trkpt lat="47.36982" lon="-3.06718">
        <ele>2.06</ele>
        <time>2016-08-25T11:14:43Z</time>
      </trkpt>
      <trkpt lat="47.37002" lon="-3.06667">
        <ele>2.06</ele>
        <time>2016-08-25T11:15:07Z</time>
      </trkpt>
      <trkpt lat="47.37022" lon="-3.06615">
        <ele>1.58</ele>
        <time>2016-08-25T11:15:32Z</time>
      </trkpt>
      <trkpt lat="47.3704" lon="-3.0657">
        <ele>1.58</ele>
        <time>2016-08-25T11:15:54Z</time>
      </trkpt>
      <trkpt lat="47.37057" lon="-3.0653">
        <ele>1.1</ele>
        <time>2016-08-25T11:16:14Z</time>
      </trkpt>
      <trkpt lat="47.37075" lon="-3.06492">
        <ele>1.58</ele>
        <time>2016-08-25T11:16:34Z</time>
      </trkpt>
      <trkpt lat="47.37092" lon="-3.06453">
        <ele>1.1</ele>
        <time>2016-08-25T11:16:57Z</time>
      </trkpt>
      <trkpt lat="47.37107" lon="-3.06422">
        <ele>1.1</ele>
        <time>2016-08-25T11:17:18Z</time>
      </trkpt>
      <trkpt lat="47.37116" lon="-3.06402">
        <ele>1.1</ele>
        <time>2016-08-25T11:17:33Z</time>
      </trkpt>
      <trkpt lat="47.37128" lon="-3.06378">
        <ele>2.06</ele>
        <time>2016-08-25T11:17:52Z</time>
      </trkpt>
      <trkpt lat="47.37144" lon="-3.06347">
        <ele>2.06</ele>
        <time>2016-08-25T11:18:16Z</time>
      </trkpt>
      <trkpt lat="47.37157" lon="-3.06321">
        <ele>1.1</ele>
        <time>2016-08-25T11:18:35Z</time>
      </trkpt>
      <trkpt lat="47.37169" lon="-3.0629">
        <ele>1.1</ele>
        <time>2016-08-25T11:18:58Z</time>
      </trkpt>
      <trkpt lat="47.37178" lon="-3.06252">
        <ele>1.58</ele>
        <time>2016-08-25T11:19:21Z</time>
      </trkpt>
      <trkpt lat="47.37183" lon="-3.06211">
        <ele>1.58</ele>
        <time>2016-08-25T11:19:45Z</time>
      </trkpt>
      <trkpt lat="47.37187" lon="-3.0617">
        <ele>2.06</ele>
        <time>2016-08-25T11:20:11Z</time>
      </trkpt>
      <trkpt lat="47.37192" lon="-3.06135">
        <ele>2.06</ele>
        <time>2016-08-25T11:20:34Z</time>
      </trkpt>
      <trkpt lat="47.37195" lon="-3.06103">
        <ele>1.58</ele>
        <time>2016-08-25T11:20:57Z</time>
      </trkpt>
      <trkpt lat="47.37197" lon="-3.06075">
        <ele>1.58</ele>
        <time>2016-08-25T11:21:20Z</time>
      </trkpt>
      <trkpt lat="47.37201" lon="-3.06049">
        <ele>1.1</ele>
        <time>2016-08-25T11:21:44Z</time>
      </trkpt>
      <trkpt lat="47.37207" lon="-3.06023">
        <ele>1.1</ele>
        <time>2016-08-25T11:22:09Z</time>
      </trkpt>
      <trkpt lat="47.37211" lon="-3.06002">
        <ele>2.06</ele>
        <time>2016-08-25T11:22:30Z</time>
      </trkpt>
      <trkpt lat="47.37215" lon="-3.05987">
        <ele>1.58</ele>
        <time>2016-08-25T11:22:48Z</time>
      </trkpt>
      <trkpt lat="47.3722" lon="-3.05971">
        <ele>2.54</ele>
        <time>2016-08-25T11:23:09Z</time>
      </trkpt>
      <trkpt lat="47.37227" lon="-3.05956">
        <ele>2.06</ele>
        <time>2016-08-25T11:23:31Z</time>
      </trkpt>
      <trkpt lat="47.37236" lon="-3.0594">
        <ele>2.54</ele>
        <time>2016-08-25T11:23:56Z</time>
      </trkpt>
      <trkpt lat="47.37244" lon="-3.05923">
        <ele>3.02</ele>
        <time>2016-08-25T11:24:19Z</time>
      </trkpt>
      <trkpt lat="47.37249" lon="-3.0591">
        <ele>3.02</ele>
        <time>2016-08-25T11:24:37Z</time>
      </trkpt>
      <trkpt lat="47.37254" lon="-3.05895">
        <ele>2.54</ele>
        <time>2016-08-25T11:24:58Z</time>
      </trkpt>
      <trkpt lat="47.37259" lon="-3.05879">
        <ele>2.54</ele>
        <time>2016-08-25T11:25:20Z</time>
      </trkpt>
      <trkpt lat="47.37263" lon="-3.05863">
        <ele>2.06</ele>
        <time>2016-08-25T11:25:42Z</time>
      </trkpt>
      <trkpt lat="47.37266" lon="-3.05847">
        <ele>2.06</ele>
        <time>2016-08-25T11:26:02Z</time>
      </trkpt>
      <trkpt lat="47.37269" lon="-3.0583">
        <ele>2.54</ele>
        <time>2016-08-25T11:26:22Z</time>
      </trkpt>
      <trkpt lat="47.37273" lon="-3.05805">
        <ele>2.54</ele>
        <time>2016-08-25T11:26:46Z</time>
      </trkpt>
      <trkpt lat="47.37276" lon="-3.05781">
        <ele>2.06</ele>
        <time>2016-08-25T11:27:09Z</time>
      </trkpt>
      <trkpt lat="47.37276" lon="-3.05756">
        <ele>2.06</ele>
        <time>2016-08-25T11:27:32Z</time>
      </trkpt>
      <trkpt lat="47.37275" lon="-3.05734">
        <ele>1.1</ele>
        <time>2016-08-25T11:27:54Z</time>
      </trkpt>
      <trkpt lat="47.37273" lon="-3.05712">
        <ele>1.58</ele>
        <time>2016-08-25T11:28:17Z</time>
      </trkpt>
      <trkpt lat="47.37272" lon="-3.0569">
        <ele>1.58</ele>
        <time>2016-08-25T11:28:42Z</time>
      </trkpt>
      <trkpt lat="47.37276" lon="-3.05672">
        <ele>2.54</ele>
        <time>2016-08-25T11:29:03Z</time>
      </trkpt>
      <trkpt lat="47.37279" lon="-3.05655">
        <ele>3.02</ele>
        <time>2016-08-25T11:29:25Z</time>
      </trkpt>
      <trkpt lat="47.37282" lon="-3.05641">
        <ele>3.02</ele>
        <time>2016-08-25T11:29:44Z</time>
      </trkpt>
      <trkpt lat="47.37283" lon="-3.05625">
        <ele>2.54</ele>
        <time>2016-08-25T11:30:07Z</time>
      </trkpt>
      <trkpt lat="47.37284" lon="-3.05615">
        <ele>2.06</ele>
        <time>2016-08-25T11:30:27Z</time>
      </trkpt>
      <trkpt lat="47.37283" lon="-3.05607">
        <ele>1.1</ele>
        <time>2016-08-25T11:30:52Z</time>
      </trkpt>
      <trkpt lat="47.37283" lon="-3.05603">
        <ele>0.14</ele>
        <time>2016-08-25T11:31:17Z</time>
      </trkpt>
      <trkpt lat="47.37281" lon="-3.05598">
        <ele>0.14</ele>
        <time>2016-08-25T11:31:37Z</time>
      </trkpt>
      <trkpt lat="47.37281" lon="-3.05596">
        <ele>0.62</ele>
        <time>2016-08-25T11:32:00Z</time>
      </trkpt>
      <trkpt lat="47.3728" lon="-3.05594">
        <ele>0.62</ele>
        <time>2016-08-25T11:32:21Z</time>
      </trkpt>
      <trkpt lat="47.3728" lon="-3.05592">
        <ele>0.62</ele>
        <time>2016-08-25T11:32:44Z</time>
      </trkpt>
      <trkpt lat="47.37279" lon="-3.05591">
        <ele>0.62</ele>
        <time>2016-08-25T11:33:06Z</time>
      </trkpt>
      <trkpt lat="47.37278" lon="-3.0559">
        <ele>0.62</ele>
        <time>2016-08-25T11:33:27Z</time>
      </trkpt>
      <trkpt lat="47.37277" lon="-3.05591">
        <ele>0.62</ele>
        <time>2016-08-25T11:33:50Z</time>
      </trkpt>
      <trkpt lat="47.37276" lon="-3.05592">
        <ele>1.1</ele>
        <time>2016-08-25T11:34:12Z</time>
      </trkpt>
      <trkpt lat="47.37275" lon="-3.05595">
        <ele>1.1</ele>
        <time>2016-08-25T11:34:35Z</time>
      </trkpt>
      <trkpt lat="47.37274" lon="-3.056">
        <ele>2.06</ele>
        <time>2016-08-25T11:35:02Z</time>
      </trkpt>
      <trkpt lat="47.37274" lon="-3.05604">
        <ele>3.02</ele>
        <time>2016-08-25T11:35:25Z</time>
      </trkpt>
      <trkpt lat="47.37274" lon="-3.0561">
        <ele>4.46</ele>
        <time>2016-08-25T11:35:51Z</time>
      </trkpt>
      <trkpt lat="47.37275" lon="-3.05615">
        <ele>5.42</ele>
        <time>2016-08-25T11:36:15Z</time>
      </trkpt>
      <trkpt lat="47.37275" lon="-3.0562">
        <ele>5.42</ele>
        <time>2016-08-25T11:36:38Z</time>
      </trkpt>
      <trkpt lat="47.37277" lon="-3.05625">
        <ele>6.39</ele>
        <time>2016-08-25T11:36:54Z</time>
      </trkpt>
      <trkpt lat="47.37314" lon="-3.0565">
        <ele>5.42</ele>
        <time>2016-08-25T11:37:16Z</time>
      </trkpt>
      <trkpt lat="47.37332" lon="-3.05625">
        <ele>4.94</ele>
        <time>2016-08-25T11:37:31Z</time>
      </trkpt>
      <trkpt lat="47.37332" lon="-3.05567">
        <ele>3.5</ele>
        <time>2016-08-25T11:37:53Z</time>
      </trkpt>
      <trkpt lat="47.37329" lon="-3.05512">
        <ele>3.02</ele>
        <time>2016-08-25T11:38:13Z</time>
      </trkpt>
      <trkpt lat="47.37326" lon="-3.05459">
        <ele>2.54</ele>
        <time>2016-08-25T11:38:33Z</time>
      </trkpt>
      <trkpt lat="47.3732" lon="-3.05393">
        <ele>1.58</ele>
        <time>2016-08-25T11:38:57Z</time>
      </trkpt>
      <trkpt lat="47.37312" lon="-3.05325">
        <ele>1.1</ele>
        <time>2016-08-25T11:39:22Z</time>
      </trkpt>
      <trkpt lat="47.37309" lon="-3.05265">
        <ele>1.1</ele>
        <time>2016-08-25T11:39:44Z</time>
      </trkpt>
      <trkpt lat="47.3731" lon="-3.05201">
        <ele>0.62</ele>
        <time>2016-08-25T11:40:07Z</time>
      </trkpt>
      <trkpt lat="47.37304" lon="-3.05138">
        <ele>0.62</ele>
        <time>2016-08-25T11:40:30Z</time>
      </trkpt>
      <trkpt lat="47.373" lon="-3.05073">
        <ele>0.14</ele>
        <time>2016-08-25T11:40:53Z</time>
      </trkpt>
      <trkpt lat="47.37296" lon="-3.0501">
        <ele>-0.34</ele>
        <time>2016-08-25T11:41:15Z</time>
      </trkpt>
      <trkpt lat="47.37295" lon="-3.04945">
        <ele>0.14</ele>
        <time>2016-08-25T11:41:38Z</time>
      </trkpt>
      <trkpt lat="47.37287" lon="-3.04888">
        <ele>0.62</ele>
        <time>2016-08-25T11:41:58Z</time>
      </trkpt>
      <trkpt lat="47.37285" lon="-3.04825">
        <ele>0.14</ele>
        <time>2016-08-25T11:42:20Z</time>
      </trkpt>
      <trkpt lat="47.37287" lon="-3.04761">
        <ele>0.62</ele>
        <time>2016-08-25T11:42:42Z</time>
      </trkpt>
      <trkpt lat="47.37287" lon="-3.04699">
        <ele>0.14</ele>
        <time>2016-08-25T11:43:04Z</time>
      </trkpt>
      <trkpt lat="47.37281" lon="-3.04647">
        <ele>0.14</ele>
        <time>2016-08-25T11:43:23Z</time>
      </trkpt>
      <trkpt lat="47.37268" lon="-3.04589">
        <ele>1.58</ele>
        <time>2016-08-25T11:43:44Z</time>
      </trkpt>
      <trkpt lat="47.37254" lon="-3.04529">
        <ele>1.1</ele>
        <time>2016-08-25T11:44:06Z</time>
      </trkpt>
      <trkpt lat="47.37252" lon="-3.04463">
        <ele>2.06</ele>
        <time>2016-08-25T11:44:29Z</time>
      </trkpt>
      <trkpt lat="47.37262" lon="-3.04399">
        <ele>1.58</ele>
        <time>2016-08-25T11:44:52Z</time>
      </trkpt>
      <trkpt lat="47.37271" lon="-3.04347">
        <ele>0.62</ele>
        <time>2016-08-25T11:45:11Z</time>
      </trkpt>
      <trkpt lat="47.37278" lon="-3.04289">
        <ele>0.62</ele>
        <time>2016-08-25T11:45:32Z</time>
      </trkpt>
      <trkpt lat="47.37292" lon="-3.04223">
        <ele>0.62</ele>
        <time>2016-08-25T11:45:56Z</time>
      </trkpt>
      <trkpt lat="47.37298" lon="-3.04162">
        <ele>0.14</ele>
        <time>2016-08-25T11:46:18Z</time>
      </trkpt>
      <trkpt lat="47.37295" lon="-3.04095">
        <ele>1.1</ele>
        <time>2016-08-25T11:46:41Z</time>
      </trkpt>
      <trkpt lat="47.37286" lon="-3.04039">
        <ele>0.62</ele>
        <time>2016-08-25T11:47:01Z</time>
      </trkpt>
      <trkpt lat="47.37281" lon="-3.03986">
        <ele>0.62</ele>
        <time>2016-08-25T11:47:20Z</time>
      </trkpt>
      <trkpt lat="47.37282" lon="-3.03931">
        <ele>0.62</ele>
        <time>2016-08-25T11:47:39Z</time>
      </trkpt>
      <trkpt lat="47.37283" lon="-3.03864">
        <ele>1.58</ele>
        <time>2016-08-25T11:48:02Z</time>
      </trkpt>
      <trkpt lat="47.37276" lon="-3.03811">
        <ele>1.58</ele>
        <time>2016-08-25T11:48:21Z</time>
      </trkpt>
      <trkpt lat="47.37272" lon="-3.03761">
        <ele>1.58</ele>
        <time>2016-08-25T11:48:39Z</time>
      </trkpt>
      <trkpt lat="47.37273" lon="-3.03699">
        <ele>1.58</ele>
        <time>2016-08-25T11:49:03Z</time>
      </trkpt>
      <trkpt lat="47.37268" lon="-3.03673">
        <ele>1.58</ele>
        <time>2016-08-25T11:49:22Z</time>
      </trkpt>
      <trkpt lat="47.37261" lon="-3.03656">
        <ele>3.02</ele>
        <time>2016-08-25T11:49:46Z</time>
      </trkpt>
      <trkpt lat="47.37254" lon="-3.03651">
        <ele>3.02</ele>
        <time>2016-08-25T11:50:09Z</time>
      </trkpt>
      <trkpt lat="47.37246" lon="-3.03651">
        <ele>2.06</ele>
        <time>2016-08-25T11:50:32Z</time>
      </trkpt>
      <trkpt lat="47.37243" lon="-3.03652">
        <ele>2.54</ele>
        <time>2016-08-25T11:50:52Z</time>
      </trkpt>
      <trkpt lat="47.37238" lon="-3.03654">
        <ele>2.54</ele>
        <time>2016-08-25T11:51:14Z</time>
      </trkpt>
      <trkpt lat="47.37235" lon="-3.03656">
        <ele>2.06</ele>
        <time>2016-08-25T11:51:33Z</time>
      </trkpt>
      <trkpt lat="47.37233" lon="-3.03657">
        <ele>1.58</ele>
        <time>2016-08-25T11:51:47Z</time>
      </trkpt>
      <trkpt lat="47.3723" lon="-3.03658">
        <ele>1.58</ele>
        <time>2016-08-25T11:52:06Z</time>
      </trkpt>
      <trkpt lat="47.37226" lon="-3.03662">
        <ele>0.14</ele>
        <time>2016-08-25T11:52:26Z</time>
      </trkpt>
      <trkpt lat="47.37211" lon="-3.0368">
        <ele>0.14</ele>
        <time>2016-08-25T11:52:44Z</time>
      </trkpt>
      <trkpt lat="47.37199" lon="-3.03697">
        <ele>0.14</ele>
        <time>2016-08-25T11:53:00Z</time>
      </trkpt>
      <trkpt lat="47.37184" lon="-3.03716">
        <ele>1.1</ele>
        <time>2016-08-25T11:53:23Z</time>
      </trkpt>
      <trkpt lat="47.37173" lon="-3.03731">
        <ele>1.1</ele>
        <time>2016-08-25T11:53:48Z</time>
      </trkpt>
      <trkpt lat="47.37166" lon="-3.03742">
        <ele>1.1</ele>
        <time>2016-08-25T11:54:11Z</time>
      </trkpt>
      <trkpt lat="47.3716" lon="-3.03751">
        <ele>1.1</ele>
        <time>2016-08-25T11:54:29Z</time>
      </trkpt>
      <trkpt lat="47.37155" lon="-3.0376">
        <ele>0.62</ele>
        <time>2016-08-25T11:54:50Z</time>
      </trkpt>
      <trkpt lat="47.37149" lon="-3.0377">
        <ele>0.62</ele>
        <time>2016-08-25T11:55:12Z</time>
      </trkpt>
      <trkpt lat="47.37142" lon="-3.03781">
        <ele>0.14</ele>
        <time>2016-08-25T11:55:37Z</time>
      </trkpt>
      <trkpt lat="47.37137" lon="-3.03789">
        <ele>0.62</ele>
        <time>2016-08-25T11:55:58Z</time>
      </trkpt>
      <trkpt lat="47.37132" lon="-3.03798">
        <ele>0.62</ele>
        <time>2016-08-25T11:56:18Z</time>
      </trkpt>
      <trkpt lat="47.37125" lon="-3.03809">
        <ele>0.62</ele>
        <time>2016-08-25T11:56:43Z</time>
      </trkpt>
      <trkpt lat="47.3712" lon="-3.03815">
        <ele>1.58</ele>
        <time>2016-08-25T11:57:09Z</time>
      </trkpt>
      <trkpt lat="47.37119" lon="-3.03818">
        <ele>1.1</ele>
        <time>2016-08-25T11:57:30Z</time>
      </trkpt>
      <trkpt lat="47.37118" lon="-3.03821">
        <ele>0.14</ele>
        <time>2016-08-25T11:57:48Z</time>
      </trkpt>
      <trkpt lat="47.37115" lon="-3.03826">
        <ele>-0.34</ele>
        <time>2016-08-25T11:58:08Z</time>
      </trkpt>
      <trkpt lat="47.37114" lon="-3.03831">
        <ele>-0.82</ele>
        <time>2016-08-25T11:58:28Z</time>
      </trkpt>
      <trkpt lat="47.3711" lon="-3.03839">
        <ele>0.14</ele>
        <time>2016-08-25T11:58:53Z</time>
      </trkpt>
      <trkpt lat="47.37107" lon="-3.03847">
        <ele>0.62</ele>
        <time>2016-08-25T11:59:13Z</time>
      </trkpt>
      <trkpt lat="47.37101" lon="-3.03862">
        <ele>0.14</ele>
        <time>2016-08-25T11:59:37Z</time>
      </trkpt>
      <trkpt lat="47.37089" lon="-3.03885">
        <ele>0.14</ele>
        <time>2016-08-25T11:59:56Z</time>
      </trkpt>
      <trkpt lat="47.3708" lon="-3.03895">
        <ele>1.58</ele>
        <time>2016-08-25T12:00:13Z</time>
      </trkpt>
      <trkpt lat="47.37074" lon="-3.03905">
        <ele>2.54</ele>
        <time>2016-08-25T12:00:33Z</time>
      </trkpt>
      <trkpt lat="47.37067" lon="-3.03914">
        <ele>3.02</ele>
        <time>2016-08-25T12:00:58Z</time>
      </trkpt>
      <trkpt lat="47.37063" lon="-3.03918">
        <ele>3.02</ele>
        <time>2016-08-25T12:01:19Z</time>
      </trkpt>
      <trkpt lat="47.37056" lon="-3.03923">
        <ele>3.5</ele>
        <time>2016-08-25T12:01:38Z</time>
      </trkpt>
      <trkpt lat="47.37048" lon="-3.03922">
        <ele>1.1</ele>
        <time>2016-08-25T12:02:00Z</time>
      </trkpt>
      <trkpt lat="47.37039" lon="-3.03922">
        <ele>0.14</ele>
        <time>2016-08-25T12:02:22Z</time>
      </trkpt>
      <trkpt lat="47.37032" lon="-3.03918">
        <ele>-0.82</ele>
        <time>2016-08-25T12:02:43Z</time>
      </trkpt>
      <trkpt lat="47.37008" lon="-3.03913">
        <ele>-1.3</ele>
        <time>2016-08-25T12:03:05Z</time>
      </trkpt>
      <trkpt lat="47.36988" lon="-3.03913">
        <ele>0.62</ele>
        <time>2016-08-25T12:03:27Z</time>
      </trkpt>
      <trkpt lat="47.36972" lon="-3.03916">
        <ele>1.58</ele>
        <time>2016-08-25T12:03:48Z</time>
      </trkpt>
      <trkpt lat="47.36961" lon="-3.03917">
        <ele>1.1</ele>
        <time>2016-08-25T12:04:07Z</time>
      </trkpt>
      <trkpt lat="47.36955" lon="-3.03918">
        <ele>1.1</ele>
        <time>2016-08-25T12:04:28Z</time>
      </trkpt>
      <trkpt lat="47.36951" lon="-3.03917">
        <ele>1.1</ele>
        <time>2016-08-25T12:04:51Z</time>
      </trkpt>
      <trkpt lat="47.36945" lon="-3.03917">
        <ele>1.1</ele>
        <time>2016-08-25T12:05:14Z</time>
      </trkpt>
      <trkpt lat="47.36939" lon="-3.03919">
        <ele>1.1</ele>
        <time>2016-08-25T12:05:35Z</time>
      </trkpt>
      <trkpt lat="47.36932" lon="-3.03917">
        <ele>1.58</ele>
        <time>2016-08-25T12:05:57Z</time>
      </trkpt>
      <trkpt lat="47.36925" lon="-3.03918">
        <ele>1.1</ele>
        <time>2016-08-25T12:06:19Z</time>
      </trkpt>
      <trkpt lat="47.36915" lon="-3.03919">
        <ele>0.62</ele>
        <time>2016-08-25T12:06:45Z</time>
      </trkpt>
      <trkpt lat="47.36904" lon="-3.03921">
        <ele>0.14</ele>
        <time>2016-08-25T12:07:10Z</time>
      </trkpt>
      <trkpt lat="47.36897" lon="-3.03922">
        <ele>-0.34</ele>
        <time>2016-08-25T12:07:33Z</time>
      </trkpt>
      <trkpt lat="47.3689" lon="-3.03926">
        <ele>1.58</ele>
        <time>2016-08-25T12:07:54Z</time>
      </trkpt>
      <trkpt lat="47.3688" lon="-3.03931">
        <ele>2.54</ele>
        <time>2016-08-25T12:08:20Z</time>
      </trkpt>
      <trkpt lat="47.3687" lon="-3.03936">
        <ele>1.1</ele>
        <time>2016-08-25T12:08:43Z</time>
      </trkpt>
      <trkpt lat="47.36841" lon="-3.0396">
        <ele>-0.82</ele>
        <time>2016-08-25T12:09:06Z</time>
      </trkpt>
      <trkpt lat="47.3682" lon="-3.03971">
        <ele>1.1</ele>
        <time>2016-08-25T12:09:27Z</time>
      </trkpt>
      <trkpt lat="47.36815" lon="-3.03974">
        <ele>2.06</ele>
        <time>2016-08-25T12:09:49Z</time>
      </trkpt>
      <trkpt lat="47.36812" lon="-3.03974">
        <ele>2.06</ele>
        <time>2016-08-25T12:10:11Z</time>
      </trkpt>
      <trkpt lat="47.36829" lon="-3.03963">
        <ele>1.1</ele>
        <time>2016-08-25T12:10:34Z</time>
      </trkpt>
      <trkpt lat="47.36829" lon="-3.03963">
        <ele>1.1</ele>
        <time>2016-08-25T12:10:35Z</time>
      </trkpt>
      <trkpt lat="47.36851" lon="-3.03942">
        <ele>1.1</ele>
        <time>2016-08-25T12:11:00Z</time>
      </trkpt>
      <trkpt lat="47.36864" lon="-3.0392">
        <ele>1.1</ele>
        <time>2016-08-25T12:11:22Z</time>
      </trkpt>
      <trkpt lat="47.36871" lon="-3.03891">
        <ele>0.62</ele>
        <time>2016-08-25T12:11:47Z</time>
      </trkpt>
      <trkpt lat="47.36877" lon="-3.03865">
        <ele>0.14</ele>
        <time>2016-08-25T12:12:10Z</time>
      </trkpt>
      <trkpt lat="47.36882" lon="-3.03843">
        <ele>0.14</ele>
        <time>2016-08-25T12:12:31Z</time>
      </trkpt>
      <trkpt lat="47.36889" lon="-3.03825">
        <ele>0.14</ele>
        <time>2016-08-25T12:12:49Z</time>
      </trkpt>
      <trkpt lat="47.36893" lon="-3.03817">
        <ele>-0.34</ele>
        <time>2016-08-25T12:12:57Z</time>
      </trkpt>
      <trkpt lat="47.36903" lon="-3.0379">
        <ele>-0.34</ele>
        <time>2016-08-25T12:13:19Z</time>
      </trkpt>
      <trkpt lat="47.36913" lon="-3.03761">
        <ele>-0.82</ele>
        <time>2016-08-25T12:13:42Z</time>
      </trkpt>
      <trkpt lat="47.36925" lon="-3.03732">
        <ele>-0.34</ele>
        <time>2016-08-25T12:14:04Z</time>
      </trkpt>
      <trkpt lat="47.36944" lon="-3.03693">
        <ele>0.14</ele>
        <time>2016-08-25T12:14:30Z</time>
      </trkpt>
      <trkpt lat="47.3695" lon="-3.03677">
        <ele>0.14</ele>
        <time>2016-08-25T12:14:40Z</time>
      </trkpt>
      <trkpt lat="47.36957" lon="-3.03656">
        <ele>0.14</ele>
        <time>2016-08-25T12:14:53Z</time>
      </trkpt>
      <trkpt lat="47.3697" lon="-3.03622">
        <ele>0.62</ele>
        <time>2016-08-25T12:15:14Z</time>
      </trkpt>
      <trkpt lat="47.36981" lon="-3.03586">
        <ele>1.58</ele>
        <time>2016-08-25T12:15:37Z</time>
      </trkpt>
      <trkpt lat="47.36991" lon="-3.03553">
        <ele>0.62</ele>
        <time>2016-08-25T12:15:58Z</time>
      </trkpt>
      <trkpt lat="47.37004" lon="-3.0352">
        <ele>1.58</ele>
        <time>2016-08-25T12:16:21Z</time>
      </trkpt>
      <trkpt lat="47.37022" lon="-3.03486">
        <ele>1.58</ele>
        <time>2016-08-25T12:16:44Z</time>
      </trkpt>
      <trkpt lat="47.37039" lon="-3.03447">
        <ele>1.1</ele>
        <time>2016-08-25T12:17:08Z</time>
      </trkpt>
      <trkpt lat="47.37049" lon="-3.03411">
        <ele>2.54</ele>
        <time>2016-08-25T12:17:31Z</time>
      </trkpt>
      <trkpt lat="47.37067" lon="-3.03384">
        <ele>2.06</ele>
        <time>2016-08-25T12:17:52Z</time>
      </trkpt>
      <trkpt lat="47.37089" lon="-3.03351">
        <ele>1.1</ele>
        <time>2016-08-25T12:18:14Z</time>
      </trkpt>
      <trkpt lat="47.37104" lon="-3.03312">
        <ele>1.58</ele>
        <time>2016-08-25T12:18:38Z</time>
      </trkpt>
      <trkpt lat="47.37122" lon="-3.03273">
        <ele>2.06</ele>
        <time>2016-08-25T12:19:04Z</time>
      </trkpt>
      <trkpt lat="47.37137" lon="-3.03234">
        <ele>1.58</ele>
        <time>2016-08-25T12:19:30Z</time>
      </trkpt>
      <trkpt lat="47.3715" lon="-3.03206">
        <ele>1.1</ele>
        <time>2016-08-25T12:19:51Z</time>
      </trkpt>
      <trkpt lat="47.37164" lon="-3.0317">
        <ele>0.62</ele>
        <time>2016-08-25T12:20:16Z</time>
      </trkpt>
      <trkpt lat="47.37178" lon="-3.03137">
        <ele>0.62</ele>
        <time>2016-08-25T12:20:40Z</time>
      </trkpt>
      <trkpt lat="47.37192" lon="-3.03105">
        <ele>0.62</ele>
        <time>2016-08-25T12:21:03Z</time>
      </trkpt>
      <trkpt lat="47.37205" lon="-3.03076">
        <ele>0.14</ele>
        <time>2016-08-25T12:21:23Z</time>
      </trkpt>
      <trkpt lat="47.37224" lon="-3.03039">
        <ele>0.62</ele>
        <time>2016-08-25T12:21:49Z</time>
      </trkpt>
      <trkpt lat="47.37241" lon="-3.03005">
        <ele>0.14</ele>
        <time>2016-08-25T12:22:12Z</time>
      </trkpt>
      <trkpt lat="47.3725" lon="-3.02972">
        <ele>0.62</ele>
        <time>2016-08-25T12:22:33Z</time>
      </trkpt>
      <trkpt lat="47.37259" lon="-3.02937">
        <ele>1.58</ele>
        <time>2016-08-25T12:22:55Z</time>
      </trkpt>
      <trkpt lat="47.37262" lon="-3.02902">
        <ele>1.1</ele>
        <time>2016-08-25T12:23:18Z</time>
      </trkpt>
      <trkpt lat="47.37263" lon="-3.02871">
        <ele>1.1</ele>
        <time>2016-08-25T12:23:40Z</time>
      </trkpt>
      <trkpt lat="47.37265" lon="-3.02841">
        <ele>1.1</ele>
        <time>2016-08-25T12:24:00Z</time>
      </trkpt>
      <trkpt lat="47.37267" lon="-3.02809">
        <ele>1.1</ele>
        <time>2016-08-25T12:24:22Z</time>
      </trkpt>
      <trkpt lat="47.37269" lon="-3.02781">
        <ele>1.1</ele>
        <time>2016-08-25T12:24:42Z</time>
      </trkpt>
      <trkpt lat="47.37275" lon="-3.02749">
        <ele>0.62</ele>
        <time>2016-08-25T12:25:04Z</time>
      </trkpt>
      <trkpt lat="47.37285" lon="-3.02709">
        <ele>0.62</ele>
        <time>2016-08-25T12:25:29Z</time>
      </trkpt>
      <trkpt lat="47.37293" lon="-3.02674">
        <ele>0.62</ele>
        <time>2016-08-25T12:25:52Z</time>
      </trkpt>
      <trkpt lat="47.37298" lon="-3.02643">
        <ele>0.14</ele>
        <time>2016-08-25T12:26:14Z</time>
      </trkpt>
      <trkpt lat="47.37307" lon="-3.02605">
        <ele>0.14</ele>
        <time>2016-08-25T12:26:40Z</time>
      </trkpt>
      <trkpt lat="47.37316" lon="-3.02572">
        <ele>0.14</ele>
        <time>2016-08-25T12:27:03Z</time>
      </trkpt>
      <trkpt lat="47.37322" lon="-3.02541">
        <ele>-0.82</ele>
        <time>2016-08-25T12:27:25Z</time>
      </trkpt>
      <trkpt lat="47.37327" lon="-3.02513">
        <ele>-1.3</ele>
        <time>2016-08-25T12:27:46Z</time>
      </trkpt>
      <trkpt lat="47.37333" lon="-3.02485">
        <ele>-1.3</ele>
        <time>2016-08-25T12:28:07Z</time>
      </trkpt>
      <trkpt lat="47.37338" lon="-3.02456">
        <ele>-1.3</ele>
        <time>2016-08-25T12:28:28Z</time>
      </trkpt>
      <trkpt lat="47.37343" lon="-3.02426">
        <ele>-1.3</ele>
        <time>2016-08-25T12:28:51Z</time>
      </trkpt>
      <trkpt lat="47.37355" lon="-3.02396">
        <ele>-1.3</ele>
        <time>2016-08-25T12:29:13Z</time>
      </trkpt>
      <trkpt lat="47.37369" lon="-3.02366">
        <ele>-0.34</ele>
        <time>2016-08-25T12:29:33Z</time>
      </trkpt>
      <trkpt lat="47.37378" lon="-3.02331">
        <ele>0.14</ele>
        <time>2016-08-25T12:29:55Z</time>
      </trkpt>
      <trkpt lat="47.37384" lon="-3.02305">
        <ele>0.14</ele>
        <time>2016-08-25T12:30:14Z</time>
      </trkpt>
      <trkpt lat="47.37393" lon="-3.02274">
        <ele>-0.82</ele>
        <time>2016-08-25T12:30:36Z</time>
      </trkpt>
      <trkpt lat="47.37404" lon="-3.02243">
        <ele>-0.82</ele>
        <time>2016-08-25T12:30:59Z</time>
      </trkpt>
      <trkpt lat="47.37418" lon="-3.02208">
        <ele>-0.34</ele>
        <time>2016-08-25T12:31:23Z</time>
      </trkpt>
      <trkpt lat="47.3743" lon="-3.0218">
        <ele>-0.34</ele>
        <time>2016-08-25T12:31:43Z</time>
      </trkpt>
      <trkpt lat="47.37442" lon="-3.02152">
        <ele>0.14</ele>
        <time>2016-08-25T12:32:04Z</time>
      </trkpt>
      <trkpt lat="47.37451" lon="-3.02123">
        <ele>0.14</ele>
        <time>2016-08-25T12:32:25Z</time>
      </trkpt>
      <trkpt lat="47.37457" lon="-3.02092">
        <ele>-0.34</ele>
        <time>2016-08-25T12:32:52Z</time>
      </trkpt>
      <trkpt lat="47.37466" lon="-3.02063">
        <ele>-0.34</ele>
        <time>2016-08-25T12:33:17Z</time>
      </trkpt>
      <trkpt lat="47.37474" lon="-3.02033">
        <ele>0.62</ele>
        <time>2016-08-25T12:33:41Z</time>
      </trkpt>
      <trkpt lat="47.37483" lon="-3.02004">
        <ele>0.14</ele>
        <time>2016-08-25T12:34:03Z</time>
      </trkpt>
      <trkpt lat="47.37491" lon="-3.01971">
        <ele>0.62</ele>
        <time>2016-08-25T12:34:26Z</time>
      </trkpt>
      <trkpt lat="47.37495" lon="-3.01945">
        <ele>-0.34</ele>
        <time>2016-08-25T12:34:47Z</time>
      </trkpt>
      <trkpt lat="47.375" lon="-3.01915">
        <ele>-0.34</ele>
        <time>2016-08-25T12:35:09Z</time>
      </trkpt>
      <trkpt lat="47.37503" lon="-3.01889">
        <ele>-0.82</ele>
        <time>2016-08-25T12:35:30Z</time>
      </trkpt>
      <trkpt lat="47.37506" lon="-3.01863">
        <ele>-1.3</ele>
        <time>2016-08-25T12:35:53Z</time>
      </trkpt>
      <trkpt lat="47.37507" lon="-3.01839">
        <ele>-0.34</ele>
        <time>2016-08-25T12:36:16Z</time>
      </trkpt>
      <trkpt lat="47.37509" lon="-3.01821">
        <ele>-1.3</ele>
        <time>2016-08-25T12:36:36Z</time>
      </trkpt>
      <trkpt lat="47.37514" lon="-3.01794">
        <ele>-2.27</ele>
        <time>2016-08-25T12:36:59Z</time>
      </trkpt>
      <trkpt lat="47.37517" lon="-3.01767">
        <ele>-1.79</ele>
        <time>2016-08-25T12:37:21Z</time>
      </trkpt>
      <trkpt lat="47.3752" lon="-3.01735">
        <ele>-1.79</ele>
        <time>2016-08-25T12:37:47Z</time>
      </trkpt>
      <trkpt lat="47.37525" lon="-3.01704">
        <ele>-1.79</ele>
        <time>2016-08-25T12:38:12Z</time>
      </trkpt>
      <trkpt lat="47.37528" lon="-3.01677">
        <ele>-2.27</ele>
        <time>2016-08-25T12:38:36Z</time>
      </trkpt>
      <trkpt lat="47.3753" lon="-3.01655">
        <ele>-1.79</ele>
        <time>2016-08-25T12:38:57Z</time>
      </trkpt>
      <trkpt lat="47.3753" lon="-3.01632">
        <ele>-1.79</ele>
        <time>2016-08-25T12:39:26Z</time>
      </trkpt>
      <trkpt lat="47.37535" lon="-3.01613">
        <ele>-1.79</ele>
        <time>2016-08-25T12:39:49Z</time>
      </trkpt>
      <trkpt lat="47.3754" lon="-3.01605">
        <ele>-1.79</ele>
        <time>2016-08-25T12:39:57Z</time>
      </trkpt>
      <trkpt lat="47.37554" lon="-3.01572">
        <ele>-0.82</ele>
        <time>2016-08-25T12:40:23Z</time>
      </trkpt>
      <trkpt lat="47.3756" lon="-3.01541">
        <ele>-1.79</ele>
        <time>2016-08-25T12:40:46Z</time>
      </trkpt>
      <trkpt lat="47.37567" lon="-3.01513">
        <ele>-1.79</ele>
        <time>2016-08-25T12:41:06Z</time>
      </trkpt>
      <trkpt lat="47.37572" lon="-3.0148">
        <ele>-0.82</ele>
        <time>2016-08-25T12:41:30Z</time>
      </trkpt>
      <trkpt lat="47.37576" lon="-3.01446">
        <ele>-0.82</ele>
        <time>2016-08-25T12:41:55Z</time>
      </trkpt>
      <trkpt lat="47.37571" lon="-3.01425">
        <ele>-0.34</ele>
        <time>2016-08-25T12:42:17Z</time>
      </trkpt>
      <trkpt lat="47.37566" lon="-3.01425">
        <ele>0.14</ele>
        <time>2016-08-25T12:42:41Z</time>
      </trkpt>
      <trkpt lat="47.37556" lon="-3.01439">
        <ele>0.62</ele>
        <time>2016-08-25T12:43:04Z</time>
      </trkpt>
      <trkpt lat="47.37532" lon="-3.01448">
        <ele>0.14</ele>
        <time>2016-08-25T12:43:30Z</time>
      </trkpt>
      <trkpt lat="47.3753" lon="-3.01446">
        <ele>0.14</ele>
        <time>2016-08-25T12:43:55Z</time>
      </trkpt>
      <trkpt lat="47.3753" lon="-3.01446">
        <ele>0.14</ele>
        <time>2016-08-25T12:43:56Z</time>
      </trkpt>
      <trkpt lat="47.37539" lon="-3.01432">
        <ele>-0.34</ele>
        <time>2016-08-25T12:44:08Z</time>
      </trkpt>
      <trkpt lat="47.37557" lon="-3.01387">
        <ele>-0.34</ele>
        <time>2016-08-25T12:44:34Z</time>
      </trkpt>
      <trkpt lat="47.37583" lon="-3.01355">
        <ele>0.14</ele>
        <time>2016-08-25T12:44:58Z</time>
      </trkpt>
      <trkpt lat="47.37597" lon="-3.01321">
        <ele>-0.34</ele>
        <time>2016-08-25T12:45:19Z</time>
      </trkpt>
      <trkpt lat="47.37616" lon="-3.01282">
        <ele>0.14</ele>
        <time>2016-08-25T12:45:42Z</time>
      </trkpt>
      <trkpt lat="47.37635" lon="-3.01238">
        <ele>0.14</ele>
        <time>2016-08-25T12:46:06Z</time>
      </trkpt>
      <trkpt lat="47.37651" lon="-3.01182">
        <ele>-0.34</ele>
        <time>2016-08-25T12:46:31Z</time>
      </trkpt>
      <trkpt lat="47.37663" lon="-3.01126">
        <ele>-0.82</ele>
        <time>2016-08-25T12:46:56Z</time>
      </trkpt>
      <trkpt lat="47.37673" lon="-3.01072">
        <ele>-1.3</ele>
        <time>2016-08-25T12:47:19Z</time>
      </trkpt>
      <trkpt lat="47.37678" lon="-3.01019">
        <ele>-1.3</ele>
        <time>2016-08-25T12:47:43Z</time>
      </trkpt>
      <trkpt lat="47.37684" lon="-3.00958">
        <ele>-0.34</ele>
        <time>2016-08-25T12:48:10Z</time>
      </trkpt>
      <trkpt lat="47.37688" lon="-3.00898">
        <ele>-0.34</ele>
        <time>2016-08-25T12:48:37Z</time>
      </trkpt>
      <trkpt lat="47.37694" lon="-3.00844">
        <ele>0.14</ele>
        <time>2016-08-25T12:49:00Z</time>
      </trkpt>
      <trkpt lat="47.37698" lon="-3.00793">
        <ele>0.14</ele>
        <time>2016-08-25T12:49:24Z</time>
      </trkpt>
      <trkpt lat="47.37706" lon="-3.00723">
        <ele>-0.34</ele>
        <time>2016-08-25T12:49:54Z</time>
      </trkpt>
      <trkpt lat="47.37712" lon="-3.00678">
        <ele>-0.82</ele>
        <time>2016-08-25T12:50:13Z</time>
      </trkpt>
      <trkpt lat="47.37718" lon="-3.00623">
        <ele>-0.82</ele>
        <time>2016-08-25T12:50:37Z</time>
      </trkpt>
      <trkpt lat="47.37723" lon="-3.00575">
        <ele>-0.82</ele>
        <time>2016-08-25T12:50:58Z</time>
      </trkpt>
      <trkpt lat="47.37726" lon="-3.00517">
        <ele>-1.3</ele>
        <time>2016-08-25T12:51:24Z</time>
      </trkpt>
      <trkpt lat="47.37733" lon="-3.00461">
        <ele>-0.82</ele>
        <time>2016-08-25T12:51:48Z</time>
      </trkpt>
      <trkpt lat="47.37737" lon="-3.00407">
        <ele>-0.82</ele>
        <time>2016-08-25T12:52:10Z</time>
      </trkpt>
      <trkpt lat="47.37742" lon="-3.00348">
        <ele>-1.3</ele>
        <time>2016-08-25T12:52:36Z</time>
      </trkpt>
      <trkpt lat="47.37747" lon="-3.00289">
        <ele>-0.82</ele>
        <time>2016-08-25T12:53:04Z</time>
      </trkpt>
      <trkpt lat="47.37751" lon="-3.00238">
        <ele>-1.3</ele>
        <time>2016-08-25T12:53:28Z</time>
      </trkpt>
      <trkpt lat="47.37756" lon="-3.00192">
        <ele>-0.34</ele>
        <time>2016-08-25T12:53:50Z</time>
      </trkpt>
      <trkpt lat="47.37762" lon="-3.00143">
        <ele>0.14</ele>
        <time>2016-08-25T12:54:15Z</time>
      </trkpt>
      <trkpt lat="47.3777" lon="-3.00084">
        <ele>-1.3</ele>
        <time>2016-08-25T12:54:43Z</time>
      </trkpt>
      <trkpt lat="47.37778" lon="-3.00028">
        <ele>-0.34</ele>
        <time>2016-08-25T12:55:11Z</time>
      </trkpt>
      <trkpt lat="47.37784" lon="-2.99985">
        <ele>-1.3</ele>
        <time>2016-08-25T12:55:34Z</time>
      </trkpt>
      <trkpt lat="47.37789" lon="-2.99951">
        <ele>-0.82</ele>
        <time>2016-08-25T12:55:53Z</time>
      </trkpt>
      <trkpt lat="47.37796" lon="-2.99913">
        <ele>-0.82</ele>
        <time>2016-08-25T12:56:17Z</time>
      </trkpt>
      <trkpt lat="47.37803" lon="-2.99877">
        <ele>-0.82</ele>
        <time>2016-08-25T12:56:41Z</time>
      </trkpt>
      <trkpt lat="47.37813" lon="-2.99843">
        <ele>-0.34</ele>
        <time>2016-08-25T12:57:02Z</time>
      </trkpt>
      <trkpt lat="47.37826" lon="-2.99802">
        <ele>-0.34</ele>
        <time>2016-08-25T12:57:25Z</time>
      </trkpt>
      <trkpt lat="47.37839" lon="-2.99759">
        <ele>0.14</ele>
        <time>2016-08-25T12:57:48Z</time>
      </trkpt>
      <trkpt lat="47.37853" lon="-2.9971">
        <ele>-0.34</ele>
        <time>2016-08-25T12:58:13Z</time>
      </trkpt>
      <trkpt lat="47.37865" lon="-2.99658">
        <ele>-0.82</ele>
        <time>2016-08-25T12:58:39Z</time>
      </trkpt>
      <trkpt lat="47.37877" lon="-2.99606">
        <ele>-0.34</ele>
        <time>2016-08-25T12:59:03Z</time>
      </trkpt>
      <trkpt lat="47.3789" lon="-2.99542">
        <ele>-0.82</ele>
        <time>2016-08-25T12:59:31Z</time>
      </trkpt>
      <trkpt lat="47.379" lon="-2.99484">
        <ele>-0.82</ele>
        <time>2016-08-25T12:59:55Z</time>
      </trkpt>
      <trkpt lat="47.37903" lon="-2.99427">
        <ele>-0.34</ele>
        <time>2016-08-25T13:00:19Z</time>
      </trkpt>
      <trkpt lat="47.37907" lon="-2.99372">
        <ele>-0.82</ele>
        <time>2016-08-25T13:00:43Z</time>
      </trkpt>
      <trkpt lat="47.3791" lon="-2.99316">
        <ele>-0.82</ele>
        <time>2016-08-25T13:01:07Z</time>
      </trkpt>
      <trkpt lat="47.37913" lon="-2.99262">
        <ele>-0.82</ele>
        <time>2016-08-25T13:01:32Z</time>
      </trkpt>
      <trkpt lat="47.37916" lon="-2.99212">
        <ele>-0.82</ele>
        <time>2016-08-25T13:01:57Z</time>
      </trkpt>
      <trkpt lat="47.37923" lon="-2.99163">
        <ele>0.14</ele>
        <time>2016-08-25T13:02:23Z</time>
      </trkpt>
      <trkpt lat="47.37929" lon="-2.99124">
        <ele>0.14</ele>
        <time>2016-08-25T13:02:45Z</time>
      </trkpt>
      <trkpt lat="47.37935" lon="-2.99079">
        <ele>0.14</ele>
        <time>2016-08-25T13:03:13Z</time>
      </trkpt>
      <trkpt lat="47.37943" lon="-2.99036">
        <ele>-0.34</ele>
        <time>2016-08-25T13:03:41Z</time>
      </trkpt>
      <trkpt lat="47.37949" lon="-2.99005">
        <ele>-0.34</ele>
        <time>2016-08-25T13:04:04Z</time>
      </trkpt>
      <trkpt lat="47.37956" lon="-2.98974">
        <ele>0.14</ele>
        <time>2016-08-25T13:04:30Z</time>
      </trkpt>
      <trkpt lat="47.37962" lon="-2.98946">
        <ele>0.14</ele>
        <time>2016-08-25T13:04:55Z</time>
      </trkpt>
      <trkpt lat="47.37968" lon="-2.98924">
        <ele>0.14</ele>
        <time>2016-08-25T13:05:17Z</time>
      </trkpt>
      <trkpt lat="47.37975" lon="-2.989">
        <ele>0.14</ele>
        <time>2016-08-25T13:05:43Z</time>
      </trkpt>
      <trkpt lat="47.37983" lon="-2.9888">
        <ele>-0.34</ele>
        <time>2016-08-25T13:06:10Z</time>
      </trkpt>
      <trkpt lat="47.3799" lon="-2.98866">
        <ele>0.14</ele>
        <time>2016-08-25T13:06:33Z</time>
      </trkpt>
      <trkpt lat="47.37996" lon="-2.98855">
        <ele>-0.34</ele>
        <time>2016-08-25T13:06:53Z</time>
      </trkpt>
      <trkpt lat="47.38002" lon="-2.98845">
        <ele>-0.34</ele>
        <time>2016-08-25T13:07:18Z</time>
      </trkpt>
      <trkpt lat="47.38008" lon="-2.98837">
        <ele>0.14</ele>
        <time>2016-08-25T13:07:42Z</time>
      </trkpt>
      <trkpt lat="47.38011" lon="-2.98833">
        <ele>0.14</ele>
        <time>2016-08-25T13:08:00Z</time>
      </trkpt>
      <trkpt lat="47.38016" lon="-2.98828">
        <ele>0.14</ele>
        <time>2016-08-25T13:08:22Z</time>
      </trkpt>
      <trkpt lat="47.38019" lon="-2.98824">
        <ele>0.14</ele>
        <time>2016-08-25T13:08:42Z</time>
      </trkpt>
      <trkpt lat="47.38023" lon="-2.98821">
        <ele>0.14</ele>
        <time>2016-08-25T13:09:03Z</time>
      </trkpt>
      <trkpt lat="47.38025" lon="-2.98818">
        <ele>0.14</ele>
        <time>2016-08-25T13:09:24Z</time>
      </trkpt>
      <trkpt lat="47.38028" lon="-2.98816">
        <ele>0.62</ele>
        <time>2016-08-25T13:09:47Z</time>
      </trkpt>
      <trkpt lat="47.38029" lon="-2.98815">
        <ele>0.62</ele>
        <time>2016-08-25T13:10:09Z</time>
      </trkpt>
      <trkpt lat="47.38032" lon="-2.98814">
        <ele>0.62</ele>
        <time>2016-08-25T13:10:32Z</time>
      </trkpt>
      <trkpt lat="47.38035" lon="-2.98813">
        <ele>0.62</ele>
        <time>2016-08-25T13:10:55Z</time>
      </trkpt>
      <trkpt lat="47.38039" lon="-2.98812">
        <ele>0.62</ele>
        <time>2016-08-25T13:11:15Z</time>
      </trkpt>
      <trkpt lat="47.38042" lon="-2.98813">
        <ele>0.14</ele>
        <time>2016-08-25T13:11:37Z</time>
      </trkpt>
      <trkpt lat="47.38045" lon="-2.98812">
        <ele>0.14</ele>
        <time>2016-08-25T13:12:01Z</time>
      </trkpt>
      <trkpt lat="47.38048" lon="-2.98812">
        <ele>0.14</ele>
        <time>2016-08-25T13:12:26Z</time>
      </trkpt>
      <trkpt lat="47.3805" lon="-2.98811">
        <ele>0.14</ele>
        <time>2016-08-25T13:12:51Z</time>
      </trkpt>
      <trkpt lat="47.38053" lon="-2.98811">
        <ele>0.14</ele>
        <time>2016-08-25T13:13:17Z</time>
      </trkpt>
      <trkpt lat="47.38056" lon="-2.9881">
        <ele>0.14</ele>
        <time>2016-08-25T13:13:44Z</time>
      </trkpt>
      <trkpt lat="47.38058" lon="-2.98809">
        <ele>0.14</ele>
        <time>2016-08-25T13:14:06Z</time>
      </trkpt>
      <trkpt lat="47.38061" lon="-2.98809">
        <ele>0.62</ele>
        <time>2016-08-25T13:14:30Z</time>
      </trkpt>
      <trkpt lat="47.38064" lon="-2.98808">
        <ele>0.62</ele>
        <time>2016-08-25T13:14:53Z</time>
      </trkpt>
      <trkpt lat="47.38067" lon="-2.98807">
        <ele>0.62</ele>
        <time>2016-08-25T13:15:17Z</time>
      </trkpt>
      <trkpt lat="47.38071" lon="-2.98805">
        <ele>1.1</ele>
        <time>2016-08-25T13:15:44Z</time>
      </trkpt>
      <trkpt lat="47.38076" lon="-2.98803">
        <ele>1.58</ele>
        <time>2016-08-25T13:16:10Z</time>
      </trkpt>
      <trkpt lat="47.38079" lon="-2.98801">
        <ele>2.06</ele>
        <time>2016-08-25T13:16:35Z</time>
      </trkpt>
      <trkpt lat="47.38082" lon="-2.988">
        <ele>2.54</ele>
        <time>2016-08-25T13:16:55Z</time>
      </trkpt>
      <trkpt lat="47.38086" lon="-2.98799">
        <ele>2.54</ele>
        <time>2016-08-25T13:17:16Z</time>
      </trkpt>
      <trkpt lat="47.38091" lon="-2.98797">
        <ele>3.02</ele>
        <time>2016-08-25T13:17:43Z</time>
      </trkpt>
      <trkpt lat="47.38095" lon="-2.98794">
        <ele>3.02</ele>
        <time>2016-08-25T13:18:08Z</time>
      </trkpt>
      <trkpt lat="47.381" lon="-2.9879">
        <ele>2.54</ele>
        <time>2016-08-25T13:18:33Z</time>
      </trkpt>
      <trkpt lat="47.38104" lon="-2.98786">
        <ele>2.54</ele>
        <time>2016-08-25T13:18:58Z</time>
      </trkpt>
      <trkpt lat="47.38109" lon="-2.98783">
        <ele>2.54</ele>
        <time>2016-08-25T13:19:21Z</time>
      </trkpt>
      <trkpt lat="47.38113" lon="-2.9878">
        <ele>3.5</ele>
        <time>2016-08-25T13:19:44Z</time>
      </trkpt>
      <trkpt lat="47.38117" lon="-2.98777">
        <ele>3.98</ele>
        <time>2016-08-25T13:20:06Z</time>
      </trkpt>
      <trkpt lat="47.38123" lon="-2.98767">
        <ele>2.54</ele>
        <time>2016-08-25T13:20:30Z</time>
      </trkpt>
      <trkpt lat="47.38125" lon="-2.98765">
        <ele>3.02</ele>
        <time>2016-08-25T13:20:51Z</time>
      </trkpt>
      <trkpt lat="47.38131" lon="-2.98758">
        <ele>3.02</ele>
        <time>2016-08-25T13:21:18Z</time>
      </trkpt>
      <trkpt lat="47.38136" lon="-2.98753">
        <ele>2.54</ele>
        <time>2016-08-25T13:21:43Z</time>
      </trkpt>
      <trkpt lat="47.38144" lon="-2.98745">
        <ele>2.54</ele>
        <time>2016-08-25T13:22:03Z</time>
      </trkpt>
      <trkpt lat="47.38154" lon="-2.98739">
        <ele>1.58</ele>
        <time>2016-08-25T13:22:27Z</time>
      </trkpt>
      <trkpt lat="47.3816" lon="-2.98735">
        <ele>0.62</ele>
        <time>2016-08-25T13:22:49Z</time>
      </trkpt>
      <trkpt lat="47.38163" lon="-2.98732">
        <ele>0.14</ele>
        <time>2016-08-25T13:23:11Z</time>
      </trkpt>
      <trkpt lat="47.38166" lon="-2.98729">
        <ele>0.62</ele>
        <time>2016-08-25T13:23:34Z</time>
      </trkpt>
      <trkpt lat="47.38169" lon="-2.98725">
        <ele>1.1</ele>
        <time>2016-08-25T13:23:54Z</time>
      </trkpt>
      <trkpt lat="47.38172" lon="-2.98722">
        <ele>2.06</ele>
        <time>2016-08-25T13:24:16Z</time>
      </trkpt>
      <trkpt lat="47.38175" lon="-2.98718">
        <ele>3.02</ele>
        <time>2016-08-25T13:24:39Z</time>
      </trkpt>
      <trkpt lat="47.38178" lon="-2.98713">
        <ele>3.5</ele>
        <time>2016-08-25T13:25:00Z</time>
      </trkpt>
      <trkpt lat="47.38181" lon="-2.98704">
        <ele>3.98</ele>
        <time>2016-08-25T13:25:21Z</time>
      </trkpt>
      <trkpt lat="47.38185" lon="-2.98693">
        <ele>3.02</ele>
        <time>2016-08-25T13:25:44Z</time>
      </trkpt>
      <trkpt lat="47.38187" lon="-2.98682">
        <ele>3.98</ele>
        <time>2016-08-25T13:26:12Z</time>
      </trkpt>
      <trkpt lat="47.38189" lon="-2.98675">
        <ele>5.42</ele>
        <time>2016-08-25T13:26:35Z</time>
      </trkpt>
      <trkpt lat="47.38192" lon="-2.98666">
        <ele>6.87</ele>
        <time>2016-08-25T13:26:58Z</time>
      </trkpt>
      <trkpt lat="47.38196" lon="-2.98655">
        <ele>7.35</ele>
        <time>2016-08-25T13:27:20Z</time>
      </trkpt>
      <trkpt lat="47.38199" lon="-2.98644">
        <ele>9.75</ele>
        <time>2016-08-25T13:27:45Z</time>
      </trkpt>
      <trkpt lat="47.38202" lon="-2.98628">
        <ele>11.67</ele>
        <time>2016-08-25T13:28:05Z</time>
      </trkpt>
      <trkpt lat="47.38213" lon="-2.98596">
        <ele>11.67</ele>
        <time>2016-08-25T13:28:23Z</time>
      </trkpt>
      <trkpt lat="47.3822" lon="-2.9857">
        <ele>7.83</ele>
        <time>2016-08-25T13:28:43Z</time>
      </trkpt>
      <trkpt lat="47.38228" lon="-2.98544">
        <ele>3.98</ele>
        <time>2016-08-25T13:29:08Z</time>
      </trkpt>
      <trkpt lat="47.38236" lon="-2.9853">
        <ele>3.02</ele>
        <time>2016-08-25T13:29:22Z</time>
      </trkpt>
      <trkpt lat="47.38244" lon="-2.98506">
        <ele>1.58</ele>
        <time>2016-08-25T13:29:41Z</time>
      </trkpt>
      <trkpt lat="47.38251" lon="-2.9848">
        <ele>0.62</ele>
        <time>2016-08-25T13:30:02Z</time>
      </trkpt>
      <trkpt lat="47.38261" lon="-2.98446">
        <ele>0.14</ele>
        <time>2016-08-25T13:30:28Z</time>
      </trkpt>
      <trkpt lat="47.38267" lon="-2.98419">
        <ele>0.14</ele>
        <time>2016-08-25T13:30:50Z</time>
      </trkpt>
      <trkpt lat="47.3827" lon="-2.98392">
        <ele>0.62</ele>
        <time>2016-08-25T13:31:12Z</time>
      </trkpt>
      <trkpt lat="47.38273" lon="-2.98372">
        <ele>0.14</ele>
        <time>2016-08-25T13:31:32Z</time>
      </trkpt>
      <trkpt lat="47.38274" lon="-2.98364">
        <ele>-0.34</ele>
        <time>2016-08-25T13:31:41Z</time>
      </trkpt>
      <trkpt lat="47.38272" lon="-2.98341">
        <ele>-0.34</ele>
        <time>2016-08-25T13:32:03Z</time>
      </trkpt>
      <trkpt lat="47.38271" lon="-2.98319">
        <ele>0.14</ele>
        <time>2016-08-25T13:32:25Z</time>
      </trkpt>
      <trkpt lat="47.38269" lon="-2.98299">
        <ele>0.14</ele>
        <time>2016-08-25T13:32:47Z</time>
      </trkpt>
      <trkpt lat="47.38264" lon="-2.98279">
        <ele>-0.34</ele>
        <time>2016-08-25T13:33:11Z</time>
      </trkpt>
      <trkpt lat="47.38254" lon="-2.9826">
        <ele>-0.82</ele>
        <time>2016-08-25T13:33:36Z</time>
      </trkpt>
      <trkpt lat="47.38242" lon="-2.98243">
        <ele>-0.34</ele>
        <time>2016-08-25T13:34:01Z</time>
      </trkpt>
      <trkpt lat="47.38234" lon="-2.98233">
        <ele>0.14</ele>
        <time>2016-08-25T13:34:16Z</time>
      </trkpt>
      <trkpt lat="47.38222" lon="-2.98212">
        <ele>-0.34</ele>
        <time>2016-08-25T13:34:41Z</time>
      </trkpt>
      <trkpt lat="47.38213" lon="-2.9819">
        <ele>-0.82</ele>
        <time>2016-08-25T13:35:06Z</time>
      </trkpt>
      <trkpt lat="47.38208" lon="-2.98172">
        <ele>-0.34</ele>
        <time>2016-08-25T13:35:27Z</time>
      </trkpt>
      <trkpt lat="47.38205" lon="-2.98156">
        <ele>-0.82</ele>
        <time>2016-08-25T13:35:49Z</time>
      </trkpt>
      <trkpt lat="47.38203" lon="-2.98139">
        <ele>-0.82</ele>
        <time>2016-08-25T13:36:11Z</time>
      </trkpt>
      <trkpt lat="47.38202" lon="-2.98134">
        <ele>0.62</ele>
        <time>2016-08-25T13:36:31Z</time>
      </trkpt>
      <trkpt lat="47.382" lon="-2.98124">
        <ele>1.58</ele>
        <time>2016-08-25T13:36:49Z</time>
      </trkpt>
      <trkpt lat="47.38194" lon="-2.98103">
        <ele>3.5</ele>
        <time>2016-08-25T13:37:07Z</time>
      </trkpt>
      <trkpt lat="47.3819" lon="-2.98085">
        <ele>2.54</ele>
        <time>2016-08-25T13:37:27Z</time>
      </trkpt>
      <trkpt lat="47.38188" lon="-2.98069">
        <ele>0.62</ele>
        <time>2016-08-25T13:37:46Z</time>
      </trkpt>
      <trkpt lat="47.38185" lon="-2.98054">
        <ele>0.14</ele>
        <time>2016-08-25T13:38:03Z</time>
      </trkpt>
      <trkpt lat="47.38173" lon="-2.98041">
        <ele>-0.34</ele>
        <time>2016-08-25T13:38:26Z</time>
      </trkpt>
      <trkpt lat="47.3816" lon="-2.98029">
        <ele>-0.82</ele>
        <time>2016-08-25T13:38:49Z</time>
      </trkpt>
      <trkpt lat="47.38146" lon="-2.98017">
        <ele>-0.34</ele>
        <time>2016-08-25T13:39:12Z</time>
      </trkpt>
      <trkpt lat="47.38133" lon="-2.98007">
        <ele>0.14</ele>
        <time>2016-08-25T13:39:33Z</time>
      </trkpt>
      <trkpt lat="47.38122" lon="-2.97997">
        <ele>-0.34</ele>
        <time>2016-08-25T13:39:53Z</time>
      </trkpt>
      <trkpt lat="47.38112" lon="-2.97985">
        <ele>0.14</ele>
        <time>2016-08-25T13:40:10Z</time>
      </trkpt>
      <trkpt lat="47.381" lon="-2.97972">
        <ele>-0.34</ele>
        <time>2016-08-25T13:40:33Z</time>
      </trkpt>
      <trkpt lat="47.38091" lon="-2.97959">
        <ele>-0.34</ele>
        <time>2016-08-25T13:40:57Z</time>
      </trkpt>
      <trkpt lat="47.38085" lon="-2.97947">
        <ele>0.62</ele>
        <time>2016-08-25T13:41:19Z</time>
      </trkpt>
      <trkpt lat="47.3808" lon="-2.97936">
        <ele>0.62</ele>
        <time>2016-08-25T13:41:43Z</time>
      </trkpt>
      <trkpt lat="47.38078" lon="-2.97932">
        <ele>1.1</ele>
        <time>2016-08-25T13:42:04Z</time>
      </trkpt>
      <trkpt lat="47.38076" lon="-2.97928">
        <ele>0.62</ele>
        <time>2016-08-25T13:42:23Z</time>
      </trkpt>
      <trkpt lat="47.38073" lon="-2.97923">
        <ele>0.14</ele>
        <time>2016-08-25T13:42:48Z</time>
      </trkpt>
      <trkpt lat="47.3807" lon="-2.97918">
        <ele>1.1</ele>
        <time>2016-08-25T13:43:09Z</time>
      </trkpt>
      <trkpt lat="47.38061" lon="-2.97911">
        <ele>1.1</ele>
        <time>2016-08-25T13:43:30Z</time>
      </trkpt>
      <trkpt lat="47.38057" lon="-2.97906">
        <ele>0.62</ele>
        <time>2016-08-25T13:43:54Z</time>
      </trkpt>
      <trkpt lat="47.38053" lon="-2.97899">
        <ele>1.1</ele>
        <time>2016-08-25T13:44:15Z</time>
      </trkpt>
      <trkpt lat="47.38037" lon="-2.97877">
        <ele>2.06</ele>
        <time>2016-08-25T13:44:38Z</time>
      </trkpt>
      <trkpt lat="47.38007" lon="-2.97819">
        <ele>2.06</ele>
        <time>2016-08-25T13:45:00Z</time>
      </trkpt>
      <trkpt lat="47.37983" lon="-2.97765">
        <ele>1.1</ele>
        <time>2016-08-25T13:45:21Z</time>
      </trkpt>
      <trkpt lat="47.37966" lon="-2.9772">
        <ele>1.58</ele>
        <time>2016-08-25T13:45:38Z</time>
      </trkpt>
      <trkpt lat="47.37941" lon="-2.97659">
        <ele>1.1</ele>
        <time>2016-08-25T13:46:01Z</time>
      </trkpt>
      <trkpt lat="47.37923" lon="-2.97617">
        <ele>0.62</ele>
        <time>2016-08-25T13:46:18Z</time>
      </trkpt>
      <trkpt lat="47.37897" lon="-2.97566">
        <ele>0.62</ele>
        <time>2016-08-25T13:46:38Z</time>
      </trkpt>
      <trkpt lat="47.37875" lon="-2.97519">
        <ele>-0.34</ele>
        <time>2016-08-25T13:46:57Z</time>
      </trkpt>
      <trkpt lat="47.3785" lon="-2.97467">
        <ele>0.62</ele>
        <time>2016-08-25T13:47:18Z</time>
      </trkpt>
      <trkpt lat="47.37813" lon="-2.97412">
        <ele>0.14</ele>
        <time>2016-08-25T13:47:44Z</time>
      </trkpt>
      <trkpt lat="47.37776" lon="-2.9736">
        <ele>0.62</ele>
        <time>2016-08-25T13:48:09Z</time>
      </trkpt>
      <trkpt lat="47.37746" lon="-2.9731">
        <ele>0.62</ele>
        <time>2016-08-25T13:48:31Z</time>
      </trkpt>
      <trkpt lat="47.37717" lon="-2.97251">
        <ele>0.14</ele>
        <time>2016-08-25T13:48:55Z</time>
      </trkpt>
      <trkpt lat="47.37688" lon="-2.97189">
        <ele>0.62</ele>
        <time>2016-08-25T13:49:19Z</time>
      </trkpt>
      <trkpt lat="47.37663" lon="-2.97139">
        <ele>0.62</ele>
        <time>2016-08-25T13:49:39Z</time>
      </trkpt>
      <trkpt lat="47.37633" lon="-2.97083">
        <ele>1.1</ele>
        <time>2016-08-25T13:50:02Z</time>
      </trkpt>
      <trkpt lat="47.37606" lon="-2.9703">
        <ele>1.1</ele>
        <time>2016-08-25T13:50:23Z</time>
      </trkpt>
      <trkpt lat="47.37578" lon="-2.9699">
        <ele>1.1</ele>
        <time>2016-08-25T13:50:41Z</time>
      </trkpt>
      <trkpt lat="47.37549" lon="-2.96938">
        <ele>1.1</ele>
        <time>2016-08-25T13:51:02Z</time>
      </trkpt>
      <trkpt lat="47.37528" lon="-2.96888">
        <ele>0.62</ele>
        <time>2016-08-25T13:51:20Z</time>
      </trkpt>
      <trkpt lat="47.37507" lon="-2.96838">
        <ele>0.62</ele>
        <time>2016-08-25T13:51:39Z</time>
      </trkpt>
      <trkpt lat="47.37477" lon="-2.9678">
        <ele>0.62</ele>
        <time>2016-08-25T13:52:01Z</time>
      </trkpt>
      <trkpt lat="47.37453" lon="-2.96724">
        <ele>1.1</ele>
        <time>2016-08-25T13:52:22Z</time>
      </trkpt>
      <trkpt lat="47.37427" lon="-2.96668">
        <ele>1.58</ele>
        <time>2016-08-25T13:52:44Z</time>
      </trkpt>
      <trkpt lat="47.37405" lon="-2.96618">
        <ele>1.1</ele>
        <time>2016-08-25T13:53:03Z</time>
      </trkpt>
      <trkpt lat="47.37379" lon="-2.96556">
        <ele>1.58</ele>
        <time>2016-08-25T13:53:26Z</time>
      </trkpt>
      <trkpt lat="47.37348" lon="-2.96487">
        <ele>0.62</ele>
        <time>2016-08-25T13:53:52Z</time>
      </trkpt>
      <trkpt lat="47.37315" lon="-2.96432">
        <ele>0.62</ele>
        <time>2016-08-25T13:54:15Z</time>
      </trkpt>
      <trkpt lat="47.37273" lon="-2.96388">
        <ele>0.62</ele>
        <time>2016-08-25T13:54:39Z</time>
      </trkpt>
      <trkpt lat="47.37239" lon="-2.9634">
        <ele>0.14</ele>
        <time>2016-08-25T13:55:01Z</time>
      </trkpt>
      <trkpt lat="47.37208" lon="-2.96282">
        <ele>1.1</ele>
        <time>2016-08-25T13:55:25Z</time>
      </trkpt>
      <trkpt lat="47.37169" lon="-2.96231">
        <ele>1.1</ele>
        <time>2016-08-25T13:55:49Z</time>
      </trkpt>
      <trkpt lat="47.37144" lon="-2.96164">
        <ele>1.1</ele>
        <time>2016-08-25T13:56:14Z</time>
      </trkpt>
      <trkpt lat="47.37116" lon="-2.96086">
        <ele>1.1</ele>
        <time>2016-08-25T13:56:42Z</time>
      </trkpt>
      <trkpt lat="47.37093" lon="-2.96022">
        <ele>1.1</ele>
        <time>2016-08-25T13:57:05Z</time>
      </trkpt>
      <trkpt lat="47.3707" lon="-2.95959">
        <ele>1.58</ele>
        <time>2016-08-25T13:57:28Z</time>
      </trkpt>
      <trkpt lat="47.37052" lon="-2.95893">
        <ele>2.54</ele>
        <time>2016-08-25T13:57:51Z</time>
      </trkpt>
      <trkpt lat="47.37029" lon="-2.95829">
        <ele>1.58</ele>
        <time>2016-08-25T13:58:14Z</time>
      </trkpt>
      <trkpt lat="47.37006" lon="-2.95766">
        <ele>1.1</ele>
        <time>2016-08-25T13:58:36Z</time>
      </trkpt>
      <trkpt lat="47.36989" lon="-2.95707">
        <ele>1.1</ele>
        <time>2016-08-25T13:58:56Z</time>
      </trkpt>
      <trkpt lat="47.36973" lon="-2.95644">
        <ele>1.58</ele>
        <time>2016-08-25T13:59:17Z</time>
      </trkpt>
      <trkpt lat="47.3696" lon="-2.95582">
        <ele>1.58</ele>
        <time>2016-08-25T13:59:37Z</time>
      </trkpt>
      <trkpt lat="47.36947" lon="-2.95517">
        <ele>1.58</ele>
        <time>2016-08-25T13:59:58Z</time>
      </trkpt>
      <trkpt lat="47.36924" lon="-2.95473">
        <ele>1.58</ele>
        <time>2016-08-25T14:00:16Z</time>
      </trkpt>
      <trkpt lat="47.36906" lon="-2.95408">
        <ele>2.06</ele>
        <time>2016-08-25T14:00:38Z</time>
      </trkpt>
      <trkpt lat="47.36893" lon="-2.95348">
        <ele>1.58</ele>
        <time>2016-08-25T14:00:58Z</time>
      </trkpt>
      <trkpt lat="47.36878" lon="-2.95278">
        <ele>1.1</ele>
        <time>2016-08-25T14:01:21Z</time>
      </trkpt>
      <trkpt lat="47.36861" lon="-2.9521">
        <ele>1.58</ele>
        <time>2016-08-25T14:01:44Z</time>
      </trkpt>
      <trkpt lat="47.36846" lon="-2.95143">
        <ele>1.1</ele>
        <time>2016-08-25T14:02:06Z</time>
      </trkpt>
      <trkpt lat="47.36833" lon="-2.95089">
        <ele>1.58</ele>
        <time>2016-08-25T14:02:24Z</time>
      </trkpt>
      <trkpt lat="47.36811" lon="-2.95015">
        <ele>1.58</ele>
        <time>2016-08-25T14:02:49Z</time>
      </trkpt>
      <trkpt lat="47.36781" lon="-2.9497">
        <ele>2.06</ele>
        <time>2016-08-25T14:03:09Z</time>
      </trkpt>
      <trkpt lat="47.36757" lon="-2.94917">
        <ele>1.1</ele>
        <time>2016-08-25T14:03:30Z</time>
      </trkpt>
      <trkpt lat="47.36738" lon="-2.94839">
        <ele>1.58</ele>
        <time>2016-08-25T14:03:57Z</time>
      </trkpt>
      <trkpt lat="47.36731" lon="-2.94761">
        <ele>2.06</ele>
        <time>2016-08-25T14:04:22Z</time>
      </trkpt>
      <trkpt lat="47.3672" lon="-2.94691">
        <ele>1.58</ele>
        <time>2016-08-25T14:04:45Z</time>
      </trkpt>
      <trkpt lat="47.3671" lon="-2.9462">
        <ele>2.06</ele>
        <time>2016-08-25T14:05:08Z</time>
      </trkpt>
      <trkpt lat="47.36698" lon="-2.94562">
        <ele>2.06</ele>
        <time>2016-08-25T14:05:29Z</time>
      </trkpt>
      <trkpt lat="47.36704" lon="-2.94513">
        <ele>1.58</ele>
        <time>2016-08-25T14:05:50Z</time>
      </trkpt>
      <trkpt lat="47.36723" lon="-2.94466">
        <ele>1.58</ele>
        <time>2016-08-25T14:06:13Z</time>
      </trkpt>
      <trkpt lat="47.36745" lon="-2.94429">
        <ele>1.58</ele>
        <time>2016-08-25T14:06:35Z</time>
      </trkpt>
      <trkpt lat="47.36776" lon="-2.94393">
        <ele>2.06</ele>
        <time>2016-08-25T14:07:00Z</time>
      </trkpt>
      <trkpt lat="47.36804" lon="-2.94349">
        <ele>1.58</ele>
        <time>2016-08-25T14:07:25Z</time>
      </trkpt>
      <trkpt lat="47.36827" lon="-2.94324">
        <ele>1.58</ele>
        <time>2016-08-25T14:07:43Z</time>
      </trkpt>
      <trkpt lat="47.36861" lon="-2.94291">
        <ele>2.06</ele>
        <time>2016-08-25T14:08:07Z</time>
      </trkpt>
      <trkpt lat="47.36894" lon="-2.94248">
        <ele>1.58</ele>
        <time>2016-08-25T14:08:33Z</time>
      </trkpt>
      <trkpt lat="47.36926" lon="-2.94232">
        <ele>1.58</ele>
        <time>2016-08-25T14:08:53Z</time>
      </trkpt>
      <trkpt lat="47.36968" lon="-2.94222">
        <ele>1.1</ele>
        <time>2016-08-25T14:09:17Z</time>
      </trkpt>
      <trkpt lat="47.37009" lon="-2.94221">
        <ele>0.62</ele>
        <time>2016-08-25T14:09:40Z</time>
      </trkpt>
      <trkpt lat="47.37058" lon="-2.94221">
        <ele>1.58</ele>
        <time>2016-08-25T14:10:07Z</time>
      </trkpt>
      <trkpt lat="47.37107" lon="-2.94217">
        <ele>1.58</ele>
        <time>2016-08-25T14:10:35Z</time>
      </trkpt>
      <trkpt lat="47.37152" lon="-2.94221">
        <ele>2.06</ele>
        <time>2016-08-25T14:11:00Z</time>
      </trkpt>
      <trkpt lat="47.37199" lon="-2.94227">
        <ele>1.58</ele>
        <time>2016-08-25T14:11:26Z</time>
      </trkpt>
      <trkpt lat="47.37249" lon="-2.94224">
        <ele>1.1</ele>
        <time>2016-08-25T14:11:53Z</time>
      </trkpt>
      <trkpt lat="47.37292" lon="-2.94225">
        <ele>0.62</ele>
        <time>2016-08-25T14:12:16Z</time>
      </trkpt>
      <trkpt lat="47.37343" lon="-2.94241">
        <ele>1.1</ele>
        <time>2016-08-25T14:12:44Z</time>
      </trkpt>
      <trkpt lat="47.37383" lon="-2.94248">
        <ele>0.62</ele>
        <time>2016-08-25T14:13:06Z</time>
      </trkpt>
      <trkpt lat="47.37434" lon="-2.94261">
        <ele>0.62</ele>
        <time>2016-08-25T14:13:34Z</time>
      </trkpt>
      <trkpt lat="47.37478" lon="-2.94278">
        <ele>0.14</ele>
        <time>2016-08-25T14:13:57Z</time>
      </trkpt>
      <trkpt lat="47.37517" lon="-2.94289">
        <ele>0.14</ele>
        <time>2016-08-25T14:14:18Z</time>
      </trkpt>
      <trkpt lat="47.37579" lon="-2.94306">
        <ele>1.1</ele>
        <time>2016-08-25T14:14:51Z</time>
      </trkpt>
      <trkpt lat="47.3762" lon="-2.94304">
        <ele>0.62</ele>
        <time>2016-08-25T14:15:12Z</time>
      </trkpt>
      <trkpt lat="47.37658" lon="-2.9432">
        <ele>1.1</ele>
        <time>2016-08-25T14:15:32Z</time>
      </trkpt>
      <trkpt lat="47.37699" lon="-2.94359">
        <ele>1.1</ele>
        <time>2016-08-25T14:15:56Z</time>
      </trkpt>
      <trkpt lat="47.3774" lon="-2.94416">
        <ele>0.62</ele>
        <time>2016-08-25T14:16:23Z</time>
      </trkpt>
      <trkpt lat="47.37775" lon="-2.94465">
        <ele>-0.34</ele>
        <time>2016-08-25T14:16:46Z</time>
      </trkpt>
      <trkpt lat="47.37821" lon="-2.94519">
        <ele>-0.34</ele>
        <time>2016-08-25T14:17:14Z</time>
      </trkpt>
      <trkpt lat="47.37864" lon="-2.94548">
        <ele>-0.82</ele>
        <time>2016-08-25T14:17:38Z</time>
      </trkpt>
      <trkpt lat="47.3789" lon="-2.94554">
        <ele>0.62</ele>
        <time>2016-08-25T14:18:02Z</time>
      </trkpt>
      <trkpt lat="47.37914" lon="-2.94561">
        <ele>1.58</ele>
        <time>2016-08-25T14:18:32Z</time>
      </trkpt>
      <trkpt lat="47.37936" lon="-2.94569">
        <ele>2.54</ele>
        <time>2016-08-25T14:18:59Z</time>
      </trkpt>
      <trkpt lat="47.37956" lon="-2.94588">
        <ele>1.1</ele>
        <time>2016-08-25T14:19:26Z</time>
      </trkpt>
      <trkpt lat="47.37957" lon="-2.94612">
        <ele>1.1</ele>
        <time>2016-08-25T14:19:54Z</time>
      </trkpt>
      <trkpt lat="47.37949" lon="-2.94633">
        <ele>1.58</ele>
        <time>2016-08-25T14:20:21Z</time>
      </trkpt>
      <trkpt lat="47.3794" lon="-2.94652">
        <ele>1.58</ele>
        <time>2016-08-25T14:20:50Z</time>
      </trkpt>
      <trkpt lat="47.37935" lon="-2.94668">
        <ele>1.58</ele>
        <time>2016-08-25T14:21:19Z</time>
      </trkpt>
      <trkpt lat="47.37932" lon="-2.94677">
        <ele>1.1</ele>
        <time>2016-08-25T14:21:46Z</time>
      </trkpt>
      <trkpt lat="47.37928" lon="-2.94689">
        <ele>1.58</ele>
        <time>2016-08-25T14:21:56Z</time>
      </trkpt>
      <trkpt lat="47.37915" lon="-2.94729">
        <ele>2.06</ele>
        <time>2016-08-25T14:22:28Z</time>
      </trkpt>
      <trkpt lat="47.37909" lon="-2.94746">
        <ele>2.06</ele>
        <time>2016-08-25T14:22:55Z</time>
      </trkpt>
      <trkpt lat="47.37893" lon="-2.94777">
        <ele>2.06</ele>
        <time>2016-08-25T14:23:27Z</time>
      </trkpt>
      <trkpt lat="47.3789" lon="-2.94794">
        <ele>1.58</ele>
        <time>2016-08-25T14:23:53Z</time>
      </trkpt>
      <trkpt lat="47.37892" lon="-2.94794">
        <ele>2.06</ele>
        <time>2016-08-25T14:24:24Z</time>
      </trkpt>
      <trkpt lat="47.37894" lon="-2.94781">
        <ele>3.02</ele>
        <time>2016-08-25T14:24:57Z</time>
      </trkpt>
      <trkpt lat="47.37894" lon="-2.94782">
        <ele>2.54</ele>
        <time>2016-08-25T14:25:24Z</time>
      </trkpt>
      <trkpt lat="47.37894" lon="-2.94784">
        <ele>2.54</ele>
        <time>2016-08-25T14:25:46Z</time>
      </trkpt>
      <trkpt lat="47.37905" lon="-2.94793">
        <ele>-6.59</ele>
        <time>2016-08-25T15:53:47Z</time>
      </trkpt>
      <trkpt lat="47.37878" lon="-2.94783">
        <ele>-16.21</ele>
        <time>2016-08-25T15:54:00Z</time>
      </trkpt>
      <trkpt lat="47.37879" lon="-2.94792">
        <ele>-2.75</ele>
        <time>2016-08-25T15:54:17Z</time>
      </trkpt>
      <trkpt lat="47.37879" lon="-2.94794">
        <ele>-0.82</ele>
        <time>2016-08-25T15:54:32Z</time>
      </trkpt>
      <trkpt lat="47.37883" lon="-2.94796">
        <ele>-0.34</ele>
        <time>2016-08-25T15:54:56Z</time>
      </trkpt>
      <trkpt lat="47.37883" lon="-2.94797">
        <ele>-0.82</ele>
        <time>2016-08-25T15:55:21Z</time>
      </trkpt>
      <trkpt lat="47.37885" lon="-2.94799">
        <ele>-0.34</ele>
        <time>2016-08-25T15:55:44Z</time>
      </trkpt>
      <trkpt lat="47.37883" lon="-2.94792">
        <ele>-0.34</ele>
        <time>2016-08-25T15:56:06Z</time>
      </trkpt>
      <trkpt lat="47.37883" lon="-2.94781">
        <ele>0.14</ele>
        <time>2016-08-25T15:56:26Z</time>
      </trkpt>
      <trkpt lat="47.37883" lon="-2.94774">
        <ele>0.14</ele>
        <time>2016-08-25T15:56:45Z</time>
      </trkpt>
      <trkpt lat="47.37884" lon="-2.94772">
        <ele>0.62</ele>
        <time>2016-08-25T15:56:47Z</time>
      </trkpt>
      <trkpt lat="47.37901" lon="-2.94748">
        <ele>0.14</ele>
        <time>2016-08-25T15:57:05Z</time>
      </trkpt>
      <trkpt lat="47.37923" lon="-2.9472">
        <ele>0.14</ele>
        <time>2016-08-25T15:57:23Z</time>
      </trkpt>
      <trkpt lat="47.3795" lon="-2.94687">
        <ele>0.14</ele>
        <time>2016-08-25T15:57:43Z</time>
      </trkpt>
      <trkpt lat="47.37973" lon="-2.94652">
        <ele>0.62</ele>
        <time>2016-08-25T15:58:02Z</time>
      </trkpt>
      <trkpt lat="47.37999" lon="-2.9461">
        <ele>-0.34</ele>
        <time>2016-08-25T15:58:24Z</time>
      </trkpt>
      <trkpt lat="47.38027" lon="-2.94572">
        <ele>0.14</ele>
        <time>2016-08-25T15:58:46Z</time>
      </trkpt>
      <trkpt lat="47.38031" lon="-2.94567">
        <ele>0.14</ele>
        <time>2016-08-25T15:58:49Z</time>
      </trkpt>
      <trkpt lat="47.38049" lon="-2.94537">
        <ele>-0.82</ele>
        <time>2016-08-25T15:59:05Z</time>
      </trkpt>
      <trkpt lat="47.3807" lon="-2.94498">
        <ele>-1.79</ele>
        <time>2016-08-25T15:59:24Z</time>
      </trkpt>
      <trkpt lat="47.38074" lon="-2.9449">
        <ele>-1.3</ele>
        <time>2016-08-25T15:59:28Z</time>
      </trkpt>
      <trkpt lat="47.3809" lon="-2.94457">
        <ele>-0.34</ele>
        <time>2016-08-25T15:59:44Z</time>
      </trkpt>
      <trkpt lat="47.38107" lon="-2.94425">
        <ele>0.62</ele>
        <time>2016-08-25T16:00:00Z</time>
      </trkpt>
      <trkpt lat="47.38124" lon="-2.94398">
        <ele>-0.82</ele>
        <time>2016-08-25T16:00:14Z</time>
      </trkpt>
      <trkpt lat="47.38157" lon="-2.94351">
        <ele>-2.75</ele>
        <time>2016-08-25T16:00:39Z</time>
      </trkpt>
      <trkpt lat="47.38186" lon="-2.94307">
        <ele>-2.27</ele>
        <time>2016-08-25T16:01:04Z</time>
      </trkpt>
      <trkpt lat="47.38218" lon="-2.94291">
        <ele>-2.27</ele>
        <time>2016-08-25T16:01:27Z</time>
      </trkpt>
      <trkpt lat="47.38243" lon="-2.94292">
        <ele>-1.79</ele>
        <time>2016-08-25T16:01:46Z</time>
      </trkpt>
      <trkpt lat="47.38259" lon="-2.94315">
        <ele>-2.27</ele>
        <time>2016-08-25T16:02:06Z</time>
      </trkpt>
      <trkpt lat="47.38281" lon="-2.94345">
        <ele>-2.27</ele>
        <time>2016-08-25T16:02:32Z</time>
      </trkpt>
      <trkpt lat="47.38306" lon="-2.94347">
        <ele>-1.79</ele>
        <time>2016-08-25T16:02:52Z</time>
      </trkpt>
      <trkpt lat="47.38343" lon="-2.94315">
        <ele>-1.79</ele>
        <time>2016-08-25T16:03:16Z</time>
      </trkpt>
      <trkpt lat="47.38381" lon="-2.94266">
        <ele>-2.27</ele>
        <time>2016-08-25T16:03:41Z</time>
      </trkpt>
      <trkpt lat="47.38415" lon="-2.94204">
        <ele>-2.75</ele>
        <time>2016-08-25T16:04:06Z</time>
      </trkpt>
      <trkpt lat="47.38446" lon="-2.9415">
        <ele>-2.75</ele>
        <time>2016-08-25T16:04:30Z</time>
      </trkpt>
      <trkpt lat="47.38476" lon="-2.94098">
        <ele>-2.75</ele>
        <time>2016-08-25T16:04:54Z</time>
      </trkpt>
      <trkpt lat="47.38509" lon="-2.94045">
        <ele>-2.27</ele>
        <time>2016-08-25T16:05:21Z</time>
      </trkpt>
      <trkpt lat="47.38549" lon="-2.93991">
        <ele>-1.79</ele>
        <time>2016-08-25T16:05:51Z</time>
      </trkpt>
      <trkpt lat="47.38586" lon="-2.93932">
        <ele>-0.82</ele>
        <time>2016-08-25T16:06:20Z</time>
      </trkpt>
      <trkpt lat="47.38621" lon="-2.9387">
        <ele>-0.34</ele>
        <time>2016-08-25T16:06:48Z</time>
      </trkpt>
      <trkpt lat="47.38653" lon="-2.93816">
        <ele>-1.79</ele>
        <time>2016-08-25T16:07:14Z</time>
      </trkpt>
      <trkpt lat="47.38689" lon="-2.93766">
        <ele>-1.79</ele>
        <time>2016-08-25T16:07:40Z</time>
      </trkpt>
      <trkpt lat="47.38719" lon="-2.93724">
        <ele>-2.27</ele>
        <time>2016-08-25T16:08:03Z</time>
      </trkpt>
      <trkpt lat="47.38744" lon="-2.93672">
        <ele>-2.27</ele>
        <time>2016-08-25T16:08:26Z</time>
      </trkpt>
      <trkpt lat="47.38765" lon="-2.93607">
        <ele>-2.27</ele>
        <time>2016-08-25T16:08:48Z</time>
      </trkpt>
      <trkpt lat="47.38788" lon="-2.93551">
        <ele>-2.27</ele>
        <time>2016-08-25T16:09:10Z</time>
      </trkpt>
      <trkpt lat="47.38815" lon="-2.93489">
        <ele>-2.75</ele>
        <time>2016-08-25T16:09:30Z</time>
      </trkpt>
      <trkpt lat="47.38853" lon="-2.93442">
        <ele>-1.79</ele>
        <time>2016-08-25T16:09:52Z</time>
      </trkpt>
      <trkpt lat="47.38907" lon="-2.93425">
        <ele>-2.27</ele>
        <time>2016-08-25T16:10:14Z</time>
      </trkpt>
      <trkpt lat="47.3895" lon="-2.93416">
        <ele>-2.27</ele>
        <time>2016-08-25T16:10:33Z</time>
      </trkpt>
      <trkpt lat="47.39004" lon="-2.93394">
        <ele>-2.75</ele>
        <time>2016-08-25T16:10:55Z</time>
      </trkpt>
      <trkpt lat="47.39052" lon="-2.93384">
        <ele>-2.27</ele>
        <time>2016-08-25T16:11:16Z</time>
      </trkpt>
      <trkpt lat="47.39088" lon="-2.93373">
        <ele>-1.79</ele>
        <time>2016-08-25T16:11:34Z</time>
      </trkpt>
      <trkpt lat="47.39133" lon="-2.93352">
        <ele>-1.79</ele>
        <time>2016-08-25T16:11:58Z</time>
      </trkpt>
      <trkpt lat="47.39174" lon="-2.93332">
        <ele>-1.79</ele>
        <time>2016-08-25T16:12:22Z</time>
      </trkpt>
      <trkpt lat="47.39208" lon="-2.93312">
        <ele>-1.79</ele>
        <time>2016-08-25T16:12:44Z</time>
      </trkpt>
      <trkpt lat="47.39243" lon="-2.93297">
        <ele>-2.27</ele>
        <time>2016-08-25T16:13:05Z</time>
      </trkpt>
      <trkpt lat="47.39276" lon="-2.93287">
        <ele>-1.79</ele>
        <time>2016-08-25T16:13:25Z</time>
      </trkpt>
      <trkpt lat="47.39314" lon="-2.93265">
        <ele>-2.75</ele>
        <time>2016-08-25T16:13:50Z</time>
      </trkpt>
      <trkpt lat="47.39348" lon="-2.93238">
        <ele>-2.75</ele>
        <time>2016-08-25T16:14:16Z</time>
      </trkpt>
      <trkpt lat="47.39377" lon="-2.9323">
        <ele>-2.27</ele>
        <time>2016-08-25T16:14:37Z</time>
      </trkpt>
      <trkpt lat="47.39412" lon="-2.93235">
        <ele>-2.27</ele>
        <time>2016-08-25T16:15:01Z</time>
      </trkpt>
      <trkpt lat="47.39453" lon="-2.93256">
        <ele>-2.75</ele>
        <time>2016-08-25T16:15:26Z</time>
      </trkpt>
      <trkpt lat="47.39491" lon="-2.93273">
        <ele>-2.75</ele>
        <time>2016-08-25T16:15:49Z</time>
      </trkpt>
      <trkpt lat="47.3953" lon="-2.93293">
        <ele>-2.75</ele>
        <time>2016-08-25T16:16:13Z</time>
      </trkpt>
      <trkpt lat="47.39571" lon="-2.93312">
        <ele>-1.79</ele>
        <time>2016-08-25T16:16:39Z</time>
      </trkpt>
      <trkpt lat="47.39605" lon="-2.93327">
        <ele>-1.79</ele>
        <time>2016-08-25T16:17:01Z</time>
      </trkpt>
      <trkpt lat="47.39652" lon="-2.93339">
        <ele>-2.75</ele>
        <time>2016-08-25T16:17:26Z</time>
      </trkpt>
      <trkpt lat="47.39701" lon="-2.93348">
        <ele>-3.71</ele>
        <time>2016-08-25T16:17:49Z</time>
      </trkpt>
      <trkpt lat="47.39753" lon="-2.93351">
        <ele>-5.15</ele>
        <time>2016-08-25T16:18:13Z</time>
      </trkpt>
      <trkpt lat="47.398" lon="-2.93352">
        <ele>-5.63</ele>
        <time>2016-08-25T16:18:34Z</time>
      </trkpt>
      <trkpt lat="47.39844" lon="-2.93345">
        <ele>-5.63</ele>
        <time>2016-08-25T16:18:54Z</time>
      </trkpt>
      <trkpt lat="47.39891" lon="-2.93342">
        <ele>-4.67</ele>
        <time>2016-08-25T16:19:16Z</time>
      </trkpt>
      <trkpt lat="47.3994" lon="-2.93332">
        <ele>-3.71</ele>
        <time>2016-08-25T16:19:39Z</time>
      </trkpt>
      <trkpt lat="47.3998" lon="-2.93319">
        <ele>-3.71</ele>
        <time>2016-08-25T16:20:02Z</time>
      </trkpt>
      <trkpt lat="47.40021" lon="-2.93305">
        <ele>-4.19</ele>
        <time>2016-08-25T16:20:25Z</time>
      </trkpt>
      <trkpt lat="47.40073" lon="-2.93291">
        <ele>-3.71</ele>
        <time>2016-08-25T16:20:47Z</time>
      </trkpt>
      <trkpt lat="47.40124" lon="-2.93276">
        <ele>-3.71</ele>
        <time>2016-08-25T16:21:08Z</time>
      </trkpt>
      <trkpt lat="47.40174" lon="-2.93261">
        <ele>-4.67</ele>
        <time>2016-08-25T16:21:28Z</time>
      </trkpt>
      <trkpt lat="47.40225" lon="-2.93245">
        <ele>-4.19</ele>
        <time>2016-08-25T16:21:48Z</time>
      </trkpt>
      <trkpt lat="47.4027" lon="-2.9323">
        <ele>-4.19</ele>
        <time>2016-08-25T16:22:06Z</time>
      </trkpt>
      <trkpt lat="47.40318" lon="-2.93214">
        <ele>-3.71</ele>
        <time>2016-08-25T16:22:25Z</time>
      </trkpt>
      <trkpt lat="47.40367" lon="-2.93199">
        <ele>-3.71</ele>
        <time>2016-08-25T16:22:44Z</time>
      </trkpt>
      <trkpt lat="47.40411" lon="-2.93187">
        <ele>-3.23</ele>
        <time>2016-08-25T16:23:02Z</time>
      </trkpt>
      <trkpt lat="47.40454" lon="-2.93178">
        <ele>-3.23</ele>
        <time>2016-08-25T16:23:20Z</time>
      </trkpt>
      <trkpt lat="47.40508" lon="-2.93164">
        <ele>-2.27</ele>
        <time>2016-08-25T16:23:43Z</time>
      </trkpt>
      <trkpt lat="47.40549" lon="-2.93157">
        <ele>-3.23</ele>
        <time>2016-08-25T16:24:01Z</time>
      </trkpt>
      <trkpt lat="47.40585" lon="-2.93147">
        <ele>-2.75</ele>
        <time>2016-08-25T16:24:18Z</time>
      </trkpt>
      <trkpt lat="47.40622" lon="-2.93138">
        <ele>-3.23</ele>
        <time>2016-08-25T16:24:36Z</time>
      </trkpt>
      <trkpt lat="47.40658" lon="-2.93133">
        <ele>-3.23</ele>
        <time>2016-08-25T16:24:55Z</time>
      </trkpt>
      <trkpt lat="47.4069" lon="-2.9313">
        <ele>-3.71</ele>
        <time>2016-08-25T16:25:14Z</time>
      </trkpt>
      <trkpt lat="47.40719" lon="-2.93128">
        <ele>-4.67</ele>
        <time>2016-08-25T16:25:32Z</time>
      </trkpt>
      <trkpt lat="47.40748" lon="-2.93125">
        <ele>-5.15</ele>
        <time>2016-08-25T16:25:50Z</time>
      </trkpt>
      <trkpt lat="47.40783" lon="-2.9312">
        <ele>-3.71</ele>
        <time>2016-08-25T16:26:11Z</time>
      </trkpt>
      <trkpt lat="47.40817" lon="-2.93115">
        <ele>-3.71</ele>
        <time>2016-08-25T16:26:33Z</time>
      </trkpt>
      <trkpt lat="47.40848" lon="-2.93109">
        <ele>-2.75</ele>
        <time>2016-08-25T16:26:53Z</time>
      </trkpt>
      <trkpt lat="47.40871" lon="-2.93104">
        <ele>-2.75</ele>
        <time>2016-08-25T16:27:10Z</time>
      </trkpt>
      <trkpt lat="47.40897" lon="-2.93099">
        <ele>-2.75</ele>
        <time>2016-08-25T16:27:29Z</time>
      </trkpt>
      <trkpt lat="47.40924" lon="-2.93093">
        <ele>-2.75</ele>
        <time>2016-08-25T16:27:50Z</time>
      </trkpt>
      <trkpt lat="47.40949" lon="-2.93087">
        <ele>-2.75</ele>
        <time>2016-08-25T16:28:10Z</time>
      </trkpt>
      <trkpt lat="47.40974" lon="-2.9308">
        <ele>-3.23</ele>
        <time>2016-08-25T16:28:31Z</time>
      </trkpt>
      <trkpt lat="47.40998" lon="-2.93074">
        <ele>-3.71</ele>
        <time>2016-08-25T16:28:51Z</time>
      </trkpt>
      <trkpt lat="47.41019" lon="-2.93068">
        <ele>-2.27</ele>
        <time>2016-08-25T16:29:10Z</time>
      </trkpt>
      <trkpt lat="47.41042" lon="-2.93063">
        <ele>-1.79</ele>
        <time>2016-08-25T16:29:28Z</time>
      </trkpt>
      <trkpt lat="47.41065" lon="-2.93057">
        <ele>-0.82</ele>
        <time>2016-08-25T16:29:48Z</time>
      </trkpt>
      <trkpt lat="47.4109" lon="-2.93051">
        <ele>-1.3</ele>
        <time>2016-08-25T16:30:11Z</time>
      </trkpt>
      <trkpt lat="47.41113" lon="-2.93045">
        <ele>-1.79</ele>
        <time>2016-08-25T16:30:31Z</time>
      </trkpt>
      <trkpt lat="47.41139" lon="-2.93038">
        <ele>-0.82</ele>
        <time>2016-08-25T16:30:52Z</time>
      </trkpt>
      <trkpt lat="47.41168" lon="-2.9303">
        <ele>-1.3</ele>
        <time>2016-08-25T16:31:15Z</time>
      </trkpt>
      <trkpt lat="47.412" lon="-2.9302">
        <ele>-2.27</ele>
        <time>2016-08-25T16:31:37Z</time>
      </trkpt>
      <trkpt lat="47.41232" lon="-2.93015">
        <ele>-1.3</ele>
        <time>2016-08-25T16:31:58Z</time>
      </trkpt>
      <trkpt lat="47.41263" lon="-2.93004">
        <ele>-1.3</ele>
        <time>2016-08-25T16:32:18Z</time>
      </trkpt>
      <trkpt lat="47.4129" lon="-2.93">
        <ele>-1.3</ele>
        <time>2016-08-25T16:32:37Z</time>
      </trkpt>
      <trkpt lat="47.41318" lon="-2.92997">
        <ele>0.14</ele>
        <time>2016-08-25T16:33:00Z</time>
      </trkpt>
      <trkpt lat="47.41323" lon="-2.93005">
        <ele>-0.34</ele>
        <time>2016-08-25T16:33:18Z</time>
      </trkpt>
      <trkpt lat="47.41315" lon="-2.93021">
        <ele>-0.34</ele>
        <time>2016-08-25T16:33:34Z</time>
      </trkpt>
      <trkpt lat="47.4131" lon="-2.9305">
        <ele>-1.3</ele>
        <time>2016-08-25T16:33:55Z</time>
      </trkpt>
      <trkpt lat="47.41318" lon="-2.93048">
        <ele>-1.3</ele>
        <time>2016-08-25T16:34:09Z</time>
      </trkpt>
      <trkpt lat="47.41349" lon="-2.93022">
        <ele>-1.3</ele>
        <time>2016-08-25T16:34:31Z</time>
      </trkpt>
      <trkpt lat="47.41381" lon="-2.93009">
        <ele>0.14</ele>
        <time>2016-08-25T16:34:48Z</time>
      </trkpt>
      <trkpt lat="47.41415" lon="-2.92994">
        <ele>0.62</ele>
        <time>2016-08-25T16:35:07Z</time>
      </trkpt>
      <trkpt lat="47.41452" lon="-2.92979">
        <ele>0.62</ele>
        <time>2016-08-25T16:35:29Z</time>
      </trkpt>
      <trkpt lat="47.41479" lon="-2.92965">
        <ele>-0.34</ele>
        <time>2016-08-25T16:35:45Z</time>
      </trkpt>
      <trkpt lat="47.41508" lon="-2.92952">
        <ele>-0.34</ele>
        <time>2016-08-25T16:36:02Z</time>
      </trkpt>
      <trkpt lat="47.4154" lon="-2.92933">
        <ele>-0.34</ele>
        <time>2016-08-25T16:36:20Z</time>
      </trkpt>
      <trkpt lat="47.41573" lon="-2.92919">
        <ele>-0.34</ele>
        <time>2016-08-25T16:36:38Z</time>
      </trkpt>
      <trkpt lat="47.41612" lon="-2.92903">
        <ele>-0.82</ele>
        <time>2016-08-25T16:37:00Z</time>
      </trkpt>
      <trkpt lat="47.41646" lon="-2.92884">
        <ele>-0.82</ele>
        <time>2016-08-25T16:37:20Z</time>
      </trkpt>
      <trkpt lat="47.41678" lon="-2.92868">
        <ele>-1.79</ele>
        <time>2016-08-25T16:37:38Z</time>
      </trkpt>
      <trkpt lat="47.41717" lon="-2.9285">
        <ele>-2.75</ele>
        <time>2016-08-25T16:37:59Z</time>
      </trkpt>
      <trkpt lat="47.41752" lon="-2.92834">
        <ele>-2.27</ele>
        <time>2016-08-25T16:38:18Z</time>
      </trkpt>
      <trkpt lat="47.41782" lon="-2.92822">
        <ele>-1.79</ele>
        <time>2016-08-25T16:38:34Z</time>
      </trkpt>
      <trkpt lat="47.41818" lon="-2.92807">
        <ele>-1.79</ele>
        <time>2016-08-25T16:38:53Z</time>
      </trkpt>
      <trkpt lat="47.4185" lon="-2.92794">
        <ele>-1.3</ele>
        <time>2016-08-25T16:39:11Z</time>
      </trkpt>
      <trkpt lat="47.41882" lon="-2.9278">
        <ele>-1.3</ele>
        <time>2016-08-25T16:39:29Z</time>
      </trkpt>
      <trkpt lat="47.41919" lon="-2.92764">
        <ele>-1.3</ele>
        <time>2016-08-25T16:39:50Z</time>
      </trkpt>
      <trkpt lat="47.41955" lon="-2.9275">
        <ele>-1.79</ele>
        <time>2016-08-25T16:40:11Z</time>
      </trkpt>
      <trkpt lat="47.41987" lon="-2.92738">
        <ele>-2.27</ele>
        <time>2016-08-25T16:40:29Z</time>
      </trkpt>
      <trkpt lat="47.42023" lon="-2.92724">
        <ele>-2.75</ele>
        <time>2016-08-25T16:40:50Z</time>
      </trkpt>
      <trkpt lat="47.42055" lon="-2.92708">
        <ele>-2.75</ele>
        <time>2016-08-25T16:41:09Z</time>
      </trkpt>
      <trkpt lat="47.42089" lon="-2.92693">
        <ele>-2.75</ele>
        <time>2016-08-25T16:41:29Z</time>
      </trkpt>
      <trkpt lat="47.42122" lon="-2.92677">
        <ele>-1.79</ele>
        <time>2016-08-25T16:41:49Z</time>
      </trkpt>
      <trkpt lat="47.42156" lon="-2.9266">
        <ele>-0.82</ele>
        <time>2016-08-25T16:42:09Z</time>
      </trkpt>
      <trkpt lat="47.42186" lon="-2.92648">
        <ele>-1.3</ele>
        <time>2016-08-25T16:42:28Z</time>
      </trkpt>
      <trkpt lat="47.42217" lon="-2.92633">
        <ele>-1.3</ele>
        <time>2016-08-25T16:42:48Z</time>
      </trkpt>
      <trkpt lat="47.42248" lon="-2.92618">
        <ele>-1.3</ele>
        <time>2016-08-25T16:43:08Z</time>
      </trkpt>
      <trkpt lat="47.42276" lon="-2.92603">
        <ele>-1.3</ele>
        <time>2016-08-25T16:43:27Z</time>
      </trkpt>
      <trkpt lat="47.4231" lon="-2.92585">
        <ele>-1.79</ele>
        <time>2016-08-25T16:43:49Z</time>
      </trkpt>
      <trkpt lat="47.42337" lon="-2.92572">
        <ele>-1.79</ele>
        <time>2016-08-25T16:44:07Z</time>
      </trkpt>
      <trkpt lat="47.42368" lon="-2.92555">
        <ele>-2.27</ele>
        <time>2016-08-25T16:44:28Z</time>
      </trkpt>
      <trkpt lat="47.424" lon="-2.92537">
        <ele>-1.79</ele>
        <time>2016-08-25T16:44:48Z</time>
      </trkpt>
      <trkpt lat="47.42432" lon="-2.92516">
        <ele>-1.3</ele>
        <time>2016-08-25T16:45:08Z</time>
      </trkpt>
      <trkpt lat="47.42465" lon="-2.9249">
        <ele>-0.82</ele>
        <time>2016-08-25T16:45:28Z</time>
      </trkpt>
      <trkpt lat="47.42495" lon="-2.92467">
        <ele>-0.34</ele>
        <time>2016-08-25T16:45:48Z</time>
      </trkpt>
      <trkpt lat="47.42528" lon="-2.92453">
        <ele>-0.82</ele>
        <time>2016-08-25T16:46:08Z</time>
      </trkpt>
      <trkpt lat="47.4256" lon="-2.9244">
        <ele>-1.3</ele>
        <time>2016-08-25T16:46:27Z</time>
      </trkpt>
      <trkpt lat="47.42593" lon="-2.92427">
        <ele>-1.3</ele>
        <time>2016-08-25T16:46:47Z</time>
      </trkpt>
      <trkpt lat="47.42625" lon="-2.92414">
        <ele>-1.3</ele>
        <time>2016-08-25T16:47:06Z</time>
      </trkpt>
      <trkpt lat="47.42666" lon="-2.92399">
        <ele>-1.79</ele>
        <time>2016-08-25T16:47:30Z</time>
      </trkpt>
      <trkpt lat="47.42699" lon="-2.92386">
        <ele>-1.3</ele>
        <time>2016-08-25T16:47:49Z</time>
      </trkpt>
      <trkpt lat="47.42732" lon="-2.92372">
        <ele>-1.79</ele>
        <time>2016-08-25T16:48:08Z</time>
      </trkpt>
      <trkpt lat="47.42773" lon="-2.92356">
        <ele>-1.79</ele>
        <time>2016-08-25T16:48:31Z</time>
      </trkpt>
      <trkpt lat="47.4281" lon="-2.92336">
        <ele>-1.79</ele>
        <time>2016-08-25T16:48:53Z</time>
      </trkpt>
      <trkpt lat="47.42841" lon="-2.92316">
        <ele>-1.3</ele>
        <time>2016-08-25T16:49:11Z</time>
      </trkpt>
      <trkpt lat="47.42873" lon="-2.92302">
        <ele>-0.82</ele>
        <time>2016-08-25T16:49:30Z</time>
      </trkpt>
      <trkpt lat="47.42908" lon="-2.92289">
        <ele>-0.82</ele>
        <time>2016-08-25T16:49:50Z</time>
      </trkpt>
      <trkpt lat="47.4294" lon="-2.92273">
        <ele>-0.34</ele>
        <time>2016-08-25T16:50:09Z</time>
      </trkpt>
      <trkpt lat="47.42969" lon="-2.92261">
        <ele>-0.82</ele>
        <time>2016-08-25T16:50:26Z</time>
      </trkpt>
      <trkpt lat="47.42991" lon="-2.92247">
        <ele>-0.82</ele>
        <time>2016-08-25T16:50:40Z</time>
      </trkpt>
      <trkpt lat="47.43016" lon="-2.92222">
        <ele>-0.34</ele>
        <time>2016-08-25T16:50:57Z</time>
      </trkpt>
      <trkpt lat="47.43041" lon="-2.92197">
        <ele>-0.34</ele>
        <time>2016-08-25T16:51:16Z</time>
      </trkpt>
      <trkpt lat="47.43063" lon="-2.92178">
        <ele>-0.82</ele>
        <time>2016-08-25T16:51:33Z</time>
      </trkpt>
      <trkpt lat="47.43088" lon="-2.92159">
        <ele>-0.82</ele>
        <time>2016-08-25T16:51:52Z</time>
      </trkpt>
      <trkpt lat="47.43118" lon="-2.92141">
        <ele>-0.82</ele>
        <time>2016-08-25T16:52:13Z</time>
      </trkpt>
      <trkpt lat="47.43146" lon="-2.92136">
        <ele>-1.3</ele>
        <time>2016-08-25T16:52:32Z</time>
      </trkpt>
      <trkpt lat="47.43174" lon="-2.92133">
        <ele>-2.27</ele>
        <time>2016-08-25T16:52:51Z</time>
      </trkpt>
      <trkpt lat="47.43196" lon="-2.92132">
        <ele>-1.79</ele>
        <time>2016-08-25T16:53:07Z</time>
      </trkpt>
      <trkpt lat="47.4322" lon="-2.92132">
        <ele>-3.71</ele>
        <time>2016-08-25T16:53:25Z</time>
      </trkpt>
      <trkpt lat="47.43246" lon="-2.92128">
        <ele>-3.23</ele>
        <time>2016-08-25T16:53:43Z</time>
      </trkpt>
      <trkpt lat="47.43272" lon="-2.92123">
        <ele>-3.23</ele>
        <time>2016-08-25T16:53:59Z</time>
      </trkpt>
      <trkpt lat="47.43304" lon="-2.92118">
        <ele>-3.23</ele>
        <time>2016-08-25T16:54:18Z</time>
      </trkpt>
      <trkpt lat="47.43332" lon="-2.92117">
        <ele>-3.23</ele>
        <time>2016-08-25T16:54:35Z</time>
      </trkpt>
      <trkpt lat="47.43355" lon="-2.92119">
        <ele>-2.75</ele>
        <time>2016-08-25T16:54:51Z</time>
      </trkpt>
      <trkpt lat="47.43378" lon="-2.92117">
        <ele>-2.27</ele>
        <time>2016-08-25T16:55:06Z</time>
      </trkpt>
      <trkpt lat="47.43407" lon="-2.92114">
        <ele>-1.79</ele>
        <time>2016-08-25T16:55:23Z</time>
      </trkpt>
      <trkpt lat="47.43434" lon="-2.9211">
        <ele>-1.3</ele>
        <time>2016-08-25T16:55:39Z</time>
      </trkpt>
      <trkpt lat="47.43464" lon="-2.92104">
        <ele>-1.3</ele>
        <time>2016-08-25T16:55:56Z</time>
      </trkpt>
      <trkpt lat="47.4349" lon="-2.92103">
        <ele>-1.79</ele>
        <time>2016-08-25T16:56:11Z</time>
      </trkpt>
      <trkpt lat="47.43519" lon="-2.92105">
        <ele>-2.27</ele>
        <time>2016-08-25T16:56:29Z</time>
      </trkpt>
      <trkpt lat="47.43546" lon="-2.92106">
        <ele>-2.27</ele>
        <time>2016-08-25T16:56:47Z</time>
      </trkpt>
      <trkpt lat="47.43571" lon="-2.92108">
        <ele>-2.75</ele>
        <time>2016-08-25T16:57:04Z</time>
      </trkpt>
      <trkpt lat="47.43596" lon="-2.92105">
        <ele>-3.23</ele>
        <time>2016-08-25T16:57:20Z</time>
      </trkpt>
      <trkpt lat="47.43629" lon="-2.92098">
        <ele>-2.75</ele>
        <time>2016-08-25T16:57:38Z</time>
      </trkpt>
      <trkpt lat="47.43663" lon="-2.92093">
        <ele>-1.79</ele>
        <time>2016-08-25T16:57:56Z</time>
      </trkpt>
      <trkpt lat="47.437" lon="-2.9208">
        <ele>-1.79</ele>
        <time>2016-08-25T16:58:14Z</time>
      </trkpt>
      <trkpt lat="47.43735" lon="-2.92077">
        <ele>-2.27</ele>
        <time>2016-08-25T16:58:32Z</time>
      </trkpt>
      <trkpt lat="47.43769" lon="-2.92069">
        <ele>-1.79</ele>
        <time>2016-08-25T16:58:50Z</time>
      </trkpt>
      <trkpt lat="47.43806" lon="-2.92061">
        <ele>-2.27</ele>
        <time>2016-08-25T16:59:09Z</time>
      </trkpt>
      <trkpt lat="47.43844" lon="-2.92051">
        <ele>-2.75</ele>
        <time>2016-08-25T16:59:29Z</time>
      </trkpt>
      <trkpt lat="47.4388" lon="-2.9204">
        <ele>-1.79</ele>
        <time>2016-08-25T16:59:47Z</time>
      </trkpt>
      <trkpt lat="47.43913" lon="-2.92032">
        <ele>-2.75</ele>
        <time>2016-08-25T17:00:04Z</time>
      </trkpt>
      <trkpt lat="47.43954" lon="-2.92022">
        <ele>-3.23</ele>
        <time>2016-08-25T17:00:26Z</time>
      </trkpt>
      <trkpt lat="47.43994" lon="-2.92013">
        <ele>-2.75</ele>
        <time>2016-08-25T17:00:47Z</time>
      </trkpt>
      <trkpt lat="47.44029" lon="-2.92011">
        <ele>-2.75</ele>
        <time>2016-08-25T17:01:06Z</time>
      </trkpt>
      <trkpt lat="47.44065" lon="-2.92003">
        <ele>-2.27</ele>
        <time>2016-08-25T17:01:26Z</time>
      </trkpt>
      <trkpt lat="47.44098" lon="-2.91993">
        <ele>-2.75</ele>
        <time>2016-08-25T17:01:43Z</time>
      </trkpt>
      <trkpt lat="47.44131" lon="-2.91984">
        <ele>-2.27</ele>
        <time>2016-08-25T17:02:01Z</time>
      </trkpt>
      <trkpt lat="47.44165" lon="-2.91974">
        <ele>-2.75</ele>
        <time>2016-08-25T17:02:19Z</time>
      </trkpt>
      <trkpt lat="47.44201" lon="-2.9196">
        <ele>-3.23</ele>
        <time>2016-08-25T17:02:39Z</time>
      </trkpt>
      <trkpt lat="47.44232" lon="-2.91949">
        <ele>-2.75</ele>
        <time>2016-08-25T17:02:56Z</time>
      </trkpt>
      <trkpt lat="47.44255" lon="-2.91946">
        <ele>-3.23</ele>
        <time>2016-08-25T17:03:09Z</time>
      </trkpt>
      <trkpt lat="47.44285" lon="-2.9194">
        <ele>-3.23</ele>
        <time>2016-08-25T17:03:25Z</time>
      </trkpt>
      <trkpt lat="47.44321" lon="-2.91933">
        <ele>-2.27</ele>
        <time>2016-08-25T17:03:45Z</time>
      </trkpt>
      <trkpt lat="47.44349" lon="-2.91925">
        <ele>-2.27</ele>
        <time>2016-08-25T17:04:00Z</time>
      </trkpt>
      <trkpt lat="47.44387" lon="-2.91915">
        <ele>-1.79</ele>
        <time>2016-08-25T17:04:20Z</time>
      </trkpt>
      <trkpt lat="47.44416" lon="-2.91916">
        <ele>-2.27</ele>
        <time>2016-08-25T17:04:37Z</time>
      </trkpt>
      <trkpt lat="47.44451" lon="-2.91918">
        <ele>-2.27</ele>
        <time>2016-08-25T17:04:58Z</time>
      </trkpt>
      <trkpt lat="47.44482" lon="-2.91921">
        <ele>-2.75</ele>
        <time>2016-08-25T17:05:17Z</time>
      </trkpt>
      <trkpt lat="47.44515" lon="-2.91915">
        <ele>-2.75</ele>
        <time>2016-08-25T17:05:35Z</time>
      </trkpt>
      <trkpt lat="47.44551" lon="-2.91899">
        <ele>-2.27</ele>
        <time>2016-08-25T17:05:55Z</time>
      </trkpt>
      <trkpt lat="47.4458" lon="-2.91887">
        <ele>-2.27</ele>
        <time>2016-08-25T17:06:12Z</time>
      </trkpt>
      <trkpt lat="47.44605" lon="-2.91876">
        <ele>-1.79</ele>
        <time>2016-08-25T17:06:27Z</time>
      </trkpt>
      <trkpt lat="47.44637" lon="-2.91872">
        <ele>-2.27</ele>
        <time>2016-08-25T17:06:46Z</time>
      </trkpt>
      <trkpt lat="47.44675" lon="-2.91859">
        <ele>-1.79</ele>
        <time>2016-08-25T17:07:07Z</time>
      </trkpt>
      <trkpt lat="47.44711" lon="-2.91849">
        <ele>-1.3</ele>
        <time>2016-08-25T17:07:27Z</time>
      </trkpt>
      <trkpt lat="47.44746" lon="-2.91843">
        <ele>-1.79</ele>
        <time>2016-08-25T17:07:46Z</time>
      </trkpt>
      <trkpt lat="47.44785" lon="-2.91837">
        <ele>-2.27</ele>
        <time>2016-08-25T17:08:08Z</time>
      </trkpt>
      <trkpt lat="47.4482" lon="-2.91829">
        <ele>-1.79</ele>
        <time>2016-08-25T17:08:28Z</time>
      </trkpt>
      <trkpt lat="47.44847" lon="-2.91816">
        <ele>-2.27</ele>
        <time>2016-08-25T17:08:44Z</time>
      </trkpt>
      <trkpt lat="47.44879" lon="-2.91802">
        <ele>-1.3</ele>
        <time>2016-08-25T17:09:04Z</time>
      </trkpt>
      <trkpt lat="47.44907" lon="-2.91785">
        <ele>-1.79</ele>
        <time>2016-08-25T17:09:24Z</time>
      </trkpt>
      <trkpt lat="47.44931" lon="-2.91774">
        <ele>-0.82</ele>
        <time>2016-08-25T17:09:41Z</time>
      </trkpt>
      <trkpt lat="47.44954" lon="-2.91763">
        <ele>0.14</ele>
        <time>2016-08-25T17:09:59Z</time>
      </trkpt>
      <trkpt lat="47.44976" lon="-2.91763">
        <ele>-0.34</ele>
        <time>2016-08-25T17:10:15Z</time>
      </trkpt>
      <trkpt lat="47.44999" lon="-2.91759">
        <ele>-0.82</ele>
        <time>2016-08-25T17:10:30Z</time>
      </trkpt>
      <trkpt lat="47.45029" lon="-2.9175">
        <ele>-0.82</ele>
        <time>2016-08-25T17:10:48Z</time>
      </trkpt>
      <trkpt lat="47.45055" lon="-2.91745">
        <ele>-1.3</ele>
        <time>2016-08-25T17:11:05Z</time>
      </trkpt>
      <trkpt lat="47.45081" lon="-2.9174">
        <ele>-0.34</ele>
        <time>2016-08-25T17:11:21Z</time>
      </trkpt>
      <trkpt lat="47.45109" lon="-2.91734">
        <ele>-1.3</ele>
        <time>2016-08-25T17:11:38Z</time>
      </trkpt>
      <trkpt lat="47.45142" lon="-2.91735">
        <ele>-0.82</ele>
        <time>2016-08-25T17:11:59Z</time>
      </trkpt>
      <trkpt lat="47.45171" lon="-2.91732">
        <ele>-0.34</ele>
        <time>2016-08-25T17:12:17Z</time>
      </trkpt>
      <trkpt lat="47.45202" lon="-2.91725">
        <ele>-0.34</ele>
        <time>2016-08-25T17:12:36Z</time>
      </trkpt>
      <trkpt lat="47.45229" lon="-2.91722">
        <ele>-0.34</ele>
        <time>2016-08-25T17:12:53Z</time>
      </trkpt>
      <trkpt lat="47.4526" lon="-2.91718">
        <ele>-0.82</ele>
        <time>2016-08-25T17:13:11Z</time>
      </trkpt>
      <trkpt lat="47.45287" lon="-2.91715">
        <ele>-0.82</ele>
        <time>2016-08-25T17:13:27Z</time>
      </trkpt>
      <trkpt lat="47.45317" lon="-2.91715">
        <ele>-1.3</ele>
        <time>2016-08-25T17:13:45Z</time>
      </trkpt>
      <trkpt lat="47.45349" lon="-2.91709">
        <ele>-0.82</ele>
        <time>2016-08-25T17:14:04Z</time>
      </trkpt>
      <trkpt lat="47.4538" lon="-2.91707">
        <ele>-1.3</ele>
        <time>2016-08-25T17:14:22Z</time>
      </trkpt>
      <trkpt lat="47.45408" lon="-2.91708">
        <ele>-0.82</ele>
        <time>2016-08-25T17:14:39Z</time>
      </trkpt>
      <trkpt lat="47.45438" lon="-2.91699">
        <ele>0.14</ele>
        <time>2016-08-25T17:14:56Z</time>
      </trkpt>
      <trkpt lat="47.45469" lon="-2.91685">
        <ele>-0.34</ele>
        <time>2016-08-25T17:15:15Z</time>
      </trkpt>
      <trkpt lat="47.45502" lon="-2.91673">
        <ele>-0.82</ele>
        <time>2016-08-25T17:15:37Z</time>
      </trkpt>
      <trkpt lat="47.45535" lon="-2.91666">
        <ele>-1.3</ele>
        <time>2016-08-25T17:15:58Z</time>
      </trkpt>
      <trkpt lat="47.45567" lon="-2.91668">
        <ele>-0.82</ele>
        <time>2016-08-25T17:16:16Z</time>
      </trkpt>
      <trkpt lat="47.45599" lon="-2.91665">
        <ele>-0.34</ele>
        <time>2016-08-25T17:16:34Z</time>
      </trkpt>
      <trkpt lat="47.4563" lon="-2.91657">
        <ele>-0.34</ele>
        <time>2016-08-25T17:16:51Z</time>
      </trkpt>
      <trkpt lat="47.45669" lon="-2.91653">
        <ele>-0.82</ele>
        <time>2016-08-25T17:17:11Z</time>
      </trkpt>
      <trkpt lat="47.45711" lon="-2.91644">
        <ele>-1.3</ele>
        <time>2016-08-25T17:17:32Z</time>
      </trkpt>
      <trkpt lat="47.45749" lon="-2.91632">
        <ele>-0.82</ele>
        <time>2016-08-25T17:17:52Z</time>
      </trkpt>
      <trkpt lat="47.45786" lon="-2.91619">
        <ele>-0.82</ele>
        <time>2016-08-25T17:18:14Z</time>
      </trkpt>
      <trkpt lat="47.45827" lon="-2.91608">
        <ele>-0.82</ele>
        <time>2016-08-25T17:18:37Z</time>
      </trkpt>
      <trkpt lat="47.45867" lon="-2.91606">
        <ele>-0.82</ele>
        <time>2016-08-25T17:18:58Z</time>
      </trkpt>
      <trkpt lat="47.45909" lon="-2.91599">
        <ele>-1.3</ele>
        <time>2016-08-25T17:19:19Z</time>
      </trkpt>
      <trkpt lat="47.45947" lon="-2.91587">
        <ele>-1.79</ele>
        <time>2016-08-25T17:19:39Z</time>
      </trkpt>
      <trkpt lat="47.45988" lon="-2.91583">
        <ele>-1.79</ele>
        <time>2016-08-25T17:20:00Z</time>
      </trkpt>
      <trkpt lat="47.46029" lon="-2.91579">
        <ele>-1.79</ele>
        <time>2016-08-25T17:20:20Z</time>
      </trkpt>
      <trkpt lat="47.46066" lon="-2.91574">
        <ele>-1.79</ele>
        <time>2016-08-25T17:20:38Z</time>
      </trkpt>
      <trkpt lat="47.46113" lon="-2.91567">
        <ele>-0.82</ele>
        <time>2016-08-25T17:21:01Z</time>
      </trkpt>
      <trkpt lat="47.4615" lon="-2.91563">
        <ele>-1.3</ele>
        <time>2016-08-25T17:21:19Z</time>
      </trkpt>
      <trkpt lat="47.46198" lon="-2.91558">
        <ele>-1.3</ele>
        <time>2016-08-25T17:21:42Z</time>
      </trkpt>
      <trkpt lat="47.46238" lon="-2.91551">
        <ele>-1.3</ele>
        <time>2016-08-25T17:22:02Z</time>
      </trkpt>
      <trkpt lat="47.46279" lon="-2.91538">
        <ele>-1.3</ele>
        <time>2016-08-25T17:22:24Z</time>
      </trkpt>
      <trkpt lat="47.46313" lon="-2.91526">
        <ele>-0.82</ele>
        <time>2016-08-25T17:22:43Z</time>
      </trkpt>
      <trkpt lat="47.46346" lon="-2.91521">
        <ele>-1.3</ele>
        <time>2016-08-25T17:23:02Z</time>
      </trkpt>
      <trkpt lat="47.46379" lon="-2.91519">
        <ele>-1.3</ele>
        <time>2016-08-25T17:23:19Z</time>
      </trkpt>
      <trkpt lat="47.46419" lon="-2.91515">
        <ele>-1.3</ele>
        <time>2016-08-25T17:23:40Z</time>
      </trkpt>
      <trkpt lat="47.46454" lon="-2.91511">
        <ele>-0.34</ele>
        <time>2016-08-25T17:23:58Z</time>
      </trkpt>
      <trkpt lat="47.46494" lon="-2.91512">
        <ele>-0.82</ele>
        <time>2016-08-25T17:24:20Z</time>
      </trkpt>
      <trkpt lat="47.46532" lon="-2.91511">
        <ele>-0.82</ele>
        <time>2016-08-25T17:24:41Z</time>
      </trkpt>
      <trkpt lat="47.46565" lon="-2.91507">
        <ele>-1.3</ele>
        <time>2016-08-25T17:24:59Z</time>
      </trkpt>
      <trkpt lat="47.46603" lon="-2.91505">
        <ele>-1.3</ele>
        <time>2016-08-25T17:25:19Z</time>
      </trkpt>
      <trkpt lat="47.46639" lon="-2.91505">
        <ele>-1.3</ele>
        <time>2016-08-25T17:25:38Z</time>
      </trkpt>
      <trkpt lat="47.46678" lon="-2.915">
        <ele>-0.82</ele>
        <time>2016-08-25T17:25:58Z</time>
      </trkpt>
      <trkpt lat="47.46709" lon="-2.91496">
        <ele>-0.82</ele>
        <time>2016-08-25T17:26:15Z</time>
      </trkpt>
      <trkpt lat="47.46749" lon="-2.9149">
        <ele>-0.82</ele>
        <time>2016-08-25T17:26:36Z</time>
      </trkpt>
      <trkpt lat="47.46788" lon="-2.91479">
        <ele>-0.34</ele>
        <time>2016-08-25T17:26:57Z</time>
      </trkpt>
      <trkpt lat="47.46821" lon="-2.91466">
        <ele>-0.82</ele>
        <time>2016-08-25T17:27:16Z</time>
      </trkpt>
      <trkpt lat="47.4685" lon="-2.91459">
        <ele>-0.82</ele>
        <time>2016-08-25T17:27:33Z</time>
      </trkpt>
      <trkpt lat="47.46884" lon="-2.91454">
        <ele>-1.3</ele>
        <time>2016-08-25T17:27:53Z</time>
      </trkpt>
      <trkpt lat="47.46921" lon="-2.91446">
        <ele>-0.82</ele>
        <time>2016-08-25T17:28:14Z</time>
      </trkpt>
      <trkpt lat="47.46954" lon="-2.91438">
        <ele>-0.82</ele>
        <time>2016-08-25T17:28:33Z</time>
      </trkpt>
      <trkpt lat="47.46989" lon="-2.91433">
        <ele>-0.82</ele>
        <time>2016-08-25T17:28:54Z</time>
      </trkpt>
      <trkpt lat="47.47018" lon="-2.91428">
        <ele>-0.82</ele>
        <time>2016-08-25T17:29:12Z</time>
      </trkpt>
      <trkpt lat="47.47047" lon="-2.91421">
        <ele>-0.82</ele>
        <time>2016-08-25T17:29:30Z</time>
      </trkpt>
      <trkpt lat="47.47077" lon="-2.91415">
        <ele>-1.3</ele>
        <time>2016-08-25T17:29:50Z</time>
      </trkpt>
      <trkpt lat="47.47103" lon="-2.91411">
        <ele>-0.82</ele>
        <time>2016-08-25T17:30:06Z</time>
      </trkpt>
      <trkpt lat="47.47129" lon="-2.91406">
        <ele>-0.82</ele>
        <time>2016-08-25T17:30:23Z</time>
      </trkpt>
      <trkpt lat="47.47158" lon="-2.91401">
        <ele>-0.82</ele>
        <time>2016-08-25T17:30:42Z</time>
      </trkpt>
      <trkpt lat="47.47188" lon="-2.91397">
        <ele>-0.82</ele>
        <time>2016-08-25T17:31:01Z</time>
      </trkpt>
      <trkpt lat="47.47214" lon="-2.91392">
        <ele>-1.3</ele>
        <time>2016-08-25T17:31:19Z</time>
      </trkpt>
      <trkpt lat="47.47238" lon="-2.91388">
        <ele>-1.3</ele>
        <time>2016-08-25T17:31:36Z</time>
      </trkpt>
      <trkpt lat="47.47262" lon="-2.91383">
        <ele>-1.3</ele>
        <time>2016-08-25T17:31:53Z</time>
      </trkpt>
      <trkpt lat="47.4729" lon="-2.91381">
        <ele>-0.34</ele>
        <time>2016-08-25T17:32:14Z</time>
      </trkpt>
      <trkpt lat="47.47318" lon="-2.91376">
        <ele>-0.82</ele>
        <time>2016-08-25T17:32:36Z</time>
      </trkpt>
      <trkpt lat="47.47343" lon="-2.91374">
        <ele>-0.34</ele>
        <time>2016-08-25T17:32:55Z</time>
      </trkpt>
      <trkpt lat="47.47369" lon="-2.91369">
        <ele>-0.34</ele>
        <time>2016-08-25T17:33:15Z</time>
      </trkpt>
      <trkpt lat="47.47396" lon="-2.91366">
        <ele>0.14</ele>
        <time>2016-08-25T17:33:37Z</time>
      </trkpt>
      <trkpt lat="47.47422" lon="-2.91361">
        <ele>-0.34</ele>
        <time>2016-08-25T17:33:58Z</time>
      </trkpt>
      <trkpt lat="47.4745" lon="-2.91356">
        <ele>-0.34</ele>
        <time>2016-08-25T17:34:21Z</time>
      </trkpt>
      <trkpt lat="47.47474" lon="-2.91354">
        <ele>-0.34</ele>
        <time>2016-08-25T17:34:42Z</time>
      </trkpt>
      <trkpt lat="47.47493" lon="-2.91349">
        <ele>-0.34</ele>
        <time>2016-08-25T17:34:59Z</time>
      </trkpt>
      <trkpt lat="47.47515" lon="-2.91345">
        <ele>-0.82</ele>
        <time>2016-08-25T17:35:19Z</time>
      </trkpt>
      <trkpt lat="47.47533" lon="-2.91343">
        <ele>-0.34</ele>
        <time>2016-08-25T17:35:35Z</time>
      </trkpt>
      <trkpt lat="47.47548" lon="-2.91339">
        <ele>-0.34</ele>
        <time>2016-08-25T17:35:50Z</time>
      </trkpt>
      <trkpt lat="47.47567" lon="-2.91335">
        <ele>-0.34</ele>
        <time>2016-08-25T17:36:10Z</time>
      </trkpt>
      <trkpt lat="47.47569" lon="-2.91334">
        <ele>0.14</ele>
        <time>2016-08-25T17:36:12Z</time>
      </trkpt>
      <trkpt lat="47.47583" lon="-2.9133">
        <ele>-0.34</ele>
        <time>2016-08-25T17:36:28Z</time>
      </trkpt>
      <trkpt lat="47.47598" lon="-2.91325">
        <ele>-0.34</ele>
        <time>2016-08-25T17:36:47Z</time>
      </trkpt>
      <trkpt lat="47.47612" lon="-2.9132">
        <ele>-0.34</ele>
        <time>2016-08-25T17:37:06Z</time>
      </trkpt>
      <trkpt lat="47.47628" lon="-2.91317">
        <ele>-0.34</ele>
        <time>2016-08-25T17:37:26Z</time>
      </trkpt>
      <trkpt lat="47.47643" lon="-2.91312">
        <ele>-0.34</ele>
        <time>2016-08-25T17:37:47Z</time>
      </trkpt>
      <trkpt lat="47.47661" lon="-2.91304">
        <ele>-0.82</ele>
        <time>2016-08-25T17:38:11Z</time>
      </trkpt>
      <trkpt lat="47.47673" lon="-2.91297">
        <ele>-0.82</ele>
        <time>2016-08-25T17:38:29Z</time>
      </trkpt>
      <trkpt lat="47.47684" lon="-2.91294">
        <ele>0.14</ele>
        <time>2016-08-25T17:38:45Z</time>
      </trkpt>
      <trkpt lat="47.47698" lon="-2.91287">
        <ele>0.14</ele>
        <time>2016-08-25T17:39:06Z</time>
      </trkpt>
      <trkpt lat="47.47714" lon="-2.91281">
        <ele>0.14</ele>
        <time>2016-08-25T17:39:28Z</time>
      </trkpt>
      <trkpt lat="47.4773" lon="-2.91277">
        <ele>-0.82</ele>
        <time>2016-08-25T17:39:49Z</time>
      </trkpt>
      <trkpt lat="47.47746" lon="-2.91273">
        <ele>-1.3</ele>
        <time>2016-08-25T17:40:08Z</time>
      </trkpt>
      <trkpt lat="47.47762" lon="-2.9127">
        <ele>-1.79</ele>
        <time>2016-08-25T17:40:28Z</time>
      </trkpt>
      <trkpt lat="47.4778" lon="-2.91266">
        <ele>-0.82</ele>
        <time>2016-08-25T17:40:48Z</time>
      </trkpt>
      <trkpt lat="47.47796" lon="-2.91262">
        <ele>-1.3</ele>
        <time>2016-08-25T17:41:06Z</time>
      </trkpt>
      <trkpt lat="47.47812" lon="-2.91258">
        <ele>-1.79</ele>
        <time>2016-08-25T17:41:25Z</time>
      </trkpt>
      <trkpt lat="47.4784" lon="-2.91254">
        <ele>-0.82</ele>
        <time>2016-08-25T17:41:43Z</time>
      </trkpt>
      <trkpt lat="47.47874" lon="-2.91257">
        <ele>-0.82</ele>
        <time>2016-08-25T17:42:00Z</time>
      </trkpt>
      <trkpt lat="47.47916" lon="-2.91257">
        <ele>-0.82</ele>
        <time>2016-08-25T17:42:20Z</time>
      </trkpt>
      <trkpt lat="47.47957" lon="-2.91256">
        <ele>-0.82</ele>
        <time>2016-08-25T17:42:39Z</time>
      </trkpt>
      <trkpt lat="47.48002" lon="-2.91249">
        <ele>-0.82</ele>
        <time>2016-08-25T17:43:00Z</time>
      </trkpt>
      <trkpt lat="47.48042" lon="-2.91246">
        <ele>-0.82</ele>
        <time>2016-08-25T17:43:19Z</time>
      </trkpt>
      <trkpt lat="47.48085" lon="-2.91241">
        <ele>-0.82</ele>
        <time>2016-08-25T17:43:39Z</time>
      </trkpt>
      <trkpt lat="47.4813" lon="-2.91237">
        <ele>-0.82</ele>
        <time>2016-08-25T17:44:00Z</time>
      </trkpt>
      <trkpt lat="47.48168" lon="-2.91236">
        <ele>-0.82</ele>
        <time>2016-08-25T17:44:18Z</time>
      </trkpt>
      <trkpt lat="47.48211" lon="-2.91237">
        <ele>-0.34</ele>
        <time>2016-08-25T17:44:38Z</time>
      </trkpt>
      <trkpt lat="47.48249" lon="-2.91237">
        <ele>0.14</ele>
        <time>2016-08-25T17:44:56Z</time>
      </trkpt>
      <trkpt lat="47.48286" lon="-2.91238">
        <ele>0.14</ele>
        <time>2016-08-25T17:45:13Z</time>
      </trkpt>
      <trkpt lat="47.48324" lon="-2.91239">
        <ele>-0.34</ele>
        <time>2016-08-25T17:45:31Z</time>
      </trkpt>
      <trkpt lat="47.4837" lon="-2.91242">
        <ele>0.14</ele>
        <time>2016-08-25T17:45:52Z</time>
      </trkpt>
      <trkpt lat="47.48415" lon="-2.91246">
        <ele>0.14</ele>
        <time>2016-08-25T17:46:13Z</time>
      </trkpt>
      <trkpt lat="47.48467" lon="-2.91249">
        <ele>-0.34</ele>
        <time>2016-08-25T17:46:37Z</time>
      </trkpt>
      <trkpt lat="47.4851" lon="-2.9125">
        <ele>-0.34</ele>
        <time>2016-08-25T17:46:57Z</time>
      </trkpt>
      <trkpt lat="47.48554" lon="-2.91252">
        <ele>0.14</ele>
        <time>2016-08-25T17:47:17Z</time>
      </trkpt>
      <trkpt lat="47.48601" lon="-2.91254">
        <ele>-0.34</ele>
        <time>2016-08-25T17:47:39Z</time>
      </trkpt>
      <trkpt lat="47.48644" lon="-2.91244">
        <ele>-0.34</ele>
        <time>2016-08-25T17:47:59Z</time>
      </trkpt>
      <trkpt lat="47.48688" lon="-2.91247">
        <ele>-0.82</ele>
        <time>2016-08-25T17:48:20Z</time>
      </trkpt>
      <trkpt lat="47.48736" lon="-2.91246">
        <ele>-0.34</ele>
        <time>2016-08-25T17:48:42Z</time>
      </trkpt>
      <trkpt lat="47.48781" lon="-2.91244">
        <ele>-0.82</ele>
        <time>2016-08-25T17:49:03Z</time>
      </trkpt>
      <trkpt lat="47.48832" lon="-2.91237">
        <ele>-1.3</ele>
        <time>2016-08-25T17:49:27Z</time>
      </trkpt>
      <trkpt lat="47.48884" lon="-2.91243">
        <ele>-0.82</ele>
        <time>2016-08-25T17:49:51Z</time>
      </trkpt>
      <trkpt lat="47.48929" lon="-2.91246">
        <ele>-0.82</ele>
        <time>2016-08-25T17:50:12Z</time>
      </trkpt>
      <trkpt lat="47.48969" lon="-2.9125">
        <ele>-0.82</ele>
        <time>2016-08-25T17:50:31Z</time>
      </trkpt>
      <trkpt lat="47.49011" lon="-2.9125">
        <ele>-1.3</ele>
        <time>2016-08-25T17:50:51Z</time>
      </trkpt>
      <trkpt lat="47.4906" lon="-2.91248">
        <ele>-1.3</ele>
        <time>2016-08-25T17:51:15Z</time>
      </trkpt>
      <trkpt lat="47.49107" lon="-2.91252">
        <ele>-1.79</ele>
        <time>2016-08-25T17:51:38Z</time>
      </trkpt>
      <trkpt lat="47.49147" lon="-2.91251">
        <ele>-1.79</ele>
        <time>2016-08-25T17:51:58Z</time>
      </trkpt>
      <trkpt lat="47.49184" lon="-2.9125">
        <ele>-1.79</ele>
        <time>2016-08-25T17:52:17Z</time>
      </trkpt>
      <trkpt lat="47.49228" lon="-2.91253">
        <ele>-1.3</ele>
        <time>2016-08-25T17:52:39Z</time>
      </trkpt>
      <trkpt lat="47.4927" lon="-2.91259">
        <ele>-1.79</ele>
        <time>2016-08-25T17:53:00Z</time>
      </trkpt>
      <trkpt lat="47.49314" lon="-2.91262">
        <ele>-1.3</ele>
        <time>2016-08-25T17:53:22Z</time>
      </trkpt>
      <trkpt lat="47.4936" lon="-2.91263">
        <ele>-1.3</ele>
        <time>2016-08-25T17:53:45Z</time>
      </trkpt>
      <trkpt lat="47.49408" lon="-2.91258">
        <ele>-1.79</ele>
        <time>2016-08-25T17:54:09Z</time>
      </trkpt>
      <trkpt lat="47.49449" lon="-2.91258">
        <ele>-1.79</ele>
        <time>2016-08-25T17:54:30Z</time>
      </trkpt>
      <trkpt lat="47.49489" lon="-2.91256">
        <ele>-2.27</ele>
        <time>2016-08-25T17:54:50Z</time>
      </trkpt>
      <trkpt lat="47.49533" lon="-2.91252">
        <ele>-2.75</ele>
        <time>2016-08-25T17:55:12Z</time>
      </trkpt>
      <trkpt lat="47.49577" lon="-2.91248">
        <ele>-2.75</ele>
        <time>2016-08-25T17:55:32Z</time>
      </trkpt>
      <trkpt lat="47.49622" lon="-2.9125">
        <ele>-2.27</ele>
        <time>2016-08-25T17:55:52Z</time>
      </trkpt>
      <trkpt lat="47.49663" lon="-2.91254">
        <ele>-2.27</ele>
        <time>2016-08-25T17:56:10Z</time>
      </trkpt>
      <trkpt lat="47.49717" lon="-2.91249">
        <ele>-2.27</ele>
        <time>2016-08-25T17:56:34Z</time>
      </trkpt>
      <trkpt lat="47.49761" lon="-2.91246">
        <ele>-2.27</ele>
        <time>2016-08-25T17:56:54Z</time>
      </trkpt>
      <trkpt lat="47.49816" lon="-2.91256">
        <ele>-1.79</ele>
        <time>2016-08-25T17:57:19Z</time>
      </trkpt>
      <trkpt lat="47.49862" lon="-2.9127">
        <ele>-2.27</ele>
        <time>2016-08-25T17:57:41Z</time>
      </trkpt>
      <trkpt lat="47.49912" lon="-2.91273">
        <ele>-1.79</ele>
        <time>2016-08-25T17:58:03Z</time>
      </trkpt>
      <trkpt lat="47.49964" lon="-2.91264">
        <ele>-1.3</ele>
        <time>2016-08-25T17:58:26Z</time>
      </trkpt>
      <trkpt lat="47.50016" lon="-2.9125">
        <ele>-1.3</ele>
        <time>2016-08-25T17:58:50Z</time>
      </trkpt>
      <trkpt lat="47.5006" lon="-2.91264">
        <ele>-1.3</ele>
        <time>2016-08-25T17:59:11Z</time>
      </trkpt>
      <trkpt lat="47.5011" lon="-2.91282">
        <ele>-1.3</ele>
        <time>2016-08-25T17:59:35Z</time>
      </trkpt>
      <trkpt lat="47.50162" lon="-2.91295">
        <ele>-2.27</ele>
        <time>2016-08-25T17:59:59Z</time>
      </trkpt>
      <trkpt lat="47.50205" lon="-2.91295">
        <ele>-2.75</ele>
        <time>2016-08-25T18:00:18Z</time>
      </trkpt>
      <trkpt lat="47.50256" lon="-2.91285">
        <ele>-1.79</ele>
        <time>2016-08-25T18:00:41Z</time>
      </trkpt>
      <trkpt lat="47.50304" lon="-2.91273">
        <ele>-1.79</ele>
        <time>2016-08-25T18:01:03Z</time>
      </trkpt>
      <trkpt lat="47.50354" lon="-2.9127">
        <ele>-1.79</ele>
        <time>2016-08-25T18:01:26Z</time>
      </trkpt>
      <trkpt lat="47.50405" lon="-2.91278">
        <ele>-2.27</ele>
        <time>2016-08-25T18:01:50Z</time>
      </trkpt>
      <trkpt lat="47.50453" lon="-2.91287">
        <ele>-3.23</ele>
        <time>2016-08-25T18:02:13Z</time>
      </trkpt>
      <trkpt lat="47.50507" lon="-2.91287">
        <ele>-2.75</ele>
        <time>2016-08-25T18:02:38Z</time>
      </trkpt>
      <trkpt lat="47.50558" lon="-2.91289">
        <ele>-2.75</ele>
        <time>2016-08-25T18:03:02Z</time>
      </trkpt>
      <trkpt lat="47.50601" lon="-2.91291">
        <ele>-2.75</ele>
        <time>2016-08-25T18:03:23Z</time>
      </trkpt>
      <trkpt lat="47.50651" lon="-2.91295">
        <ele>-3.71</ele>
        <time>2016-08-25T18:03:47Z</time>
      </trkpt>
      <trkpt lat="47.50702" lon="-2.91299">
        <ele>-4.19</ele>
        <time>2016-08-25T18:04:11Z</time>
      </trkpt>
      <trkpt lat="47.50749" lon="-2.91299">
        <ele>-4.19</ele>
        <time>2016-08-25T18:04:33Z</time>
      </trkpt>
      <trkpt lat="47.50801" lon="-2.91301">
        <ele>-3.71</ele>
        <time>2016-08-25T18:04:58Z</time>
      </trkpt>
      <trkpt lat="47.50844" lon="-2.91302">
        <ele>-3.71</ele>
        <time>2016-08-25T18:05:19Z</time>
      </trkpt>
      <trkpt lat="47.50891" lon="-2.91305">
        <ele>-4.19</ele>
        <time>2016-08-25T18:05:42Z</time>
      </trkpt>
      <trkpt lat="47.50939" lon="-2.91303">
        <ele>-4.19</ele>
        <time>2016-08-25T18:06:05Z</time>
      </trkpt>
      <trkpt lat="47.5099" lon="-2.91304">
        <ele>-5.15</ele>
        <time>2016-08-25T18:06:30Z</time>
      </trkpt>
      <trkpt lat="47.5103" lon="-2.91301">
        <ele>-4.19</ele>
        <time>2016-08-25T18:06:49Z</time>
      </trkpt>
      <trkpt lat="47.51076" lon="-2.91302">
        <ele>-2.75</ele>
        <time>2016-08-25T18:07:11Z</time>
      </trkpt>
      <trkpt lat="47.51109" lon="-2.91301">
        <ele>-2.75</ele>
        <time>2016-08-25T18:07:27Z</time>
      </trkpt>
      <trkpt lat="47.5114" lon="-2.91299">
        <ele>-2.75</ele>
        <time>2016-08-25T18:07:42Z</time>
      </trkpt>
      <trkpt lat="47.51189" lon="-2.91297">
        <ele>-2.27</ele>
        <time>2016-08-25T18:08:05Z</time>
      </trkpt>
      <trkpt lat="47.51235" lon="-2.91296">
        <ele>-2.27</ele>
        <time>2016-08-25T18:08:27Z</time>
      </trkpt>
      <trkpt lat="47.51283" lon="-2.91293">
        <ele>-1.3</ele>
        <time>2016-08-25T18:08:49Z</time>
      </trkpt>
      <trkpt lat="47.51334" lon="-2.91293">
        <ele>-0.82</ele>
        <time>2016-08-25T18:09:13Z</time>
      </trkpt>
      <trkpt lat="47.51377" lon="-2.91295">
        <ele>-1.3</ele>
        <time>2016-08-25T18:09:33Z</time>
      </trkpt>
      <trkpt lat="47.51429" lon="-2.91295">
        <ele>-1.79</ele>
        <time>2016-08-25T18:09:56Z</time>
      </trkpt>
      <trkpt lat="47.51468" lon="-2.91295">
        <ele>-2.27</ele>
        <time>2016-08-25T18:10:14Z</time>
      </trkpt>
      <trkpt lat="47.51513" lon="-2.91295">
        <ele>-2.27</ele>
        <time>2016-08-25T18:10:34Z</time>
      </trkpt>
      <trkpt lat="47.51568" lon="-2.91296">
        <ele>-2.75</ele>
        <time>2016-08-25T18:10:58Z</time>
      </trkpt>
      <trkpt lat="47.51614" lon="-2.91297">
        <ele>-2.27</ele>
        <time>2016-08-25T18:11:18Z</time>
      </trkpt>
      <trkpt lat="47.51674" lon="-2.91286">
        <ele>-1.79</ele>
        <time>2016-08-25T18:11:44Z</time>
      </trkpt>
      <trkpt lat="47.51732" lon="-2.91275">
        <ele>-1.79</ele>
        <time>2016-08-25T18:12:09Z</time>
      </trkpt>
      <trkpt lat="47.5179" lon="-2.91273">
        <ele>-0.34</ele>
        <time>2016-08-25T18:12:34Z</time>
      </trkpt>
      <trkpt lat="47.51842" lon="-2.91274">
        <ele>-0.82</ele>
        <time>2016-08-25T18:12:57Z</time>
      </trkpt>
      <trkpt lat="47.51893" lon="-2.91278">
        <ele>-0.34</ele>
        <time>2016-08-25T18:13:19Z</time>
      </trkpt>
      <trkpt lat="47.51939" lon="-2.91284">
        <ele>-0.34</ele>
        <time>2016-08-25T18:13:39Z</time>
      </trkpt>
      <trkpt lat="47.52" lon="-2.91288">
        <ele>0.14</ele>
        <time>2016-08-25T18:14:05Z</time>
      </trkpt>
      <trkpt lat="47.52065" lon="-2.9129">
        <ele>-0.34</ele>
        <time>2016-08-25T18:14:32Z</time>
      </trkpt>
      <trkpt lat="47.52124" lon="-2.91291">
        <ele>-0.82</ele>
        <time>2016-08-25T18:14:56Z</time>
      </trkpt>
      <trkpt lat="47.52179" lon="-2.91292">
        <ele>-1.3</ele>
        <time>2016-08-25T18:15:18Z</time>
      </trkpt>
      <trkpt lat="47.52242" lon="-2.91301">
        <ele>-0.82</ele>
        <time>2016-08-25T18:15:44Z</time>
      </trkpt>
      <trkpt lat="47.52298" lon="-2.91313">
        <ele>0.14</ele>
        <time>2016-08-25T18:16:07Z</time>
      </trkpt>
      <trkpt lat="47.52366" lon="-2.91313">
        <ele>-0.34</ele>
        <time>2016-08-25T18:16:34Z</time>
      </trkpt>
      <trkpt lat="47.52427" lon="-2.91325">
        <ele>0.14</ele>
        <time>2016-08-25T18:16:59Z</time>
      </trkpt>
      <trkpt lat="47.52482" lon="-2.91337">
        <ele>0.14</ele>
        <time>2016-08-25T18:17:21Z</time>
      </trkpt>
      <trkpt lat="47.52536" lon="-2.91347">
        <ele>0.14</ele>
        <time>2016-08-25T18:17:43Z</time>
      </trkpt>
      <trkpt lat="47.52588" lon="-2.91361">
        <ele>-0.34</ele>
        <time>2016-08-25T18:18:04Z</time>
      </trkpt>
      <trkpt lat="47.5264" lon="-2.9138">
        <ele>-0.34</ele>
        <time>2016-08-25T18:18:26Z</time>
      </trkpt>
      <trkpt lat="47.52698" lon="-2.91375">
        <ele>-1.3</ele>
        <time>2016-08-25T18:18:49Z</time>
      </trkpt>
      <trkpt lat="47.52766" lon="-2.91373">
        <ele>-0.34</ele>
        <time>2016-08-25T18:19:17Z</time>
      </trkpt>
      <trkpt lat="47.52819" lon="-2.91371">
        <ele>0.14</ele>
        <time>2016-08-25T18:19:40Z</time>
      </trkpt>
      <trkpt lat="47.52869" lon="-2.91374">
        <ele>0.62</ele>
        <time>2016-08-25T18:20:02Z</time>
      </trkpt>
      <trkpt lat="47.52918" lon="-2.91374">
        <ele>0.14</ele>
        <time>2016-08-25T18:20:24Z</time>
      </trkpt>
      <trkpt lat="47.52969" lon="-2.91372">
        <ele>0.62</ele>
        <time>2016-08-25T18:20:47Z</time>
      </trkpt>
      <trkpt lat="47.53015" lon="-2.91374">
        <ele>1.58</ele>
        <time>2016-08-25T18:21:08Z</time>
      </trkpt>
      <trkpt lat="47.53067" lon="-2.91371">
        <ele>0.14</ele>
        <time>2016-08-25T18:21:32Z</time>
      </trkpt>
      <trkpt lat="47.53121" lon="-2.91371">
        <ele>1.1</ele>
        <time>2016-08-25T18:21:57Z</time>
      </trkpt>
      <trkpt lat="47.53167" lon="-2.91381">
        <ele>0.62</ele>
        <time>2016-08-25T18:22:19Z</time>
      </trkpt>
      <trkpt lat="47.53209" lon="-2.91387">
        <ele>1.1</ele>
        <time>2016-08-25T18:22:39Z</time>
      </trkpt>
      <trkpt lat="47.53264" lon="-2.91394">
        <ele>1.58</ele>
        <time>2016-08-25T18:23:05Z</time>
      </trkpt>
      <trkpt lat="47.53307" lon="-2.9138">
        <ele>0.14</ele>
        <time>2016-08-25T18:23:26Z</time>
      </trkpt>
      <trkpt lat="47.5335" lon="-2.9137">
        <ele>-0.82</ele>
        <time>2016-08-25T18:23:47Z</time>
      </trkpt>
      <trkpt lat="47.53393" lon="-2.91368">
        <ele>-1.3</ele>
        <time>2016-08-25T18:24:07Z</time>
      </trkpt>
      <trkpt lat="47.53443" lon="-2.91368">
        <ele>-0.82</ele>
        <time>2016-08-25T18:24:30Z</time>
      </trkpt>
      <trkpt lat="47.53496" lon="-2.91365">
        <ele>-1.3</ele>
        <time>2016-08-25T18:24:54Z</time>
      </trkpt>
      <trkpt lat="47.53517" lon="-2.91392">
        <ele>-0.82</ele>
        <time>2016-08-25T18:25:10Z</time>
      </trkpt>
      <trkpt lat="47.53526" lon="-2.91423">
        <ele>0.14</ele>
        <time>2016-08-25T18:25:29Z</time>
      </trkpt>
      <trkpt lat="47.53533" lon="-2.91446">
        <ele>0.14</ele>
        <time>2016-08-25T18:25:47Z</time>
      </trkpt>
      <trkpt lat="47.53545" lon="-2.9147">
        <ele>-0.34</ele>
        <time>2016-08-25T18:26:03Z</time>
      </trkpt>
      <trkpt lat="47.53571" lon="-2.91464">
        <ele>0.14</ele>
        <time>2016-08-25T18:26:19Z</time>
      </trkpt>
      <trkpt lat="47.53606" lon="-2.91419">
        <ele>0.14</ele>
        <time>2016-08-25T18:26:44Z</time>
      </trkpt>
      <trkpt lat="47.53639" lon="-2.91372">
        <ele>-0.82</ele>
        <time>2016-08-25T18:27:09Z</time>
      </trkpt>
      <trkpt lat="47.53671" lon="-2.91332">
        <ele>-0.34</ele>
        <time>2016-08-25T18:27:32Z</time>
      </trkpt>
      <trkpt lat="47.53702" lon="-2.91286">
        <ele>-0.34</ele>
        <time>2016-08-25T18:27:56Z</time>
      </trkpt>
      <trkpt lat="47.53729" lon="-2.91242">
        <ele>-1.3</ele>
        <time>2016-08-25T18:28:18Z</time>
      </trkpt>
      <trkpt lat="47.53753" lon="-2.91193">
        <ele>-0.82</ele>
        <time>2016-08-25T18:28:41Z</time>
      </trkpt>
      <trkpt lat="47.53768" lon="-2.91135">
        <ele>-1.79</ele>
        <time>2016-08-25T18:29:06Z</time>
      </trkpt>
      <trkpt lat="47.53782" lon="-2.91063">
        <ele>-1.79</ele>
        <time>2016-08-25T18:29:33Z</time>
      </trkpt>
      <trkpt lat="47.53798" lon="-2.91">
        <ele>-0.82</ele>
        <time>2016-08-25T18:29:56Z</time>
      </trkpt>
      <trkpt lat="47.53807" lon="-2.90927">
        <ele>-2.27</ele>
        <time>2016-08-25T18:30:21Z</time>
      </trkpt>
      <trkpt lat="47.53821" lon="-2.90865">
        <ele>-1.79</ele>
        <time>2016-08-25T18:30:43Z</time>
      </trkpt>
      <trkpt lat="47.53839" lon="-2.90789">
        <ele>-0.82</ele>
        <time>2016-08-25T18:31:10Z</time>
      </trkpt>
      <trkpt lat="47.53866" lon="-2.90723">
        <ele>-0.34</ele>
        <time>2016-08-25T18:31:35Z</time>
      </trkpt>
      <trkpt lat="47.539" lon="-2.9065">
        <ele>-0.82</ele>
        <time>2016-08-25T18:32:03Z</time>
      </trkpt>
      <trkpt lat="47.53929" lon="-2.90571">
        <ele>-0.82</ele>
        <time>2016-08-25T18:32:32Z</time>
      </trkpt>
      <trkpt lat="47.53959" lon="-2.90515">
        <ele>-0.82</ele>
        <time>2016-08-25T18:32:56Z</time>
      </trkpt>
      <trkpt lat="47.53984" lon="-2.90442">
        <ele>-1.3</ele>
        <time>2016-08-25T18:33:22Z</time>
      </trkpt>
      <trkpt lat="47.54013" lon="-2.90377">
        <ele>-1.3</ele>
        <time>2016-08-25T18:33:47Z</time>
      </trkpt>
      <trkpt lat="47.54048" lon="-2.90305">
        <ele>-1.3</ele>
        <time>2016-08-25T18:34:17Z</time>
      </trkpt>
      <trkpt lat="47.54078" lon="-2.90228">
        <ele>-1.3</ele>
        <time>2016-08-25T18:34:46Z</time>
      </trkpt>
      <trkpt lat="47.54105" lon="-2.90161">
        <ele>-1.3</ele>
        <time>2016-08-25T18:35:12Z</time>
      </trkpt>
      <trkpt lat="47.54135" lon="-2.90073">
        <ele>-1.3</ele>
        <time>2016-08-25T18:35:49Z</time>
      </trkpt>
      <trkpt lat="47.54152" lon="-2.89987">
        <ele>-0.34</ele>
        <time>2016-08-25T18:36:23Z</time>
      </trkpt>
      <trkpt lat="47.54157" lon="-2.89919">
        <ele>0.14</ele>
        <time>2016-08-25T18:36:50Z</time>
      </trkpt>
      <trkpt lat="47.54164" lon="-2.89862">
        <ele>0.62</ele>
        <time>2016-08-25T18:37:19Z</time>
      </trkpt>
      <trkpt lat="47.54177" lon="-2.89807">
        <ele>0.14</ele>
        <time>2016-08-25T18:37:49Z</time>
      </trkpt>
      <trkpt lat="47.54191" lon="-2.89757">
        <ele>0.14</ele>
        <time>2016-08-25T18:38:18Z</time>
      </trkpt>
      <trkpt lat="47.54212" lon="-2.89704">
        <ele>0.14</ele>
        <time>2016-08-25T18:38:49Z</time>
      </trkpt>
      <trkpt lat="47.54234" lon="-2.89653">
        <ele>0.14</ele>
        <time>2016-08-25T18:39:21Z</time>
      </trkpt>
      <trkpt lat="47.54247" lon="-2.89613">
        <ele>3.02</ele>
        <time>2016-08-25T18:39:53Z</time>
      </trkpt>
      <trkpt lat="47.54266" lon="-2.89576">
        <ele>1.58</ele>
        <time>2016-08-25T18:40:28Z</time>
      </trkpt>
      <trkpt lat="47.54283" lon="-2.89553">
        <ele>1.1</ele>
        <time>2016-08-25T18:40:54Z</time>
      </trkpt>
      <trkpt lat="47.5431" lon="-2.89527">
        <ele>0.14</ele>
        <time>2016-08-25T18:41:28Z</time>
      </trkpt>
      <trkpt lat="47.54331" lon="-2.89496">
        <ele>-1.79</ele>
        <time>2016-08-25T18:41:58Z</time>
      </trkpt>
      <trkpt lat="47.54349" lon="-2.89458">
        <ele>-1.79</ele>
        <time>2016-08-25T18:42:33Z</time>
      </trkpt>
      <trkpt lat="47.54366" lon="-2.8944">
        <ele>0.14</ele>
        <time>2016-08-25T18:43:02Z</time>
      </trkpt>
      <trkpt lat="47.54372" lon="-2.89451">
        <ele>2.54</ele>
        <time>2016-08-25T18:43:24Z</time>
      </trkpt>
      <trkpt lat="47.54372" lon="-2.89443">
        <ele>3.02</ele>
        <time>2016-08-25T18:43:32Z</time>
      </trkpt>
      <trkpt lat="47.54375" lon="-2.89423">
        <ele>3.98</ele>
        <time>2016-08-25T18:43:59Z</time>
      </trkpt>
      <trkpt lat="47.54363" lon="-2.89436">
        <ele>3.5</ele>
        <time>2016-08-25T18:44:23Z</time>
      </trkpt>
      <trkpt lat="47.54349" lon="-2.89442">
        <ele>3.5</ele>
        <time>2016-08-25T18:44:51Z</time>
      </trkpt>
      <trkpt lat="47.54338" lon="-2.89449">
        <ele>3.02</ele>
        <time>2016-08-25T18:45:19Z</time>
      </trkpt>
      <trkpt lat="47.54336" lon="-2.89453">
        <ele>3.02</ele>
        <time>2016-08-25T18:45:49Z</time>
      </trkpt>
      <trkpt lat="47.54335" lon="-2.89454">
        <ele>3.02</ele>
        <time>2016-08-25T18:46:20Z</time>
      </trkpt>
      <trkpt lat="47.54335" lon="-2.89455">
        <ele>3.02</ele>
        <time>2016-08-25T18:46:52Z</time>
      </trkpt>
      <trkpt lat="47.54335" lon="-2.89456">
        <ele>3.5</ele>
        <time>2016-08-25T18:47:25Z</time>
      </trkpt>
      <trkpt lat="47.54335" lon="-2.89457">
        <ele>3.5</ele>
        <time>2016-08-25T18:47:55Z</time>
      </trkpt>
      <trkpt lat="47.54335" lon="-2.89457">
        <ele>2.54</ele>
        <time>2016-08-25T18:48:32Z</time>
      </trkpt>
      <trkpt lat="47.54335" lon="-2.89458">
        <ele>3.5</ele>
        <time>2016-08-25T18:48:58Z</time>
      </trkpt>
      <trkpt lat="47.54335" lon="-2.89457">
        <ele>3.02</ele>
        <time>2016-08-25T18:49:24Z</time>
      </trkpt>
      <trkpt lat="47.54334" lon="-2.89457">
        <ele>3.02</ele>
        <time>2016-08-25T18:49:48Z</time>
      </trkpt>
      <trkpt lat="47.54334" lon="-2.89458">
        <ele>3.5</ele>
        <time>2016-08-25T18:50:21Z</time>
      </trkpt>
      <trkpt lat="47.54335" lon="-2.89457">
        <ele>3.5</ele>
        <time>2016-08-25T18:50:59Z</time>
      </trkpt>
      <trkpt lat="47.54335" lon="-2.89457">
        <ele>3.02</ele>
        <time>2016-08-25T18:51:28Z</time>
      </trkpt>
      <trkpt lat="47.54335" lon="-2.89457">
        <ele>2.54</ele>
        <time>2016-08-25T18:52:04Z</time>
      </trkpt>
      <trkpt lat="47.54335" lon="-2.89457">
        <ele>2.06</ele>
        <time>2016-08-25T18:52:36Z</time>
      </trkpt>
      <trkpt lat="47.54335" lon="-2.89457">
        <ele>1.1</ele>
        <time>2016-08-25T18:53:08Z</time>
      </trkpt>
      <trkpt lat="47.54335" lon="-2.89457">
        <ele>0.62</ele>
        <time>2016-08-25T18:53:38Z</time>
      </trkpt>
      <trkpt lat="47.54336" lon="-2.89456">
        <ele>0.62</ele>
        <time>2016-08-25T18:54:02Z</time>
      </trkpt>
      <trkpt lat="47.54335" lon="-2.89457">
        <ele>1.1</ele>
        <time>2016-08-25T18:54:32Z</time>
      </trkpt>
      <trkpt lat="47.54335" lon="-2.89457">
        <ele>0.62</ele>
        <time>2016-08-25T18:55:02Z</time>
      </trkpt>
      <trkpt lat="47.54335" lon="-2.89457">
        <ele>0.62</ele>
        <time>2016-08-25T18:55:31Z</time>
      </trkpt>
      <trkpt lat="47.54335" lon="-2.89457">
        <ele>1.1</ele>
        <time>2016-08-25T18:56:01Z</time>
      </trkpt>
      <trkpt lat="47.54334" lon="-2.89457">
        <ele>0.62</ele>
        <time>2016-08-25T18:56:28Z</time>
      </trkpt>
      <trkpt lat="47.54334" lon="-2.89457">
        <ele>0.62</ele>
        <time>2016-08-25T18:56:54Z</time>
      </trkpt>
      <trkpt lat="47.54334" lon="-2.89457">
        <ele>1.1</ele>
        <time>2016-08-25T18:57:22Z</time>
      </trkpt>
      <trkpt lat="47.54334" lon="-2.89457">
        <ele>1.1</ele>
        <time>2016-08-25T18:57:46Z</time>
      </trkpt>
      <trkpt lat="47.54334" lon="-2.89456">
        <ele>1.58</ele>
        <time>2016-08-25T18:58:17Z</time>
      </trkpt>
      <trkpt lat="47.54334" lon="-2.89456">
        <ele>2.06</ele>
        <time>2016-08-25T18:58:43Z</time>
      </trkpt>
      <trkpt lat="47.54334" lon="-2.89456">
        <ele>2.06</ele>
        <time>2016-08-25T18:59:05Z</time>
      </trkpt>
      <trkpt lat="47.54334" lon="-2.89457">
        <ele>1.58</ele>
        <time>2016-08-25T18:59:37Z</time>
      </trkpt>
      <trkpt lat="47.54334" lon="-2.89457">
        <ele>1.58</ele>
        <time>2016-08-25T18:59:40Z</time>
      </trkpt>
    </trkseg>
  </trk>
  <trk>
    <name><![CDATA[Tracé actuel: 26 AOU 2016 11:30]]></name>
    <trkseg>
      <trkpt lat="47.54068" lon="-2.90218">
        <ele>-42.16</ele>
        <time>2016-08-26T09:30:07Z</time>
      </trkpt>
      <trkpt lat="47.5406" lon="-2.90255">
        <ele>-26.78</ele>
        <time>2016-08-26T09:30:26Z</time>
      </trkpt>
      <trkpt lat="47.54037" lon="-2.90304">
        <ele>-18.61</ele>
        <time>2016-08-26T09:30:45Z</time>
      </trkpt>
      <trkpt lat="47.54022" lon="-2.90349">
        <ele>-7.07</ele>
        <time>2016-08-26T09:31:02Z</time>
      </trkpt>
      <trkpt lat="47.54001" lon="-2.90403">
        <ele>-5.63</ele>
        <time>2016-08-26T09:31:23Z</time>
      </trkpt>
      <trkpt lat="47.53982" lon="-2.90464">
        <ele>-3.23</ele>
        <time>2016-08-26T09:31:47Z</time>
      </trkpt>
      <trkpt lat="47.53962" lon="-2.90527">
        <ele>-2.75</ele>
        <time>2016-08-26T09:32:11Z</time>
      </trkpt>
      <trkpt lat="47.53947" lon="-2.90566">
        <ele>-1.79</ele>
        <time>2016-08-26T09:32:27Z</time>
      </trkpt>
      <trkpt lat="47.53924" lon="-2.90618">
        <ele>-0.34</ele>
        <time>2016-08-26T09:32:48Z</time>
      </trkpt>
      <trkpt lat="47.539" lon="-2.90674">
        <ele>-0.82</ele>
        <time>2016-08-26T09:33:10Z</time>
      </trkpt>
      <trkpt lat="47.53885" lon="-2.90702">
        <ele>1.1</ele>
        <time>2016-08-26T09:33:22Z</time>
      </trkpt>
      <trkpt lat="47.53854" lon="-2.90765">
        <ele>0.62</ele>
        <time>2016-08-26T09:33:48Z</time>
      </trkpt>
      <trkpt lat="47.53826" lon="-2.90835">
        <ele>0.14</ele>
        <time>2016-08-26T09:34:15Z</time>
      </trkpt>
      <trkpt lat="47.53803" lon="-2.9091">
        <ele>0.14</ele>
        <time>2016-08-26T09:34:42Z</time>
      </trkpt>
      <trkpt lat="47.53786" lon="-2.90982">
        <ele>0.14</ele>
        <time>2016-08-26T09:35:07Z</time>
      </trkpt>
      <trkpt lat="47.53773" lon="-2.91046">
        <ele>-0.34</ele>
        <time>2016-08-26T09:35:29Z</time>
      </trkpt>
      <trkpt lat="47.5376" lon="-2.91101">
        <ele>-0.34</ele>
        <time>2016-08-26T09:35:48Z</time>
      </trkpt>
      <trkpt lat="47.53747" lon="-2.91169">
        <ele>-0.34</ele>
        <time>2016-08-26T09:36:11Z</time>
      </trkpt>
      <trkpt lat="47.53734" lon="-2.91229">
        <ele>-0.34</ele>
        <time>2016-08-26T09:36:32Z</time>
      </trkpt>
      <trkpt lat="47.53721" lon="-2.91294">
        <ele>0.14</ele>
        <time>2016-08-26T09:36:54Z</time>
      </trkpt>
      <trkpt lat="47.53708" lon="-2.91367">
        <ele>0.14</ele>
        <time>2016-08-26T09:37:19Z</time>
      </trkpt>
      <trkpt lat="47.53697" lon="-2.91432">
        <ele>1.1</ele>
        <time>2016-08-26T09:37:41Z</time>
      </trkpt>
      <trkpt lat="47.53677" lon="-2.91495">
        <ele>1.58</ele>
        <time>2016-08-26T09:38:04Z</time>
      </trkpt>
      <trkpt lat="47.53673" lon="-2.91551">
        <ele>1.1</ele>
        <time>2016-08-26T09:38:23Z</time>
      </trkpt>
      <trkpt lat="47.53701" lon="-2.91563">
        <ele>1.58</ele>
        <time>2016-08-26T09:38:40Z</time>
      </trkpt>
      <trkpt lat="47.53718" lon="-2.91559">
        <ele>2.54</ele>
        <time>2016-08-26T09:39:01Z</time>
      </trkpt>
      <trkpt lat="47.53729" lon="-2.91568">
        <ele>2.54</ele>
        <time>2016-08-26T09:39:23Z</time>
      </trkpt>
      <trkpt lat="47.53732" lon="-2.91572">
        <ele>2.54</ele>
        <time>2016-08-26T09:39:28Z</time>
      </trkpt>
      <trkpt lat="47.53759" lon="-2.9158">
        <ele>2.06</ele>
        <time>2016-08-26T09:39:52Z</time>
      </trkpt>
      <trkpt lat="47.53789" lon="-2.91569">
        <ele>2.06</ele>
        <time>2016-08-26T09:40:17Z</time>
      </trkpt>
      <trkpt lat="47.53822" lon="-2.91564">
        <ele>1.1</ele>
        <time>2016-08-26T09:40:40Z</time>
      </trkpt>
      <trkpt lat="47.53858" lon="-2.91567">
        <ele>1.58</ele>
        <time>2016-08-26T09:41:01Z</time>
      </trkpt>
      <trkpt lat="47.53885" lon="-2.91578">
        <ele>1.58</ele>
        <time>2016-08-26T09:41:22Z</time>
      </trkpt>
      <trkpt lat="47.53915" lon="-2.91596">
        <ele>2.06</ele>
        <time>2016-08-26T09:41:45Z</time>
      </trkpt>
      <trkpt lat="47.53948" lon="-2.91613">
        <ele>2.06</ele>
        <time>2016-08-26T09:42:07Z</time>
      </trkpt>
      <trkpt lat="47.53976" lon="-2.91627">
        <ele>2.54</ele>
        <time>2016-08-26T09:42:24Z</time>
      </trkpt>
      <trkpt lat="47.53998" lon="-2.91641">
        <ele>2.06</ele>
        <time>2016-08-26T09:42:38Z</time>
      </trkpt>
      <trkpt lat="47.54023" lon="-2.91658">
        <ele>2.06</ele>
        <time>2016-08-26T09:42:52Z</time>
      </trkpt>
      <trkpt lat="47.54057" lon="-2.91679">
        <ele>1.58</ele>
        <time>2016-08-26T09:43:10Z</time>
      </trkpt>
      <trkpt lat="47.54093" lon="-2.917">
        <ele>1.1</ele>
        <time>2016-08-26T09:43:28Z</time>
      </trkpt>
      <trkpt lat="47.54126" lon="-2.91718">
        <ele>1.1</ele>
        <time>2016-08-26T09:43:45Z</time>
      </trkpt>
      <trkpt lat="47.54168" lon="-2.91746">
        <ele>0.14</ele>
        <time>2016-08-26T09:44:05Z</time>
      </trkpt>
      <trkpt lat="47.54217" lon="-2.91771">
        <ele>1.1</ele>
        <time>2016-08-26T09:44:25Z</time>
      </trkpt>
      <trkpt lat="47.54264" lon="-2.91788">
        <ele>1.58</ele>
        <time>2016-08-26T09:44:41Z</time>
      </trkpt>
      <trkpt lat="47.54304" lon="-2.91808">
        <ele>1.1</ele>
        <time>2016-08-26T09:44:55Z</time>
      </trkpt>
      <trkpt lat="47.54357" lon="-2.91839">
        <ele>3.02</ele>
        <time>2016-08-26T09:45:14Z</time>
      </trkpt>
      <trkpt lat="47.54395" lon="-2.91862">
        <ele>3.02</ele>
        <time>2016-08-26T09:45:29Z</time>
      </trkpt>
      <trkpt lat="47.54424" lon="-2.91885">
        <ele>3.02</ele>
        <time>2016-08-26T09:45:42Z</time>
      </trkpt>
      <trkpt lat="47.54455" lon="-2.9192">
        <ele>2.06</ele>
        <time>2016-08-26T09:46:00Z</time>
      </trkpt>
      <trkpt lat="47.54492" lon="-2.91957">
        <ele>1.1</ele>
        <time>2016-08-26T09:46:16Z</time>
      </trkpt>
      <trkpt lat="47.54532" lon="-2.91992">
        <ele>1.58</ele>
        <time>2016-08-26T09:46:35Z</time>
      </trkpt>
      <trkpt lat="47.54577" lon="-2.9203">
        <ele>1.1</ele>
        <time>2016-08-26T09:46:54Z</time>
      </trkpt>
      <trkpt lat="47.54617" lon="-2.92048">
        <ele>3.02</ele>
        <time>2016-08-26T09:47:12Z</time>
      </trkpt>
      <trkpt lat="47.54651" lon="-2.92069">
        <ele>3.02</ele>
        <time>2016-08-26T09:47:28Z</time>
      </trkpt>
      <trkpt lat="47.54703" lon="-2.92091">
        <ele>2.06</ele>
        <time>2016-08-26T09:47:50Z</time>
      </trkpt>
      <trkpt lat="47.54754" lon="-2.92104">
        <ele>2.54</ele>
        <time>2016-08-26T09:48:11Z</time>
      </trkpt>
      <trkpt lat="47.54804" lon="-2.92129">
        <ele>1.58</ele>
        <time>2016-08-26T09:48:31Z</time>
      </trkpt>
      <trkpt lat="47.54858" lon="-2.92149">
        <ele>2.54</ele>
        <time>2016-08-26T09:48:52Z</time>
      </trkpt>
      <trkpt lat="47.54906" lon="-2.92164">
        <ele>3.5</ele>
        <time>2016-08-26T09:49:12Z</time>
      </trkpt>
      <trkpt lat="47.54959" lon="-2.92176">
        <ele>3.02</ele>
        <time>2016-08-26T09:49:32Z</time>
      </trkpt>
      <trkpt lat="47.55019" lon="-2.92185">
        <ele>3.02</ele>
        <time>2016-08-26T09:49:52Z</time>
      </trkpt>
      <trkpt lat="47.55067" lon="-2.9219">
        <ele>2.54</ele>
        <time>2016-08-26T09:50:09Z</time>
      </trkpt>
      <trkpt lat="47.55128" lon="-2.92194">
        <ele>2.06</ele>
        <time>2016-08-26T09:50:29Z</time>
      </trkpt>
      <trkpt lat="47.55195" lon="-2.92191">
        <ele>2.54</ele>
        <time>2016-08-26T09:50:49Z</time>
      </trkpt>
      <trkpt lat="47.55255" lon="-2.9219">
        <ele>3.02</ele>
        <time>2016-08-26T09:51:09Z</time>
      </trkpt>
      <trkpt lat="47.55313" lon="-2.92184">
        <ele>2.54</ele>
        <time>2016-08-26T09:51:27Z</time>
      </trkpt>
      <trkpt lat="47.55375" lon="-2.92167">
        <ele>2.06</ele>
        <time>2016-08-26T09:51:47Z</time>
      </trkpt>
      <trkpt lat="47.55429" lon="-2.92149">
        <ele>2.54</ele>
        <time>2016-08-26T09:52:05Z</time>
      </trkpt>
      <trkpt lat="47.55493" lon="-2.92131">
        <ele>2.54</ele>
        <time>2016-08-26T09:52:27Z</time>
      </trkpt>
      <trkpt lat="47.55552" lon="-2.92112">
        <ele>2.54</ele>
        <time>2016-08-26T09:52:49Z</time>
      </trkpt>
      <trkpt lat="47.55607" lon="-2.92104">
        <ele>3.02</ele>
        <time>2016-08-26T09:53:09Z</time>
      </trkpt>
      <trkpt lat="47.5568" lon="-2.92091">
        <ele>2.54</ele>
        <time>2016-08-26T09:53:34Z</time>
      </trkpt>
      <trkpt lat="47.55745" lon="-2.92079">
        <ele>2.06</ele>
        <time>2016-08-26T09:53:58Z</time>
      </trkpt>
      <trkpt lat="47.55807" lon="-2.92093">
        <ele>2.06</ele>
        <time>2016-08-26T09:54:20Z</time>
      </trkpt>
      <trkpt lat="47.5586" lon="-2.92113">
        <ele>1.58</ele>
        <time>2016-08-26T09:54:41Z</time>
      </trkpt>
      <trkpt lat="47.55907" lon="-2.92139">
        <ele>1.1</ele>
        <time>2016-08-26T09:55:00Z</time>
      </trkpt>
      <trkpt lat="47.5596" lon="-2.92162">
        <ele>0.14</ele>
        <time>2016-08-26T09:55:19Z</time>
      </trkpt>
      <trkpt lat="47.56012" lon="-2.92181">
        <ele>0.62</ele>
        <time>2016-08-26T09:55:38Z</time>
      </trkpt>
      <trkpt lat="47.56064" lon="-2.92197">
        <ele>1.1</ele>
        <time>2016-08-26T09:55:57Z</time>
      </trkpt>
      <trkpt lat="47.56111" lon="-2.92217">
        <ele>1.1</ele>
        <time>2016-08-26T09:56:16Z</time>
      </trkpt>
      <trkpt lat="47.56156" lon="-2.92246">
        <ele>1.1</ele>
        <time>2016-08-26T09:56:37Z</time>
      </trkpt>
      <trkpt lat="47.56209" lon="-2.92282">
        <ele>1.58</ele>
        <time>2016-08-26T09:57:01Z</time>
      </trkpt>
      <trkpt lat="47.56256" lon="-2.92316">
        <ele>0.62</ele>
        <time>2016-08-26T09:57:24Z</time>
      </trkpt>
      <trkpt lat="47.56306" lon="-2.92347">
        <ele>1.1</ele>
        <time>2016-08-26T09:57:47Z</time>
      </trkpt>
      <trkpt lat="47.56351" lon="-2.92375">
        <ele>0.62</ele>
        <time>2016-08-26T09:58:10Z</time>
      </trkpt>
      <trkpt lat="47.56387" lon="-2.92402">
        <ele>1.58</ele>
        <time>2016-08-26T09:58:28Z</time>
      </trkpt>
      <trkpt lat="47.56438" lon="-2.92435">
        <ele>1.1</ele>
        <time>2016-08-26T09:58:51Z</time>
      </trkpt>
      <trkpt lat="47.56475" lon="-2.92462">
        <ele>0.62</ele>
        <time>2016-08-26T09:59:10Z</time>
      </trkpt>
      <trkpt lat="47.56509" lon="-2.9249">
        <ele>0.62</ele>
        <time>2016-08-26T09:59:28Z</time>
      </trkpt>
      <trkpt lat="47.56541" lon="-2.9252">
        <ele>0.62</ele>
        <time>2016-08-26T09:59:45Z</time>
      </trkpt>
      <trkpt lat="47.56575" lon="-2.9255">
        <ele>0.14</ele>
        <time>2016-08-26T10:00:02Z</time>
      </trkpt>
      <trkpt lat="47.56617" lon="-2.92582">
        <ele>0.14</ele>
        <time>2016-08-26T10:00:22Z</time>
      </trkpt>
      <trkpt lat="47.56656" lon="-2.92608">
        <ele>1.1</ele>
        <time>2016-08-26T10:00:41Z</time>
      </trkpt>
      <trkpt lat="47.56708" lon="-2.92632">
        <ele>2.54</ele>
        <time>2016-08-26T10:01:06Z</time>
      </trkpt>
      <trkpt lat="47.56754" lon="-2.92662">
        <ele>2.54</ele>
        <time>2016-08-26T10:01:31Z</time>
      </trkpt>
      <trkpt lat="47.56798" lon="-2.92684">
        <ele>2.54</ele>
        <time>2016-08-26T10:01:54Z</time>
      </trkpt>
      <trkpt lat="47.56839" lon="-2.92707">
        <ele>2.06</ele>
        <time>2016-08-26T10:02:18Z</time>
      </trkpt>
      <trkpt lat="47.56886" lon="-2.92732">
        <ele>3.02</ele>
        <time>2016-08-26T10:02:45Z</time>
      </trkpt>
      <trkpt lat="47.56922" lon="-2.92758">
        <ele>2.54</ele>
        <time>2016-08-26T10:03:08Z</time>
      </trkpt>
      <trkpt lat="47.5696" lon="-2.92784">
        <ele>2.06</ele>
        <time>2016-08-26T10:03:29Z</time>
      </trkpt>
      <trkpt lat="47.57" lon="-2.92813">
        <ele>2.54</ele>
        <time>2016-08-26T10:03:50Z</time>
      </trkpt>
      <trkpt lat="47.57032" lon="-2.92835">
        <ele>2.54</ele>
        <time>2016-08-26T10:04:07Z</time>
      </trkpt>
      <trkpt lat="47.5708" lon="-2.92864">
        <ele>2.54</ele>
        <time>2016-08-26T10:04:30Z</time>
      </trkpt>
      <trkpt lat="47.57132" lon="-2.92894">
        <ele>2.54</ele>
        <time>2016-08-26T10:04:53Z</time>
      </trkpt>
      <trkpt lat="47.5718" lon="-2.9293">
        <ele>2.54</ele>
        <time>2016-08-26T10:05:15Z</time>
      </trkpt>
      <trkpt lat="47.57223" lon="-2.92956">
        <ele>1.1</ele>
        <time>2016-08-26T10:05:35Z</time>
      </trkpt>
      <trkpt lat="47.57272" lon="-2.92985">
        <ele>1.58</ele>
        <time>2016-08-26T10:05:59Z</time>
      </trkpt>
      <trkpt lat="47.57311" lon="-2.93006">
        <ele>1.58</ele>
        <time>2016-08-26T10:06:17Z</time>
      </trkpt>
      <trkpt lat="47.57359" lon="-2.93035">
        <ele>3.02</ele>
        <time>2016-08-26T10:06:40Z</time>
      </trkpt>
      <trkpt lat="47.57418" lon="-2.93071">
        <ele>2.54</ele>
        <time>2016-08-26T10:07:07Z</time>
      </trkpt>
      <trkpt lat="47.57472" lon="-2.93096">
        <ele>2.06</ele>
        <time>2016-08-26T10:07:30Z</time>
      </trkpt>
      <trkpt lat="47.57526" lon="-2.93128">
        <ele>2.06</ele>
        <time>2016-08-26T10:07:56Z</time>
      </trkpt>
      <trkpt lat="47.5757" lon="-2.93154">
        <ele>2.54</ele>
        <time>2016-08-26T10:08:18Z</time>
      </trkpt>
      <trkpt lat="47.57608" lon="-2.93179">
        <ele>2.54</ele>
        <time>2016-08-26T10:08:42Z</time>
      </trkpt>
      <trkpt lat="47.57634" lon="-2.93211">
        <ele>3.5</ele>
        <time>2016-08-26T10:09:10Z</time>
      </trkpt>
      <trkpt lat="47.57655" lon="-2.93251">
        <ele>3.98</ele>
        <time>2016-08-26T10:09:35Z</time>
      </trkpt>
      <trkpt lat="47.57675" lon="-2.9328">
        <ele>3.02</ele>
        <time>2016-08-26T10:09:56Z</time>
      </trkpt>
      <trkpt lat="47.57711" lon="-2.93318">
        <ele>2.54</ele>
        <time>2016-08-26T10:10:26Z</time>
      </trkpt>
      <trkpt lat="47.57744" lon="-2.93342">
        <ele>2.54</ele>
        <time>2016-08-26T10:10:49Z</time>
      </trkpt>
      <trkpt lat="47.57787" lon="-2.9337">
        <ele>2.06</ele>
        <time>2016-08-26T10:11:16Z</time>
      </trkpt>
      <trkpt lat="47.57827" lon="-2.93392">
        <ele>3.02</ele>
        <time>2016-08-26T10:11:47Z</time>
      </trkpt>
      <trkpt lat="47.5786" lon="-2.93422">
        <ele>2.54</ele>
        <time>2016-08-26T10:12:11Z</time>
      </trkpt>
      <trkpt lat="47.57903" lon="-2.93445">
        <ele>3.5</ele>
        <time>2016-08-26T10:12:38Z</time>
      </trkpt>
      <trkpt lat="47.57928" lon="-2.93478">
        <ele>2.54</ele>
        <time>2016-08-26T10:13:00Z</time>
      </trkpt>
      <trkpt lat="47.57958" lon="-2.93509">
        <ele>2.06</ele>
        <time>2016-08-26T10:13:18Z</time>
      </trkpt>
      <trkpt lat="47.57969" lon="-2.93513">
        <ele>2.54</ele>
        <time>2016-08-26T10:13:25Z</time>
      </trkpt>
      <trkpt lat="47.57978" lon="-2.93483">
        <ele>3.02</ele>
        <time>2016-08-26T10:13:42Z</time>
      </trkpt>
      <trkpt lat="47.5799" lon="-2.93425">
        <ele>3.02</ele>
        <time>2016-08-26T10:14:08Z</time>
      </trkpt>
      <trkpt lat="47.5801" lon="-2.93366">
        <ele>3.5</ele>
        <time>2016-08-26T10:14:33Z</time>
      </trkpt>
      <trkpt lat="47.58034" lon="-2.93318">
        <ele>3.98</ele>
        <time>2016-08-26T10:14:55Z</time>
      </trkpt>
      <trkpt lat="47.58062" lon="-2.93261">
        <ele>3.5</ele>
        <time>2016-08-26T10:15:21Z</time>
      </trkpt>
      <trkpt lat="47.58083" lon="-2.93221">
        <ele>3.5</ele>
        <time>2016-08-26T10:15:44Z</time>
      </trkpt>
      <trkpt lat="47.58098" lon="-2.932">
        <ele>3.5</ele>
        <time>2016-08-26T10:16:05Z</time>
      </trkpt>
      <trkpt lat="47.58115" lon="-2.9324">
        <ele>3.02</ele>
        <time>2016-08-26T10:16:26Z</time>
      </trkpt>
      <trkpt lat="47.58144" lon="-2.9329">
        <ele>3.5</ele>
        <time>2016-08-26T10:16:50Z</time>
      </trkpt>
      <trkpt lat="47.58174" lon="-2.93339">
        <ele>3.5</ele>
        <time>2016-08-26T10:17:15Z</time>
      </trkpt>
      <trkpt lat="47.58207" lon="-2.9339">
        <ele>3.98</ele>
        <time>2016-08-26T10:17:41Z</time>
      </trkpt>
      <trkpt lat="47.58233" lon="-2.93435">
        <ele>4.46</ele>
        <time>2016-08-26T10:18:08Z</time>
      </trkpt>
      <trkpt lat="47.58266" lon="-2.93486">
        <ele>4.94</ele>
        <time>2016-08-26T10:18:35Z</time>
      </trkpt>
      <trkpt lat="47.58306" lon="-2.93545">
        <ele>4.94</ele>
        <time>2016-08-26T10:19:00Z</time>
      </trkpt>
      <trkpt lat="47.58352" lon="-2.93603">
        <ele>3.5</ele>
        <time>2016-08-26T10:19:27Z</time>
      </trkpt>
      <trkpt lat="47.5839" lon="-2.9365">
        <ele>4.46</ele>
        <time>2016-08-26T10:19:51Z</time>
      </trkpt>
      <trkpt lat="47.58424" lon="-2.93698">
        <ele>5.91</ele>
        <time>2016-08-26T10:20:14Z</time>
      </trkpt>
      <trkpt lat="47.58453" lon="-2.93754">
        <ele>6.39</ele>
        <time>2016-08-26T10:20:39Z</time>
      </trkpt>
      <trkpt lat="47.58474" lon="-2.93808">
        <ele>5.91</ele>
        <time>2016-08-26T10:21:05Z</time>
      </trkpt>
      <trkpt lat="47.585" lon="-2.93846">
        <ele>4.94</ele>
        <time>2016-08-26T10:21:29Z</time>
      </trkpt>
      <trkpt lat="47.58531" lon="-2.93888">
        <ele>4.46</ele>
        <time>2016-08-26T10:22:00Z</time>
      </trkpt>
      <trkpt lat="47.58551" lon="-2.93917">
        <ele>4.46</ele>
        <time>2016-08-26T10:22:28Z</time>
      </trkpt>
      <trkpt lat="47.58564" lon="-2.93943">
        <ele>4.46</ele>
        <time>2016-08-26T10:22:54Z</time>
      </trkpt>
      <trkpt lat="47.58582" lon="-2.93973">
        <ele>5.42</ele>
        <time>2016-08-26T10:23:19Z</time>
      </trkpt>
      <trkpt lat="47.58595" lon="-2.93991">
        <ele>4.94</ele>
        <time>2016-08-26T10:23:39Z</time>
      </trkpt>
      <trkpt lat="47.586" lon="-2.93998">
        <ele>4.46</ele>
        <time>2016-08-26T10:23:46Z</time>
      </trkpt>
      <trkpt lat="47.58624" lon="-2.94034">
        <ele>3.5</ele>
        <time>2016-08-26T10:24:12Z</time>
      </trkpt>
      <trkpt lat="47.58654" lon="-2.94075">
        <ele>3.02</ele>
        <time>2016-08-26T10:24:40Z</time>
      </trkpt>
      <trkpt lat="47.58692" lon="-2.94131">
        <ele>2.54</ele>
        <time>2016-08-26T10:25:10Z</time>
      </trkpt>
      <trkpt lat="47.58732" lon="-2.9419">
        <ele>3.02</ele>
        <time>2016-08-26T10:25:36Z</time>
      </trkpt>
      <trkpt lat="47.5877" lon="-2.94244">
        <ele>2.54</ele>
        <time>2016-08-26T10:26:03Z</time>
      </trkpt>
      <trkpt lat="47.58807" lon="-2.94293">
        <ele>2.54</ele>
        <time>2016-08-26T10:26:24Z</time>
      </trkpt>
      <trkpt lat="47.58853" lon="-2.94361">
        <ele>2.54</ele>
        <time>2016-08-26T10:26:51Z</time>
      </trkpt>
      <trkpt lat="47.58891" lon="-2.94422">
        <ele>3.02</ele>
        <time>2016-08-26T10:27:14Z</time>
      </trkpt>
      <trkpt lat="47.58937" lon="-2.9447">
        <ele>3.02</ele>
        <time>2016-08-26T10:27:40Z</time>
      </trkpt>
      <trkpt lat="47.58976" lon="-2.94501">
        <ele>3.02</ele>
        <time>2016-08-26T10:28:01Z</time>
      </trkpt>
      <trkpt lat="47.59005" lon="-2.94529">
        <ele>2.54</ele>
        <time>2016-08-26T10:28:22Z</time>
      </trkpt>
      <trkpt lat="47.59036" lon="-2.94559">
        <ele>2.54</ele>
        <time>2016-08-26T10:28:46Z</time>
      </trkpt>
      <trkpt lat="47.59063" lon="-2.94582">
        <ele>2.06</ele>
        <time>2016-08-26T10:29:08Z</time>
      </trkpt>
      <trkpt lat="47.59091" lon="-2.94617">
        <ele>3.02</ele>
        <time>2016-08-26T10:29:33Z</time>
      </trkpt>
      <trkpt lat="47.5912" lon="-2.94648">
        <ele>2.54</ele>
        <time>2016-08-26T10:29:56Z</time>
      </trkpt>
      <trkpt lat="47.59144" lon="-2.94691">
        <ele>3.98</ele>
        <time>2016-08-26T10:30:23Z</time>
      </trkpt>
      <trkpt lat="47.59176" lon="-2.94733">
        <ele>3.02</ele>
        <time>2016-08-26T10:30:52Z</time>
      </trkpt>
      <trkpt lat="47.59209" lon="-2.94772">
        <ele>2.06</ele>
        <time>2016-08-26T10:31:18Z</time>
      </trkpt>
      <trkpt lat="47.59247" lon="-2.94809">
        <ele>3.02</ele>
        <time>2016-08-26T10:31:44Z</time>
      </trkpt>
      <trkpt lat="47.59254" lon="-2.94774">
        <ele>3.02</ele>
        <time>2016-08-26T10:32:02Z</time>
      </trkpt>
      <trkpt lat="47.59268" lon="-2.94698">
        <ele>3.5</ele>
        <time>2016-08-26T10:32:30Z</time>
      </trkpt>
      <trkpt lat="47.59286" lon="-2.94649">
        <ele>3.02</ele>
        <time>2016-08-26T10:32:49Z</time>
      </trkpt>
      <trkpt lat="47.5931" lon="-2.94597">
        <ele>3.02</ele>
        <time>2016-08-26T10:33:12Z</time>
      </trkpt>
      <trkpt lat="47.59334" lon="-2.94545">
        <ele>3.5</ele>
        <time>2016-08-26T10:33:35Z</time>
      </trkpt>
      <trkpt lat="47.59359" lon="-2.94496">
        <ele>3.02</ele>
        <time>2016-08-26T10:33:59Z</time>
      </trkpt>
      <trkpt lat="47.59386" lon="-2.94449">
        <ele>3.02</ele>
        <time>2016-08-26T10:34:21Z</time>
      </trkpt>
      <trkpt lat="47.59414" lon="-2.94406">
        <ele>3.02</ele>
        <time>2016-08-26T10:34:46Z</time>
      </trkpt>
      <trkpt lat="47.59437" lon="-2.94352">
        <ele>3.5</ele>
        <time>2016-08-26T10:35:11Z</time>
      </trkpt>
      <trkpt lat="47.59443" lon="-2.94317">
        <ele>3.98</ele>
        <time>2016-08-26T10:35:30Z</time>
      </trkpt>
      <trkpt lat="47.59461" lon="-2.94285">
        <ele>3.98</ele>
        <time>2016-08-26T10:35:46Z</time>
      </trkpt>
      <trkpt lat="47.59469" lon="-2.94314">
        <ele>3.98</ele>
        <time>2016-08-26T10:36:00Z</time>
      </trkpt>
      <trkpt lat="47.59481" lon="-2.94375">
        <ele>3.5</ele>
        <time>2016-08-26T10:36:22Z</time>
      </trkpt>
      <trkpt lat="47.59488" lon="-2.94441">
        <ele>3.98</ele>
        <time>2016-08-26T10:36:49Z</time>
      </trkpt>
      <trkpt lat="47.59496" lon="-2.94496">
        <ele>3.5</ele>
        <time>2016-08-26T10:37:13Z</time>
      </trkpt>
      <trkpt lat="47.59506" lon="-2.94549">
        <ele>3.02</ele>
        <time>2016-08-26T10:37:40Z</time>
      </trkpt>
      <trkpt lat="47.59534" lon="-2.9461">
        <ele>3.02</ele>
        <time>2016-08-26T10:38:07Z</time>
      </trkpt>
      <trkpt lat="47.59572" lon="-2.94662">
        <ele>4.46</ele>
        <time>2016-08-26T10:38:34Z</time>
      </trkpt>
      <trkpt lat="47.59602" lon="-2.94688">
        <ele>3.98</ele>
        <time>2016-08-26T10:38:51Z</time>
      </trkpt>
      <trkpt lat="47.59642" lon="-2.94724">
        <ele>3.02</ele>
        <time>2016-08-26T10:39:15Z</time>
      </trkpt>
      <trkpt lat="47.5968" lon="-2.94749">
        <ele>2.54</ele>
        <time>2016-08-26T10:39:39Z</time>
      </trkpt>
      <trkpt lat="47.59716" lon="-2.94769">
        <ele>2.54</ele>
        <time>2016-08-26T10:40:03Z</time>
      </trkpt>
      <trkpt lat="47.59743" lon="-2.948">
        <ele>3.02</ele>
        <time>2016-08-26T10:40:28Z</time>
      </trkpt>
      <trkpt lat="47.59768" lon="-2.94838">
        <ele>3.5</ele>
        <time>2016-08-26T10:40:54Z</time>
      </trkpt>
      <trkpt lat="47.59796" lon="-2.94896">
        <ele>3.5</ele>
        <time>2016-08-26T10:41:25Z</time>
      </trkpt>
      <trkpt lat="47.59836" lon="-2.94983">
        <ele>2.06</ele>
        <time>2016-08-26T10:41:58Z</time>
      </trkpt>
      <trkpt lat="47.59861" lon="-2.95044">
        <ele>2.06</ele>
        <time>2016-08-26T10:42:19Z</time>
      </trkpt>
      <trkpt lat="47.59887" lon="-2.95095">
        <ele>2.54</ele>
        <time>2016-08-26T10:42:37Z</time>
      </trkpt>
      <trkpt lat="47.59907" lon="-2.95139">
        <ele>2.54</ele>
        <time>2016-08-26T10:42:54Z</time>
      </trkpt>
      <trkpt lat="47.59936" lon="-2.952">
        <ele>3.02</ele>
        <time>2016-08-26T10:43:23Z</time>
      </trkpt>
      <trkpt lat="47.59961" lon="-2.95265">
        <ele>2.54</ele>
        <time>2016-08-26T10:43:52Z</time>
      </trkpt>
      <trkpt lat="47.60001" lon="-2.95333">
        <ele>3.5</ele>
        <time>2016-08-26T10:44:26Z</time>
      </trkpt>
      <trkpt lat="47.60029" lon="-2.95377">
        <ele>3.02</ele>
        <time>2016-08-26T10:44:53Z</time>
      </trkpt>
      <trkpt lat="47.60058" lon="-2.95429">
        <ele>3.5</ele>
        <time>2016-08-26T10:45:18Z</time>
      </trkpt>
      <trkpt lat="47.60088" lon="-2.95464">
        <ele>3.02</ele>
        <time>2016-08-26T10:45:36Z</time>
      </trkpt>
      <trkpt lat="47.60128" lon="-2.95494">
        <ele>2.06</ele>
        <time>2016-08-26T10:45:56Z</time>
      </trkpt>
      <trkpt lat="47.60167" lon="-2.95518">
        <ele>2.06</ele>
        <time>2016-08-26T10:46:18Z</time>
      </trkpt>
      <trkpt lat="47.60201" lon="-2.95542">
        <ele>2.54</ele>
        <time>2016-08-26T10:46:41Z</time>
      </trkpt>
      <trkpt lat="47.60216" lon="-2.95542">
        <ele>2.54</ele>
        <time>2016-08-26T10:46:55Z</time>
      </trkpt>
      <trkpt lat="47.60217" lon="-2.95497">
        <ele>3.5</ele>
        <time>2016-08-26T10:47:17Z</time>
      </trkpt>
      <trkpt lat="47.60236" lon="-2.95447">
        <ele>3.02</ele>
        <time>2016-08-26T10:47:39Z</time>
      </trkpt>
      <trkpt lat="47.60253" lon="-2.95416">
        <ele>3.98</ele>
        <time>2016-08-26T10:48:01Z</time>
      </trkpt>
      <trkpt lat="47.60254" lon="-2.95372">
        <ele>4.46</ele>
        <time>2016-08-26T10:48:27Z</time>
      </trkpt>
      <trkpt lat="47.60258" lon="-2.95349">
        <ele>4.94</ele>
        <time>2016-08-26T10:48:37Z</time>
      </trkpt>
      <trkpt lat="47.60266" lon="-2.95354">
        <ele>4.46</ele>
        <time>2016-08-26T10:48:44Z</time>
      </trkpt>
      <trkpt lat="47.6031" lon="-2.9539">
        <ele>3.98</ele>
        <time>2016-08-26T10:49:08Z</time>
      </trkpt>
      <trkpt lat="47.60345" lon="-2.95422">
        <ele>3.5</ele>
        <time>2016-08-26T10:49:30Z</time>
      </trkpt>
      <trkpt lat="47.6038" lon="-2.95468">
        <ele>3.98</ele>
        <time>2016-08-26T10:49:57Z</time>
      </trkpt>
      <trkpt lat="47.60409" lon="-2.95526">
        <ele>3.5</ele>
        <time>2016-08-26T10:50:21Z</time>
      </trkpt>
      <trkpt lat="47.60445" lon="-2.95612">
        <ele>3.5</ele>
        <time>2016-08-26T10:50:55Z</time>
      </trkpt>
      <trkpt lat="47.60482" lon="-2.95678">
        <ele>2.54</ele>
        <time>2016-08-26T10:51:24Z</time>
      </trkpt>
      <trkpt lat="47.60527" lon="-2.95718">
        <ele>2.54</ele>
        <time>2016-08-26T10:51:50Z</time>
      </trkpt>
      <trkpt lat="47.60562" lon="-2.95745">
        <ele>3.5</ele>
        <time>2016-08-26T10:52:15Z</time>
      </trkpt>
      <trkpt lat="47.60565" lon="-2.95743">
        <ele>3.5</ele>
        <time>2016-08-26T10:52:18Z</time>
      </trkpt>
      <trkpt lat="47.60567" lon="-2.95734">
        <ele>3.5</ele>
        <time>2016-08-26T10:52:23Z</time>
      </trkpt>
      <trkpt lat="47.60586" lon="-2.95673">
        <ele>3.5</ele>
        <time>2016-08-26T10:52:49Z</time>
      </trkpt>
      <trkpt lat="47.60613" lon="-2.95624">
        <ele>3.02</ele>
        <time>2016-08-26T10:53:15Z</time>
      </trkpt>
      <trkpt lat="47.6064" lon="-2.95584">
        <ele>2.54</ele>
        <time>2016-08-26T10:53:40Z</time>
      </trkpt>
      <trkpt lat="47.6067" lon="-2.95547">
        <ele>0.62</ele>
        <time>2016-08-26T10:54:05Z</time>
      </trkpt>
      <trkpt lat="47.60693" lon="-2.95506">
        <ele>1.1</ele>
        <time>2016-08-26T10:54:30Z</time>
      </trkpt>
      <trkpt lat="47.60722" lon="-2.95462">
        <ele>2.54</ele>
        <time>2016-08-26T10:54:56Z</time>
      </trkpt>
      <trkpt lat="47.60739" lon="-2.95428">
        <ele>3.98</ele>
        <time>2016-08-26T10:55:20Z</time>
      </trkpt>
      <trkpt lat="47.60757" lon="-2.95393">
        <ele>4.46</ele>
        <time>2016-08-26T10:55:38Z</time>
      </trkpt>
      <trkpt lat="47.60763" lon="-2.95394">
        <ele>4.46</ele>
        <time>2016-08-26T10:55:43Z</time>
      </trkpt>
      <trkpt lat="47.60777" lon="-2.95437">
        <ele>3.98</ele>
        <time>2016-08-26T10:56:05Z</time>
      </trkpt>
      <trkpt lat="47.6081" lon="-2.95501">
        <ele>4.46</ele>
        <time>2016-08-26T10:56:38Z</time>
      </trkpt>
      <trkpt lat="47.60842" lon="-2.95543">
        <ele>3.98</ele>
        <time>2016-08-26T10:57:03Z</time>
      </trkpt>
      <trkpt lat="47.60883" lon="-2.9559">
        <ele>3.02</ele>
        <time>2016-08-26T10:57:33Z</time>
      </trkpt>
      <trkpt lat="47.60894" lon="-2.95588">
        <ele>3.5</ele>
        <time>2016-08-26T10:57:45Z</time>
      </trkpt>
      <trkpt lat="47.60899" lon="-2.95541">
        <ele>3.98</ele>
        <time>2016-08-26T10:58:08Z</time>
      </trkpt>
      <trkpt lat="47.60917" lon="-2.95485">
        <ele>3.98</ele>
        <time>2016-08-26T10:58:33Z</time>
      </trkpt>
      <trkpt lat="47.60939" lon="-2.95442">
        <ele>3.02</ele>
        <time>2016-08-26T10:58:55Z</time>
      </trkpt>
      <trkpt lat="47.60967" lon="-2.954">
        <ele>2.54</ele>
        <time>2016-08-26T10:59:17Z</time>
      </trkpt>
      <trkpt lat="47.60993" lon="-2.9536">
        <ele>2.54</ele>
        <time>2016-08-26T10:59:45Z</time>
      </trkpt>
      <trkpt lat="47.61017" lon="-2.9531">
        <ele>2.54</ele>
        <time>2016-08-26T11:00:13Z</time>
      </trkpt>
      <trkpt lat="47.61037" lon="-2.95249">
        <ele>2.54</ele>
        <time>2016-08-26T11:00:40Z</time>
      </trkpt>
      <trkpt lat="47.61054" lon="-2.95203">
        <ele>3.02</ele>
        <time>2016-08-26T11:01:00Z</time>
      </trkpt>
      <trkpt lat="47.61073" lon="-2.95195">
        <ele>2.54</ele>
        <time>2016-08-26T11:01:17Z</time>
      </trkpt>
      <trkpt lat="47.61105" lon="-2.95257">
        <ele>2.54</ele>
        <time>2016-08-26T11:01:46Z</time>
      </trkpt>
      <trkpt lat="47.61129" lon="-2.95289">
        <ele>2.54</ele>
        <time>2016-08-26T11:02:04Z</time>
      </trkpt>
      <trkpt lat="47.61146" lon="-2.95245">
        <ele>3.02</ele>
        <time>2016-08-26T11:02:27Z</time>
      </trkpt>
      <trkpt lat="47.61174" lon="-2.95191">
        <ele>2.06</ele>
        <time>2016-08-26T11:02:51Z</time>
      </trkpt>
      <trkpt lat="47.61202" lon="-2.95139">
        <ele>2.06</ele>
        <time>2016-08-26T11:03:17Z</time>
      </trkpt>
      <trkpt lat="47.61234" lon="-2.95087">
        <ele>2.54</ele>
        <time>2016-08-26T11:03:45Z</time>
      </trkpt>
      <trkpt lat="47.61239" lon="-2.95089">
        <ele>2.54</ele>
        <time>2016-08-26T11:03:50Z</time>
      </trkpt>
      <trkpt lat="47.61258" lon="-2.95134">
        <ele>2.54</ele>
        <time>2016-08-26T11:04:15Z</time>
      </trkpt>
      <trkpt lat="47.61281" lon="-2.95173">
        <ele>2.54</ele>
        <time>2016-08-26T11:04:38Z</time>
      </trkpt>
      <trkpt lat="47.6129" lon="-2.95135">
        <ele>3.02</ele>
        <time>2016-08-26T11:04:55Z</time>
      </trkpt>
      <trkpt lat="47.61308" lon="-2.95084">
        <ele>2.54</ele>
        <time>2016-08-26T11:05:18Z</time>
      </trkpt>
      <trkpt lat="47.61338" lon="-2.95038">
        <ele>2.54</ele>
        <time>2016-08-26T11:05:43Z</time>
      </trkpt>
      <trkpt lat="47.61353" lon="-2.95068">
        <ele>2.54</ele>
        <time>2016-08-26T11:06:02Z</time>
      </trkpt>
      <trkpt lat="47.61377" lon="-2.95151">
        <ele>2.54</ele>
        <time>2016-08-26T11:06:35Z</time>
      </trkpt>
      <trkpt lat="47.61394" lon="-2.95189">
        <ele>3.02</ele>
        <time>2016-08-26T11:06:54Z</time>
      </trkpt>
      <trkpt lat="47.61395" lon="-2.95188">
        <ele>3.02</ele>
        <time>2016-08-26T11:06:55Z</time>
      </trkpt>
      <trkpt lat="47.61398" lon="-2.95181">
        <ele>3.02</ele>
        <time>2016-08-26T11:07:00Z</time>
      </trkpt>
      <trkpt lat="47.61422" lon="-2.95122">
        <ele>2.54</ele>
        <time>2016-08-26T11:07:24Z</time>
      </trkpt>
      <trkpt lat="47.61455" lon="-2.95082">
        <ele>1.1</ele>
        <time>2016-08-26T11:07:49Z</time>
      </trkpt>
      <trkpt lat="47.61486" lon="-2.95046">
        <ele>1.1</ele>
        <time>2016-08-26T11:08:16Z</time>
      </trkpt>
      <trkpt lat="47.61509" lon="-2.95019">
        <ele>2.06</ele>
        <time>2016-08-26T11:08:38Z</time>
      </trkpt>
      <trkpt lat="47.61511" lon="-2.95022">
        <ele>2.06</ele>
        <time>2016-08-26T11:08:41Z</time>
      </trkpt>
      <trkpt lat="47.61525" lon="-2.9507">
        <ele>2.54</ele>
        <time>2016-08-26T11:09:06Z</time>
      </trkpt>
      <trkpt lat="47.6155" lon="-2.95131">
        <ele>2.06</ele>
        <time>2016-08-26T11:09:34Z</time>
      </trkpt>
      <trkpt lat="47.61571" lon="-2.95163">
        <ele>2.06</ele>
        <time>2016-08-26T11:09:52Z</time>
      </trkpt>
      <trkpt lat="47.61576" lon="-2.95158">
        <ele>2.06</ele>
        <time>2016-08-26T11:09:57Z</time>
      </trkpt>
      <trkpt lat="47.61599" lon="-2.95111">
        <ele>2.06</ele>
        <time>2016-08-26T11:10:21Z</time>
      </trkpt>
      <trkpt lat="47.61619" lon="-2.9507">
        <ele>2.54</ele>
        <time>2016-08-26T11:10:44Z</time>
      </trkpt>
      <trkpt lat="47.61627" lon="-2.95044">
        <ele>3.02</ele>
        <time>2016-08-26T11:11:02Z</time>
      </trkpt>
      <trkpt lat="47.61632" lon="-2.95049">
        <ele>3.02</ele>
        <time>2016-08-26T11:11:12Z</time>
      </trkpt>
      <trkpt lat="47.61649" lon="-2.95088">
        <ele>2.54</ele>
        <time>2016-08-26T11:11:32Z</time>
      </trkpt>
      <trkpt lat="47.61694" lon="-2.95126">
        <ele>1.58</ele>
        <time>2016-08-26T11:11:58Z</time>
      </trkpt>
      <trkpt lat="47.61726" lon="-2.95157">
        <ele>2.06</ele>
        <time>2016-08-26T11:12:21Z</time>
      </trkpt>
      <trkpt lat="47.61772" lon="-2.95199">
        <ele>1.58</ele>
        <time>2016-08-26T11:12:49Z</time>
      </trkpt>
      <trkpt lat="47.61826" lon="-2.95234">
        <ele>1.58</ele>
        <time>2016-08-26T11:13:19Z</time>
      </trkpt>
      <trkpt lat="47.61877" lon="-2.95286">
        <ele>2.06</ele>
        <time>2016-08-26T11:13:56Z</time>
      </trkpt>
      <trkpt lat="47.61907" lon="-2.95309">
        <ele>2.06</ele>
        <time>2016-08-26T11:14:20Z</time>
      </trkpt>
      <trkpt lat="47.61917" lon="-2.95263">
        <ele>2.06</ele>
        <time>2016-08-26T11:14:44Z</time>
      </trkpt>
      <trkpt lat="47.61925" lon="-2.95216">
        <ele>2.54</ele>
        <time>2016-08-26T11:15:10Z</time>
      </trkpt>
      <trkpt lat="47.61927" lon="-2.9517">
        <ele>2.06</ele>
        <time>2016-08-26T11:15:35Z</time>
      </trkpt>
      <trkpt lat="47.6194" lon="-2.9513">
        <ele>2.06</ele>
        <time>2016-08-26T11:16:02Z</time>
      </trkpt>
      <trkpt lat="47.61943" lon="-2.95133">
        <ele>2.06</ele>
        <time>2016-08-26T11:16:08Z</time>
      </trkpt>
      <trkpt lat="47.61957" lon="-2.95172">
        <ele>2.06</ele>
        <time>2016-08-26T11:16:32Z</time>
      </trkpt>
      <trkpt lat="47.61982" lon="-2.95207">
        <ele>0.14</ele>
        <time>2016-08-26T11:16:58Z</time>
      </trkpt>
      <trkpt lat="47.62013" lon="-2.95244">
        <ele>0.62</ele>
        <time>2016-08-26T11:17:26Z</time>
      </trkpt>
      <trkpt lat="47.62055" lon="-2.95283">
        <ele>-0.34</ele>
        <time>2016-08-26T11:17:54Z</time>
      </trkpt>
      <trkpt lat="47.62109" lon="-2.95314">
        <ele>0.14</ele>
        <time>2016-08-26T11:18:23Z</time>
      </trkpt>
      <trkpt lat="47.6217" lon="-2.95359">
        <ele>-0.34</ele>
        <time>2016-08-26T11:18:57Z</time>
      </trkpt>
      <trkpt lat="47.62219" lon="-2.95402">
        <ele>1.58</ele>
        <time>2016-08-26T11:19:30Z</time>
      </trkpt>
      <trkpt lat="47.6226" lon="-2.95446">
        <ele>3.02</ele>
        <time>2016-08-26T11:20:03Z</time>
      </trkpt>
      <trkpt lat="47.623" lon="-2.95497">
        <ele>2.06</ele>
        <time>2016-08-26T11:20:37Z</time>
      </trkpt>
      <trkpt lat="47.62335" lon="-2.95541">
        <ele>2.54</ele>
        <time>2016-08-26T11:21:09Z</time>
      </trkpt>
      <trkpt lat="47.62373" lon="-2.9558">
        <ele>2.06</ele>
        <time>2016-08-26T11:21:44Z</time>
      </trkpt>
      <trkpt lat="47.62419" lon="-2.95615">
        <ele>2.06</ele>
        <time>2016-08-26T11:22:17Z</time>
      </trkpt>
      <trkpt lat="47.62458" lon="-2.95656">
        <ele>2.54</ele>
        <time>2016-08-26T11:22:49Z</time>
      </trkpt>
      <trkpt lat="47.62489" lon="-2.95698">
        <ele>2.06</ele>
        <time>2016-08-26T11:23:26Z</time>
      </trkpt>
      <trkpt lat="47.62503" lon="-2.95726">
        <ele>2.54</ele>
        <time>2016-08-26T11:23:58Z</time>
      </trkpt>
      <trkpt lat="47.62512" lon="-2.95747">
        <ele>3.02</ele>
        <time>2016-08-26T11:24:33Z</time>
      </trkpt>
      <trkpt lat="47.62522" lon="-2.95779">
        <ele>2.06</ele>
        <time>2016-08-26T11:25:02Z</time>
      </trkpt>
      <trkpt lat="47.62533" lon="-2.9581">
        <ele>1.58</ele>
        <time>2016-08-26T11:25:37Z</time>
      </trkpt>
      <trkpt lat="47.62545" lon="-2.9583">
        <ele>1.58</ele>
        <time>2016-08-26T11:26:05Z</time>
      </trkpt>
      <trkpt lat="47.62554" lon="-2.95848">
        <ele>1.58</ele>
        <time>2016-08-26T11:26:25Z</time>
      </trkpt>
      <trkpt lat="47.62585" lon="-2.95867">
        <ele>1.1</ele>
        <time>2016-08-26T11:26:47Z</time>
      </trkpt>
      <trkpt lat="47.62634" lon="-2.95882">
        <ele>2.06</ele>
        <time>2016-08-26T11:27:21Z</time>
      </trkpt>
      <trkpt lat="47.62667" lon="-2.95901">
        <ele>1.58</ele>
        <time>2016-08-26T11:27:46Z</time>
      </trkpt>
      <trkpt lat="47.62703" lon="-2.95939">
        <ele>1.58</ele>
        <time>2016-08-26T11:28:10Z</time>
      </trkpt>
      <trkpt lat="47.6275" lon="-2.95953">
        <ele>2.06</ele>
        <time>2016-08-26T11:28:35Z</time>
      </trkpt>
      <trkpt lat="47.62806" lon="-2.95968">
        <ele>1.58</ele>
        <time>2016-08-26T11:29:05Z</time>
      </trkpt>
      <trkpt lat="47.62854" lon="-2.95975">
        <ele>1.58</ele>
        <time>2016-08-26T11:29:33Z</time>
      </trkpt>
      <trkpt lat="47.62893" lon="-2.95978">
        <ele>1.58</ele>
        <time>2016-08-26T11:29:59Z</time>
      </trkpt>
      <trkpt lat="47.62934" lon="-2.95979">
        <ele>1.58</ele>
        <time>2016-08-26T11:30:25Z</time>
      </trkpt>
      <trkpt lat="47.62969" lon="-2.9598">
        <ele>2.54</ele>
        <time>2016-08-26T11:30:48Z</time>
      </trkpt>
      <trkpt lat="47.63019" lon="-2.95981">
        <ele>2.54</ele>
        <time>2016-08-26T11:31:21Z</time>
      </trkpt>
      <trkpt lat="47.63059" lon="-2.95986">
        <ele>1.58</ele>
        <time>2016-08-26T11:31:49Z</time>
      </trkpt>
      <trkpt lat="47.63093" lon="-2.95993">
        <ele>1.58</ele>
        <time>2016-08-26T11:32:12Z</time>
      </trkpt>
      <trkpt lat="47.63131" lon="-2.96006">
        <ele>2.54</ele>
        <time>2016-08-26T11:32:39Z</time>
      </trkpt>
      <trkpt lat="47.63175" lon="-2.96022">
        <ele>3.5</ele>
        <time>2016-08-26T11:33:09Z</time>
      </trkpt>
      <trkpt lat="47.63203" lon="-2.96042">
        <ele>1.1</ele>
        <time>2016-08-26T11:33:28Z</time>
      </trkpt>
      <trkpt lat="47.63234" lon="-2.96068">
        <ele>1.58</ele>
        <time>2016-08-26T11:33:50Z</time>
      </trkpt>
      <trkpt lat="47.63264" lon="-2.96095">
        <ele>1.1</ele>
        <time>2016-08-26T11:34:13Z</time>
      </trkpt>
      <trkpt lat="47.63315" lon="-2.96141">
        <ele>1.58</ele>
        <time>2016-08-26T11:34:50Z</time>
      </trkpt>
      <trkpt lat="47.63346" lon="-2.96165">
        <ele>1.1</ele>
        <time>2016-08-26T11:35:12Z</time>
      </trkpt>
      <trkpt lat="47.63387" lon="-2.96197">
        <ele>1.1</ele>
        <time>2016-08-26T11:35:41Z</time>
      </trkpt>
      <trkpt lat="47.6342" lon="-2.96227">
        <ele>2.06</ele>
        <time>2016-08-26T11:36:05Z</time>
      </trkpt>
      <trkpt lat="47.63454" lon="-2.96259">
        <ele>2.06</ele>
        <time>2016-08-26T11:36:30Z</time>
      </trkpt>
      <trkpt lat="47.63486" lon="-2.96283">
        <ele>2.06</ele>
        <time>2016-08-26T11:36:53Z</time>
      </trkpt>
      <trkpt lat="47.63528" lon="-2.96311">
        <ele>2.06</ele>
        <time>2016-08-26T11:37:22Z</time>
      </trkpt>
      <trkpt lat="47.63568" lon="-2.96332">
        <ele>2.06</ele>
        <time>2016-08-26T11:37:48Z</time>
      </trkpt>
      <trkpt lat="47.63612" lon="-2.96334">
        <ele>1.1</ele>
        <time>2016-08-26T11:38:16Z</time>
      </trkpt>
      <trkpt lat="47.63622" lon="-2.96299">
        <ele>2.06</ele>
        <time>2016-08-26T11:38:33Z</time>
      </trkpt>
      <trkpt lat="47.63642" lon="-2.96239">
        <ele>2.06</ele>
        <time>2016-08-26T11:39:02Z</time>
      </trkpt>
      <trkpt lat="47.63661" lon="-2.96176">
        <ele>3.02</ele>
        <time>2016-08-26T11:39:31Z</time>
      </trkpt>
      <trkpt lat="47.63681" lon="-2.96108">
        <ele>2.54</ele>
        <time>2016-08-26T11:40:02Z</time>
      </trkpt>
      <trkpt lat="47.637" lon="-2.96053">
        <ele>2.54</ele>
        <time>2016-08-26T11:40:28Z</time>
      </trkpt>
      <trkpt lat="47.63722" lon="-2.96007">
        <ele>3.02</ele>
        <time>2016-08-26T11:40:53Z</time>
      </trkpt>
      <trkpt lat="47.63743" lon="-2.95958">
        <ele>3.98</ele>
        <time>2016-08-26T11:41:19Z</time>
      </trkpt>
      <trkpt lat="47.63764" lon="-2.95902">
        <ele>5.42</ele>
        <time>2016-08-26T11:41:47Z</time>
      </trkpt>
      <trkpt lat="47.63782" lon="-2.95841">
        <ele>3.02</ele>
        <time>2016-08-26T11:42:16Z</time>
      </trkpt>
      <trkpt lat="47.638" lon="-2.95788">
        <ele>3.02</ele>
        <time>2016-08-26T11:42:43Z</time>
      </trkpt>
      <trkpt lat="47.63815" lon="-2.95736">
        <ele>2.54</ele>
        <time>2016-08-26T11:43:08Z</time>
      </trkpt>
      <trkpt lat="47.63829" lon="-2.95701">
        <ele>2.54</ele>
        <time>2016-08-26T11:43:26Z</time>
      </trkpt>
      <trkpt lat="47.63851" lon="-2.9565">
        <ele>4.46</ele>
        <time>2016-08-26T11:43:54Z</time>
      </trkpt>
      <trkpt lat="47.63867" lon="-2.95613">
        <ele>5.91</ele>
        <time>2016-08-26T11:44:19Z</time>
      </trkpt>
      <trkpt lat="47.63874" lon="-2.95581">
        <ele>4.46</ele>
        <time>2016-08-26T11:44:43Z</time>
      </trkpt>
      <trkpt lat="47.63887" lon="-2.95545">
        <ele>3.98</ele>
        <time>2016-08-26T11:45:09Z</time>
      </trkpt>
      <trkpt lat="47.63896" lon="-2.95513">
        <ele>4.94</ele>
        <time>2016-08-26T11:45:32Z</time>
      </trkpt>
      <trkpt lat="47.63905" lon="-2.95483">
        <ele>5.42</ele>
        <time>2016-08-26T11:45:53Z</time>
      </trkpt>
      <trkpt lat="47.6391" lon="-2.95458">
        <ele>4.94</ele>
        <time>2016-08-26T11:46:11Z</time>
      </trkpt>
      <trkpt lat="47.63922" lon="-2.95431">
        <ele>6.87</ele>
        <time>2016-08-26T11:46:30Z</time>
      </trkpt>
      <trkpt lat="47.63949" lon="-2.95386">
        <ele>6.39</ele>
        <time>2016-08-26T11:46:59Z</time>
      </trkpt>
      <trkpt lat="47.63974" lon="-2.9538">
        <ele>4.94</ele>
        <time>2016-08-26T11:47:25Z</time>
      </trkpt>
      <trkpt lat="47.63987" lon="-2.95384">
        <ele>2.54</ele>
        <time>2016-08-26T11:47:48Z</time>
      </trkpt>
      <trkpt lat="47.63991" lon="-2.9539">
        <ele>1.58</ele>
        <time>2016-08-26T11:48:09Z</time>
      </trkpt>
      <trkpt lat="47.64004" lon="-2.95388">
        <ele>2.54</ele>
        <time>2016-08-26T11:48:30Z</time>
      </trkpt>
      <trkpt lat="47.64003" lon="-2.95385">
        <ele>2.06</ele>
        <time>2016-08-26T11:48:47Z</time>
      </trkpt>
      <trkpt lat="47.64012" lon="-2.95364">
        <ele>2.06</ele>
        <time>2016-08-26T11:49:04Z</time>
      </trkpt>
      <trkpt lat="47.64025" lon="-2.95359">
        <ele>-0.82</ele>
        <time>2016-08-26T11:49:32Z</time>
      </trkpt>
      <trkpt lat="47.64012" lon="-2.9537">
        <ele>-1.3</ele>
        <time>2016-08-26T11:49:55Z</time>
      </trkpt>
      <trkpt lat="47.63985" lon="-2.95394">
        <ele>0.62</ele>
        <time>2016-08-26T11:50:24Z</time>
      </trkpt>
      <trkpt lat="47.63964" lon="-2.95406">
        <ele>0.62</ele>
        <time>2016-08-26T11:50:50Z</time>
      </trkpt>
      <trkpt lat="47.63955" lon="-2.95416">
        <ele>1.58</ele>
        <time>2016-08-26T11:51:12Z</time>
      </trkpt>
      <trkpt lat="47.63954" lon="-2.95412">
        <ele>2.54</ele>
        <time>2016-08-26T11:51:37Z</time>
      </trkpt>
      <trkpt lat="47.63953" lon="-2.95413">
        <ele>3.02</ele>
        <time>2016-08-26T11:52:07Z</time>
      </trkpt>
      <trkpt lat="47.63952" lon="-2.95412">
        <ele>3.98</ele>
        <time>2016-08-26T11:52:40Z</time>
      </trkpt>
      <trkpt lat="47.63951" lon="-2.95412">
        <ele>4.46</ele>
        <time>2016-08-26T11:53:08Z</time>
      </trkpt>
      <trkpt lat="47.63951" lon="-2.95413">
        <ele>4.94</ele>
        <time>2016-08-26T11:53:33Z</time>
      </trkpt>
      <trkpt lat="47.63951" lon="-2.95412">
        <ele>4.94</ele>
        <time>2016-08-26T11:54:03Z</time>
      </trkpt>
      <trkpt lat="47.63951" lon="-2.95413">
        <ele>4.94</ele>
        <time>2016-08-26T11:54:29Z</time>
      </trkpt>
      <trkpt lat="47.63952" lon="-2.95412">
        <ele>4.94</ele>
        <time>2016-08-26T11:55:02Z</time>
      </trkpt>
      <trkpt lat="47.63951" lon="-2.95412">
        <ele>4.94</ele>
        <time>2016-08-26T11:55:34Z</time>
      </trkpt>
      <trkpt lat="47.63951" lon="-2.95412">
        <ele>5.42</ele>
        <time>2016-08-26T11:55:59Z</time>
      </trkpt>
      <trkpt lat="47.63951" lon="-2.95411">
        <ele>5.42</ele>
        <time>2016-08-26T11:56:16Z</time>
      </trkpt>
      <trkpt lat="47.6395" lon="-2.9541">
        <ele>5.91</ele>
        <time>2016-08-26T11:56:45Z</time>
      </trkpt>
      <trkpt lat="47.63951" lon="-2.95411">
        <ele>5.42</ele>
        <time>2016-08-26T11:57:07Z</time>
      </trkpt>
      <trkpt lat="47.63951" lon="-2.95411">
        <ele>4.94</ele>
        <time>2016-08-26T11:57:29Z</time>
      </trkpt>
      <trkpt lat="47.63951" lon="-2.95411">
        <ele>4.46</ele>
        <time>2016-08-26T11:57:59Z</time>
      </trkpt>
      <trkpt lat="47.6395" lon="-2.95411">
        <ele>3.5</ele>
        <time>2016-08-26T11:58:32Z</time>
      </trkpt>
      <trkpt lat="47.63949" lon="-2.95412">
        <ele>3.02</ele>
        <time>2016-08-26T11:58:57Z</time>
      </trkpt>
      <trkpt lat="47.6395" lon="-2.95412">
        <ele>3.02</ele>
        <time>2016-08-26T11:59:22Z</time>
      </trkpt>
      <trkpt lat="47.6395" lon="-2.95412">
        <ele>3.5</ele>
        <time>2016-08-26T11:59:54Z</time>
      </trkpt>
      <trkpt lat="47.6395" lon="-2.95414">
        <ele>3.98</ele>
        <time>2016-08-26T12:00:19Z</time>
      </trkpt>
      <trkpt lat="47.6395" lon="-2.95415">
        <ele>4.46</ele>
        <time>2016-08-26T12:00:46Z</time>
      </trkpt>
      <trkpt lat="47.6395" lon="-2.95416">
        <ele>4.46</ele>
        <time>2016-08-26T12:01:13Z</time>
      </trkpt>
      <trkpt lat="47.6395" lon="-2.95416">
        <ele>4.46</ele>
        <time>2016-08-26T12:01:44Z</time>
      </trkpt>
      <trkpt lat="47.6395" lon="-2.95415">
        <ele>3.98</ele>
        <time>2016-08-26T12:02:10Z</time>
      </trkpt>
      <trkpt lat="47.6395" lon="-2.95415">
        <ele>4.46</ele>
        <time>2016-08-26T12:02:41Z</time>
      </trkpt>
      <trkpt lat="47.6395" lon="-2.95414">
        <ele>4.94</ele>
        <time>2016-08-26T12:03:12Z</time>
      </trkpt>
      <trkpt lat="47.63949" lon="-2.95414">
        <ele>4.94</ele>
        <time>2016-08-26T12:03:41Z</time>
      </trkpt>
      <trkpt lat="47.63949" lon="-2.95414">
        <ele>4.94</ele>
        <time>2016-08-26T12:04:07Z</time>
      </trkpt>
      <trkpt lat="47.6395" lon="-2.95415">
        <ele>4.94</ele>
        <time>2016-08-26T12:04:33Z</time>
      </trkpt>
      <trkpt lat="47.6395" lon="-2.95414">
        <ele>5.42</ele>
        <time>2016-08-26T12:05:04Z</time>
      </trkpt>
      <trkpt lat="47.6395" lon="-2.95415">
        <ele>5.91</ele>
        <time>2016-08-26T12:05:32Z</time>
      </trkpt>
      <trkpt lat="47.6395" lon="-2.95415">
        <ele>5.91</ele>
        <time>2016-08-26T12:06:00Z</time>
      </trkpt>
      <trkpt lat="47.6395" lon="-2.95413">
        <ele>5.91</ele>
        <time>2016-08-26T12:06:30Z</time>
      </trkpt>
      <trkpt lat="47.6395" lon="-2.95413">
        <ele>5.42</ele>
        <time>2016-08-26T12:06:58Z</time>
      </trkpt>
      <trkpt lat="47.63951" lon="-2.95413">
        <ele>6.39</ele>
        <time>2016-08-26T12:07:29Z</time>
      </trkpt>
      <trkpt lat="47.63951" lon="-2.95413">
        <ele>6.87</ele>
        <time>2016-08-26T12:07:58Z</time>
      </trkpt>
      <trkpt lat="47.6395" lon="-2.95413">
        <ele>6.87</ele>
        <time>2016-08-26T12:08:25Z</time>
      </trkpt>
      <trkpt lat="47.6395" lon="-2.95412">
        <ele>7.35</ele>
        <time>2016-08-26T12:08:59Z</time>
      </trkpt>
      <trkpt lat="47.63949" lon="-2.95412">
        <ele>6.87</ele>
        <time>2016-08-26T12:09:32Z</time>
      </trkpt>
      <trkpt lat="47.63949" lon="-2.95412">
        <ele>6.39</ele>
        <time>2016-08-26T12:10:01Z</time>
      </trkpt>
      <trkpt lat="47.63949" lon="-2.95412">
        <ele>6.39</ele>
        <time>2016-08-26T12:10:30Z</time>
      </trkpt>
      <trkpt lat="47.63949" lon="-2.95412">
        <ele>6.87</ele>
        <time>2016-08-26T12:10:56Z</time>
      </trkpt>
      <trkpt lat="47.6395" lon="-2.95413">
        <ele>7.35</ele>
        <time>2016-08-26T12:11:29Z</time>
      </trkpt>
      <trkpt lat="47.63951" lon="-2.95412">
        <ele>7.83</ele>
        <time>2016-08-26T12:12:01Z</time>
      </trkpt>
      <trkpt lat="47.63951" lon="-2.95412">
        <ele>8.79</ele>
        <time>2016-08-26T12:12:33Z</time>
      </trkpt>
      <trkpt lat="47.63951" lon="-2.95411">
        <ele>7.83</ele>
        <time>2016-08-26T12:13:02Z</time>
      </trkpt>
      <trkpt lat="47.63951" lon="-2.95411">
        <ele>7.83</ele>
        <time>2016-08-26T12:13:33Z</time>
      </trkpt>
      <trkpt lat="47.6395" lon="-2.9541">
        <ele>8.31</ele>
        <time>2016-08-26T12:13:54Z</time>
      </trkpt>
      <trkpt lat="47.6385" lon="-2.95666">
        <ele>9.75</ele>
        <time>2016-08-26T13:16:55Z</time>
      </trkpt>
      <trkpt lat="47.63831" lon="-2.95707">
        <ele>-0.34</ele>
        <time>2016-08-26T13:17:18Z</time>
      </trkpt>
      <trkpt lat="47.63816" lon="-2.95744">
        <ele>0.14</ele>
        <time>2016-08-26T13:17:38Z</time>
      </trkpt>
      <trkpt lat="47.63807" lon="-2.95761">
        <ele>0.14</ele>
        <time>2016-08-26T13:17:48Z</time>
      </trkpt>
      <trkpt lat="47.63794" lon="-2.95796">
        <ele>2.06</ele>
        <time>2016-08-26T13:18:06Z</time>
      </trkpt>
      <trkpt lat="47.63782" lon="-2.95836">
        <ele>1.1</ele>
        <time>2016-08-26T13:18:26Z</time>
      </trkpt>
      <trkpt lat="47.63768" lon="-2.95884">
        <ele>2.54</ele>
        <time>2016-08-26T13:18:49Z</time>
      </trkpt>
      <trkpt lat="47.63757" lon="-2.95913">
        <ele>1.58</ele>
        <time>2016-08-26T13:19:04Z</time>
      </trkpt>
      <trkpt lat="47.6374" lon="-2.95956">
        <ele>1.1</ele>
        <time>2016-08-26T13:19:28Z</time>
      </trkpt>
      <trkpt lat="47.63728" lon="-2.95989">
        <ele>1.1</ele>
        <time>2016-08-26T13:19:46Z</time>
      </trkpt>
      <trkpt lat="47.63725" lon="-2.95999">
        <ele>1.1</ele>
        <time>2016-08-26T13:19:51Z</time>
      </trkpt>
      <trkpt lat="47.63715" lon="-2.96027">
        <ele>-0.34</ele>
        <time>2016-08-26T13:20:07Z</time>
      </trkpt>
      <trkpt lat="47.63701" lon="-2.96057">
        <ele>0.62</ele>
        <time>2016-08-26T13:20:25Z</time>
      </trkpt>
      <trkpt lat="47.63691" lon="-2.96082">
        <ele>1.1</ele>
        <time>2016-08-26T13:20:39Z</time>
      </trkpt>
      <trkpt lat="47.63674" lon="-2.9613">
        <ele>2.06</ele>
        <time>2016-08-26T13:21:05Z</time>
      </trkpt>
      <trkpt lat="47.63668" lon="-2.9615">
        <ele>1.58</ele>
        <time>2016-08-26T13:21:15Z</time>
      </trkpt>
      <trkpt lat="47.63665" lon="-2.9616">
        <ele>1.1</ele>
        <time>2016-08-26T13:21:20Z</time>
      </trkpt>
      <trkpt lat="47.63653" lon="-2.96216">
        <ele>-1.3</ele>
        <time>2016-08-26T13:21:47Z</time>
      </trkpt>
      <trkpt lat="47.6364" lon="-2.9627">
        <ele>0.14</ele>
        <time>2016-08-26T13:22:13Z</time>
      </trkpt>
      <trkpt lat="47.63634" lon="-2.96306">
        <ele>0.14</ele>
        <time>2016-08-26T13:22:32Z</time>
      </trkpt>
      <trkpt lat="47.63621" lon="-2.96337">
        <ele>0.14</ele>
        <time>2016-08-26T13:22:49Z</time>
      </trkpt>
      <trkpt lat="47.63595" lon="-2.96345">
        <ele>-0.34</ele>
        <time>2016-08-26T13:23:09Z</time>
      </trkpt>
      <trkpt lat="47.63556" lon="-2.96335">
        <ele>1.1</ele>
        <time>2016-08-26T13:23:37Z</time>
      </trkpt>
      <trkpt lat="47.63531" lon="-2.96331">
        <ele>2.54</ele>
        <time>2016-08-26T13:23:54Z</time>
      </trkpt>
      <trkpt lat="47.63532" lon="-2.96308">
        <ele>1.58</ele>
        <time>2016-08-26T13:24:11Z</time>
      </trkpt>
      <trkpt lat="47.63539" lon="-2.9631">
        <ele>0.14</ele>
        <time>2016-08-26T13:24:20Z</time>
      </trkpt>
      <trkpt lat="47.63548" lon="-2.96313">
        <ele>-0.82</ele>
        <time>2016-08-26T13:24:32Z</time>
      </trkpt>
      <trkpt lat="47.63561" lon="-2.96317">
        <ele>-0.82</ele>
        <time>2016-08-26T13:24:47Z</time>
      </trkpt>
      <trkpt lat="47.63576" lon="-2.96328">
        <ele>0.62</ele>
        <time>2016-08-26T13:25:08Z</time>
      </trkpt>
      <trkpt lat="47.63585" lon="-2.9633">
        <ele>0.14</ele>
        <time>2016-08-26T13:25:21Z</time>
      </trkpt>
      <trkpt lat="47.63587" lon="-2.96326">
        <ele>0.62</ele>
        <time>2016-08-26T13:25:24Z</time>
      </trkpt>
      <trkpt lat="47.63585" lon="-2.96309">
        <ele>0.62</ele>
        <time>2016-08-26T13:25:33Z</time>
      </trkpt>
      <trkpt lat="47.63566" lon="-2.96301">
        <ele>1.58</ele>
        <time>2016-08-26T13:25:46Z</time>
      </trkpt>
      <trkpt lat="47.63538" lon="-2.96301">
        <ele>0.14</ele>
        <time>2016-08-26T13:26:05Z</time>
      </trkpt>
      <trkpt lat="47.63503" lon="-2.96282">
        <ele>0.62</ele>
        <time>2016-08-26T13:26:29Z</time>
      </trkpt>
      <trkpt lat="47.6347" lon="-2.96264">
        <ele>0.62</ele>
        <time>2016-08-26T13:26:51Z</time>
      </trkpt>
      <trkpt lat="47.63451" lon="-2.96246">
        <ele>0.62</ele>
        <time>2016-08-26T13:27:05Z</time>
      </trkpt>
      <trkpt lat="47.63406" lon="-2.96193">
        <ele>2.06</ele>
        <time>2016-08-26T13:27:32Z</time>
      </trkpt>
      <trkpt lat="47.63356" lon="-2.96142">
        <ele>1.58</ele>
        <time>2016-08-26T13:27:58Z</time>
      </trkpt>
      <trkpt lat="47.63315" lon="-2.96105">
        <ele>1.1</ele>
        <time>2016-08-26T13:28:19Z</time>
      </trkpt>
      <trkpt lat="47.63264" lon="-2.96081">
        <ele>1.58</ele>
        <time>2016-08-26T13:28:42Z</time>
      </trkpt>
      <trkpt lat="47.63232" lon="-2.96071">
        <ele>1.58</ele>
        <time>2016-08-26T13:28:56Z</time>
      </trkpt>
      <trkpt lat="47.63184" lon="-2.96057">
        <ele>1.58</ele>
        <time>2016-08-26T13:29:18Z</time>
      </trkpt>
      <trkpt lat="47.63145" lon="-2.96034">
        <ele>1.1</ele>
        <time>2016-08-26T13:29:36Z</time>
      </trkpt>
      <trkpt lat="47.63096" lon="-2.96008">
        <ele>1.58</ele>
        <time>2016-08-26T13:29:58Z</time>
      </trkpt>
      <trkpt lat="47.63041" lon="-2.95996">
        <ele>2.54</ele>
        <time>2016-08-26T13:30:20Z</time>
      </trkpt>
      <trkpt lat="47.62997" lon="-2.9599">
        <ele>3.02</ele>
        <time>2016-08-26T13:30:39Z</time>
      </trkpt>
      <trkpt lat="47.62944" lon="-2.95994">
        <ele>2.54</ele>
        <time>2016-08-26T13:31:02Z</time>
      </trkpt>
      <trkpt lat="47.629" lon="-2.95993">
        <ele>2.54</ele>
        <time>2016-08-26T13:31:21Z</time>
      </trkpt>
      <trkpt lat="47.62843" lon="-2.95993">
        <ele>2.54</ele>
        <time>2016-08-26T13:31:45Z</time>
      </trkpt>
      <trkpt lat="47.62796" lon="-2.95986">
        <ele>3.02</ele>
        <time>2016-08-26T13:32:05Z</time>
      </trkpt>
      <trkpt lat="47.62742" lon="-2.95961">
        <ele>2.54</ele>
        <time>2016-08-26T13:32:29Z</time>
      </trkpt>
      <trkpt lat="47.62688" lon="-2.95924">
        <ele>3.02</ele>
        <time>2016-08-26T13:32:54Z</time>
      </trkpt>
      <trkpt lat="47.62614" lon="-2.95865">
        <ele>1.1</ele>
        <time>2016-08-26T13:33:28Z</time>
      </trkpt>
      <trkpt lat="47.62555" lon="-2.95816">
        <ele>0.62</ele>
        <time>2016-08-26T13:33:56Z</time>
      </trkpt>
      <trkpt lat="47.62503" lon="-2.95756">
        <ele>1.58</ele>
        <time>2016-08-26T13:34:23Z</time>
      </trkpt>
      <trkpt lat="47.62473" lon="-2.95711">
        <ele>1.1</ele>
        <time>2016-08-26T13:34:40Z</time>
      </trkpt>
      <trkpt lat="47.62441" lon="-2.95659">
        <ele>0.62</ele>
        <time>2016-08-26T13:34:59Z</time>
      </trkpt>
      <trkpt lat="47.624" lon="-2.956">
        <ele>1.58</ele>
        <time>2016-08-26T13:35:22Z</time>
      </trkpt>
      <trkpt lat="47.62356" lon="-2.95539">
        <ele>1.1</ele>
        <time>2016-08-26T13:35:46Z</time>
      </trkpt>
      <trkpt lat="47.62317" lon="-2.95492">
        <ele>0.62</ele>
        <time>2016-08-26T13:36:06Z</time>
      </trkpt>
      <trkpt lat="47.6228" lon="-2.95455">
        <ele>0.62</ele>
        <time>2016-08-26T13:36:23Z</time>
      </trkpt>
      <trkpt lat="47.62215" lon="-2.95403">
        <ele>1.1</ele>
        <time>2016-08-26T13:36:51Z</time>
      </trkpt>
      <trkpt lat="47.62204" lon="-2.95368">
        <ele>3.02</ele>
        <time>2016-08-26T13:37:02Z</time>
      </trkpt>
      <trkpt lat="47.62197" lon="-2.9533">
        <ele>3.5</ele>
        <time>2016-08-26T13:37:16Z</time>
      </trkpt>
      <trkpt lat="47.62165" lon="-2.95299">
        <ele>2.06</ele>
        <time>2016-08-26T13:37:34Z</time>
      </trkpt>
      <trkpt lat="47.62124" lon="-2.95283">
        <ele>1.1</ele>
        <time>2016-08-26T13:37:56Z</time>
      </trkpt>
      <trkpt lat="47.62074" lon="-2.95266">
        <ele>0.62</ele>
        <time>2016-08-26T13:38:20Z</time>
      </trkpt>
      <trkpt lat="47.62031" lon="-2.95252">
        <ele>0.62</ele>
        <time>2016-08-26T13:38:42Z</time>
      </trkpt>
      <trkpt lat="47.61988" lon="-2.95239">
        <ele>1.1</ele>
        <time>2016-08-26T13:39:04Z</time>
      </trkpt>
      <trkpt lat="47.61953" lon="-2.95227">
        <ele>0.14</ele>
        <time>2016-08-26T13:39:20Z</time>
      </trkpt>
      <trkpt lat="47.61913" lon="-2.95217">
        <ele>-0.34</ele>
        <time>2016-08-26T13:39:39Z</time>
      </trkpt>
      <trkpt lat="47.61866" lon="-2.95203">
        <ele>1.58</ele>
        <time>2016-08-26T13:40:02Z</time>
      </trkpt>
      <trkpt lat="47.61814" lon="-2.95183">
        <ele>1.58</ele>
        <time>2016-08-26T13:40:29Z</time>
      </trkpt>
      <trkpt lat="47.6178" lon="-2.95172">
        <ele>1.1</ele>
        <time>2016-08-26T13:40:45Z</time>
      </trkpt>
      <trkpt lat="47.61729" lon="-2.95155">
        <ele>1.58</ele>
        <time>2016-08-26T13:41:09Z</time>
      </trkpt>
      <trkpt lat="47.6167" lon="-2.95134">
        <ele>1.1</ele>
        <time>2016-08-26T13:41:35Z</time>
      </trkpt>
      <trkpt lat="47.61605" lon="-2.95116">
        <ele>1.58</ele>
        <time>2016-08-26T13:42:03Z</time>
      </trkpt>
      <trkpt lat="47.61554" lon="-2.95102">
        <ele>1.58</ele>
        <time>2016-08-26T13:42:24Z</time>
      </trkpt>
      <trkpt lat="47.61522" lon="-2.95101">
        <ele>0.62</ele>
        <time>2016-08-26T13:42:36Z</time>
      </trkpt>
      <trkpt lat="47.61478" lon="-2.95103">
        <ele>-0.82</ele>
        <time>2016-08-26T13:42:53Z</time>
      </trkpt>
      <trkpt lat="47.61425" lon="-2.95113">
        <ele>1.1</ele>
        <time>2016-08-26T13:43:17Z</time>
      </trkpt>
      <trkpt lat="47.61354" lon="-2.95133">
        <ele>0.14</ele>
        <time>2016-08-26T13:43:48Z</time>
      </trkpt>
      <trkpt lat="47.61306" lon="-2.95151">
        <ele>-0.82</ele>
        <time>2016-08-26T13:44:10Z</time>
      </trkpt>
      <trkpt lat="47.61249" lon="-2.95172">
        <ele>-0.34</ele>
        <time>2016-08-26T13:44:36Z</time>
      </trkpt>
      <trkpt lat="47.61201" lon="-2.95194">
        <ele>0.14</ele>
        <time>2016-08-26T13:45:02Z</time>
      </trkpt>
      <trkpt lat="47.6115" lon="-2.95219">
        <ele>-0.82</ele>
        <time>2016-08-26T13:45:33Z</time>
      </trkpt>
      <trkpt lat="47.61118" lon="-2.95237">
        <ele>-1.3</ele>
        <time>2016-08-26T13:45:55Z</time>
      </trkpt>
      <trkpt lat="47.61076" lon="-2.95257">
        <ele>-0.34</ele>
        <time>2016-08-26T13:46:21Z</time>
      </trkpt>
      <trkpt lat="47.6103" lon="-2.95279">
        <ele>0.14</ele>
        <time>2016-08-26T13:46:44Z</time>
      </trkpt>
      <trkpt lat="47.60965" lon="-2.95307">
        <ele>-0.82</ele>
        <time>2016-08-26T13:47:12Z</time>
      </trkpt>
      <trkpt lat="47.60907" lon="-2.95334">
        <ele>-0.34</ele>
        <time>2016-08-26T13:47:35Z</time>
      </trkpt>
      <trkpt lat="47.60847" lon="-2.95356">
        <ele>-0.82</ele>
        <time>2016-08-26T13:48:00Z</time>
      </trkpt>
      <trkpt lat="47.60802" lon="-2.9537">
        <ele>-0.34</ele>
        <time>2016-08-26T13:48:23Z</time>
      </trkpt>
      <trkpt lat="47.60747" lon="-2.95382">
        <ele>0.62</ele>
        <time>2016-08-26T13:48:53Z</time>
      </trkpt>
      <trkpt lat="47.60697" lon="-2.95391">
        <ele>0.62</ele>
        <time>2016-08-26T13:49:22Z</time>
      </trkpt>
      <trkpt lat="47.60646" lon="-2.95393">
        <ele>0.62</ele>
        <time>2016-08-26T13:49:51Z</time>
      </trkpt>
      <trkpt lat="47.60605" lon="-2.95397">
        <ele>1.1</ele>
        <time>2016-08-26T13:50:14Z</time>
      </trkpt>
      <trkpt lat="47.60554" lon="-2.95399">
        <ele>2.06</ele>
        <time>2016-08-26T13:50:41Z</time>
      </trkpt>
      <trkpt lat="47.60523" lon="-2.95399">
        <ele>2.06</ele>
        <time>2016-08-26T13:50:59Z</time>
      </trkpt>
      <trkpt lat="47.60464" lon="-2.95401">
        <ele>1.58</ele>
        <time>2016-08-26T13:51:34Z</time>
      </trkpt>
      <trkpt lat="47.60418" lon="-2.95402">
        <ele>2.06</ele>
        <time>2016-08-26T13:52:02Z</time>
      </trkpt>
      <trkpt lat="47.6037" lon="-2.95401">
        <ele>1.58</ele>
        <time>2016-08-26T13:52:30Z</time>
      </trkpt>
      <trkpt lat="47.60316" lon="-2.95397">
        <ele>1.58</ele>
        <time>2016-08-26T13:53:00Z</time>
      </trkpt>
      <trkpt lat="47.60275" lon="-2.95397">
        <ele>1.1</ele>
        <time>2016-08-26T13:53:22Z</time>
      </trkpt>
      <trkpt lat="47.60238" lon="-2.95401">
        <ele>1.1</ele>
        <time>2016-08-26T13:53:42Z</time>
      </trkpt>
      <trkpt lat="47.602" lon="-2.95397">
        <ele>2.06</ele>
        <time>2016-08-26T13:54:04Z</time>
      </trkpt>
      <trkpt lat="47.60173" lon="-2.95389">
        <ele>2.06</ele>
        <time>2016-08-26T13:54:20Z</time>
      </trkpt>
      <trkpt lat="47.60143" lon="-2.95375">
        <ele>2.06</ele>
        <time>2016-08-26T13:54:38Z</time>
      </trkpt>
      <trkpt lat="47.60116" lon="-2.95346">
        <ele>1.58</ele>
        <time>2016-08-26T13:54:58Z</time>
      </trkpt>
      <trkpt lat="47.60096" lon="-2.95322">
        <ele>2.06</ele>
        <time>2016-08-26T13:55:15Z</time>
      </trkpt>
      <trkpt lat="47.60073" lon="-2.95293">
        <ele>2.54</ele>
        <time>2016-08-26T13:55:38Z</time>
      </trkpt>
      <trkpt lat="47.60051" lon="-2.95265">
        <ele>2.06</ele>
        <time>2016-08-26T13:55:58Z</time>
      </trkpt>
      <trkpt lat="47.6003" lon="-2.95234">
        <ele>2.54</ele>
        <time>2016-08-26T13:56:18Z</time>
      </trkpt>
      <trkpt lat="47.6" lon="-2.95188">
        <ele>1.1</ele>
        <time>2016-08-26T13:56:46Z</time>
      </trkpt>
      <trkpt lat="47.59978" lon="-2.9515">
        <ele>1.58</ele>
        <time>2016-08-26T13:57:04Z</time>
      </trkpt>
      <trkpt lat="47.59956" lon="-2.95117">
        <ele>2.54</ele>
        <time>2016-08-26T13:57:23Z</time>
      </trkpt>
      <trkpt lat="47.59937" lon="-2.95085">
        <ele>1.1</ele>
        <time>2016-08-26T13:57:41Z</time>
      </trkpt>
      <trkpt lat="47.59909" lon="-2.95043">
        <ele>1.1</ele>
        <time>2016-08-26T13:58:08Z</time>
      </trkpt>
      <trkpt lat="47.59893" lon="-2.95025">
        <ele>2.06</ele>
        <time>2016-08-26T13:58:25Z</time>
      </trkpt>
      <trkpt lat="47.59874" lon="-2.95006">
        <ele>1.58</ele>
        <time>2016-08-26T13:58:49Z</time>
      </trkpt>
      <trkpt lat="47.59863" lon="-2.94995">
        <ele>0.62</ele>
        <time>2016-08-26T13:59:04Z</time>
      </trkpt>
      <trkpt lat="47.59844" lon="-2.94976">
        <ele>0.62</ele>
        <time>2016-08-26T13:59:29Z</time>
      </trkpt>
      <trkpt lat="47.59819" lon="-2.94948">
        <ele>2.06</ele>
        <time>2016-08-26T13:59:51Z</time>
      </trkpt>
      <trkpt lat="47.59798" lon="-2.94927">
        <ele>2.54</ele>
        <time>2016-08-26T14:00:06Z</time>
      </trkpt>
      <trkpt lat="47.59777" lon="-2.94904">
        <ele>2.54</ele>
        <time>2016-08-26T14:00:20Z</time>
      </trkpt>
      <trkpt lat="47.59753" lon="-2.94876">
        <ele>2.06</ele>
        <time>2016-08-26T14:00:33Z</time>
      </trkpt>
      <trkpt lat="47.59731" lon="-2.94854">
        <ele>0.14</ele>
        <time>2016-08-26T14:00:43Z</time>
      </trkpt>
      <trkpt lat="47.59705" lon="-2.94832">
        <ele>0.62</ele>
        <time>2016-08-26T14:00:55Z</time>
      </trkpt>
      <trkpt lat="47.59674" lon="-2.94807">
        <ele>1.58</ele>
        <time>2016-08-26T14:01:09Z</time>
      </trkpt>
      <trkpt lat="47.59637" lon="-2.94766">
        <ele>1.58</ele>
        <time>2016-08-26T14:01:26Z</time>
      </trkpt>
      <trkpt lat="47.5959" lon="-2.94724">
        <ele>2.06</ele>
        <time>2016-08-26T14:01:47Z</time>
      </trkpt>
      <trkpt lat="47.59554" lon="-2.94685">
        <ele>2.06</ele>
        <time>2016-08-26T14:02:07Z</time>
      </trkpt>
      <trkpt lat="47.59504" lon="-2.94636">
        <ele>3.98</ele>
        <time>2016-08-26T14:02:35Z</time>
      </trkpt>
      <trkpt lat="47.59468" lon="-2.94606">
        <ele>5.42</ele>
        <time>2016-08-26T14:02:59Z</time>
      </trkpt>
      <trkpt lat="47.59428" lon="-2.94569">
        <ele>7.35</ele>
        <time>2016-08-26T14:03:30Z</time>
      </trkpt>
      <trkpt lat="47.59386" lon="-2.94543">
        <ele>9.27</ele>
        <time>2016-08-26T14:03:58Z</time>
      </trkpt>
      <trkpt lat="47.59361" lon="-2.94527">
        <ele>3.02</ele>
        <time>2016-08-26T14:04:24Z</time>
      </trkpt>
      <trkpt lat="47.59327" lon="-2.94504">
        <ele>2.06</ele>
        <time>2016-08-26T14:04:51Z</time>
      </trkpt>
      <trkpt lat="47.59292" lon="-2.94473">
        <ele>2.06</ele>
        <time>2016-08-26T14:05:10Z</time>
      </trkpt>
      <trkpt lat="47.5924" lon="-2.94443">
        <ele>2.06</ele>
        <time>2016-08-26T14:05:39Z</time>
      </trkpt>
      <trkpt lat="47.59211" lon="-2.94429">
        <ele>1.58</ele>
        <time>2016-08-26T14:05:56Z</time>
      </trkpt>
      <trkpt lat="47.59177" lon="-2.94413">
        <ele>2.54</ele>
        <time>2016-08-26T14:06:14Z</time>
      </trkpt>
      <trkpt lat="47.59131" lon="-2.9439">
        <ele>3.02</ele>
        <time>2016-08-26T14:06:36Z</time>
      </trkpt>
      <trkpt lat="47.59094" lon="-2.94369">
        <ele>3.02</ele>
        <time>2016-08-26T14:06:56Z</time>
      </trkpt>
      <trkpt lat="47.59048" lon="-2.94343">
        <ele>2.54</ele>
        <time>2016-08-26T14:07:24Z</time>
      </trkpt>
      <trkpt lat="47.58989" lon="-2.94307">
        <ele>2.54</ele>
        <time>2016-08-26T14:07:55Z</time>
      </trkpt>
      <trkpt lat="47.58949" lon="-2.94283">
        <ele>2.06</ele>
        <time>2016-08-26T14:08:18Z</time>
      </trkpt>
      <trkpt lat="47.58892" lon="-2.94251">
        <ele>2.06</ele>
        <time>2016-08-26T14:08:50Z</time>
      </trkpt>
      <trkpt lat="47.58833" lon="-2.94211">
        <ele>2.06</ele>
        <time>2016-08-26T14:09:20Z</time>
      </trkpt>
      <trkpt lat="47.58789" lon="-2.94175">
        <ele>2.06</ele>
        <time>2016-08-26T14:09:41Z</time>
      </trkpt>
      <trkpt lat="47.58732" lon="-2.94125">
        <ele>0.62</ele>
        <time>2016-08-26T14:10:08Z</time>
      </trkpt>
      <trkpt lat="47.58689" lon="-2.9409">
        <ele>0.62</ele>
        <time>2016-08-26T14:10:34Z</time>
      </trkpt>
      <trkpt lat="47.58657" lon="-2.94067">
        <ele>0.62</ele>
        <time>2016-08-26T14:10:54Z</time>
      </trkpt>
      <trkpt lat="47.58622" lon="-2.94038">
        <ele>1.58</ele>
        <time>2016-08-26T14:11:16Z</time>
      </trkpt>
      <trkpt lat="47.58582" lon="-2.93994">
        <ele>0.62</ele>
        <time>2016-08-26T14:11:44Z</time>
      </trkpt>
      <trkpt lat="47.58556" lon="-2.9396">
        <ele>0.62</ele>
        <time>2016-08-26T14:12:06Z</time>
      </trkpt>
      <trkpt lat="47.58533" lon="-2.93926">
        <ele>0.14</ele>
        <time>2016-08-26T14:12:29Z</time>
      </trkpt>
      <trkpt lat="47.58511" lon="-2.93889">
        <ele>2.06</ele>
        <time>2016-08-26T14:12:55Z</time>
      </trkpt>
      <trkpt lat="47.58498" lon="-2.93865">
        <ele>1.58</ele>
        <time>2016-08-26T14:13:13Z</time>
      </trkpt>
      <trkpt lat="47.58486" lon="-2.9383">
        <ele>1.58</ele>
        <time>2016-08-26T14:13:40Z</time>
      </trkpt>
      <trkpt lat="47.58472" lon="-2.9379">
        <ele>-0.82</ele>
        <time>2016-08-26T14:14:04Z</time>
      </trkpt>
      <trkpt lat="47.58446" lon="-2.93737">
        <ele>-0.34</ele>
        <time>2016-08-26T14:14:34Z</time>
      </trkpt>
      <trkpt lat="47.58428" lon="-2.93697">
        <ele>-1.79</ele>
        <time>2016-08-26T14:14:57Z</time>
      </trkpt>
      <trkpt lat="47.58406" lon="-2.93656">
        <ele>-1.79</ele>
        <time>2016-08-26T14:15:24Z</time>
      </trkpt>
      <trkpt lat="47.58402" lon="-2.9365">
        <ele>-1.79</ele>
        <time>2016-08-26T14:15:28Z</time>
      </trkpt>
      <trkpt lat="47.58381" lon="-2.93615">
        <ele>-0.34</ele>
        <time>2016-08-26T14:15:47Z</time>
      </trkpt>
      <trkpt lat="47.58362" lon="-2.93583">
        <ele>1.58</ele>
        <time>2016-08-26T14:16:03Z</time>
      </trkpt>
      <trkpt lat="47.5833" lon="-2.93537">
        <ele>0.62</ele>
        <time>2016-08-26T14:16:28Z</time>
      </trkpt>
      <trkpt lat="47.58295" lon="-2.93492">
        <ele>-0.82</ele>
        <time>2016-08-26T14:16:48Z</time>
      </trkpt>
      <trkpt lat="47.58245" lon="-2.93454">
        <ele>-0.82</ele>
        <time>2016-08-26T14:17:10Z</time>
      </trkpt>
      <trkpt lat="47.5821" lon="-2.93426">
        <ele>-0.34</ele>
        <time>2016-08-26T14:17:26Z</time>
      </trkpt>
      <trkpt lat="47.58179" lon="-2.93411">
        <ele>-0.82</ele>
        <time>2016-08-26T14:17:41Z</time>
      </trkpt>
      <trkpt lat="47.58171" lon="-2.93408">
        <ele>-0.34</ele>
        <time>2016-08-26T14:17:46Z</time>
      </trkpt>
      <trkpt lat="47.58132" lon="-2.93393">
        <ele>-0.82</ele>
        <time>2016-08-26T14:18:10Z</time>
      </trkpt>
      <trkpt lat="47.58095" lon="-2.93379">
        <ele>-0.34</ele>
        <time>2016-08-26T14:18:27Z</time>
      </trkpt>
      <trkpt lat="47.58046" lon="-2.93366">
        <ele>2.06</ele>
        <time>2016-08-26T14:18:48Z</time>
      </trkpt>
      <trkpt lat="47.58004" lon="-2.93361">
        <ele>1.58</ele>
        <time>2016-08-26T14:19:11Z</time>
      </trkpt>
      <trkpt lat="47.57967" lon="-2.93351">
        <ele>1.58</ele>
        <time>2016-08-26T14:19:37Z</time>
      </trkpt>
      <trkpt lat="47.57948" lon="-2.93345">
        <ele>1.1</ele>
        <time>2016-08-26T14:19:53Z</time>
      </trkpt>
      <trkpt lat="47.57925" lon="-2.93338">
        <ele>1.58</ele>
        <time>2016-08-26T14:20:16Z</time>
      </trkpt>
      <trkpt lat="47.57903" lon="-2.93329">
        <ele>2.54</ele>
        <time>2016-08-26T14:20:37Z</time>
      </trkpt>
      <trkpt lat="47.5788" lon="-2.93323">
        <ele>1.58</ele>
        <time>2016-08-26T14:20:58Z</time>
      </trkpt>
      <trkpt lat="47.57858" lon="-2.93315">
        <ele>1.58</ele>
        <time>2016-08-26T14:21:21Z</time>
      </trkpt>
      <trkpt lat="47.57838" lon="-2.93307">
        <ele>1.58</ele>
        <time>2016-08-26T14:21:40Z</time>
      </trkpt>
      <trkpt lat="47.57816" lon="-2.933">
        <ele>3.02</ele>
        <time>2016-08-26T14:22:07Z</time>
      </trkpt>
      <trkpt lat="47.57797" lon="-2.93304">
        <ele>3.98</ele>
        <time>2016-08-26T14:22:30Z</time>
      </trkpt>
      <trkpt lat="47.57771" lon="-2.933">
        <ele>3.5</ele>
        <time>2016-08-26T14:22:58Z</time>
      </trkpt>
      <trkpt lat="47.57742" lon="-2.93298">
        <ele>3.5</ele>
        <time>2016-08-26T14:23:20Z</time>
      </trkpt>
      <trkpt lat="47.57705" lon="-2.93287">
        <ele>2.54</ele>
        <time>2016-08-26T14:23:43Z</time>
      </trkpt>
      <trkpt lat="47.57669" lon="-2.93273">
        <ele>2.54</ele>
        <time>2016-08-26T14:24:01Z</time>
      </trkpt>
      <trkpt lat="47.57633" lon="-2.93252">
        <ele>3.02</ele>
        <time>2016-08-26T14:24:20Z</time>
      </trkpt>
      <trkpt lat="47.57607" lon="-2.93233">
        <ele>3.02</ele>
        <time>2016-08-26T14:24:36Z</time>
      </trkpt>
      <trkpt lat="47.57572" lon="-2.93209">
        <ele>3.02</ele>
        <time>2016-08-26T14:24:58Z</time>
      </trkpt>
      <trkpt lat="47.5754" lon="-2.93182">
        <ele>2.54</ele>
        <time>2016-08-26T14:25:20Z</time>
      </trkpt>
      <trkpt lat="47.57522" lon="-2.93163">
        <ele>0.62</ele>
        <time>2016-08-26T14:25:33Z</time>
      </trkpt>
      <trkpt lat="47.57496" lon="-2.93139">
        <ele>0.62</ele>
        <time>2016-08-26T14:25:50Z</time>
      </trkpt>
      <trkpt lat="47.5746" lon="-2.93106">
        <ele>1.1</ele>
        <time>2016-08-26T14:26:12Z</time>
      </trkpt>
      <trkpt lat="47.5743" lon="-2.93078">
        <ele>1.58</ele>
        <time>2016-08-26T14:26:32Z</time>
      </trkpt>
      <trkpt lat="47.57393" lon="-2.93039">
        <ele>1.1</ele>
        <time>2016-08-26T14:26:56Z</time>
      </trkpt>
      <trkpt lat="47.57358" lon="-2.93003">
        <ele>1.1</ele>
        <time>2016-08-26T14:27:17Z</time>
      </trkpt>
      <trkpt lat="47.57333" lon="-2.92977">
        <ele>1.58</ele>
        <time>2016-08-26T14:27:32Z</time>
      </trkpt>
      <trkpt lat="47.57298" lon="-2.92944">
        <ele>2.06</ele>
        <time>2016-08-26T14:27:52Z</time>
      </trkpt>
      <trkpt lat="47.57261" lon="-2.92902">
        <ele>1.58</ele>
        <time>2016-08-26T14:28:13Z</time>
      </trkpt>
      <trkpt lat="47.57228" lon="-2.92865">
        <ele>2.54</ele>
        <time>2016-08-26T14:28:32Z</time>
      </trkpt>
      <trkpt lat="47.5719" lon="-2.92822">
        <ele>2.54</ele>
        <time>2016-08-26T14:28:55Z</time>
      </trkpt>
      <trkpt lat="47.57159" lon="-2.92787">
        <ele>1.1</ele>
        <time>2016-08-26T14:29:15Z</time>
      </trkpt>
      <trkpt lat="47.57128" lon="-2.92751">
        <ele>1.58</ele>
        <time>2016-08-26T14:29:36Z</time>
      </trkpt>
      <trkpt lat="47.57101" lon="-2.92731">
        <ele>2.06</ele>
        <time>2016-08-26T14:29:54Z</time>
      </trkpt>
      <trkpt lat="47.5708" lon="-2.92715">
        <ele>1.58</ele>
        <time>2016-08-26T14:30:08Z</time>
      </trkpt>
      <trkpt lat="47.5705" lon="-2.92691">
        <ele>1.1</ele>
        <time>2016-08-26T14:30:27Z</time>
      </trkpt>
      <trkpt lat="47.57019" lon="-2.92672">
        <ele>1.58</ele>
        <time>2016-08-26T14:30:42Z</time>
      </trkpt>
      <trkpt lat="47.57009" lon="-2.92664">
        <ele>1.58</ele>
        <time>2016-08-26T14:30:47Z</time>
      </trkpt>
      <trkpt lat="47.56996" lon="-2.92654">
        <ele>1.58</ele>
        <time>2016-08-26T14:30:54Z</time>
      </trkpt>
      <trkpt lat="47.56988" lon="-2.9265">
        <ele>1.58</ele>
        <time>2016-08-26T14:30:58Z</time>
      </trkpt>
      <trkpt lat="47.5698" lon="-2.92643">
        <ele>2.54</ele>
        <time>2016-08-26T14:31:03Z</time>
      </trkpt>
      <trkpt lat="47.5695" lon="-2.92616">
        <ele>1.58</ele>
        <time>2016-08-26T14:31:21Z</time>
      </trkpt>
      <trkpt lat="47.56922" lon="-2.92595">
        <ele>2.06</ele>
        <time>2016-08-26T14:31:38Z</time>
      </trkpt>
      <trkpt lat="47.56886" lon="-2.92567">
        <ele>2.06</ele>
        <time>2016-08-26T14:32:01Z</time>
      </trkpt>
      <trkpt lat="47.56861" lon="-2.92546">
        <ele>1.58</ele>
        <time>2016-08-26T14:32:17Z</time>
      </trkpt>
      <trkpt lat="47.56839" lon="-2.92531">
        <ele>1.58</ele>
        <time>2016-08-26T14:32:30Z</time>
      </trkpt>
      <trkpt lat="47.56811" lon="-2.92511">
        <ele>1.58</ele>
        <time>2016-08-26T14:32:47Z</time>
      </trkpt>
      <trkpt lat="47.56781" lon="-2.9249">
        <ele>2.06</ele>
        <time>2016-08-26T14:33:06Z</time>
      </trkpt>
      <trkpt lat="47.56776" lon="-2.92487">
        <ele>1.58</ele>
        <time>2016-08-26T14:33:09Z</time>
      </trkpt>
      <trkpt lat="47.5674" lon="-2.92464">
        <ele>1.1</ele>
        <time>2016-08-26T14:33:31Z</time>
      </trkpt>
      <trkpt lat="47.56715" lon="-2.92443">
        <ele>0.62</ele>
        <time>2016-08-26T14:33:45Z</time>
      </trkpt>
      <trkpt lat="47.56676" lon="-2.92413">
        <ele>0.62</ele>
        <time>2016-08-26T14:34:05Z</time>
      </trkpt>
      <trkpt lat="47.56645" lon="-2.92392">
        <ele>0.62</ele>
        <time>2016-08-26T14:34:22Z</time>
      </trkpt>
      <trkpt lat="47.56613" lon="-2.9237">
        <ele>0.62</ele>
        <time>2016-08-26T14:34:40Z</time>
      </trkpt>
      <trkpt lat="47.56575" lon="-2.92348">
        <ele>1.1</ele>
        <time>2016-08-26T14:34:59Z</time>
      </trkpt>
      <trkpt lat="47.56543" lon="-2.92334">
        <ele>1.58</ele>
        <time>2016-08-26T14:35:16Z</time>
      </trkpt>
      <trkpt lat="47.56519" lon="-2.92326">
        <ele>1.58</ele>
        <time>2016-08-26T14:35:30Z</time>
      </trkpt>
      <trkpt lat="47.56512" lon="-2.92324">
        <ele>1.58</ele>
        <time>2016-08-26T14:35:34Z</time>
      </trkpt>
      <trkpt lat="47.56491" lon="-2.92314">
        <ele>1.1</ele>
        <time>2016-08-26T14:35:46Z</time>
      </trkpt>
      <trkpt lat="47.5646" lon="-2.92302">
        <ele>1.1</ele>
        <time>2016-08-26T14:36:03Z</time>
      </trkpt>
      <trkpt lat="47.56429" lon="-2.92282">
        <ele>1.1</ele>
        <time>2016-08-26T14:36:18Z</time>
      </trkpt>
      <trkpt lat="47.56377" lon="-2.92253">
        <ele>1.1</ele>
        <time>2016-08-26T14:36:40Z</time>
      </trkpt>
      <trkpt lat="47.56321" lon="-2.92225">
        <ele>0.62</ele>
        <time>2016-08-26T14:37:03Z</time>
      </trkpt>
      <trkpt lat="47.56281" lon="-2.92205">
        <ele>0.62</ele>
        <time>2016-08-26T14:37:20Z</time>
      </trkpt>
      <trkpt lat="47.56232" lon="-2.92193">
        <ele>0.62</ele>
        <time>2016-08-26T14:37:43Z</time>
      </trkpt>
      <trkpt lat="47.56197" lon="-2.92188">
        <ele>1.1</ele>
        <time>2016-08-26T14:37:59Z</time>
      </trkpt>
      <trkpt lat="47.56142" lon="-2.9218">
        <ele>0.62</ele>
        <time>2016-08-26T14:38:22Z</time>
      </trkpt>
      <trkpt lat="47.56104" lon="-2.92167">
        <ele>-0.82</ele>
        <time>2016-08-26T14:38:37Z</time>
      </trkpt>
      <trkpt lat="47.56042" lon="-2.92152">
        <ele>-0.34</ele>
        <time>2016-08-26T14:39:01Z</time>
      </trkpt>
      <trkpt lat="47.55994" lon="-2.92142">
        <ele>0.14</ele>
        <time>2016-08-26T14:39:18Z</time>
      </trkpt>
      <trkpt lat="47.5594" lon="-2.92134">
        <ele>1.1</ele>
        <time>2016-08-26T14:39:35Z</time>
      </trkpt>
      <trkpt lat="47.55877" lon="-2.92131">
        <ele>1.1</ele>
        <time>2016-08-26T14:39:54Z</time>
      </trkpt>
      <trkpt lat="47.55817" lon="-2.92124">
        <ele>1.58</ele>
        <time>2016-08-26T14:40:13Z</time>
      </trkpt>
      <trkpt lat="47.55776" lon="-2.92125">
        <ele>0.62</ele>
        <time>2016-08-26T14:40:27Z</time>
      </trkpt>
      <trkpt lat="47.55733" lon="-2.92125">
        <ele>1.58</ele>
        <time>2016-08-26T14:40:43Z</time>
      </trkpt>
      <trkpt lat="47.55693" lon="-2.92125">
        <ele>1.1</ele>
        <time>2016-08-26T14:40:59Z</time>
      </trkpt>
      <trkpt lat="47.5564" lon="-2.92135">
        <ele>1.1</ele>
        <time>2016-08-26T14:41:20Z</time>
      </trkpt>
      <trkpt lat="47.55606" lon="-2.92143">
        <ele>1.1</ele>
        <time>2016-08-26T14:41:33Z</time>
      </trkpt>
      <trkpt lat="47.55569" lon="-2.92152">
        <ele>1.58</ele>
        <time>2016-08-26T14:41:48Z</time>
      </trkpt>
      <trkpt lat="47.55535" lon="-2.92165">
        <ele>1.1</ele>
        <time>2016-08-26T14:42:03Z</time>
      </trkpt>
      <trkpt lat="47.55496" lon="-2.9218">
        <ele>1.1</ele>
        <time>2016-08-26T14:42:22Z</time>
      </trkpt>
      <trkpt lat="47.55442" lon="-2.92207">
        <ele>0.62</ele>
        <time>2016-08-26T14:42:48Z</time>
      </trkpt>
      <trkpt lat="47.55395" lon="-2.92235">
        <ele>1.1</ele>
        <time>2016-08-26T14:43:11Z</time>
      </trkpt>
      <trkpt lat="47.55365" lon="-2.92246">
        <ele>0.14</ele>
        <time>2016-08-26T14:43:24Z</time>
      </trkpt>
      <trkpt lat="47.55336" lon="-2.92256">
        <ele>0.14</ele>
        <time>2016-08-26T14:43:37Z</time>
      </trkpt>
      <trkpt lat="47.55306" lon="-2.92261">
        <ele>-0.82</ele>
        <time>2016-08-26T14:43:51Z</time>
      </trkpt>
      <trkpt lat="47.55276" lon="-2.92262">
        <ele>-0.82</ele>
        <time>2016-08-26T14:44:04Z</time>
      </trkpt>
      <trkpt lat="47.55248" lon="-2.92261">
        <ele>-0.34</ele>
        <time>2016-08-26T14:44:16Z</time>
      </trkpt>
      <trkpt lat="47.55209" lon="-2.9226">
        <ele>-0.82</ele>
        <time>2016-08-26T14:44:32Z</time>
      </trkpt>
      <trkpt lat="47.55177" lon="-2.92259">
        <ele>0.14</ele>
        <time>2016-08-26T14:44:44Z</time>
      </trkpt>
      <trkpt lat="47.55115" lon="-2.92259">
        <ele>0.62</ele>
        <time>2016-08-26T14:45:05Z</time>
      </trkpt>
      <trkpt lat="47.55071" lon="-2.92265">
        <ele>-0.82</ele>
        <time>2016-08-26T14:45:19Z</time>
      </trkpt>
      <trkpt lat="47.5503" lon="-2.92269">
        <ele>-0.82</ele>
        <time>2016-08-26T14:45:33Z</time>
      </trkpt>
      <trkpt lat="47.54989" lon="-2.92276">
        <ele>-0.34</ele>
        <time>2016-08-26T14:45:48Z</time>
      </trkpt>
      <trkpt lat="47.54942" lon="-2.92281">
        <ele>0.14</ele>
        <time>2016-08-26T14:46:04Z</time>
      </trkpt>
      <trkpt lat="47.54884" lon="-2.92285">
        <ele>-0.34</ele>
        <time>2016-08-26T14:46:23Z</time>
      </trkpt>
      <trkpt lat="47.54834" lon="-2.92286">
        <ele>-0.82</ele>
        <time>2016-08-26T14:46:40Z</time>
      </trkpt>
      <trkpt lat="47.54785" lon="-2.92289">
        <ele>-0.34</ele>
        <time>2016-08-26T14:46:57Z</time>
      </trkpt>
      <trkpt lat="47.5473" lon="-2.923">
        <ele>-0.82</ele>
        <time>2016-08-26T14:47:16Z</time>
      </trkpt>
      <trkpt lat="47.54674" lon="-2.92312">
        <ele>0.62</ele>
        <time>2016-08-26T14:47:36Z</time>
      </trkpt>
      <trkpt lat="47.54613" lon="-2.92324">
        <ele>0.14</ele>
        <time>2016-08-26T14:47:56Z</time>
      </trkpt>
      <trkpt lat="47.54558" lon="-2.92333">
        <ele>0.14</ele>
        <time>2016-08-26T14:48:12Z</time>
      </trkpt>
      <trkpt lat="47.54503" lon="-2.92337">
        <ele>-0.34</ele>
        <time>2016-08-26T14:48:27Z</time>
      </trkpt>
      <trkpt lat="47.54452" lon="-2.92336">
        <ele>-0.34</ele>
        <time>2016-08-26T14:48:41Z</time>
      </trkpt>
      <trkpt lat="47.54391" lon="-2.92327">
        <ele>0.14</ele>
        <time>2016-08-26T14:48:58Z</time>
      </trkpt>
      <trkpt lat="47.54357" lon="-2.92314">
        <ele>0.62</ele>
        <time>2016-08-26T14:49:08Z</time>
      </trkpt>
      <trkpt lat="47.543" lon="-2.92291">
        <ele>0.62</ele>
        <time>2016-08-26T14:49:24Z</time>
      </trkpt>
      <trkpt lat="47.54255" lon="-2.92295">
        <ele>-0.34</ele>
        <time>2016-08-26T14:49:39Z</time>
      </trkpt>
      <trkpt lat="47.54219" lon="-2.92305">
        <ele>-0.34</ele>
        <time>2016-08-26T14:49:55Z</time>
      </trkpt>
      <trkpt lat="47.54182" lon="-2.92311">
        <ele>0.62</ele>
        <time>2016-08-26T14:50:11Z</time>
      </trkpt>
      <trkpt lat="47.5414" lon="-2.92312">
        <ele>0.14</ele>
        <time>2016-08-26T14:50:27Z</time>
      </trkpt>
      <trkpt lat="47.54107" lon="-2.92313">
        <ele>-0.82</ele>
        <time>2016-08-26T14:50:40Z</time>
      </trkpt>
      <trkpt lat="47.54079" lon="-2.92314">
        <ele>-0.34</ele>
        <time>2016-08-26T14:50:53Z</time>
      </trkpt>
      <trkpt lat="47.5404" lon="-2.92312">
        <ele>0.14</ele>
        <time>2016-08-26T14:51:11Z</time>
      </trkpt>
      <trkpt lat="47.54036" lon="-2.92312">
        <ele>0.14</ele>
        <time>2016-08-26T14:51:13Z</time>
      </trkpt>
      <trkpt lat="47.54014" lon="-2.92311">
        <ele>0.62</ele>
        <time>2016-08-26T14:51:25Z</time>
      </trkpt>
      <trkpt lat="47.5399" lon="-2.92312">
        <ele>0.62</ele>
        <time>2016-08-26T14:51:38Z</time>
      </trkpt>
      <trkpt lat="47.53957" lon="-2.92315">
        <ele>0.62</ele>
        <time>2016-08-26T14:51:57Z</time>
      </trkpt>
      <trkpt lat="47.53926" lon="-2.92321">
        <ele>0.14</ele>
        <time>2016-08-26T14:52:13Z</time>
      </trkpt>
      <trkpt lat="47.539" lon="-2.92321">
        <ele>-2.75</ele>
        <time>2016-08-26T14:52:25Z</time>
      </trkpt>
      <trkpt lat="47.53864" lon="-2.92325">
        <ele>-2.27</ele>
        <time>2016-08-26T14:52:41Z</time>
      </trkpt>
      <trkpt lat="47.53826" lon="-2.92322">
        <ele>-2.27</ele>
        <time>2016-08-26T14:52:57Z</time>
      </trkpt>
      <trkpt lat="47.53792" lon="-2.92323">
        <ele>-1.3</ele>
        <time>2016-08-26T14:53:11Z</time>
      </trkpt>
      <trkpt lat="47.53757" lon="-2.92331">
        <ele>-0.82</ele>
        <time>2016-08-26T14:53:28Z</time>
      </trkpt>
      <trkpt lat="47.53724" lon="-2.92334">
        <ele>-0.34</ele>
        <time>2016-08-26T14:53:44Z</time>
      </trkpt>
      <trkpt lat="47.5367" lon="-2.92327">
        <ele>-0.82</ele>
        <time>2016-08-26T14:54:07Z</time>
      </trkpt>
      <trkpt lat="47.53632" lon="-2.92324">
        <ele>0.14</ele>
        <time>2016-08-26T14:54:22Z</time>
      </trkpt>
      <trkpt lat="47.53591" lon="-2.92317">
        <ele>-0.34</ele>
        <time>2016-08-26T14:54:37Z</time>
      </trkpt>
      <trkpt lat="47.53541" lon="-2.92311">
        <ele>-0.82</ele>
        <time>2016-08-26T14:54:55Z</time>
      </trkpt>
      <trkpt lat="47.53499" lon="-2.92307">
        <ele>-0.82</ele>
        <time>2016-08-26T14:55:10Z</time>
      </trkpt>
      <trkpt lat="47.53454" lon="-2.92301">
        <ele>-0.82</ele>
        <time>2016-08-26T14:55:27Z</time>
      </trkpt>
      <trkpt lat="47.53429" lon="-2.92313">
        <ele>-1.3</ele>
        <time>2016-08-26T14:55:42Z</time>
      </trkpt>
      <trkpt lat="47.53412" lon="-2.92319">
        <ele>-1.79</ele>
        <time>2016-08-26T14:55:54Z</time>
      </trkpt>
      <trkpt lat="47.53399" lon="-2.9232">
        <ele>-1.3</ele>
        <time>2016-08-26T14:56:04Z</time>
      </trkpt>
      <trkpt lat="47.5337" lon="-2.92325">
        <ele>1.1</ele>
        <time>2016-08-26T14:56:21Z</time>
      </trkpt>
      <trkpt lat="47.53337" lon="-2.92329">
        <ele>1.1</ele>
        <time>2016-08-26T14:56:36Z</time>
      </trkpt>
      <trkpt lat="47.53306" lon="-2.92341">
        <ele>0.62</ele>
        <time>2016-08-26T14:56:54Z</time>
      </trkpt>
      <trkpt lat="47.53291" lon="-2.92353">
        <ele>-0.34</ele>
        <time>2016-08-26T14:57:06Z</time>
      </trkpt>
      <trkpt lat="47.53273" lon="-2.9237">
        <ele>0.14</ele>
        <time>2016-08-26T14:57:23Z</time>
      </trkpt>
      <trkpt lat="47.53254" lon="-2.92384">
        <ele>-0.82</ele>
        <time>2016-08-26T14:57:40Z</time>
      </trkpt>
      <trkpt lat="47.53238" lon="-2.92393">
        <ele>0.14</ele>
        <time>2016-08-26T14:57:56Z</time>
      </trkpt>
      <trkpt lat="47.53217" lon="-2.92406">
        <ele>-0.34</ele>
        <time>2016-08-26T14:58:16Z</time>
      </trkpt>
      <trkpt lat="47.53197" lon="-2.92416">
        <ele>0.14</ele>
        <time>2016-08-26T14:58:33Z</time>
      </trkpt>
      <trkpt lat="47.53175" lon="-2.92431">
        <ele>0.14</ele>
        <time>2016-08-26T14:58:51Z</time>
      </trkpt>
      <trkpt lat="47.53166" lon="-2.92439">
        <ele>-0.34</ele>
        <time>2016-08-26T14:58:59Z</time>
      </trkpt>
      <trkpt lat="47.53148" lon="-2.92451">
        <ele>-0.82</ele>
        <time>2016-08-26T14:59:17Z</time>
      </trkpt>
      <trkpt lat="47.53134" lon="-2.92464">
        <ele>-0.82</ele>
        <time>2016-08-26T14:59:34Z</time>
      </trkpt>
      <trkpt lat="47.53128" lon="-2.92468">
        <ele>-1.79</ele>
        <time>2016-08-26T14:59:40Z</time>
      </trkpt>
      <trkpt lat="47.53104" lon="-2.92486">
        <ele>-3.23</ele>
        <time>2016-08-26T15:00:00Z</time>
      </trkpt>
      <trkpt lat="47.53078" lon="-2.92503">
        <ele>-3.71</ele>
        <time>2016-08-26T15:00:22Z</time>
      </trkpt>
      <trkpt lat="47.53058" lon="-2.92517">
        <ele>-5.15</ele>
        <time>2016-08-26T15:00:39Z</time>
      </trkpt>
      <trkpt lat="47.53039" lon="-2.9253">
        <ele>-3.23</ele>
        <time>2016-08-26T15:00:56Z</time>
      </trkpt>
      <trkpt lat="47.53035" lon="-2.92532">
        <ele>-3.23</ele>
        <time>2016-08-26T15:00:59Z</time>
      </trkpt>
      <trkpt lat="47.53017" lon="-2.92543">
        <ele>-2.27</ele>
        <time>2016-08-26T15:01:14Z</time>
      </trkpt>
      <trkpt lat="47.53016" lon="-2.92544">
        <ele>-1.79</ele>
        <time>2016-08-26T15:01:15Z</time>
      </trkpt>
      <trkpt lat="47.53011" lon="-2.92547">
        <ele>-1.79</ele>
        <time>2016-08-26T15:01:20Z</time>
      </trkpt>
      <trkpt lat="47.52993" lon="-2.92558">
        <ele>-1.79</ele>
        <time>2016-08-26T15:01:36Z</time>
      </trkpt>
      <trkpt lat="47.5299" lon="-2.9256">
        <ele>-1.3</ele>
        <time>2016-08-26T15:01:39Z</time>
      </trkpt>
      <trkpt lat="47.52974" lon="-2.92573">
        <ele>-0.34</ele>
        <time>2016-08-26T15:01:55Z</time>
      </trkpt>
      <trkpt lat="47.52958" lon="-2.92587">
        <ele>0.14</ele>
        <time>2016-08-26T15:02:13Z</time>
      </trkpt>
      <trkpt lat="47.52942" lon="-2.92601">
        <ele>0.62</ele>
        <time>2016-08-26T15:02:31Z</time>
      </trkpt>
      <trkpt lat="47.52926" lon="-2.92617">
        <ele>0.14</ele>
        <time>2016-08-26T15:02:49Z</time>
      </trkpt>
      <trkpt lat="47.52911" lon="-2.9263">
        <ele>-0.34</ele>
        <time>2016-08-26T15:03:05Z</time>
      </trkpt>
      <trkpt lat="47.52903" lon="-2.92638">
        <ele>0.14</ele>
        <time>2016-08-26T15:03:12Z</time>
      </trkpt>
      <trkpt lat="47.52897" lon="-2.92642">
        <ele>-0.34</ele>
        <time>2016-08-26T15:03:17Z</time>
      </trkpt>
      <trkpt lat="47.52874" lon="-2.92664">
        <ele>-0.34</ele>
        <time>2016-08-26T15:03:36Z</time>
      </trkpt>
      <trkpt lat="47.52855" lon="-2.92678">
        <ele>-0.34</ele>
        <time>2016-08-26T15:03:50Z</time>
      </trkpt>
      <trkpt lat="47.52825" lon="-2.92693">
        <ele>-1.3</ele>
        <time>2016-08-26T15:04:09Z</time>
      </trkpt>
      <trkpt lat="47.52795" lon="-2.92721">
        <ele>-1.3</ele>
        <time>2016-08-26T15:04:28Z</time>
      </trkpt>
      <trkpt lat="47.52766" lon="-2.92745">
        <ele>-0.82</ele>
        <time>2016-08-26T15:04:47Z</time>
      </trkpt>
      <trkpt lat="47.52739" lon="-2.92768">
        <ele>-0.34</ele>
        <time>2016-08-26T15:05:06Z</time>
      </trkpt>
      <trkpt lat="47.52721" lon="-2.92786">
        <ele>-1.3</ele>
        <time>2016-08-26T15:05:20Z</time>
      </trkpt>
      <trkpt lat="47.52697" lon="-2.92811">
        <ele>-0.34</ele>
        <time>2016-08-26T15:05:37Z</time>
      </trkpt>
      <trkpt lat="47.52677" lon="-2.92838">
        <ele>-0.34</ele>
        <time>2016-08-26T15:05:55Z</time>
      </trkpt>
      <trkpt lat="47.52664" lon="-2.92853">
        <ele>-0.34</ele>
        <time>2016-08-26T15:06:08Z</time>
      </trkpt>
      <trkpt lat="47.52648" lon="-2.9287">
        <ele>-0.82</ele>
        <time>2016-08-26T15:06:21Z</time>
      </trkpt>
      <trkpt lat="47.52641" lon="-2.92876">
        <ele>-0.34</ele>
        <time>2016-08-26T15:06:26Z</time>
      </trkpt>
      <trkpt lat="47.52636" lon="-2.92882">
        <ele>-0.82</ele>
        <time>2016-08-26T15:06:31Z</time>
      </trkpt>
      <trkpt lat="47.52614" lon="-2.92905">
        <ele>-0.82</ele>
        <time>2016-08-26T15:06:51Z</time>
      </trkpt>
      <trkpt lat="47.52594" lon="-2.92934">
        <ele>-0.34</ele>
        <time>2016-08-26T15:07:12Z</time>
      </trkpt>
      <trkpt lat="47.5258" lon="-2.92952">
        <ele>-0.82</ele>
        <time>2016-08-26T15:07:27Z</time>
      </trkpt>
      <trkpt lat="47.52567" lon="-2.92977">
        <ele>0.14</ele>
        <time>2016-08-26T15:07:44Z</time>
      </trkpt>
      <trkpt lat="47.52566" lon="-2.92985">
        <ele>-0.82</ele>
        <time>2016-08-26T15:07:49Z</time>
      </trkpt>
      <trkpt lat="47.52552" lon="-2.93011">
        <ele>-0.34</ele>
        <time>2016-08-26T15:08:08Z</time>
      </trkpt>
      <trkpt lat="47.52544" lon="-2.93033">
        <ele>1.58</ele>
        <time>2016-08-26T15:08:23Z</time>
      </trkpt>
      <trkpt lat="47.52536" lon="-2.93055">
        <ele>0.62</ele>
        <time>2016-08-26T15:08:40Z</time>
      </trkpt>
      <trkpt lat="47.5253" lon="-2.93076">
        <ele>0.14</ele>
        <time>2016-08-26T15:08:55Z</time>
      </trkpt>
      <trkpt lat="47.52523" lon="-2.931">
        <ele>0.62</ele>
        <time>2016-08-26T15:09:13Z</time>
      </trkpt>
      <trkpt lat="47.52518" lon="-2.93115">
        <ele>0.14</ele>
        <time>2016-08-26T15:09:23Z</time>
      </trkpt>
      <trkpt lat="47.52507" lon="-2.93139">
        <ele>-0.34</ele>
        <time>2016-08-26T15:09:40Z</time>
      </trkpt>
      <trkpt lat="47.52495" lon="-2.93158">
        <ele>0.14</ele>
        <time>2016-08-26T15:09:55Z</time>
      </trkpt>
      <trkpt lat="47.52487" lon="-2.93171">
        <ele>2.06</ele>
        <time>2016-08-26T15:10:05Z</time>
      </trkpt>
      <trkpt lat="47.52476" lon="-2.93187">
        <ele>1.1</ele>
        <time>2016-08-26T15:10:18Z</time>
      </trkpt>
      <trkpt lat="47.52452" lon="-2.93216">
        <ele>-1.3</ele>
        <time>2016-08-26T15:10:42Z</time>
      </trkpt>
      <trkpt lat="47.5243" lon="-2.9325">
        <ele>-2.27</ele>
        <time>2016-08-26T15:11:08Z</time>
      </trkpt>
      <trkpt lat="47.52407" lon="-2.93282">
        <ele>-2.75</ele>
        <time>2016-08-26T15:11:37Z</time>
      </trkpt>
      <trkpt lat="47.52386" lon="-2.93309">
        <ele>-2.27</ele>
        <time>2016-08-26T15:12:02Z</time>
      </trkpt>
      <trkpt lat="47.52375" lon="-2.93326">
        <ele>-1.79</ele>
        <time>2016-08-26T15:12:19Z</time>
      </trkpt>
      <trkpt lat="47.52361" lon="-2.93345">
        <ele>-1.3</ele>
        <time>2016-08-26T15:12:37Z</time>
      </trkpt>
      <trkpt lat="47.52345" lon="-2.93368">
        <ele>-1.3</ele>
        <time>2016-08-26T15:13:00Z</time>
      </trkpt>
      <trkpt lat="47.52331" lon="-2.93392">
        <ele>-1.79</ele>
        <time>2016-08-26T15:13:21Z</time>
      </trkpt>
      <trkpt lat="47.52317" lon="-2.93419">
        <ele>-1.79</ele>
        <time>2016-08-26T15:13:43Z</time>
      </trkpt>
      <trkpt lat="47.52301" lon="-2.93447">
        <ele>-1.79</ele>
        <time>2016-08-26T15:14:06Z</time>
      </trkpt>
      <trkpt lat="47.52286" lon="-2.93474">
        <ele>-1.79</ele>
        <time>2016-08-26T15:14:28Z</time>
      </trkpt>
      <trkpt lat="47.52272" lon="-2.93497">
        <ele>-4.67</ele>
        <time>2016-08-26T15:14:48Z</time>
      </trkpt>
      <trkpt lat="47.52252" lon="-2.93526">
        <ele>-6.11</ele>
        <time>2016-08-26T15:15:18Z</time>
      </trkpt>
      <trkpt lat="47.52241" lon="-2.93545">
        <ele>-3.71</ele>
        <time>2016-08-26T15:15:41Z</time>
      </trkpt>
      <trkpt lat="47.5223" lon="-2.93567">
        <ele>-3.23</ele>
        <time>2016-08-26T15:16:04Z</time>
      </trkpt>
      <trkpt lat="47.52219" lon="-2.93584">
        <ele>-3.23</ele>
        <time>2016-08-26T15:16:23Z</time>
      </trkpt>
      <trkpt lat="47.52205" lon="-2.93602">
        <ele>-3.23</ele>
        <time>2016-08-26T15:16:44Z</time>
      </trkpt>
      <trkpt lat="47.5219" lon="-2.93623">
        <ele>-1.79</ele>
        <time>2016-08-26T15:17:09Z</time>
      </trkpt>
      <trkpt lat="47.52181" lon="-2.9364">
        <ele>-3.23</ele>
        <time>2016-08-26T15:17:27Z</time>
      </trkpt>
      <trkpt lat="47.52176" lon="-2.93653">
        <ele>-2.27</ele>
        <time>2016-08-26T15:17:41Z</time>
      </trkpt>
      <trkpt lat="47.52172" lon="-2.93671">
        <ele>-1.3</ele>
        <time>2016-08-26T15:17:57Z</time>
      </trkpt>
      <trkpt lat="47.52166" lon="-2.93683">
        <ele>-0.82</ele>
        <time>2016-08-26T15:18:09Z</time>
      </trkpt>
      <trkpt lat="47.5216" lon="-2.93689">
        <ele>-1.79</ele>
        <time>2016-08-26T15:18:17Z</time>
      </trkpt>
      <trkpt lat="47.52152" lon="-2.93705">
        <ele>-2.75</ele>
        <time>2016-08-26T15:18:31Z</time>
      </trkpt>
      <trkpt lat="47.52142" lon="-2.93722">
        <ele>-2.75</ele>
        <time>2016-08-26T15:18:47Z</time>
      </trkpt>
      <trkpt lat="47.52128" lon="-2.93744">
        <ele>-1.3</ele>
        <time>2016-08-26T15:19:06Z</time>
      </trkpt>
      <trkpt lat="47.52126" lon="-2.93747">
        <ele>-1.3</ele>
        <time>2016-08-26T15:19:09Z</time>
      </trkpt>
      <trkpt lat="47.52113" lon="-2.93765">
        <ele>-0.34</ele>
        <time>2016-08-26T15:19:26Z</time>
      </trkpt>
      <trkpt lat="47.52094" lon="-2.93791">
        <ele>-0.34</ele>
        <time>2016-08-26T15:19:50Z</time>
      </trkpt>
      <trkpt lat="47.52077" lon="-2.93813">
        <ele>-0.34</ele>
        <time>2016-08-26T15:20:12Z</time>
      </trkpt>
      <trkpt lat="47.52062" lon="-2.93833">
        <ele>-0.34</ele>
        <time>2016-08-26T15:20:32Z</time>
      </trkpt>
      <trkpt lat="47.52043" lon="-2.93853">
        <ele>-1.3</ele>
        <time>2016-08-26T15:20:56Z</time>
      </trkpt>
      <trkpt lat="47.52028" lon="-2.93865">
        <ele>-0.34</ele>
        <time>2016-08-26T15:21:15Z</time>
      </trkpt>
      <trkpt lat="47.52015" lon="-2.9388">
        <ele>-0.82</ele>
        <time>2016-08-26T15:21:38Z</time>
      </trkpt>
      <trkpt lat="47.52004" lon="-2.93893">
        <ele>-0.82</ele>
        <time>2016-08-26T15:22:01Z</time>
      </trkpt>
      <trkpt lat="47.51994" lon="-2.93908">
        <ele>0.14</ele>
        <time>2016-08-26T15:22:28Z</time>
      </trkpt>
      <trkpt lat="47.51985" lon="-2.9392">
        <ele>-0.82</ele>
        <time>2016-08-26T15:22:52Z</time>
      </trkpt>
      <trkpt lat="47.51977" lon="-2.93931">
        <ele>-0.82</ele>
        <time>2016-08-26T15:23:16Z</time>
      </trkpt>
      <trkpt lat="47.51971" lon="-2.93938">
        <ele>-0.82</ele>
        <time>2016-08-26T15:23:33Z</time>
      </trkpt>
      <trkpt lat="47.51963" lon="-2.93947">
        <ele>-1.3</ele>
        <time>2016-08-26T15:23:56Z</time>
      </trkpt>
      <trkpt lat="47.51957" lon="-2.9395">
        <ele>-1.3</ele>
        <time>2016-08-26T15:24:13Z</time>
      </trkpt>
      <trkpt lat="47.51952" lon="-2.93954">
        <ele>-0.82</ele>
        <time>2016-08-26T15:24:28Z</time>
      </trkpt>
      <trkpt lat="47.51948" lon="-2.93957">
        <ele>-0.82</ele>
        <time>2016-08-26T15:24:42Z</time>
      </trkpt>
      <trkpt lat="47.51942" lon="-2.93961">
        <ele>-1.3</ele>
        <time>2016-08-26T15:24:54Z</time>
      </trkpt>
      <trkpt lat="47.51931" lon="-2.93966">
        <ele>-0.82</ele>
        <time>2016-08-26T15:25:12Z</time>
      </trkpt>
      <trkpt lat="47.51922" lon="-2.93974">
        <ele>-0.34</ele>
        <time>2016-08-26T15:25:31Z</time>
      </trkpt>
      <trkpt lat="47.51913" lon="-2.93985">
        <ele>-0.34</ele>
        <time>2016-08-26T15:25:49Z</time>
      </trkpt>
      <trkpt lat="47.51904" lon="-2.93995">
        <ele>0.14</ele>
        <time>2016-08-26T15:26:06Z</time>
      </trkpt>
      <trkpt lat="47.51896" lon="-2.94006">
        <ele>-0.34</ele>
        <time>2016-08-26T15:26:24Z</time>
      </trkpt>
      <trkpt lat="47.51889" lon="-2.94014">
        <ele>-0.34</ele>
        <time>2016-08-26T15:26:40Z</time>
      </trkpt>
      <trkpt lat="47.51882" lon="-2.9402">
        <ele>-0.34</ele>
        <time>2016-08-26T15:26:56Z</time>
      </trkpt>
      <trkpt lat="47.51879" lon="-2.94022">
        <ele>-0.82</ele>
        <time>2016-08-26T15:27:00Z</time>
      </trkpt>
      <trkpt lat="47.51878" lon="-2.94024">
        <ele>-0.82</ele>
        <time>2016-08-26T15:27:02Z</time>
      </trkpt>
      <trkpt lat="47.51871" lon="-2.94031">
        <ele>-1.79</ele>
        <time>2016-08-26T15:27:15Z</time>
      </trkpt>
      <trkpt lat="47.51865" lon="-2.94038">
        <ele>-1.3</ele>
        <time>2016-08-26T15:27:29Z</time>
      </trkpt>
      <trkpt lat="47.51859" lon="-2.94052">
        <ele>-0.34</ele>
        <time>2016-08-26T15:27:47Z</time>
      </trkpt>
      <trkpt lat="47.51855" lon="-2.94063">
        <ele>-0.34</ele>
        <time>2016-08-26T15:27:59Z</time>
      </trkpt>
      <trkpt lat="47.51854" lon="-2.94084">
        <ele>-0.34</ele>
        <time>2016-08-26T15:28:20Z</time>
      </trkpt>
      <trkpt lat="47.51854" lon="-2.94094">
        <ele>-0.34</ele>
        <time>2016-08-26T15:28:29Z</time>
      </trkpt>
      <trkpt lat="47.51855" lon="-2.941">
        <ele>-0.34</ele>
        <time>2016-08-26T15:28:33Z</time>
      </trkpt>
      <trkpt lat="47.51858" lon="-2.94114">
        <ele>0.14</ele>
        <time>2016-08-26T15:28:44Z</time>
      </trkpt>
      <trkpt lat="47.51861" lon="-2.94135">
        <ele>-0.34</ele>
        <time>2016-08-26T15:28:57Z</time>
      </trkpt>
      <trkpt lat="47.51862" lon="-2.94141">
        <ele>0.14</ele>
        <time>2016-08-26T15:29:01Z</time>
      </trkpt>
      <trkpt lat="47.51863" lon="-2.94171">
        <ele>1.58</ele>
        <time>2016-08-26T15:29:17Z</time>
      </trkpt>
      <trkpt lat="47.51865" lon="-2.94205">
        <ele>0.62</ele>
        <time>2016-08-26T15:29:34Z</time>
      </trkpt>
      <trkpt lat="47.51866" lon="-2.94238">
        <ele>2.06</ele>
        <time>2016-08-26T15:29:50Z</time>
      </trkpt>
      <trkpt lat="47.51866" lon="-2.94274">
        <ele>1.1</ele>
        <time>2016-08-26T15:30:06Z</time>
      </trkpt>
      <trkpt lat="47.51862" lon="-2.94312">
        <ele>0.62</ele>
        <time>2016-08-26T15:30:24Z</time>
      </trkpt>
      <trkpt lat="47.51861" lon="-2.94342">
        <ele>0.14</ele>
        <time>2016-08-26T15:30:38Z</time>
      </trkpt>
      <trkpt lat="47.51861" lon="-2.9435">
        <ele>0.14</ele>
        <time>2016-08-26T15:30:42Z</time>
      </trkpt>
      <trkpt lat="47.51861" lon="-2.94359">
        <ele>0.14</ele>
        <time>2016-08-26T15:30:46Z</time>
      </trkpt>
      <trkpt lat="47.51862" lon="-2.94386">
        <ele>2.06</ele>
        <time>2016-08-26T15:30:59Z</time>
      </trkpt>
      <trkpt lat="47.51865" lon="-2.94411">
        <ele>0.14</ele>
        <time>2016-08-26T15:31:10Z</time>
      </trkpt>
      <trkpt lat="47.51872" lon="-2.94442">
        <ele>-0.82</ele>
        <time>2016-08-26T15:31:27Z</time>
      </trkpt>
      <trkpt lat="47.51874" lon="-2.94463">
        <ele>-0.34</ele>
        <time>2016-08-26T15:31:37Z</time>
      </trkpt>
      <trkpt lat="47.51877" lon="-2.94471">
        <ele>1.58</ele>
        <time>2016-08-26T15:31:42Z</time>
      </trkpt>
      <trkpt lat="47.5188" lon="-2.94507">
        <ele>2.54</ele>
        <time>2016-08-26T15:31:59Z</time>
      </trkpt>
      <trkpt lat="47.51892" lon="-2.94556">
        <ele>1.1</ele>
        <time>2016-08-26T15:32:22Z</time>
      </trkpt>
      <trkpt lat="47.51903" lon="-2.94604">
        <ele>0.62</ele>
        <time>2016-08-26T15:32:46Z</time>
      </trkpt>
      <trkpt lat="47.51913" lon="-2.9465">
        <ele>0.62</ele>
        <time>2016-08-26T15:33:08Z</time>
      </trkpt>
      <trkpt lat="47.51924" lon="-2.94691">
        <ele>0.14</ele>
        <time>2016-08-26T15:33:29Z</time>
      </trkpt>
      <trkpt lat="47.51931" lon="-2.94719">
        <ele>0.14</ele>
        <time>2016-08-26T15:33:45Z</time>
      </trkpt>
      <trkpt lat="47.51935" lon="-2.94742">
        <ele>0.14</ele>
        <time>2016-08-26T15:34:03Z</time>
      </trkpt>
      <trkpt lat="47.51937" lon="-2.9476">
        <ele>0.14</ele>
        <time>2016-08-26T15:34:23Z</time>
      </trkpt>
      <trkpt lat="47.51936" lon="-2.94776">
        <ele>0.14</ele>
        <time>2016-08-26T15:34:42Z</time>
      </trkpt>
      <trkpt lat="47.51937" lon="-2.94791">
        <ele>0.62</ele>
        <time>2016-08-26T15:34:59Z</time>
      </trkpt>
      <trkpt lat="47.51938" lon="-2.94809">
        <ele>0.14</ele>
        <time>2016-08-26T15:35:20Z</time>
      </trkpt>
      <trkpt lat="47.51939" lon="-2.94826">
        <ele>0.62</ele>
        <time>2016-08-26T15:35:41Z</time>
      </trkpt>
      <trkpt lat="47.5194" lon="-2.94844">
        <ele>1.1</ele>
        <time>2016-08-26T15:36:02Z</time>
      </trkpt>
      <trkpt lat="47.51941" lon="-2.94856">
        <ele>1.1</ele>
        <time>2016-08-26T15:36:17Z</time>
      </trkpt>
      <trkpt lat="47.51944" lon="-2.94873">
        <ele>-0.34</ele>
        <time>2016-08-26T15:36:32Z</time>
      </trkpt>
      <trkpt lat="47.51958" lon="-2.94916">
        <ele>-0.82</ele>
        <time>2016-08-26T15:36:49Z</time>
      </trkpt>
      <trkpt lat="47.51969" lon="-2.94959">
        <ele>-0.82</ele>
        <time>2016-08-26T15:37:05Z</time>
      </trkpt>
      <trkpt lat="47.51983" lon="-2.95014">
        <ele>-0.82</ele>
        <time>2016-08-26T15:37:25Z</time>
      </trkpt>
      <trkpt lat="47.52001" lon="-2.95071">
        <ele>-0.82</ele>
        <time>2016-08-26T15:37:44Z</time>
      </trkpt>
      <trkpt lat="47.52019" lon="-2.95134">
        <ele>-0.82</ele>
        <time>2016-08-26T15:38:04Z</time>
      </trkpt>
      <trkpt lat="47.52032" lon="-2.9519">
        <ele>0.62</ele>
        <time>2016-08-26T15:38:21Z</time>
      </trkpt>
      <trkpt lat="47.52047" lon="-2.95261">
        <ele>0.62</ele>
        <time>2016-08-26T15:38:43Z</time>
      </trkpt>
      <trkpt lat="47.52067" lon="-2.95334">
        <ele>-0.82</ele>
        <time>2016-08-26T15:39:07Z</time>
      </trkpt>
      <trkpt lat="47.52085" lon="-2.95401">
        <ele>-0.82</ele>
        <time>2016-08-26T15:39:30Z</time>
      </trkpt>
      <trkpt lat="47.52099" lon="-2.95464">
        <ele>-0.34</ele>
        <time>2016-08-26T15:39:52Z</time>
      </trkpt>
      <trkpt lat="47.52109" lon="-2.95518">
        <ele>0.14</ele>
        <time>2016-08-26T15:40:12Z</time>
      </trkpt>
      <trkpt lat="47.52125" lon="-2.95579">
        <ele>1.1</ele>
        <time>2016-08-26T15:40:37Z</time>
      </trkpt>
      <trkpt lat="47.52146" lon="-2.95652">
        <ele>-0.34</ele>
        <time>2016-08-26T15:41:07Z</time>
      </trkpt>
      <trkpt lat="47.52168" lon="-2.95725">
        <ele>-0.34</ele>
        <time>2016-08-26T15:41:38Z</time>
      </trkpt>
      <trkpt lat="47.52183" lon="-2.95784">
        <ele>-0.82</ele>
        <time>2016-08-26T15:42:02Z</time>
      </trkpt>
      <trkpt lat="47.52189" lon="-2.95819">
        <ele>-0.82</ele>
        <time>2016-08-26T15:42:16Z</time>
      </trkpt>
      <trkpt lat="47.52198" lon="-2.95865">
        <ele>-1.3</ele>
        <time>2016-08-26T15:42:34Z</time>
      </trkpt>
      <trkpt lat="47.52208" lon="-2.9591">
        <ele>-2.27</ele>
        <time>2016-08-26T15:42:52Z</time>
      </trkpt>
      <trkpt lat="47.5223" lon="-2.95954">
        <ele>-1.79</ele>
        <time>2016-08-26T15:43:09Z</time>
      </trkpt>
      <trkpt lat="47.52264" lon="-2.96002">
        <ele>-1.79</ele>
        <time>2016-08-26T15:43:29Z</time>
      </trkpt>
      <trkpt lat="47.52285" lon="-2.9602">
        <ele>-0.82</ele>
        <time>2016-08-26T15:43:38Z</time>
      </trkpt>
      <trkpt lat="47.52328" lon="-2.96061">
        <ele>0.62</ele>
        <time>2016-08-26T15:43:57Z</time>
      </trkpt>
      <trkpt lat="47.52356" lon="-2.96105">
        <ele>1.1</ele>
        <time>2016-08-26T15:44:12Z</time>
      </trkpt>
      <trkpt lat="47.52403" lon="-2.96184">
        <ele>0.62</ele>
        <time>2016-08-26T15:44:38Z</time>
      </trkpt>
      <trkpt lat="47.52453" lon="-2.96269">
        <ele>-1.79</ele>
        <time>2016-08-26T15:45:05Z</time>
      </trkpt>
      <trkpt lat="47.525" lon="-2.96366">
        <ele>-3.23</ele>
        <time>2016-08-26T15:45:35Z</time>
      </trkpt>
      <trkpt lat="47.5254" lon="-2.96463">
        <ele>-2.27</ele>
        <time>2016-08-26T15:46:04Z</time>
      </trkpt>
      <trkpt lat="47.5258" lon="-2.96575">
        <ele>-3.23</ele>
        <time>2016-08-26T15:46:38Z</time>
      </trkpt>
      <trkpt lat="47.52616" lon="-2.96666">
        <ele>-4.19</ele>
        <time>2016-08-26T15:47:06Z</time>
      </trkpt>
      <trkpt lat="47.52671" lon="-2.96747">
        <ele>-1.79</ele>
        <time>2016-08-26T15:47:34Z</time>
      </trkpt>
      <trkpt lat="47.52727" lon="-2.968">
        <ele>0.14</ele>
        <time>2016-08-26T15:48:00Z</time>
      </trkpt>
      <trkpt lat="47.52764" lon="-2.96842">
        <ele>-0.82</ele>
        <time>2016-08-26T15:48:19Z</time>
      </trkpt>
      <trkpt lat="47.52797" lon="-2.96883">
        <ele>-0.34</ele>
        <time>2016-08-26T15:48:36Z</time>
      </trkpt>
      <trkpt lat="47.52835" lon="-2.96926">
        <ele>0.14</ele>
        <time>2016-08-26T15:48:55Z</time>
      </trkpt>
      <trkpt lat="47.52881" lon="-2.9699">
        <ele>-3.71</ele>
        <time>2016-08-26T15:49:19Z</time>
      </trkpt>
      <trkpt lat="47.52929" lon="-2.97066">
        <ele>-5.63</ele>
        <time>2016-08-26T15:49:50Z</time>
      </trkpt>
      <trkpt lat="47.52978" lon="-2.9714">
        <ele>-5.63</ele>
        <time>2016-08-26T15:50:20Z</time>
      </trkpt>
      <trkpt lat="47.52999" lon="-2.97177">
        <ele>-2.27</ele>
        <time>2016-08-26T15:50:35Z</time>
      </trkpt>
      <trkpt lat="47.5303" lon="-2.97226">
        <ele>-0.82</ele>
        <time>2016-08-26T15:50:54Z</time>
      </trkpt>
      <trkpt lat="47.53063" lon="-2.9728">
        <ele>0.62</ele>
        <time>2016-08-26T15:51:15Z</time>
      </trkpt>
      <trkpt lat="47.53089" lon="-2.97331">
        <ele>1.1</ele>
        <time>2016-08-26T15:51:35Z</time>
      </trkpt>
      <trkpt lat="47.53117" lon="-2.97373">
        <ele>2.06</ele>
        <time>2016-08-26T15:51:53Z</time>
      </trkpt>
      <trkpt lat="47.53148" lon="-2.97418">
        <ele>1.1</ele>
        <time>2016-08-26T15:52:12Z</time>
      </trkpt>
      <trkpt lat="47.53195" lon="-2.97483">
        <ele>1.1</ele>
        <time>2016-08-26T15:52:39Z</time>
      </trkpt>
      <trkpt lat="47.53231" lon="-2.97529">
        <ele>0.62</ele>
        <time>2016-08-26T15:52:59Z</time>
      </trkpt>
      <trkpt lat="47.53265" lon="-2.97574">
        <ele>1.58</ele>
        <time>2016-08-26T15:53:18Z</time>
      </trkpt>
      <trkpt lat="47.53297" lon="-2.97619">
        <ele>1.1</ele>
        <time>2016-08-26T15:53:37Z</time>
      </trkpt>
      <trkpt lat="47.53342" lon="-2.97672">
        <ele>0.62</ele>
        <time>2016-08-26T15:54:02Z</time>
      </trkpt>
      <trkpt lat="47.5338" lon="-2.9771">
        <ele>-0.34</ele>
        <time>2016-08-26T15:54:22Z</time>
      </trkpt>
      <trkpt lat="47.5342" lon="-2.97748">
        <ele>0.14</ele>
        <time>2016-08-26T15:54:42Z</time>
      </trkpt>
      <trkpt lat="47.53458" lon="-2.97801">
        <ele>0.62</ele>
        <time>2016-08-26T15:55:04Z</time>
      </trkpt>
      <trkpt lat="47.53492" lon="-2.97856">
        <ele>0.14</ele>
        <time>2016-08-26T15:55:26Z</time>
      </trkpt>
      <trkpt lat="47.53522" lon="-2.97912">
        <ele>1.58</ele>
        <time>2016-08-26T15:55:48Z</time>
      </trkpt>
      <trkpt lat="47.53529" lon="-2.97923">
        <ele>1.1</ele>
        <time>2016-08-26T15:55:53Z</time>
      </trkpt>
      <trkpt lat="47.53557" lon="-2.97958">
        <ele>1.1</ele>
        <time>2016-08-26T15:56:09Z</time>
      </trkpt>
      <trkpt lat="47.5359" lon="-2.98006">
        <ele>1.58</ele>
        <time>2016-08-26T15:56:29Z</time>
      </trkpt>
      <trkpt lat="47.53623" lon="-2.98059">
        <ele>2.06</ele>
        <time>2016-08-26T15:56:51Z</time>
      </trkpt>
      <trkpt lat="47.53643" lon="-2.98092">
        <ele>0.62</ele>
        <time>2016-08-26T15:57:05Z</time>
      </trkpt>
      <trkpt lat="47.53674" lon="-2.98146">
        <ele>1.1</ele>
        <time>2016-08-26T15:57:28Z</time>
      </trkpt>
      <trkpt lat="47.53701" lon="-2.98197">
        <ele>0.62</ele>
        <time>2016-08-26T15:57:50Z</time>
      </trkpt>
      <trkpt lat="47.5373" lon="-2.98245">
        <ele>1.1</ele>
        <time>2016-08-26T15:58:11Z</time>
      </trkpt>
      <trkpt lat="47.53759" lon="-2.98285">
        <ele>0.62</ele>
        <time>2016-08-26T15:58:30Z</time>
      </trkpt>
      <trkpt lat="47.53786" lon="-2.98333">
        <ele>0.62</ele>
        <time>2016-08-26T15:58:50Z</time>
      </trkpt>
      <trkpt lat="47.53814" lon="-2.98391">
        <ele>1.1</ele>
        <time>2016-08-26T15:59:13Z</time>
      </trkpt>
      <trkpt lat="47.53832" lon="-2.98425">
        <ele>1.1</ele>
        <time>2016-08-26T15:59:27Z</time>
      </trkpt>
      <trkpt lat="47.53861" lon="-2.98483">
        <ele>2.06</ele>
        <time>2016-08-26T15:59:50Z</time>
      </trkpt>
      <trkpt lat="47.53893" lon="-2.98535">
        <ele>2.06</ele>
        <time>2016-08-26T16:00:13Z</time>
      </trkpt>
      <trkpt lat="47.53922" lon="-2.98578">
        <ele>1.1</ele>
        <time>2016-08-26T16:00:33Z</time>
      </trkpt>
      <trkpt lat="47.53949" lon="-2.98623">
        <ele>0.62</ele>
        <time>2016-08-26T16:00:55Z</time>
      </trkpt>
      <trkpt lat="47.53978" lon="-2.98668">
        <ele>1.1</ele>
        <time>2016-08-26T16:01:18Z</time>
      </trkpt>
      <trkpt lat="47.54011" lon="-2.98718">
        <ele>1.1</ele>
        <time>2016-08-26T16:01:41Z</time>
      </trkpt>
      <trkpt lat="47.54042" lon="-2.98761">
        <ele>1.58</ele>
        <time>2016-08-26T16:02:01Z</time>
      </trkpt>
      <trkpt lat="47.54078" lon="-2.98805">
        <ele>1.1</ele>
        <time>2016-08-26T16:02:22Z</time>
      </trkpt>
      <trkpt lat="47.54104" lon="-2.98844">
        <ele>0.62</ele>
        <time>2016-08-26T16:02:40Z</time>
      </trkpt>
      <trkpt lat="47.54131" lon="-2.98884">
        <ele>0.62</ele>
        <time>2016-08-26T16:03:00Z</time>
      </trkpt>
      <trkpt lat="47.54157" lon="-2.98921">
        <ele>1.1</ele>
        <time>2016-08-26T16:03:19Z</time>
      </trkpt>
      <trkpt lat="47.54188" lon="-2.98963">
        <ele>1.1</ele>
        <time>2016-08-26T16:03:41Z</time>
      </trkpt>
      <trkpt lat="47.54223" lon="-2.99">
        <ele>0.14</ele>
        <time>2016-08-26T16:04:03Z</time>
      </trkpt>
      <trkpt lat="47.54256" lon="-2.99032">
        <ele>0.62</ele>
        <time>2016-08-26T16:04:22Z</time>
      </trkpt>
      <trkpt lat="47.54286" lon="-2.99072">
        <ele>0.14</ele>
        <time>2016-08-26T16:04:41Z</time>
      </trkpt>
      <trkpt lat="47.54316" lon="-2.99111">
        <ele>-0.34</ele>
        <time>2016-08-26T16:05:01Z</time>
      </trkpt>
      <trkpt lat="47.54347" lon="-2.99153">
        <ele>-0.82</ele>
        <time>2016-08-26T16:05:22Z</time>
      </trkpt>
      <trkpt lat="47.54371" lon="-2.99186">
        <ele>-0.82</ele>
        <time>2016-08-26T16:05:39Z</time>
      </trkpt>
      <trkpt lat="47.54397" lon="-2.99225">
        <ele>-0.82</ele>
        <time>2016-08-26T16:05:58Z</time>
      </trkpt>
      <trkpt lat="47.54426" lon="-2.99271">
        <ele>-0.34</ele>
        <time>2016-08-26T16:06:20Z</time>
      </trkpt>
      <trkpt lat="47.54452" lon="-2.99311">
        <ele>0.14</ele>
        <time>2016-08-26T16:06:40Z</time>
      </trkpt>
      <trkpt lat="47.54476" lon="-2.99347">
        <ele>-0.34</ele>
        <time>2016-08-26T16:06:58Z</time>
      </trkpt>
      <trkpt lat="47.54504" lon="-2.99388">
        <ele>-0.82</ele>
        <time>2016-08-26T16:07:18Z</time>
      </trkpt>
      <trkpt lat="47.54541" lon="-2.99428">
        <ele>0.14</ele>
        <time>2016-08-26T16:07:40Z</time>
      </trkpt>
      <trkpt lat="47.54577" lon="-2.9947">
        <ele>-0.34</ele>
        <time>2016-08-26T16:08:01Z</time>
      </trkpt>
      <trkpt lat="47.54613" lon="-2.99508">
        <ele>-0.34</ele>
        <time>2016-08-26T16:08:22Z</time>
      </trkpt>
      <trkpt lat="47.54651" lon="-2.99541">
        <ele>0.14</ele>
        <time>2016-08-26T16:08:42Z</time>
      </trkpt>
      <trkpt lat="47.54687" lon="-2.99577">
        <ele>-0.34</ele>
        <time>2016-08-26T16:09:03Z</time>
      </trkpt>
      <trkpt lat="47.54715" lon="-2.9961">
        <ele>-0.34</ele>
        <time>2016-08-26T16:09:22Z</time>
      </trkpt>
      <trkpt lat="47.54751" lon="-2.99644">
        <ele>0.62</ele>
        <time>2016-08-26T16:09:44Z</time>
      </trkpt>
      <trkpt lat="47.54785" lon="-2.99677">
        <ele>-0.34</ele>
        <time>2016-08-26T16:10:05Z</time>
      </trkpt>
      <trkpt lat="47.54827" lon="-2.99712">
        <ele>-0.82</ele>
        <time>2016-08-26T16:10:26Z</time>
      </trkpt>
      <trkpt lat="47.54866" lon="-2.99744">
        <ele>0.14</ele>
        <time>2016-08-26T16:10:45Z</time>
      </trkpt>
      <trkpt lat="47.54892" lon="-2.99763">
        <ele>0.62</ele>
        <time>2016-08-26T16:10:57Z</time>
      </trkpt>
      <trkpt lat="47.54931" lon="-2.99799">
        <ele>-0.34</ele>
        <time>2016-08-26T16:11:19Z</time>
      </trkpt>
      <trkpt lat="47.54957" lon="-2.99823">
        <ele>-0.34</ele>
        <time>2016-08-26T16:11:36Z</time>
      </trkpt>
      <trkpt lat="47.54983" lon="-2.99848">
        <ele>-0.34</ele>
        <time>2016-08-26T16:11:53Z</time>
      </trkpt>
      <trkpt lat="47.55007" lon="-2.99869">
        <ele>0.14</ele>
        <time>2016-08-26T16:12:07Z</time>
      </trkpt>
      <trkpt lat="47.55014" lon="-2.99875">
        <ele>-0.34</ele>
        <time>2016-08-26T16:12:11Z</time>
      </trkpt>
      <trkpt lat="47.5505" lon="-2.999">
        <ele>-0.34</ele>
        <time>2016-08-26T16:12:29Z</time>
      </trkpt>
      <trkpt lat="47.55097" lon="-2.9993">
        <ele>0.14</ele>
        <time>2016-08-26T16:12:52Z</time>
      </trkpt>
      <trkpt lat="47.55149" lon="-2.99964">
        <ele>-0.34</ele>
        <time>2016-08-26T16:13:16Z</time>
      </trkpt>
      <trkpt lat="47.55199" lon="-3.00001">
        <ele>-1.3</ele>
        <time>2016-08-26T16:13:40Z</time>
      </trkpt>
      <trkpt lat="47.55237" lon="-3.00027">
        <ele>-0.82</ele>
        <time>2016-08-26T16:13:59Z</time>
      </trkpt>
      <trkpt lat="47.55283" lon="-3.00057">
        <ele>0.14</ele>
        <time>2016-08-26T16:14:21Z</time>
      </trkpt>
      <trkpt lat="47.55333" lon="-3.00093">
        <ele>0.62</ele>
        <time>2016-08-26T16:14:45Z</time>
      </trkpt>
      <trkpt lat="47.55368" lon="-3.00124">
        <ele>0.62</ele>
        <time>2016-08-26T16:15:04Z</time>
      </trkpt>
      <trkpt lat="47.55413" lon="-3.0016">
        <ele>1.1</ele>
        <time>2016-08-26T16:15:28Z</time>
      </trkpt>
      <trkpt lat="47.55457" lon="-3.00189">
        <ele>1.58</ele>
        <time>2016-08-26T16:15:49Z</time>
      </trkpt>
      <trkpt lat="47.55505" lon="-3.00221">
        <ele>0.14</ele>
        <time>2016-08-26T16:16:12Z</time>
      </trkpt>
      <trkpt lat="47.55552" lon="-3.00252">
        <ele>-0.82</ele>
        <time>2016-08-26T16:16:34Z</time>
      </trkpt>
      <trkpt lat="47.55609" lon="-3.00289">
        <ele>-0.34</ele>
        <time>2016-08-26T16:17:00Z</time>
      </trkpt>
      <trkpt lat="47.55655" lon="-3.00321">
        <ele>0.14</ele>
        <time>2016-08-26T16:17:23Z</time>
      </trkpt>
      <trkpt lat="47.55691" lon="-3.00347">
        <ele>0.14</ele>
        <time>2016-08-26T16:17:43Z</time>
      </trkpt>
      <trkpt lat="47.55725" lon="-3.00373">
        <ele>-0.82</ele>
        <time>2016-08-26T16:18:05Z</time>
      </trkpt>
      <trkpt lat="47.55755" lon="-3.004">
        <ele>-0.82</ele>
        <time>2016-08-26T16:18:26Z</time>
      </trkpt>
      <trkpt lat="47.55794" lon="-3.00423">
        <ele>-0.34</ele>
        <time>2016-08-26T16:18:48Z</time>
      </trkpt>
      <trkpt lat="47.55836" lon="-3.00447">
        <ele>-0.82</ele>
        <time>2016-08-26T16:19:11Z</time>
      </trkpt>
      <trkpt lat="47.55877" lon="-3.00463">
        <ele>-0.34</ele>
        <time>2016-08-26T16:19:34Z</time>
      </trkpt>
      <trkpt lat="47.55909" lon="-3.00476">
        <ele>-0.34</ele>
        <time>2016-08-26T16:19:54Z</time>
      </trkpt>
      <trkpt lat="47.55944" lon="-3.00487">
        <ele>-0.34</ele>
        <time>2016-08-26T16:20:18Z</time>
      </trkpt>
      <trkpt lat="47.55964" lon="-3.00496">
        <ele>-1.79</ele>
        <time>2016-08-26T16:20:33Z</time>
      </trkpt>
      <trkpt lat="47.5601" lon="-3.00513">
        <ele>-5.63</ele>
        <time>2016-08-26T16:21:03Z</time>
      </trkpt>
      <trkpt lat="47.56056" lon="-3.0053">
        <ele>-4.67</ele>
        <time>2016-08-26T16:21:30Z</time>
      </trkpt>
      <trkpt lat="47.5609" lon="-3.00553">
        <ele>-0.34</ele>
        <time>2016-08-26T16:21:55Z</time>
      </trkpt>
      <trkpt lat="47.56124" lon="-3.00569">
        <ele>-0.34</ele>
        <time>2016-08-26T16:22:15Z</time>
      </trkpt>
      <trkpt lat="47.56166" lon="-3.00592">
        <ele>0.14</ele>
        <time>2016-08-26T16:22:43Z</time>
      </trkpt>
      <trkpt lat="47.56207" lon="-3.00608">
        <ele>0.62</ele>
        <time>2016-08-26T16:23:07Z</time>
      </trkpt>
      <trkpt lat="47.56246" lon="-3.00625">
        <ele>0.14</ele>
        <time>2016-08-26T16:23:31Z</time>
      </trkpt>
      <trkpt lat="47.56279" lon="-3.0064">
        <ele>0.62</ele>
        <time>2016-08-26T16:23:49Z</time>
      </trkpt>
      <trkpt lat="47.56321" lon="-3.00652">
        <ele>-0.82</ele>
        <time>2016-08-26T16:24:11Z</time>
      </trkpt>
      <trkpt lat="47.56358" lon="-3.00673">
        <ele>0.14</ele>
        <time>2016-08-26T16:24:33Z</time>
      </trkpt>
      <trkpt lat="47.56386" lon="-3.00669">
        <ele>1.1</ele>
        <time>2016-08-26T16:24:46Z</time>
      </trkpt>
      <trkpt lat="47.56411" lon="-3.00674">
        <ele>1.1</ele>
        <time>2016-08-26T16:25:01Z</time>
      </trkpt>
      <trkpt lat="47.56444" lon="-3.00688">
        <ele>1.1</ele>
        <time>2016-08-26T16:25:20Z</time>
      </trkpt>
      <trkpt lat="47.5647" lon="-3.00706">
        <ele>1.1</ele>
        <time>2016-08-26T16:25:38Z</time>
      </trkpt>
      <trkpt lat="47.56497" lon="-3.00736">
        <ele>2.06</ele>
        <time>2016-08-26T16:26:01Z</time>
      </trkpt>
      <trkpt lat="47.56532" lon="-3.00767">
        <ele>1.58</ele>
        <time>2016-08-26T16:26:25Z</time>
      </trkpt>
      <trkpt lat="47.56556" lon="-3.00787">
        <ele>1.1</ele>
        <time>2016-08-26T16:26:45Z</time>
      </trkpt>
      <trkpt lat="47.56569" lon="-3.00797">
        <ele>0.62</ele>
        <time>2016-08-26T16:26:58Z</time>
      </trkpt>
      <trkpt lat="47.56585" lon="-3.00822">
        <ele>0.62</ele>
        <time>2016-08-26T16:27:16Z</time>
      </trkpt>
      <trkpt lat="47.56615" lon="-3.0085">
        <ele>0.14</ele>
        <time>2016-08-26T16:27:37Z</time>
      </trkpt>
      <trkpt lat="47.56639" lon="-3.00874">
        <ele>0.62</ele>
        <time>2016-08-26T16:27:55Z</time>
      </trkpt>
      <trkpt lat="47.56666" lon="-3.00898">
        <ele>0.62</ele>
        <time>2016-08-26T16:28:13Z</time>
      </trkpt>
      <trkpt lat="47.56691" lon="-3.00917">
        <ele>0.14</ele>
        <time>2016-08-26T16:28:30Z</time>
      </trkpt>
      <trkpt lat="47.56719" lon="-3.00942">
        <ele>0.14</ele>
        <time>2016-08-26T16:28:52Z</time>
      </trkpt>
      <trkpt lat="47.56741" lon="-3.00959">
        <ele>-0.34</ele>
        <time>2016-08-26T16:29:12Z</time>
      </trkpt>
      <trkpt lat="47.56762" lon="-3.00978">
        <ele>0.62</ele>
        <time>2016-08-26T16:29:33Z</time>
      </trkpt>
      <trkpt lat="47.56788" lon="-3.00999">
        <ele>1.58</ele>
        <time>2016-08-26T16:29:54Z</time>
      </trkpt>
      <trkpt lat="47.56819" lon="-3.01022">
        <ele>-0.34</ele>
        <time>2016-08-26T16:30:20Z</time>
      </trkpt>
      <trkpt lat="47.5684" lon="-3.01045">
        <ele>0.14</ele>
        <time>2016-08-26T16:30:41Z</time>
      </trkpt>
      <trkpt lat="47.56866" lon="-3.01067">
        <ele>1.1</ele>
        <time>2016-08-26T16:31:03Z</time>
      </trkpt>
      <trkpt lat="47.56887" lon="-3.01086">
        <ele>0.62</ele>
        <time>2016-08-26T16:31:22Z</time>
      </trkpt>
      <trkpt lat="47.56907" lon="-3.01093">
        <ele>1.1</ele>
        <time>2016-08-26T16:31:42Z</time>
      </trkpt>
      <trkpt lat="47.56919" lon="-3.01112">
        <ele>0.62</ele>
        <time>2016-08-26T16:32:09Z</time>
      </trkpt>
      <trkpt lat="47.56927" lon="-3.01128">
        <ele>0.62</ele>
        <time>2016-08-26T16:32:29Z</time>
      </trkpt>
      <trkpt lat="47.56934" lon="-3.01142">
        <ele>1.1</ele>
        <time>2016-08-26T16:32:43Z</time>
      </trkpt>
      <trkpt lat="47.56953" lon="-3.01164">
        <ele>1.58</ele>
        <time>2016-08-26T16:33:06Z</time>
      </trkpt>
      <trkpt lat="47.56981" lon="-3.01186">
        <ele>1.1</ele>
        <time>2016-08-26T16:33:27Z</time>
      </trkpt>
      <trkpt lat="47.57022" lon="-3.01197">
        <ele>0.14</ele>
        <time>2016-08-26T16:33:49Z</time>
      </trkpt>
      <trkpt lat="47.57057" lon="-3.01207">
        <ele>-0.82</ele>
        <time>2016-08-26T16:34:14Z</time>
      </trkpt>
      <trkpt lat="47.57089" lon="-3.01228">
        <ele>0.62</ele>
        <time>2016-08-26T16:34:41Z</time>
      </trkpt>
      <trkpt lat="47.57128" lon="-3.01245">
        <ele>-0.34</ele>
        <time>2016-08-26T16:35:04Z</time>
      </trkpt>
      <trkpt lat="47.57164" lon="-3.01266">
        <ele>-0.34</ele>
        <time>2016-08-26T16:35:27Z</time>
      </trkpt>
      <trkpt lat="47.57195" lon="-3.01275">
        <ele>0.14</ele>
        <time>2016-08-26T16:35:45Z</time>
      </trkpt>
      <trkpt lat="47.57228" lon="-3.01278">
        <ele>0.62</ele>
        <time>2016-08-26T16:36:02Z</time>
      </trkpt>
      <trkpt lat="47.57253" lon="-3.01282">
        <ele>1.58</ele>
        <time>2016-08-26T16:36:17Z</time>
      </trkpt>
      <trkpt lat="47.57291" lon="-3.01287">
        <ele>1.58</ele>
        <time>2016-08-26T16:36:42Z</time>
      </trkpt>
      <trkpt lat="47.57312" lon="-3.01299">
        <ele>2.54</ele>
        <time>2016-08-26T16:37:02Z</time>
      </trkpt>
      <trkpt lat="47.57337" lon="-3.01324">
        <ele>1.58</ele>
        <time>2016-08-26T16:37:32Z</time>
      </trkpt>
      <trkpt lat="47.57358" lon="-3.01345">
        <ele>1.58</ele>
        <time>2016-08-26T16:37:56Z</time>
      </trkpt>
      <trkpt lat="47.5738" lon="-3.01363">
        <ele>1.58</ele>
        <time>2016-08-26T16:38:17Z</time>
      </trkpt>
      <trkpt lat="47.57396" lon="-3.01369">
        <ele>1.58</ele>
        <time>2016-08-26T16:38:37Z</time>
      </trkpt>
      <trkpt lat="47.57408" lon="-3.01377">
        <ele>0.62</ele>
        <time>2016-08-26T16:38:55Z</time>
      </trkpt>
      <trkpt lat="47.57416" lon="-3.01375">
        <ele>1.1</ele>
        <time>2016-08-26T16:39:11Z</time>
      </trkpt>
      <trkpt lat="47.57418" lon="-3.0137">
        <ele>1.1</ele>
        <time>2016-08-26T16:39:16Z</time>
      </trkpt>
      <trkpt lat="47.57422" lon="-3.01356">
        <ele>-0.34</ele>
        <time>2016-08-26T16:39:30Z</time>
      </trkpt>
      <trkpt lat="47.57424" lon="-3.01351">
        <ele>0.62</ele>
        <time>2016-08-26T16:39:42Z</time>
      </trkpt>
      <trkpt lat="47.57432" lon="-3.01347">
        <ele>0.62</ele>
        <time>2016-08-26T16:39:55Z</time>
      </trkpt>
      <trkpt lat="47.57441" lon="-3.01345">
        <ele>0.62</ele>
        <time>2016-08-26T16:40:05Z</time>
      </trkpt>
      <trkpt lat="47.5745" lon="-3.01341">
        <ele>0.14</ele>
        <time>2016-08-26T16:40:17Z</time>
      </trkpt>
      <trkpt lat="47.57459" lon="-3.01321">
        <ele>0.14</ele>
        <time>2016-08-26T16:40:33Z</time>
      </trkpt>
      <trkpt lat="47.5748" lon="-3.01288">
        <ele>0.14</ele>
        <time>2016-08-26T16:40:51Z</time>
      </trkpt>
      <trkpt lat="47.57494" lon="-3.01286">
        <ele>-0.34</ele>
        <time>2016-08-26T16:40:59Z</time>
      </trkpt>
      <trkpt lat="47.5753" lon="-3.013">
        <ele>1.1</ele>
        <time>2016-08-26T16:41:19Z</time>
      </trkpt>
      <trkpt lat="47.57564" lon="-3.01298">
        <ele>1.1</ele>
        <time>2016-08-26T16:41:40Z</time>
      </trkpt>
      <trkpt lat="47.57593" lon="-3.0131">
        <ele>1.1</ele>
        <time>2016-08-26T16:42:00Z</time>
      </trkpt>
      <trkpt lat="47.57626" lon="-3.01325">
        <ele>1.58</ele>
        <time>2016-08-26T16:42:20Z</time>
      </trkpt>
      <trkpt lat="47.5766" lon="-3.01343">
        <ele>1.1</ele>
        <time>2016-08-26T16:42:41Z</time>
      </trkpt>
      <trkpt lat="47.57708" lon="-3.01359">
        <ele>2.06</ele>
        <time>2016-08-26T16:43:07Z</time>
      </trkpt>
      <trkpt lat="47.57752" lon="-3.01371">
        <ele>1.1</ele>
        <time>2016-08-26T16:43:31Z</time>
      </trkpt>
      <trkpt lat="47.57787" lon="-3.01374">
        <ele>0.62</ele>
        <time>2016-08-26T16:43:51Z</time>
      </trkpt>
      <trkpt lat="47.57817" lon="-3.01375">
        <ele>1.58</ele>
        <time>2016-08-26T16:44:10Z</time>
      </trkpt>
      <trkpt lat="47.57846" lon="-3.01379">
        <ele>1.58</ele>
        <time>2016-08-26T16:44:28Z</time>
      </trkpt>
      <trkpt lat="47.57877" lon="-3.01393">
        <ele>2.06</ele>
        <time>2016-08-26T16:44:47Z</time>
      </trkpt>
      <trkpt lat="47.57909" lon="-3.01424">
        <ele>1.1</ele>
        <time>2016-08-26T16:45:10Z</time>
      </trkpt>
      <trkpt lat="47.57945" lon="-3.01455">
        <ele>1.1</ele>
        <time>2016-08-26T16:45:34Z</time>
      </trkpt>
      <trkpt lat="47.57968" lon="-3.01468">
        <ele>0.14</ele>
        <time>2016-08-26T16:45:49Z</time>
      </trkpt>
      <trkpt lat="47.57989" lon="-3.01482">
        <ele>3.5</ele>
        <time>2016-08-26T16:46:04Z</time>
      </trkpt>
      <trkpt lat="47.58016" lon="-3.01499">
        <ele>2.06</ele>
        <time>2016-08-26T16:46:20Z</time>
      </trkpt>
      <trkpt lat="47.58041" lon="-3.01518">
        <ele>0.14</ele>
        <time>2016-08-26T16:46:34Z</time>
      </trkpt>
      <trkpt lat="47.5807" lon="-3.01544">
        <ele>0.62</ele>
        <time>2016-08-26T16:46:51Z</time>
      </trkpt>
      <trkpt lat="47.58118" lon="-3.01594">
        <ele>1.58</ele>
        <time>2016-08-26T16:47:20Z</time>
      </trkpt>
      <trkpt lat="47.58153" lon="-3.01641">
        <ele>1.1</ele>
        <time>2016-08-26T16:47:43Z</time>
      </trkpt>
      <trkpt lat="47.58183" lon="-3.01677">
        <ele>1.1</ele>
        <time>2016-08-26T16:48:03Z</time>
      </trkpt>
      <trkpt lat="47.58214" lon="-3.01715">
        <ele>-0.34</ele>
        <time>2016-08-26T16:48:25Z</time>
      </trkpt>
      <trkpt lat="47.58239" lon="-3.01752">
        <ele>0.62</ele>
        <time>2016-08-26T16:48:48Z</time>
      </trkpt>
      <trkpt lat="47.58255" lon="-3.01781">
        <ele>1.1</ele>
        <time>2016-08-26T16:49:07Z</time>
      </trkpt>
      <trkpt lat="47.58269" lon="-3.01784">
        <ele>0.62</ele>
        <time>2016-08-26T16:49:20Z</time>
      </trkpt>
      <trkpt lat="47.58272" lon="-3.01782">
        <ele>2.06</ele>
        <time>2016-08-26T16:49:23Z</time>
      </trkpt>
      <trkpt lat="47.5828" lon="-3.01768">
        <ele>2.06</ele>
        <time>2016-08-26T16:49:35Z</time>
      </trkpt>
      <trkpt lat="47.58286" lon="-3.01749">
        <ele>1.1</ele>
        <time>2016-08-26T16:49:54Z</time>
      </trkpt>
      <trkpt lat="47.58296" lon="-3.01743">
        <ele>0.62</ele>
        <time>2016-08-26T16:50:10Z</time>
      </trkpt>
      <trkpt lat="47.58298" lon="-3.01745">
        <ele>0.62</ele>
        <time>2016-08-26T16:50:13Z</time>
      </trkpt>
      <trkpt lat="47.58301" lon="-3.01755">
        <ele>0.62</ele>
        <time>2016-08-26T16:50:22Z</time>
      </trkpt>
      <trkpt lat="47.583" lon="-3.01759">
        <ele>1.1</ele>
        <time>2016-08-26T16:50:25Z</time>
      </trkpt>
      <trkpt lat="47.58297" lon="-3.01777">
        <ele>2.54</ele>
        <time>2016-08-26T16:50:38Z</time>
      </trkpt>
      <trkpt lat="47.58299" lon="-3.01807">
        <ele>1.58</ele>
        <time>2016-08-26T16:50:56Z</time>
      </trkpt>
      <trkpt lat="47.58299" lon="-3.01808">
        <ele>1.58</ele>
        <time>2016-08-26T16:50:57Z</time>
      </trkpt>
      <trkpt lat="47.58301" lon="-3.01814">
        <ele>1.58</ele>
        <time>2016-08-26T16:51:01Z</time>
      </trkpt>
      <trkpt lat="47.58306" lon="-3.01845">
        <ele>2.06</ele>
        <time>2016-08-26T16:51:20Z</time>
      </trkpt>
      <trkpt lat="47.58311" lon="-3.01871">
        <ele>1.58</ele>
        <time>2016-08-26T16:51:36Z</time>
      </trkpt>
      <trkpt lat="47.58314" lon="-3.01884">
        <ele>1.1</ele>
        <time>2016-08-26T16:51:44Z</time>
      </trkpt>
      <trkpt lat="47.58322" lon="-3.01923">
        <ele>1.1</ele>
        <time>2016-08-26T16:52:10Z</time>
      </trkpt>
      <trkpt lat="47.58329" lon="-3.01951">
        <ele>1.1</ele>
        <time>2016-08-26T16:52:26Z</time>
      </trkpt>
      <trkpt lat="47.58333" lon="-3.01967">
        <ele>1.58</ele>
        <time>2016-08-26T16:52:35Z</time>
      </trkpt>
      <trkpt lat="47.58339" lon="-3.02">
        <ele>3.5</ele>
        <time>2016-08-26T16:52:57Z</time>
      </trkpt>
      <trkpt lat="47.58343" lon="-3.02032">
        <ele>3.98</ele>
        <time>2016-08-26T16:53:17Z</time>
      </trkpt>
      <trkpt lat="47.58347" lon="-3.02059">
        <ele>-0.34</ele>
        <time>2016-08-26T16:53:33Z</time>
      </trkpt>
      <trkpt lat="47.58357" lon="-3.02087">
        <ele>-0.34</ele>
        <time>2016-08-26T16:53:53Z</time>
      </trkpt>
      <trkpt lat="47.58377" lon="-3.02117">
        <ele>0.14</ele>
        <time>2016-08-26T16:54:20Z</time>
      </trkpt>
      <trkpt lat="47.5839" lon="-3.02141">
        <ele>0.62</ele>
        <time>2016-08-26T16:54:40Z</time>
      </trkpt>
      <trkpt lat="47.58401" lon="-3.02159">
        <ele>2.06</ele>
        <time>2016-08-26T16:54:56Z</time>
      </trkpt>
      <trkpt lat="47.5841" lon="-3.02167">
        <ele>2.06</ele>
        <time>2016-08-26T16:55:06Z</time>
      </trkpt>
      <trkpt lat="47.58425" lon="-3.02181">
        <ele>1.1</ele>
        <time>2016-08-26T16:55:23Z</time>
      </trkpt>
      <trkpt lat="47.58441" lon="-3.022">
        <ele>1.1</ele>
        <time>2016-08-26T16:55:42Z</time>
      </trkpt>
      <trkpt lat="47.58466" lon="-3.02222">
        <ele>1.58</ele>
        <time>2016-08-26T16:56:01Z</time>
      </trkpt>
      <trkpt lat="47.58496" lon="-3.02243">
        <ele>1.58</ele>
        <time>2016-08-26T16:56:21Z</time>
      </trkpt>
      <trkpt lat="47.58524" lon="-3.02267">
        <ele>1.1</ele>
        <time>2016-08-26T16:56:41Z</time>
      </trkpt>
      <trkpt lat="47.5853" lon="-3.02272">
        <ele>1.1</ele>
        <time>2016-08-26T16:56:45Z</time>
      </trkpt>
      <trkpt lat="47.5854" lon="-3.02276">
        <ele>1.58</ele>
        <time>2016-08-26T16:56:51Z</time>
      </trkpt>
      <trkpt lat="47.58543" lon="-3.02278">
        <ele>1.58</ele>
        <time>2016-08-26T16:56:53Z</time>
      </trkpt>
      <trkpt lat="47.58571" lon="-3.02292">
        <ele>1.58</ele>
        <time>2016-08-26T16:57:10Z</time>
      </trkpt>
      <trkpt lat="47.58594" lon="-3.02307">
        <ele>0.62</ele>
        <time>2016-08-26T16:57:25Z</time>
      </trkpt>
      <trkpt lat="47.58624" lon="-3.02327">
        <ele>0.14</ele>
        <time>2016-08-26T16:57:46Z</time>
      </trkpt>
      <trkpt lat="47.58655" lon="-3.02343">
        <ele>1.1</ele>
        <time>2016-08-26T16:58:06Z</time>
      </trkpt>
      <trkpt lat="47.58685" lon="-3.02361">
        <ele>1.58</ele>
        <time>2016-08-26T16:58:26Z</time>
      </trkpt>
      <trkpt lat="47.58716" lon="-3.02378">
        <ele>-0.34</ele>
        <time>2016-08-26T16:58:47Z</time>
      </trkpt>
      <trkpt lat="47.58744" lon="-3.02382">
        <ele>-0.82</ele>
        <time>2016-08-26T16:59:04Z</time>
      </trkpt>
      <trkpt lat="47.58776" lon="-3.02394">
        <ele>1.1</ele>
        <time>2016-08-26T16:59:26Z</time>
      </trkpt>
      <trkpt lat="47.58793" lon="-3.02408">
        <ele>1.58</ele>
        <time>2016-08-26T16:59:41Z</time>
      </trkpt>
      <trkpt lat="47.58798" lon="-3.02412">
        <ele>2.54</ele>
        <time>2016-08-26T16:59:45Z</time>
      </trkpt>
      <trkpt lat="47.58824" lon="-3.02433">
        <ele>3.5</ele>
        <time>2016-08-26T17:00:08Z</time>
      </trkpt>
      <trkpt lat="47.58828" lon="-3.02435">
        <ele>3.02</ele>
        <time>2016-08-26T17:00:12Z</time>
      </trkpt>
      <trkpt lat="47.58847" lon="-3.02446">
        <ele>2.54</ele>
        <time>2016-08-26T17:00:29Z</time>
      </trkpt>
      <trkpt lat="47.58864" lon="-3.02456">
        <ele>2.54</ele>
        <time>2016-08-26T17:00:45Z</time>
      </trkpt>
      <trkpt lat="47.58888" lon="-3.02472">
        <ele>2.06</ele>
        <time>2016-08-26T17:01:08Z</time>
      </trkpt>
      <trkpt lat="47.58905" lon="-3.02486">
        <ele>2.06</ele>
        <time>2016-08-26T17:01:25Z</time>
      </trkpt>
      <trkpt lat="47.58922" lon="-3.02503">
        <ele>1.1</ele>
        <time>2016-08-26T17:01:42Z</time>
      </trkpt>
      <trkpt lat="47.5894" lon="-3.02521">
        <ele>1.58</ele>
        <time>2016-08-26T17:02:01Z</time>
      </trkpt>
      <trkpt lat="47.58949" lon="-3.0253">
        <ele>2.06</ele>
        <time>2016-08-26T17:02:10Z</time>
      </trkpt>
      <trkpt lat="47.58972" lon="-3.02552">
        <ele>3.5</ele>
        <time>2016-08-26T17:02:33Z</time>
      </trkpt>
      <trkpt lat="47.58986" lon="-3.02566">
        <ele>4.46</ele>
        <time>2016-08-26T17:02:48Z</time>
      </trkpt>
      <trkpt lat="47.58999" lon="-3.02575">
        <ele>3.5</ele>
        <time>2016-08-26T17:02:59Z</time>
      </trkpt>
      <trkpt lat="47.59011" lon="-3.0259">
        <ele>3.02</ele>
        <time>2016-08-26T17:03:13Z</time>
      </trkpt>
      <trkpt lat="47.59023" lon="-3.02609">
        <ele>3.02</ele>
        <time>2016-08-26T17:03:32Z</time>
      </trkpt>
      <trkpt lat="47.59035" lon="-3.02619">
        <ele>3.02</ele>
        <time>2016-08-26T17:03:50Z</time>
      </trkpt>
      <trkpt lat="47.59051" lon="-3.02627">
        <ele>2.54</ele>
        <time>2016-08-26T17:04:11Z</time>
      </trkpt>
      <trkpt lat="47.59064" lon="-3.02609">
        <ele>4.46</ele>
        <time>2016-08-26T17:04:36Z</time>
      </trkpt>
      <trkpt lat="47.59074" lon="-3.02583">
        <ele>3.02</ele>
        <time>2016-08-26T17:05:01Z</time>
      </trkpt>
      <trkpt lat="47.59085" lon="-3.02559">
        <ele>3.98</ele>
        <time>2016-08-26T17:05:24Z</time>
      </trkpt>
      <trkpt lat="47.59097" lon="-3.02535">
        <ele>4.46</ele>
        <time>2016-08-26T17:05:47Z</time>
      </trkpt>
      <trkpt lat="47.59102" lon="-3.02527">
        <ele>3.98</ele>
        <time>2016-08-26T17:06:04Z</time>
      </trkpt>
      <trkpt lat="47.59101" lon="-3.0253">
        <ele>3.5</ele>
        <time>2016-08-26T17:06:23Z</time>
      </trkpt>
      <trkpt lat="47.59098" lon="-3.02547">
        <ele>3.02</ele>
        <time>2016-08-26T17:06:36Z</time>
      </trkpt>
      <trkpt lat="47.59092" lon="-3.02563">
        <ele>3.5</ele>
        <time>2016-08-26T17:06:49Z</time>
      </trkpt>
      <trkpt lat="47.59093" lon="-3.0256">
        <ele>3.5</ele>
        <time>2016-08-26T17:07:04Z</time>
      </trkpt>
      <trkpt lat="47.59097" lon="-3.02541">
        <ele>3.5</ele>
        <time>2016-08-26T17:07:24Z</time>
      </trkpt>
      <trkpt lat="47.59106" lon="-3.02539">
        <ele>5.91</ele>
        <time>2016-08-26T17:07:41Z</time>
      </trkpt>
      <trkpt lat="47.5911" lon="-3.02543">
        <ele>6.39</ele>
        <time>2016-08-26T17:08:00Z</time>
      </trkpt>
      <trkpt lat="47.59115" lon="-3.02538">
        <ele>4.94</ele>
        <time>2016-08-26T17:08:11Z</time>
      </trkpt>
      <trkpt lat="47.59116" lon="-3.0254">
        <ele>4.94</ele>
        <time>2016-08-26T17:08:13Z</time>
      </trkpt>
      <trkpt lat="47.59115" lon="-3.02538">
        <ele>4.94</ele>
        <time>2016-08-26T17:08:23Z</time>
      </trkpt>
      <trkpt lat="47.59115" lon="-3.02539">
        <ele>4.94</ele>
        <time>2016-08-26T17:08:25Z</time>
      </trkpt>
      <trkpt lat="47.59118" lon="-3.02543">
        <ele>3.02</ele>
        <time>2016-08-26T17:08:35Z</time>
      </trkpt>
      <trkpt lat="47.59117" lon="-3.02544">
        <ele>2.54</ele>
        <time>2016-08-26T17:08:46Z</time>
      </trkpt>
      <trkpt lat="47.59115" lon="-3.02543">
        <ele>3.02</ele>
        <time>2016-08-26T17:08:57Z</time>
      </trkpt>
      <trkpt lat="47.59114" lon="-3.02543">
        <ele>3.5</ele>
        <time>2016-08-26T17:09:01Z</time>
      </trkpt>
    </trkseg>
  </trk>
</gpx>